# Wetter Temperatur Luftdruck Luftfeuchtigkeit Sichtweite Windgeschwindigkeit Windrichtung Zeit
1 Clouds 5 1012 65 10000 4.1 290 21:37 02.04.2020
2 Clouds 5 1012 56 10000 5.7 300 21:19 02.04.2020
3 Clouds 6 1012 56 10000 5.7 300 20:54 02.04.2020
4 Clouds 6 1012 56 10000 5.7 300 20:54 02.04.2020
5 Clouds 6 1012 56 10000 5.7 300 20:36 02.04.2020
6 Clouds 6 1012 56 10000 6.7 300 20:18 02.04.2020
7 Clouds 7 1011 56 10000 7.7 300 19:42 02.04.2020
8 Clouds 7 1011 56 10000 7.2 280 19:20 02.04.2020
9 Clouds 7 1011 56 10000 8.7 280 18:56 02.04.2020
10 Clouds 7 1011 56 10000 8.7 280 18:38 02.04.2020
11 Clouds 8 1011 58 10000 8.2 280 18:18 02.04.2020
12 Clouds 7 1011 58 10000 8.2 290 17:43 02.04.2020
13 Clouds 7 1011 58 10000 8.2 290 17:24 02.04.2020
14 Clouds 8 1011 58 10000 9.8 290 16:58 02.04.2020
15 Clouds 8 1011 65 10000 8.7 280 16:40 02.04.2020
16 Clouds 8 1010 65 10000 8.2 300 16:22 02.04.2020
17 Clouds 8 1010 65 10000 8.2 300 15:57 02.04.2020
18 Clouds 9 1010 61 10000 6.7 300 15:39 02.04.2020
19 Clouds 8 1010 61 10000 8.7 290 15:18 02.04.2020
20 Clouds 9 1010 61 10000 8.7 290 14:57 02.04.2020
21 Clouds 9 1010 59 10000 8.7 300 14:38 02.04.2020
22 Clouds 9 1010 61 10000 10.3 300 14:18 02.04.2020
23 Clouds 9 1010 61 10000 10.3 300 14:18 02.04.2020
24 Clouds 9 1009 65 10000 7.2 290 13:54 02.04.2020
25 Clouds 9 1009 65 10000 7.2 290 13:54 02.04.2020
26 Clouds 9 1009 65 10000 7.2 290 13:36 02.04.2020
27 Rain 9 1009 75 10000 8.2 280 13:18 02.04.2020
28 Clouds 8 1009 70 10000 7.7 290 12:44 02.04.2020
29 Clouds 8 1009 70 10000 8.7 270 12:19 02.04.2020
30 Clouds 9 1009 70 10000 8.7 270 11:57 02.04.2020
31 Clouds 8 1009 75 10000 8.2 260 11:39 02.04.2020
32 Clouds 8 1009 75 10000 6.7 260 11:20 02.04.2020
33 Clouds 8 1009 75 10000 6.7 260 10:56 02.04.2020
34 Clouds 8 1009 75 10000 5.1 260 10:37 02.04.2020
35 Clouds 9 1009 75 10000 8.7 240 10:19 02.04.2020
36 Clouds 9 1009 75 10000 8.7 240 10:19 02.04.2020
37 Clouds 8 1009 75 10000 8.7 240 09:58 02.04.2020
38 Clouds 8 1009 81 10000 9.3 240 09:39 02.04.2020
39 Clouds 8 1009 81 10000 8.2 250 09:19 02.04.2020
40 Rain 8 1009 93 6000 9.3 250 08:47 02.04.2020
41 Rain 8 1009 93 6000 9.3 250 08:27 02.04.2020
42 Rain 8 1009 93 9000 7.2 250 07:45 02.04.2020
43 Rain 8 1010 93 8000 7.7 260 07:21 02.04.2020
44 Rain 8 1010 87 10000 7.7 240 06:59 02.04.2020
45 Clouds 7 1011 81 10000 5.7 230 06:22 02.04.2020
46 Clouds 7 1012 87 10000 7.2 230 05:45 02.04.2020
47 Clouds 7 1013 87 10000 3.6 220 04:46 02.04.2020
48 Clouds 7 1016 75 10000 7.2 260 01:54 02.04.2020
49 Clouds 7 1016 75 10000 6.2 250 00:51 02.04.2020
50 Clouds 8 1017 81 10000 7.2 260 00:29 02.04.2020
51 Clouds 8 1017 81 10000 7.2 260 23:57 01.04.2020
52 Clouds 8 1017 81 10000 6.2 260 23:37 01.04.2020
53 Clouds 8 1017 87 10000 6.2 250 23:18 01.04.2020
54 Clouds 8 1017 87 10000 5.1 240 22:41 01.04.2020
55 Clouds 8 1017 93 10000 4.6 240 22:22 01.04.2020
56 Clouds 8 1017 93 10000 4.6 240 21:58 01.04.2020
57 Clouds 8 1017 93 10000 4.6 240 21:58 01.04.2020
58 Clouds 8 1017 87 10000 4.6 250 21:39 01.04.2020
59 Clouds 8 1018 93 10000 5.7 240 21:19 01.04.2020
60 Clouds 8 1018 87 10000 5.1 240 20:55 01.04.2020
61 Clouds 8 1018 93 10000 5.7 240 20:55 01.04.2020
62 Clouds 9 1018 87 10000 5.1 240 20:37 01.04.2020
63 Clouds 9 1018 87 10000 6.2 240 20:18 01.04.2020
64 Clouds 9 1018 87 10000 6.2 240 20:18 01.04.2020
65 Clouds 9 1018 87 10000 6.2 240 19:43 01.04.2020
66 Clouds 9 1019 81 10000 6.2 240 19:22 01.04.2020
67 Clouds 9 1019 81 10000 6.2 240 18:59 01.04.2020
68 Clouds 9 1019 81 10000 7.7 250 18:59 01.04.2020
69 Clouds 9 1019 81 10000 6.2 240 18:59 01.04.2020
70 Clouds 9 1019 81 10000 7.7 250 18:40 01.04.2020
71 Clouds 9 1019 81 10000 7.7 260 18:21 01.04.2020
72 Clouds 9 1020 81 10000 6.7 250 17:56 01.04.2020
73 Clouds 9 1020 81 10000 6.7 250 17:36 01.04.2020
74 Clouds 9 1020 81 10000 6.7 250 17:36 01.04.2020
75 Clouds 9 1020 76 10000 6.7 260 17:18 01.04.2020
76 Clouds 10 1020 61 10000 7.7 260 16:43 01.04.2020
77 Clouds 10 1020 61 10000 7.2 290 16:24 01.04.2020
78 Clouds 10 1020 61 10000 7.2 290 15:59 01.04.2020
79 Clouds 9 1021 66 10000 8.2 280 15:41 01.04.2020
80 Clouds 10 1021 66 10000 7.7 280 15:22 01.04.2020
81 Clouds 10 1021 66 10000 7.7 280 14:58 01.04.2020
82 Clouds 10 1021 66 10000 5.7 290 14:38 01.04.2020
83 Clouds 10 1021 66 10000 5.7 290 14:38 01.04.2020
84 Clouds 10 1021 61 10000 6.2 300 14:19 01.04.2020
85 Clouds 10 1021 61 10000 6.2 300 13:58 01.04.2020
86 Clouds 10 1022 66 10000 6.2 290 13:38 01.04.2020
87 Clouds 9 1022 70 10000 6.7 290 13:19 01.04.2020
88 Clouds 9 1022 61 10000 7.2 280 12:55 01.04.2020
89 Clouds 9 1022 61 10000 7.2 280 12:36 01.04.2020
90 Clouds 9 1022 66 10000 5.7 290 12:18 01.04.2020
91 Clouds 8 1023 70 10000 5.1 280 11:42 01.04.2020
92 Rain 8 1023 75 10000 4.6 280 11:23 01.04.2020
93 Rain 8 1023 75 10000 4.6 280 10:58 01.04.2020
94 Clouds 7 1023 70 10000 5.7 270 10:38 01.04.2020
95 Clouds 7 1023 87 10000 3.1 240 10:19 01.04.2020
96 Clouds 6 1023 87 10000 3.1 240 09:57 01.04.2020
97 Clouds 6 1024 81 10000 3.6 250 09:38 01.04.2020
98 Clouds 5 1024 80 10000 4.1 250 09:18 01.04.2020
99 Clouds 5 1024 93 10000 3.1 250 08:40 01.04.2020
100 Clouds 5 1024 86 10000 2.1 240 08:18 01.04.2020
101 Rain 5 1025 86 10000 3.1 240 07:43 01.04.2020
102 Clouds 6 1025 81 10000 3.1 260 07:21 01.04.2020
103 Clouds 5 1025 86 10000 2.6 240 06:48 01.04.2020
104 Rain 6 1026 86 9000 2.6 250 06:24 01.04.2020
105 Rain 6 1026 86 9000 2.6 250 05:56 01.04.2020
106 Clouds 6 1027 75 10000 2.1 260 04:30 01.04.2020
107 Clouds 6 1028 75 10000 2.6 250 03:30 01.04.2020
108 Clouds 7 1028 75 10000 5.1 290 02:49 01.04.2020
109 Clouds 7 1028 75 10000 5.7 300 01:57 01.04.2020
110 Clouds 7 1029 75 10000 3.6 290 01:38 01.04.2020
111 Clouds 7 1029 75 10000 3.1 290 01:18 01.04.2020
112 Clouds 7 1030 75 10000 2.1 200 00:45 01.04.2020
113 Clouds 7 1030 75 10000 3.6 280 00:19 01.04.2020
114 Clouds 7 1030 75 10000 4.1 300 23:42 31.03.2020
115 Clouds 7 1031 75 10000 4.6 300 23:23 31.03.2020
116 Clouds 7 1031 75 10000 3.6 300 22:58 31.03.2020
117 Clouds 8 1031 75 10000 3.6 300 22:37 31.03.2020
118 Clouds 8 1031 75 10000 3.6 300 22:19 31.03.2020
119 Clouds 8 1031 70 10000 5.1 300 21:55 31.03.2020
120 Clouds 8 1031 70 10000 5.1 300 21:55 31.03.2020
121 Clouds 8 1031 70 10000 5.1 300 21:55 31.03.2020
122 Clouds 8 1031 70 10000 5.1 300 21:37 31.03.2020
123 Rain 8 1031 70 10000 4.6 300 21:19 31.03.2020
124 Rain 8 1031 70 10000 4.6 300 20:54 31.03.2020
125 Clouds 9 1031 66 10000 5.7 300 20:36 31.03.2020
126 Clouds 9 1031 66 10000 5.7 300 20:36 31.03.2020
127 Clouds 9 1031 66 10000 5.7 300 20:18 31.03.2020
128 Clouds 10 1031 61 10000 6.2 300 19:41 31.03.2020
129 Clouds 10 1031 61 10000 6.2 290 19:22 31.03.2020
130 Clouds 10 1032 57 10000 6.2 290 18:55 31.03.2020
131 Clouds 10 1032 57 10000 6.2 290 18:37 31.03.2020
132 Clouds 10 1032 57 10000 6.2 290 18:18 31.03.2020
133 Clouds 10 1032 57 10000 5.7 290 17:54 31.03.2020
134 Clouds 10 1032 57 10000 5.7 290 17:36 31.03.2020
135 Clouds 10 1033 61 10000 3.6 290 17:18 31.03.2020
136 Clouds 10 1033 61 10000 6.7 290 16:38 31.03.2020
137 Clouds 11 1034 57 10000 4.6 280 16:19 31.03.2020
138 Clouds 11 1034 57 10000 4.6 280 15:57 31.03.2020
139 Clouds 10 1034 61 10000 5.1 300 15:38 31.03.2020
140 Clouds 10 1034 57 10000 5.1 300 15:19 31.03.2020
141 Clouds 10 1034 53 10000 3.6 300 14:56 31.03.2020
142 Clouds 10 1034 53 10000 3.6 300 14:56 31.03.2020
143 Clouds 10 1034 53 10000 3.6 300 14:38 31.03.2020
144 Clouds 10 1035 57 10000 3.6 270 14:18 31.03.2020
145 Clouds 10 1035 57 10000 3.6 270 13:42 31.03.2020
146 Clouds 9 1035 57 10000 2.6 290 13:19 31.03.2020
147 Clouds 9 1036 65 10000 3.1 300 12:55 31.03.2020
148 Clouds 9 1036 65 10000 3.1 300 12:37 31.03.2020
149 Clouds 8 1036 65 10000 3.1 290 12:18 31.03.2020
150 Clouds 8 1036 65 10000 3.1 290 11:38 31.03.2020
151 Clouds 7 1037 75 10000 2.6 300 11:19 31.03.2020
152 Clouds 7 1037 75 10000 2.6 300 10:57 31.03.2020
153 Clouds 7 1037 81 10000 3.1 280 10:39 31.03.2020
154 Clouds 6 1037 87 10000 2.6 280 10:20 31.03.2020
155 Clouds 6 1037 87 10000 2.6 280 09:55 31.03.2020
156 Clouds 6 1037 93 10000 1.5 260 09:37 31.03.2020
157 Clouds 5 1037 86 10000 2.1 240 09:19 31.03.2020
158 Clouds 5 1037 93 10000 2.1 240 08:54 31.03.2020
159 Clouds 5 1037 93 10000 2.1 240 08:36 31.03.2020
160 Clouds 5 1037 93 10000 1.5 230 08:18 31.03.2020
161 Clouds 5 1037 93 10000 1 300 07:43 31.03.2020
162 Clouds 5 1037 93 10000 1 0 07:23 31.03.2020
163 Clouds 5 1037 86 10000 1 270 06:55 31.03.2020
164 Clouds 5 1037 86 10000 1 270 06:36 31.03.2020
165 Clouds 5 1037 86 10000 1 0 05:42 31.03.2020
166 Clouds 6 1037 86 10000 1.5 280 05:20 31.03.2020
167 Clouds 6 1038 80 10000 2.1 270 02:40 31.03.2020
168 Clouds 6 1038 80 10000 1 0 01:47 31.03.2020
169 Clouds 6 1038 75 10000 1 0 01:19 31.03.2020
170 Clouds 6 1038 75 10000 2.1 330 00:42 31.03.2020
171 Clouds 6 1038 75 10000 3.1 330 00:19 31.03.2020
172 Clouds 6 1038 80 10000 2.1 320 23:39 30.03.2020
173 Clouds 6 1038 80 10000 1.5 340 23:20 30.03.2020
174 Clouds 6 1038 80 10000 1.5 340 22:57 30.03.2020
175 Clouds 6 1038 73 10000 1 0 22:38 30.03.2020
176 Clouds 7 1038 75 10000 1 0 22:18 30.03.2020
177 Clouds 7 1038 75 10000 1 0 21:57 30.03.2020
178 Clouds 8 1037 70 10000 2.1 70 21:37 30.03.2020
179 Clouds 8 1037 65 10000 3.1 10 21:19 30.03.2020
180 Clouds 9 1037 66 10000 2.6 360 20:56 30.03.2020
181 Clouds 9 1037 66 10000 2.6 360 20:37 30.03.2020
182 Rain 10 1037 61 10000 2.1 320 20:19 30.03.2020
183 Clouds 10 1037 53 10000 2.6 320 19:41 30.03.2020
184 Clouds 10 1037 53 10000 2.6 320 19:41 30.03.2020
185 Clouds 11 1037 53 10000 3.6 300 19:22 30.03.2020
186 Clouds 11 1037 50 10000 3.1 360 18:57 30.03.2020
187 Clouds 11 1037 50 10000 3.1 360 18:39 30.03.2020
188 Clouds 11 1037 50 10000 3.1 350 18:21 30.03.2020
189 Clouds 11 1037 53 10000 2.6 320 17:57 30.03.2020
190 Clouds 11 1037 53 10000 2.6 320 17:38 30.03.2020
191 Clouds 12 1037 46 10000 2.1 330 17:19 30.03.2020
192 Clouds 12 1037 46 10000 2.1 330 16:56 30.03.2020
193 Clouds 11 1038 50 10000 2.6 20 16:37 30.03.2020
194 Clouds 11 1038 53 10000 3.1 360 16:19 30.03.2020
195 Clouds 11 1038 53 10000 3.1 360 15:54 30.03.2020
196 Clouds 11 1038 53 10000 3.1 360 15:36 30.03.2020
197 Clouds 11 1039 53 10000 2.6 10 15:18 30.03.2020
198 Clouds 11 1039 57 10000 3.1 310 14:39 30.03.2020
199 Clouds 11 1039 61 10000 3.1 300 14:19 30.03.2020
200 Clouds 11 1039 61 10000 3.1 300 13:59 30.03.2020
201 Clouds 10 1039 61 10000 3.6 290 13:40 30.03.2020
202 Clouds 10 1039 61 10000 4.1 290 13:21 30.03.2020
203 Clouds 10 1040 66 10000 3.6 290 12:56 30.03.2020
204 Clouds 10 1040 66 10000 3.6 290 12:37 30.03.2020
205 Clouds 9 1040 66 10000 4.1 300 12:19 30.03.2020
206 Clouds 9 1040 66 10000 4.6 300 11:55 30.03.2020
207 Clouds 8 1040 66 10000 4.6 300 11:37 30.03.2020
208 Clouds 8 1040 75 10000 3.6 290 11:18 30.03.2020
209 Clouds 7 1041 81 10000 3.1 290 10:39 30.03.2020
210 Clouds 7 1041 81 10000 2.1 280 10:21 30.03.2020
211 Clouds 5 1040 86 10000 3.1 300 09:54 30.03.2020
212 Clouds 5 1040 86 10000 3.1 300 09:36 30.03.2020
213 Clouds 3 1040 93 10000 3.1 280 09:18 30.03.2020
214 Clouds 2 1041 93 10000 1 0 08:40 30.03.2020
215 Clouds 2 1041 93 10000 1 0 08:21 30.03.2020
216 Clouds 2 1041 93 10000 2.1 240 07:48 30.03.2020
217 Clouds 2 1041 86 10000 2.6 260 07:25 30.03.2020
218 Clouds 2 1041 86 10000 2.6 260 06:47 30.03.2020
219 Clouds 3 1041 86 10000 3.1 260 06:29 30.03.2020
220 Clouds 3 1041 93 10000 3.1 280 05:46 30.03.2020
221 Clouds 3 1042 93 10000 3.1 230 04:40 30.03.2020
222 Clouds 2 1042 89 10000 2.6 230 04:20 30.03.2020
223 Clouds 3 1043 86 10000 3.6 250 02:52 30.03.2020
224 Clouds 4 1043 80 10000 3.6 260 01:58 30.03.2020
225 Clouds 5 1044 80 10000 4.1 260 01:18 30.03.2020
226 Clouds 4 1044 86 10000 3.1 240 00:29 30.03.2020
227 Clouds 5 1045 75 10000 3.1 270 23:57 29.03.2020
228 Clouds 5 1045 75 10000 3.1 270 23:57 29.03.2020
229 Clouds 5 1045 75 10000 3.1 270 23:39 29.03.2020
230 Clouds 5 1045 82 10000 4.1 270 23:20 29.03.2020
231 Clouds 5 1045 82 10000 4.1 270 22:55 29.03.2020
232 Clouds 6 1045 82 10000 3.6 260 22:55 29.03.2020
233 Clouds 6 1045 82 10000 3.6 260 22:37 29.03.2020
234 Clouds 6 1045 82 10000 3.6 260 22:37 29.03.2020
235 Clouds 6 1045 82 10000 4.1 290 22:18 29.03.2020
236 Clouds 6 1046 60 10000 3.1 270 21:38 29.03.2020
237 Clouds 6 1046 60 10000 3.1 270 21:20 29.03.2020
238 Clear 7 1046 56 10000 5.7 310 20:56 29.03.2020
239 Clear 7 1046 56 10000 5.7 310 20:37 29.03.2020
240 Clear 7 1046 56 10000 5.7 310 20:37 29.03.2020
241 Clear 7 1046 49 10000 5.7 290 20:19 29.03.2020
242 Clear 7 1046 49 10000 5.7 290 20:19 29.03.2020
243 Clear 8 1046 49 10000 5.1 280 19:57 29.03.2020
244 Clear 8 1046 49 10000 5.1 280 19:57 29.03.2020
245 Clear 8 1046 49 10000 5.1 280 19:39 29.03.2020
246 Clear 8 1046 49 10000 5.1 280 19:39 29.03.2020
247 Clear 8 1046 42 10000 3.6 350 19:21 29.03.2020
248 Clear 8 1046 45 10000 4.1 310 18:57 29.03.2020
249 Clear 8 1046 45 10000 4.1 310 18:38 29.03.2020
250 Clear 8 1047 42 10000 3.6 330 18:19 29.03.2020
251 Clear 8 1047 39 10000 2.6 340 17:55 29.03.2020
252 Clear 8 1047 39 10000 2.6 340 17:37 29.03.2020
253 Clear 8 1047 39 10000 4.6 330 17:18 29.03.2020
254 Clear 8 1048 39 10000 4.1 320 16:56 29.03.2020
255 Clear 8 1048 39 10000 4.1 320 16:38 29.03.2020
256 Clear 8 1048 42 10000 4.1 360 16:18 29.03.2020
257 Clear 7 1048 45 10000 3.1 10 15:41 29.03.2020
258 Clear 7 1048 42 10000 4.1 40 15:23 29.03.2020
259 Clouds 8 1048 42 10000 4.1 40 15:23 29.03.2020
260 Clouds 7 1048 42 10000 4.1 40 14:57 29.03.2020
261 Clouds 7 1049 45 10000 3.6 340 14:39 29.03.2020
262 Clear 7 1049 42 10000 3.6 30 14:20 29.03.2020
263 Clear 7 1049 42 10000 3.6 20 13:57 29.03.2020
264 Clear 7 1049 42 10000 3.6 20 13:39 29.03.2020
265 Clear 6 1049 48 10000 3.6 30 13:19 29.03.2020
266 Clear 5 1049 48 10000 4.6 50 12:55 29.03.2020
267 Clear 5 1049 44 10000 5.7 30 12:37 29.03.2020
268 Clear 5 1049 44 10000 5.7 30 12:18 29.03.2020
269 Clear 4 1049 48 10000 5.7 360 11:40 29.03.2020
270 Clouds 4 1049 55 10000 4.6 360 11:21 29.03.2020
271 Clear 3 1049 55 10000 5.1 350 10:59 29.03.2020
272 Clear 3 1049 55 10000 5.1 350 10:38 29.03.2020
273 Clear 3 1049 55 10000 5.7 360 10:18 29.03.2020
274 Clear 3 1049 55 10000 5.7 360 10:18 29.03.2020
275 Clear 2 1049 59 10000 4.6 350 09:40 29.03.2020
276 Clear 1 1049 64 10000 4.6 340 09:19 29.03.2020
277 Clear 1 1048 59 10000 5.1 350 08:53 29.03.2020
278 Clear 2 1048 59 10000 5.1 350 08:28 29.03.2020
279 Clear 2 1048 59 10000 5.1 350 08:28 29.03.2020
280 Clear 1 1048 64 10000 5.1 340 07:58 29.03.2020
281 Clear 1 1048 64 10000 5.1 340 07:58 29.03.2020
282 Clear 1 1048 59 10000 5.1 340 07:39 29.03.2020
283 Clear 1 1048 59 10000 4.6 330 07:20 29.03.2020
284 Clear 2 1048 64 10000 2.1 340 04:59 29.03.2020
285 Clear 2 1048 64 10000 2.1 340 04:59 29.03.2020
286 Clouds 3 1047 59 10000 3.1 360 03:55 29.03.2020
287 Clouds 2 1047 59 10000 3.1 360 03:26 29.03.2020
288 Clouds 3 1047 59 10000 4.6 10 01:51 29.03.2020
289 Clouds 3 1047 59 10000 4.6 10 01:23 29.03.2020
290 Clouds 3 1047 64 10000 3.1 10 00:55 29.03.2020
291 Clouds 3 1047 64 10000 3.1 10 00:30 29.03.2020
292 Clouds 3 1046 59 10000 3.1 30 23:42 28.03.2020
293 Clouds 3 1046 64 10000 5.1 40 23:23 28.03.2020
294 Clouds 3 1045 64 10000 4.6 40 22:57 28.03.2020
295 Clouds 3 1045 64 10000 4.6 40 22:37 28.03.2020
296 Clouds 3 1045 60 10000 5.7 30 22:19 28.03.2020
297 Clouds 4 1045 64 10000 6.7 30 21:42 28.03.2020
298 Clouds 4 1044 60 10000 5.7 40 21:24 28.03.2020
299 Clouds 4 1044 60 10000 5.7 40 20:58 28.03.2020
300 Clouds 4 1044 60 10000 5.7 30 20:39 28.03.2020
301 Clouds 5 1043 56 10000 5.7 30 20:21 28.03.2020
302 Clouds 5 1043 56 10000 5.7 30 19:57 28.03.2020
303 Clouds 5 1043 52 10000 6.7 40 19:37 28.03.2020
304 Clouds 5 1043 52 10000 6.7 40 19:37 28.03.2020
305 Clouds 6 1042 52 10000 6.2 30 19:19 28.03.2020
306 Clouds 6 1042 52 10000 5.1 20 18:55 28.03.2020
307 Clouds 6 1042 52 10000 5.1 20 18:36 28.03.2020
308 Clouds 6 1041 56 10000 7.7 30 18:18 28.03.2020
309 Clouds 7 1041 48 10000 6.7 40 17:38 28.03.2020
310 Clouds 7 1041 52 10000 8.2 40 17:19 28.03.2020
311 Clouds 7 1041 52 10000 9.8 30 16:42 28.03.2020
312 Clouds 8 1040 45 10000 8.2 50 16:20 28.03.2020
313 Clouds 7 1040 49 10000 6.2 30 15:56 28.03.2020
314 Clouds 7 1040 49 10000 6.2 30 15:37 28.03.2020
315 Clouds 8 1040 49 10000 8.2 20 15:18 28.03.2020
316 Clouds 7 1040 49 10000 7.7 30 14:42 28.03.2020
317 Clouds 8 1040 52 10000 7.7 20 14:22 28.03.2020
318 Clouds 8 1040 52 10000 7.7 20 13:56 28.03.2020
319 Clouds 8 1040 52 10000 6.7 30 13:37 28.03.2020
320 Clouds 8 1040 49 10000 8.2 30 13:18 28.03.2020
321 Clouds 8 1040 49 10000 8.2 30 13:18 28.03.2020
322 Clouds 8 1040 52 10000 6.7 20 12:38 28.03.2020
323 Clouds 8 1039 57 10000 6.7 30 12:19 28.03.2020
324 Clouds 7 1039 56 10000 7.7 40 11:42 28.03.2020
325 Clouds 8 1039 69 10000 4.6 30 11:21 28.03.2020
326 Clouds 8 1039 61 10000 5.7 10 10:44 28.03.2020
327 Clouds 7 1038 65 10000 2.1 20 10:25 28.03.2020
328 Clouds 7 1038 65 10000 2.1 20 09:59 28.03.2020
329 Clouds 7 1038 70 10000 2.6 350 09:40 28.03.2020
330 Clouds 5 1038 80 10000 4.1 350 09:21 28.03.2020
331 Clouds 4 1037 80 10000 4.1 350 08:43 28.03.2020
332 Clouds 4 1037 80 10000 4.1 350 08:24 28.03.2020
333 Clouds 2 1037 100 10000 1 0 07:53 28.03.2020
334 Clouds 2 1037 100 10000 1 0 07:35 28.03.2020
335 Clouds 1 1036 100 10000 1.5 0 06:52 28.03.2020
336 Clouds 1 1036 85 10000 1 190 06:23 28.03.2020
337 Clouds 2 1036 85 10000 1 270 05:26 28.03.2020
338 Clouds 2 1036 87 10000 1.5 250 04:53 28.03.2020
339 Clouds 2 1036 87 10000 1.5 250 04:35 28.03.2020
340 Clouds 2 1035 87 10000 1.5 210 02:50 28.03.2020
341 Rain 3 1035 85 10000 1 0 01:47 28.03.2020
342 Clouds 3 1035 86 10000 0.5 30 01:23 28.03.2020
343 Rain 3 1035 86 10000 1 30 00:47 28.03.2020
344 Rain 5 1035 75 10000 1 20 00:21 28.03.2020
345 Rain 5 1035 75 10000 2.1 70 23:43 27.03.2020
346 Rain 5 1034 80 10000 3.1 50 23:25 27.03.2020
347 Clouds 6 1034 75 10000 2.6 70 22:57 27.03.2020
348 Clouds 6 1034 75 10000 2.6 70 22:39 27.03.2020
349 Clouds 6 1034 81 10000 1.5 40 22:20 27.03.2020
350 Clouds 6 1034 81 10000 1.5 40 21:56 27.03.2020
351 Clouds 6 1034 75 10000 2.1 60 21:38 27.03.2020
352 Clouds 6 1034 75 10000 2.6 60 21:20 27.03.2020
353 Clouds 7 1033 75 10000 3.1 80 20:43 27.03.2020
354 Clouds 7 1033 75 10000 4.1 70 20:22 27.03.2020
355 Clouds 7 1033 75 10000 4.1 70 19:59 27.03.2020
356 Clouds 7 1032 75 10000 5.1 70 19:41 27.03.2020
357 Clouds 7 1032 81 10000 4.6 70 19:22 27.03.2020
358 Clouds 7 1032 81 10000 4.6 70 18:56 27.03.2020
359 Clouds 7 1032 81 10000 4.6 80 18:38 27.03.2020
360 Clouds 7 1032 87 10000 6.7 90 18:19 27.03.2020
361 Clouds 7 1032 81 10000 6.2 90 17:40 27.03.2020
362 Clouds 7 1032 81 10000 5.7 90 17:20 27.03.2020
363 Clouds 7 1031 87 10000 5.1 60 16:54 27.03.2020
364 Clouds 7 1031 87 10000 5.1 60 16:36 27.03.2020
365 Clouds 7 1031 87 10000 5.1 60 16:36 27.03.2020
366 Clouds 7 1031 87 10000 5.7 70 16:18 27.03.2020
367 Clouds 8 1031 87 10000 5.1 60 15:41 27.03.2020
368 Clouds 8 1031 87 10000 5.7 60 15:22 27.03.2020
369 Clouds 8 1031 87 10000 5.7 60 14:46 27.03.2020
370 Rain 8 1031 83 0 3.58 93 14:25 27.03.2020
371 Clouds 8 1031 87 10000 5.1 70 13:56 27.03.2020
372 Clouds 8 1031 87 10000 6.2 70 13:37 27.03.2020
373 Clouds 8 1031 93 10000 4.1 60 13:18 27.03.2020
374 Clouds 8 1031 93 10000 4.6 60 12:45 27.03.2020
375 Clouds 8 1030 93 10000 5.1 60 12:20 27.03.2020
376 Clouds 8 1030 87 10000 5.1 70 11:59 27.03.2020
377 Clouds 8 1030 87 10000 4.1 60 11:41 27.03.2020
378 Clouds 8 1030 87 10000 5.1 70 11:41 27.03.2020
379 Clouds 8 1030 87 10000 4.1 60 11:22 27.03.2020
380 Clouds 8 1030 87 10000 2.6 60 10:54 27.03.2020
381 Clouds 8 1030 87 10000 2.6 60 10:54 27.03.2020
382 Clouds 8 1030 87 10000 2.6 60 10:36 27.03.2020
383 Clouds 8 1030 87 10000 1.5 60 10:18 27.03.2020
384 Clouds 8 1029 87 10000 1.5 70 09:55 27.03.2020
385 Clouds 8 1029 87 10000 1.5 70 09:36 27.03.2020
386 Clouds 7 1029 93 10000 1 60 09:18 27.03.2020
387 Clouds 7 1029 93 10000 1.5 0 08:54 27.03.2020
388 Clouds 7 1029 93 10000 1.5 0 08:36 27.03.2020
389 Clouds 7 1029 93 10000 1 0 08:18 27.03.2020
390 Clouds 7 1028 93 10000 0.5 340 07:43 27.03.2020
391 Clouds 7 1028 93 10000 1 20 07:21 27.03.2020
392 Clouds 7 1028 93 10000 2.6 80 06:41 27.03.2020
393 Clouds 7 1028 93 10000 2.6 60 06:18 27.03.2020
394 Clouds 7 1028 93 10000 2.6 70 03:42 27.03.2020
395 Clouds 7 1028 93 10000 3.6 70 02:19 27.03.2020
396 Clouds 7 1028 93 9000 3.6 60 01:19 27.03.2020
397 Clouds 7 1028 100 6000 3.6 50 00:43 27.03.2020
398 Mist 7 1028 100 5000 3.1 50 00:19 27.03.2020
399 Mist 7 1028 100 5000 3.1 40 23:40 26.03.2020
400 Haze 7 1028 100 5000 3.1 50 23:18 26.03.2020
401 Clouds 7 1028 100 6000 4.1 70 22:57 26.03.2020
402 Clouds 7 1028 100 6000 4.1 70 22:36 26.03.2020
403 Clouds 7 1028 100 9000 4.1 70 22:18 26.03.2020
404 Clouds 7 1028 100 9000 4.1 70 22:18 26.03.2020
405 Clouds 7 1028 100 10000 4.1 70 21:40 26.03.2020
406 Clouds 8 1028 93 10000 4.6 70 21:21 26.03.2020
407 Clouds 8 1028 93 10000 4.6 70 20:59 26.03.2020
408 Clouds 8 1028 93 9000 4.1 80 20:39 26.03.2020
409 Clouds 8 1028 93 9000 4.1 70 20:21 26.03.2020
410 Clouds 8 1027 93 10000 3.6 60 19:58 26.03.2020
411 Clouds 8 1027 93 10000 3.6 60 19:40 26.03.2020
412 Clouds 8 1027 93 10000 4.1 60 19:21 26.03.2020
413 Clouds 8 1027 93 10000 4.1 60 18:58 26.03.2020
414 Clouds 8 1027 93 10000 4.6 60 18:40 26.03.2020
415 Clouds 8 1027 93 10000 4.6 50 18:21 26.03.2020
416 Clouds 8 1027 93 10000 4.6 40 17:44 26.03.2020
417 Clouds 8 1027 93 10000 4.6 40 17:44 26.03.2020
418 Clouds 8 1027 93 10000 5.1 70 17:20 26.03.2020
419 Clouds 8 1027 93 10000 5.7 70 16:57 26.03.2020
420 Clouds 8 1027 93 10000 5.7 70 16:38 26.03.2020
421 Clouds 8 1027 93 10000 5.1 60 16:18 26.03.2020
422 Clouds 8 1027 93 10000 4.6 60 15:42 26.03.2020
423 Clouds 8 1027 93 10000 4.1 60 15:22 26.03.2020
424 Clouds 8 1027 93 10000 4.1 60 14:59 26.03.2020
425 Clouds 8 1027 93 10000 4.6 50 14:41 26.03.2020
426 Rain 8 1027 93 8000 4.6 60 14:23 26.03.2020
427 Rain 8 1028 93 6000 4.6 60 13:45 26.03.2020
428 Clouds 8 1028 93 10000 5.1 70 13:24 26.03.2020
429 Clouds 8 1028 93 10000 5.1 70 12:59 26.03.2020
430 Clouds 8 1028 93 10000 4.1 80 12:38 26.03.2020
431 Clouds 8 1028 93 10000 4.1 80 12:20 26.03.2020
432 Clouds 7 1027 100 10000 4.1 70 11:46 26.03.2020
433 Mist 7 1027 100 5000 4.1 60 11:22 26.03.2020
434 Mist 7 1027 100 2700 4.1 60 10:56 26.03.2020
435 Mist 7 1027 100 2700 4.1 60 10:56 26.03.2020
436 Mist 7 1027 100 2700 4.1 60 10:56 26.03.2020
437 Mist 7 1027 100 2700 4.1 60 10:38 26.03.2020
438 Mist 7 1027 100 3100 3.6 60 10:19 26.03.2020
439 Mist 7 1027 100 3200 3.6 50 09:44 26.03.2020
440 Clouds 8 1026 93 10000 3.6 40 09:20 26.03.2020
441 Clouds 7 1026 93 10000 1 350 08:55 26.03.2020
442 Clouds 7 1026 93 10000 1 350 08:37 26.03.2020
443 Clouds 7 1026 93 10000 1.5 230 08:18 26.03.2020
444 Clouds 7 1026 93 10000 1.5 0 07:44 26.03.2020
445 Clouds 7 1025 93 10000 1 340 07:21 26.03.2020
446 Clouds 7 1025 93 10000 2.1 260 06:48 26.03.2020
447 Clouds 7 1025 100 10000 1.5 270 05:57 26.03.2020
448 Clouds 8 1025 93 10000 1 290 04:25 26.03.2020
449 Mist 8 1025 93 5000 1.5 220 03:41 26.03.2020
450 Clouds 8 1025 93 10000 1.5 250 02:54 26.03.2020
451 Clouds 8 1025 100 7000 2.1 300 01:50 26.03.2020
452 Drizzle 9 1025 93 1500 2.1 290 00:48 26.03.2020
453 Drizzle 9 1024 93 2000 0.5 40 23:56 25.03.2020
454 Mist 9 1024 93 1100 1 80 23:36 25.03.2020
455 Mist 9 1024 93 1100 1 80 23:18 25.03.2020
456 Mist 9 1024 93 1600 0.5 360 22:39 25.03.2020
457 Mist 9 1024 93 2500 1 0 22:20 25.03.2020
458 Mist 9 1024 93 2500 1 0 21:55 25.03.2020
459 Mist 9 1024 93 5000 0.5 270 21:37 25.03.2020
460 Mist 9 1023 100 5000 1 260 21:18 25.03.2020
461 Mist 9 1023 100 5000 1 230 20:40 25.03.2020
462 Clouds 9 1023 100 6000 1.5 260 20:20 25.03.2020
463 Clouds 9 1023 100 6000 1.5 260 19:59 25.03.2020
464 Clouds 9 1023 100 7000 2.6 240 19:41 25.03.2020
465 Clouds 9 1022 100 8000 4.6 220 19:21 25.03.2020
466 Clouds 9 1022 100 6000 4.1 230 18:56 25.03.2020
467 Clouds 9 1022 100 6000 4.1 230 18:37 25.03.2020
468 Mist 9 1022 100 5000 3.1 220 18:19 25.03.2020
469 Mist 9 1022 100 3400 4.1 230 17:42 25.03.2020
470 Haze 10 1022 93 3900 4.6 230 17:23 25.03.2020
471 Clouds 10 1022 93 6000 5.1 220 16:59 25.03.2020
472 Clouds 10 1022 93 6000 5.1 220 16:41 25.03.2020
473 Clouds 10 1022 87 10000 7.2 210 16:21 25.03.2020
474 Clouds 10 1022 87 10000 6.7 220 15:44 25.03.2020
475 Clouds 10 1022 87 10000 5.7 220 15:21 25.03.2020
476 Clouds 10 1022 87 10000 6.2 200 14:59 25.03.2020
477 Clouds 10 1022 87 10000 6.2 200 14:40 25.03.2020
478 Rain 10 1022 87 10000 5.1 210 14:20 25.03.2020
479 Rain 10 1021 87 10000 5.7 210 13:46 25.03.2020
480 Rain 10 1021 87 10000 5.7 210 13:25 25.03.2020
481 Clouds 9 1021 93 10000 3.6 210 12:54 25.03.2020
482 Clouds 9 1021 93 10000 3.6 210 12:36 25.03.2020
483 Clouds 9 1021 87 10000 3.1 190 12:18 25.03.2020
484 Clouds 9 1021 87 10000 2.1 0 11:41 25.03.2020
485 Clouds 9 1020 87 10000 2.6 170 11:21 25.03.2020
486 Clouds 9 1020 93 10000 4.6 180 10:59 25.03.2020
487 Clouds 9 1020 93 10000 4.6 180 10:59 25.03.2020
488 Clouds 9 1020 93 10000 4.6 180 10:40 25.03.2020
489 Clouds 9 1020 87 7000 5.1 190 10:19 25.03.2020
490 Clouds 9 1020 87 7000 5.1 190 09:58 25.03.2020
491 Clouds 9 1020 87 10000 4.6 190 09:39 25.03.2020
492 Rain 8 1019 93 10000 4.6 200 09:21 25.03.2020
493 Rain 8 1019 93 9000 3.6 190 08:43 25.03.2020
494 Rain 8 1019 93 9000 3.6 190 08:25 25.03.2020
495 Rain 8 1019 93 9000 4.1 200 08:25 25.03.2020
496 Rain 8 1019 93 9000 4.1 200 07:58 25.03.2020
497 Rain 8 1019 93 10000 5.7 200 07:38 25.03.2020
498 Rain 8 1018 93 10000 5.1 200 07:18 25.03.2020
499 Rain 8 1018 93 9000 4.1 190 06:43 25.03.2020
500 Rain 8 1018 93 9000 6.7 200 06:25 25.03.2020
501 Rain 8 1018 93 5000 9.3 200 05:47 25.03.2020
502 Rain 8 1017 93 7000 9.3 200 04:46 25.03.2020
503 Rain 9 1017 87 7000 9.8 200 03:58 25.03.2020
504 Rain 9 1017 87 10000 8.7 200 03:34 25.03.2020
505 Clouds 9 1017 81 10000 5.7 210 01:41 25.03.2020
506 Clouds 9 1016 87 10000 6.2 200 00:51 25.03.2020
507 Rain 9 1016 87 10000 6.7 210 00:30 25.03.2020
508 Rain 9 1016 87 8000 7.7 200 23:58 24.03.2020
509 Rain 9 1016 87 8000 7.7 200 23:39 24.03.2020
510 Clouds 10 1016 76 10000 8.2 200 23:19 24.03.2020
511 Clouds 10 1016 76 10000 10.3 200 22:54 24.03.2020
512 Clouds 10 1016 76 10000 10.3 200 22:36 24.03.2020
513 Clouds 10 1016 76 10000 8.2 200 22:18 24.03.2020
514 Clouds 10 1016 76 10000 9.3 200 21:42 24.03.2020
515 Clouds 10 1016 76 10000 6.7 210 21:19 24.03.2020
516 Clouds 10 1015 76 10000 6.7 210 20:59 24.03.2020
517 Clouds 10 1015 76 10000 6.7 210 20:40 24.03.2020
518 Clouds 10 1015 76 10000 6.7 210 20:22 24.03.2020
519 Clouds 11 1015 71 10000 9.8 200 19:48 24.03.2020
520 Clouds 11 1015 71 10000 8.2 200 19:22 24.03.2020
521 Clouds 11 1015 71 10000 5.1 210 18:58 24.03.2020
522 Clouds 11 1015 71 10000 5.1 210 18:38 24.03.2020
523 Clouds 11 1015 71 10000 6.2 210 18:20 24.03.2020
524 Clouds 11 1015 71 10000 6.7 190 17:56 24.03.2020
525 Clouds 11 1015 71 10000 6.7 190 17:56 24.03.2020
526 Clouds 11 1015 71 10000 6.7 190 17:38 24.03.2020
527 Clouds 11 1015 71 10000 6.7 210 17:20 24.03.2020
528 Rain 11 1015 71 10000 8.7 200 16:56 24.03.2020
529 Rain 11 1015 71 10000 8.7 200 16:37 24.03.2020
530 Rain 11 1015 66 10000 10.3 210 16:19 24.03.2020
531 Rain 12 1015 71 10000 11.8 200 15:42 24.03.2020
532 Rain 12 1015 71 10000 10.8 200 15:24 24.03.2020
533 Clouds 11 1016 66 10000 10.8 200 14:44 24.03.2020
534 Clouds 12 1016 66 10000 11.3 190 14:22 24.03.2020
535 Clouds 12 1016 66 10000 11.3 190 13:59 24.03.2020
536 Clouds 11 1016 71 10000 10.3 190 13:40 24.03.2020
537 Clouds 10 1016 71 10000 10.3 190 13:22 24.03.2020
538 Clouds 10 1016 76 10000 8.2 190 12:42 24.03.2020
539 Clouds 10 1016 71 10000 10.3 190 12:24 24.03.2020
540 Clouds 10 1016 71 10000 7.7 190 11:42 24.03.2020
541 Clouds 9 1016 70 10000 6.2 190 11:22 24.03.2020
542 Clouds 9 1017 66 10000 6.7 190 10:59 24.03.2020
543 Clouds 9 1017 66 10000 6.7 190 10:41 24.03.2020
544 Clouds 9 1017 70 10000 7.7 200 10:18 24.03.2020
545 Clouds 9 1017 70 10000 5.7 190 09:46 24.03.2020
546 Clouds 9 1017 70 10000 5.7 190 09:46 24.03.2020
547 Clouds 8 1017 70 10000 5.7 190 09:26 24.03.2020
548 Clouds 8 1017 75 10000 5.7 190 08:57 24.03.2020
549 Clouds 8 1017 75 10000 5.7 190 08:37 24.03.2020
550 Clouds 8 1017 75 10000 6.2 190 08:18 24.03.2020
551 Clouds 8 1017 75 10000 6.2 190 07:44 24.03.2020
552 Clouds 8 1017 75 10000 6.7 200 07:22 24.03.2020
553 Clouds 8 1017 75 10000 6.7 200 07:22 24.03.2020
554 Clouds 8 1017 75 10000 4.6 190 06:40 24.03.2020
555 Clouds 8 1017 70 10000 4.6 180 06:18 24.03.2020
556 Clouds 8 1017 70 10000 5.7 180 04:51 24.03.2020
557 Clouds 8 1018 70 10000 4.6 190 03:22 24.03.2020
558 Clouds 8 1018 70 10000 3.1 160 02:41 24.03.2020
559 Clouds 8 1019 65 10000 2.6 140 00:54 24.03.2020
560 Clouds 8 1019 65 10000 2.6 140 00:27 24.03.2020
561 Clouds 8 1020 61 10000 2.1 120 23:56 23.03.2020
562 Clouds 8 1020 61 10000 2.1 120 23:37 23.03.2020
563 Clouds 8 1020 61 10000 2.6 110 23:19 23.03.2020
564 Clouds 8 1020 61 10000 3.1 100 22:44 23.03.2020
565 Clouds 8 1020 57 10000 3.6 100 22:23 23.03.2020
566 Clouds 8 1020 65 10000 3.6 80 21:55 23.03.2020
567 Clouds 8 1020 65 10000 3.6 80 21:37 23.03.2020
568 Clouds 8 1020 61 10000 1 0 21:18 23.03.2020
569 Clouds 8 1020 57 10000 2.1 170 20:42 23.03.2020
570 Clouds 8 1019 57 10000 3.1 150 20:24 23.03.2020
571 Clouds 9 1019 57 10000 3.1 150 19:56 23.03.2020
572 Clouds 9 1020 57 10000 2.1 0 19:37 23.03.2020
573 Clouds 9 1019 61 10000 4.6 190 19:19 23.03.2020
574 Clouds 9 1019 61 10000 6.7 180 18:44 23.03.2020
575 Clouds 9 1019 57 10000 6.7 180 18:25 23.03.2020
576 Clouds 9 1019 57 10000 6.7 180 17:59 23.03.2020
577 Clouds 10 1019 57 10000 6.2 180 17:41 23.03.2020
578 Clouds 10 1019 57 10000 6.2 180 17:19 23.03.2020
579 Clouds 10 1019 57 10000 7.2 200 16:44 23.03.2020
580 Clouds 10 1020 57 10000 7.2 200 16:25 23.03.2020
581 Clouds 10 1020 57 10000 7.2 200 15:58 23.03.2020
582 Clouds 11 1020 57 10000 7.2 200 15:39 23.03.2020
583 Clouds 11 1021 57 10000 8.2 210 15:18 23.03.2020
584 Clouds 11 1021 57 10000 8.2 210 15:18 23.03.2020
585 Clouds 11 1021 57 10000 7.7 200 14:37 23.03.2020
586 Clouds 10 1021 61 10000 5.7 200 14:19 23.03.2020
587 Clouds 10 1021 61 10000 5.7 200 14:19 23.03.2020
588 Clouds 10 1021 57 10000 7.2 190 13:55 23.03.2020
589 Clouds 10 1021 57 10000 7.2 190 13:37 23.03.2020
590 Clouds 10 1022 57 10000 8.7 190 13:19 23.03.2020
591 Clouds 10 1022 61 10000 8.7 200 12:42 23.03.2020
592 Clouds 9 1022 65 10000 7.2 200 12:22 23.03.2020
593 Clouds 9 1022 65 10000 5.7 190 11:56 23.03.2020
594 Clouds 8 1022 65 10000 5.7 190 11:37 23.03.2020
595 Clouds 7 1022 70 10000 4.1 160 11:18 23.03.2020
596 Clouds 7 1022 70 10000 3.6 150 10:41 23.03.2020
597 Clouds 6 1022 80 10000 2.1 40 10:23 23.03.2020
598 Clouds 5 1022 80 10000 2.1 40 09:59 23.03.2020
599 Clouds 5 1022 75 10000 2.1 60 09:40 23.03.2020
600 Clouds 4 1023 80 10000 2.1 70 09:19 23.03.2020
601 Clouds 4 1023 77 10000 2.1 60 08:38 23.03.2020
602 Clouds 3 1023 74 10000 2.1 50 08:19 23.03.2020
603 Clouds 3 1023 74 10000 2.1 110 07:51 23.03.2020
604 Clouds 3 1023 74 10000 2.1 110 07:32 23.03.2020
605 Clouds 2 1024 92 10000 2.1 130 06:55 23.03.2020
606 Clouds 2 1024 92 10000 1 0 06:32 23.03.2020
607 Clouds 1 1024 92 10000 1.5 0 05:43 23.03.2020
608 Clouds 1 1024 92 10000 1 0 03:54 23.03.2020
609 Clouds 0 1025 92 7000 0.5 0 02:43 23.03.2020
610 Clouds 0 1025 92 8000 1.5 0 01:39 23.03.2020
611 Clouds 0 1025 92 8000 0.5 0 00:44 23.03.2020
612 Clouds 2 1026 87 10000 0.5 0 23:54 22.03.2020
613 Clouds 2 1026 87 10000 0.5 0 23:36 22.03.2020
614 Clouds 2 1026 88 10000 0.5 0 23:18 22.03.2020
615 Clouds 2 1026 86 10000 0.5 0 22:40 22.03.2020
616 Clouds 2 1026 88 10000 0.5 340 22:19 22.03.2020
617 Clouds 3 1026 88 10000 1 270 21:40 22.03.2020
618 Clouds 3 1026 88 10000 0.5 0 21:21 22.03.2020
619 Clouds 4 1026 88 10000 0.5 0 20:58 22.03.2020
620 Clouds 4 1026 88 10000 1 240 20:39 22.03.2020
621 Clouds 5 1026 75 10000 2.1 280 20:21 22.03.2020
622 Clouds 5 1026 75 10000 2.1 280 19:55 22.03.2020
623 Clouds 6 1026 75 10000 2.6 250 19:37 22.03.2020
624 Clouds 7 1026 65 10000 3.6 230 19:19 22.03.2020
625 Clouds 8 1026 65 10000 3.6 230 18:56 22.03.2020
626 Clouds 8 1026 65 10000 3.6 230 18:37 22.03.2020
627 Clouds 9 1026 57 10000 4.6 240 18:18 22.03.2020
628 Clouds 9 1026 46 10000 3.1 160 17:56 22.03.2020
629 Clouds 9 1026 46 10000 3.1 160 17:36 22.03.2020
630 Clouds 9 1026 46 10000 3.1 160 17:36 22.03.2020
631 Clear 9 1027 46 10000 4.1 140 17:18 22.03.2020
632 Clear 10 1027 54 10000 4.6 170 16:41 22.03.2020
633 Clear 10 1027 54 10000 3.6 170 16:22 22.03.2020
634 Clear 9 1027 54 10000 3.6 170 15:59 22.03.2020
635 Clear 10 1027 54 10000 3.1 140 15:39 22.03.2020
636 Clear 9 1028 49 10000 3.1 140 14:47 22.03.2020
637 Clouds 9 1028 49 10000 3.1 150 14:20 22.03.2020
638 Clouds 9 1028 49 10000 3.1 150 13:58 22.03.2020
639 Clouds 9 1029 49 10000 3.6 150 13:40 22.03.2020
640 Clouds 8 1029 52 10000 4.1 160 13:19 22.03.2020
641 Clouds 8 1029 54 10000 1.5 0 12:44 22.03.2020
642 Clouds 8 1029 54 10000 1.5 0 12:44 22.03.2020
643 Clear 7 1030 56 10000 1 0 12:22 22.03.2020
644 Clear 7 1030 56 10000 1 0 12:22 22.03.2020
645 Clear 7 1030 60 10000 3.1 110 11:58 22.03.2020
646 Clear 6 1030 60 10000 3.1 110 11:39 22.03.2020
647 Clear 5 1030 65 10000 3.1 100 11:20 22.03.2020
648 Clear 5 1030 69 10000 2.1 90 10:43 22.03.2020
649 Clear 4 1030 74 10000 1.5 0 10:24 22.03.2020
650 Clear 2 1030 80 10000 2.1 80 09:49 22.03.2020
651 Clear 2 1030 80 10000 2.1 80 09:30 22.03.2020
652 Clear 1 1030 86 10000 2.6 70 08:55 22.03.2020
653 Clear 0 1030 71 10000 1.5 0 08:37 22.03.2020
654 Clouds -1 1030 86 10000 1.5 70 08:18 22.03.2020
655 Clouds -1 1030 86 10000 2.6 60 07:49 22.03.2020
656 Clouds -1 1029 86 10000 2.6 70 07:18 22.03.2020
657 Clouds 0 1029 80 10000 3.1 80 05:56 22.03.2020
658 Clouds 1 1029 80 10000 3.1 80 04:58 22.03.2020
659 Clouds 1 1029 83 10000 3.6 60 02:50 22.03.2020
660 Clouds 3 1029 74 10000 2.6 80 01:21 22.03.2020
661 Clouds 3 1029 69 10000 4.6 100 00:36 22.03.2020
662 Clouds 3 1028 69 10000 5.1 100 23:58 21.03.2020
663 Clouds 3 1028 69 10000 5.1 100 23:40 21.03.2020
664 Clouds 4 1028 69 10000 4.6 60 23:18 21.03.2020
665 Clouds 4 1028 69 10000 4.6 70 22:38 21.03.2020
666 Clouds 4 1028 65 10000 4.1 80 22:20 21.03.2020
667 Clouds 4 1028 65 10000 4.1 80 21:59 21.03.2020
668 Clouds 4 1028 65 10000 4.1 80 21:39 21.03.2020
669 Clouds 5 1028 60 10000 4.6 90 21:21 21.03.2020
670 Clouds 5 1028 56 10000 4.6 90 20:46 21.03.2020
671 Clouds 6 1028 52 10000 4.6 100 20:23 21.03.2020
672 Clouds 6 1028 52 10000 4.6 100 19:57 21.03.2020
673 Clouds 6 1027 56 10000 4.6 110 19:39 21.03.2020
674 Clouds 7 1027 45 10000 5.1 120 19:20 21.03.2020
675 Clouds 7 1027 49 10000 4.1 130 18:54 21.03.2020
676 Clouds 7 1027 49 10000 4.1 130 18:36 21.03.2020
677 Clouds 8 1027 42 10000 6.2 120 18:18 21.03.2020
678 Clouds 9 1027 49 10000 5.7 120 17:42 21.03.2020
679 Clouds 9 1027 45 10000 5.7 120 17:23 21.03.2020
680 Clouds 9 1028 45 10000 5.7 120 16:56 21.03.2020
681 Clouds 9 1028 45 10000 5.7 120 16:38 21.03.2020
682 Clouds 9 1028 45 10000 5.7 130 16:18 21.03.2020
683 Clouds 9 1028 45 10000 5.7 130 16:18 21.03.2020
684 Clouds 9 1028 49 10000 5.7 120 15:41 21.03.2020
685 Clouds 9 1029 49 10000 6.7 130 15:23 21.03.2020
686 Clouds 9 1029 49 10000 6.7 130 14:58 21.03.2020
687 Clouds 9 1029 51 10000 7.2 110 14:40 21.03.2020
688 Clouds 9 1029 50 10000 6.7 90 14:20 21.03.2020
689 Clouds 9 1029 50 10000 6.7 90 13:59 21.03.2020
690 Clouds 8 1030 50 10000 7.2 100 13:40 21.03.2020
691 Clouds 8 1030 53 10000 8.7 100 13:21 21.03.2020
692 Clouds 8 1030 53 10000 8.7 100 13:21 21.03.2020
693 Clouds 7 1030 53 10000 8.7 100 12:58 21.03.2020
694 Clouds 7 1031 53 10000 6.7 110 12:37 21.03.2020
695 Clouds 6 1031 53 10000 6.7 110 12:19 21.03.2020
696 Clouds 6 1031 53 10000 5.7 110 11:55 21.03.2020
697 Clouds 6 1031 53 10000 5.7 110 11:37 21.03.2020
698 Clouds 5 1031 75 10000 5.1 100 11:18 21.03.2020
699 Clouds 5 1031 75 10000 4.6 80 10:56 21.03.2020
700 Clouds 5 1031 75 10000 4.6 80 10:38 21.03.2020
701 Clouds 4 1032 75 10000 4.6 80 10:19 21.03.2020
702 Clouds 4 1032 75 10000 4.6 80 10:19 21.03.2020
703 Clouds 4 1032 75 10000 5.7 70 09:41 21.03.2020
704 Clouds 4 1032 75 10000 5.7 80 09:23 21.03.2020
705 Clouds 4 1032 75 10000 5.7 80 08:59 21.03.2020
706 Clouds 3 1032 74 10000 7.2 80 08:41 21.03.2020
707 Clouds 3 1032 75 10000 6.2 80 08:22 21.03.2020
708 Clouds 2 1032 74 10000 5.1 80 07:42 21.03.2020
709 Clouds 2 1032 80 10000 2.6 70 07:23 21.03.2020
710 Clouds 2 1032 74 10000 3.6 80 06:46 21.03.2020
711 Clouds 2 1033 74 10000 6.7 90 06:26 21.03.2020
712 Clouds 2 1033 69 10000 5.1 80 05:41 21.03.2020
713 Clouds 3 1033 74 10000 4.1 100 04:37 21.03.2020
714 Clouds 3 1034 94 10000 5.1 80 02:39 21.03.2020
715 Clouds 3 1035 80 10000 4.1 80 01:57 21.03.2020
716 Rain 3 1035 86 10000 4.1 90 01:29 21.03.2020
717 Clouds 3 1036 94 10000 3.1 70 00:47 21.03.2020
718 Clouds 3 1036 94 10000 3.6 50 00:24 21.03.2020
719 Clouds 3 1036 80 10000 3.6 60 23:46 20.03.2020
720 Clouds 3 1036 86 10000 3.6 70 23:24 20.03.2020
721 Clouds 3 1036 86 10000 3.1 60 22:44 20.03.2020
722 Clouds 4 1036 80 10000 3.1 70 22:25 20.03.2020
723 Clouds 4 1036 80 10000 3.1 70 21:59 20.03.2020
724 Clouds 4 1036 75 10000 4.1 70 21:41 20.03.2020
725 Clouds 4 1036 80 10000 4.1 70 21:20 20.03.2020
726 Clouds 4 1036 80 10000 4.1 70 20:59 20.03.2020
727 Clear 4 1036 75 10000 5.7 70 20:41 20.03.2020
728 Clear 5 1036 65 10000 6.2 70 20:21 20.03.2020
729 Clear 5 1036 65 10000 6.2 70 19:58 20.03.2020
730 Clear 6 1036 60 10000 6.7 70 19:39 20.03.2020
731 Clear 6 1035 56 10000 6.2 80 19:18 20.03.2020
732 Clouds 7 1035 56 10000 5.7 80 18:39 20.03.2020
733 Clouds 7 1035 52 10000 5.1 90 18:20 20.03.2020
734 Clear 8 1035 49 10000 6.7 90 17:56 20.03.2020
735 Clear 8 1035 49 10000 6.7 90 17:38 20.03.2020
736 Clear 9 1035 45 10000 7.2 70 17:19 20.03.2020
737 Clear 9 1035 49 10000 6.7 80 16:42 20.03.2020
738 Clear 9 1035 49 10000 6.2 80 16:21 20.03.2020
739 Clear 9 1036 49 10000 5.1 100 15:56 20.03.2020
740 Clear 9 1036 49 10000 5.1 100 15:37 20.03.2020
741 Clear 9 1036 49 10000 5.1 70 15:19 20.03.2020
742 Clear 9 1036 49 10000 6.2 80 14:42 20.03.2020
743 Clouds 9 1036 50 10000 6.7 60 14:21 20.03.2020
744 Clouds 8 1036 50 10000 5.7 90 13:50 20.03.2020
745 Clouds 8 1036 61 10000 4.6 70 13:26 20.03.2020
746 Clouds 8 1036 61 10000 4.6 70 12:59 20.03.2020
747 Clear 8 1037 65 10000 3.6 90 12:38 20.03.2020
748 Clear 7 1037 70 10000 2.6 70 12:20 20.03.2020
749 Clear 6 1037 48 10000 2.1 90 11:40 20.03.2020
750 Clear 5 1036 58 10000 0.5 0 11:21 20.03.2020
751 Clear 4 1036 86 10000 1 0 10:57 20.03.2020
752 Clear 4 1036 86 10000 1 0 10:57 20.03.2020
753 Clear 3 1036 86 10000 1 0 10:38 20.03.2020
754 Clear 3 1036 58 10000 1 0 10:18 20.03.2020
755 Clear 2 1036 58 10000 0.5 0 09:46 20.03.2020
756 Clear 0 1036 100 10000 1 30 09:21 20.03.2020
757 Clear -1 1036 100 10000 1 30 08:58 20.03.2020
758 Fog -1 1035 92 9000 0.5 0 08:39 20.03.2020
759 Fog -2 1035 92 9000 0.5 160 08:19 20.03.2020
760 Clear -2 1035 100 10000 0.5 0 07:43 20.03.2020
761 Clear -2 1035 100 7000 0.5 0 07:25 20.03.2020
762 Clear -2 1034 92 10000 1 0 06:42 20.03.2020
763 Clear -2 1034 100 10000 1 0 06:22 20.03.2020
764 Clear -2 1033 92 10000 2.1 240 04:48 20.03.2020
765 Clear 0 1033 86 10000 2.1 220 02:54 20.03.2020
766 Clear 1 1033 85 10000 2.1 220 01:50 20.03.2020
767 Clear 1 1033 92 10000 2.1 240 00:45 20.03.2020
768 Clear 1 1032 84 10000 1 0 00:24 20.03.2020
769 Clear 2 1032 84 10000 4.1 280 23:42 19.03.2020
770 Clear 2 1032 86 10000 3.1 260 23:23 19.03.2020
771 Clear 3 1032 80 10000 2.6 280 22:54 19.03.2020
772 Clear 3 1032 80 10000 2.6 280 22:36 19.03.2020
773 Clear 4 1032 80 10000 0.5 0 22:18 19.03.2020
774 Clear 4 1031 80 10000 1 0 21:39 19.03.2020
775 Clear 4 1031 86 10000 2.6 230 21:20 19.03.2020
776 Clear 5 1031 80 10000 2.6 270 20:54 19.03.2020
777 Clear 5 1031 80 10000 2.6 270 20:36 19.03.2020
778 Clear 5 1031 80 10000 2.6 270 20:36 19.03.2020
779 Clouds 5 1030 67 10000 2.6 270 20:18 19.03.2020
780 Clouds 6 1030 67 10000 4.1 280 19:39 19.03.2020
781 Clouds 7 1030 67 10000 4.6 280 19:21 19.03.2020
782 Clouds 7 1030 61 10000 5.1 280 18:59 19.03.2020
783 Clouds 8 1030 57 10000 3.6 290 18:41 19.03.2020
784 Clouds 8 1030 57 10000 3.6 290 18:22 19.03.2020
785 Clouds 9 1029 65 10000 4.1 290 17:55 19.03.2020
786 Clouds 9 1029 65 10000 4.1 290 17:37 19.03.2020
787 Clouds 9 1029 70 10000 4.1 300 17:18 19.03.2020
788 Clouds 9 1029 70 10000 5.7 300 16:42 19.03.2020
789 Clouds 9 1029 61 10000 4.6 290 16:21 19.03.2020
790 Clouds 9 1029 57 10000 3.6 280 15:44 19.03.2020
791 Clouds 9 1029 57 10000 2.6 280 15:24 19.03.2020
792 Clouds 9 1029 66 10000 5.7 290 14:43 19.03.2020
793 Clouds 9 1029 61 10000 3.1 310 14:23 19.03.2020
794 Clear 9 1029 61 10000 3.1 310 13:59 19.03.2020
795 Clouds 9 1029 61 10000 3.1 280 13:37 19.03.2020
796 Clouds 9 1029 66 10000 3.6 310 13:18 19.03.2020
797 Clouds 8 1029 65 10000 4.1 290 12:41 19.03.2020
798 Clouds 8 1029 70 10000 3.1 310 12:23 19.03.2020
799 Clouds 8 1029 70 10000 3.1 280 11:58 19.03.2020
800 Clouds 8 1029 70 10000 3.1 280 11:58 19.03.2020
801 Clouds 8 1029 70 10000 3.1 280 11:40 19.03.2020
802 Clouds 7 1029 70 10000 2.1 290 11:22 19.03.2020
803 Clouds 6 1028 81 10000 0.5 0 10:42 19.03.2020
804 Clear 6 1028 81 10000 2.6 260 10:21 19.03.2020
805 Clear 5 1028 81 10000 2.6 260 09:58 19.03.2020
806 Clear 5 1028 86 10000 2.1 220 09:38 19.03.2020
807 Clouds 4 1027 86 10000 1 0 09:19 19.03.2020
808 Clouds 3 1027 86 10000 2.1 280 08:45 19.03.2020
809 Clouds 3 1026 86 10000 1.5 0 08:21 19.03.2020
810 Clouds 3 1026 93 10000 0.5 0 07:47 19.03.2020
811 Clouds 3 1026 93 10000 0.5 0 07:28 19.03.2020
812 Clouds 3 1026 86 10000 2.1 260 06:49 19.03.2020
813 Clouds 3 1025 86 10000 3.1 200 05:52 19.03.2020
814 Clouds 3 1025 86 10000 0.5 0 04:59 19.03.2020
815 Clouds 3 1025 86 10000 0.5 0 04:40 19.03.2020
816 Clouds 3 1025 86 10000 4.6 230 02:50 19.03.2020
817 Clouds 3 1024 86 10000 4.6 230 01:25 19.03.2020
818 Clouds 3 1024 86 10000 3.1 250 00:32 19.03.2020
819 Clear 3 1024 85 10000 4.1 250 23:57 18.03.2020
820 Clear 3 1024 85 10000 4.6 230 23:30 18.03.2020
821 Clear 3 1024 85 10000 4.6 230 23:30 18.03.2020
822 Clear 3 1024 83 10000 5.7 230 22:58 18.03.2020
823 Clear 4 1024 83 10000 5.7 230 22:39 18.03.2020
824 Clear 3 1023 86 10000 5.1 240 22:21 18.03.2020
825 Clear 4 1023 80 10000 7.2 230 21:42 18.03.2020
826 Clear 4 1023 83 10000 4.1 240 21:22 18.03.2020
827 Clear 4 1023 83 10000 4.1 240 20:59 18.03.2020
828 Clear 4 1023 83 10000 4.1 240 20:59 18.03.2020
829 Clouds 4 1023 80 10000 5.7 260 20:40 18.03.2020
830 Snow 4 1022 75 10000 3.6 260 20:20 18.03.2020
831 Snow 4 1022 75 10000 3.6 260 19:58 18.03.2020
832 Snow 5 1022 80 10000 3.6 240 19:39 18.03.2020
833 Snow 5 1022 80 10000 4.6 230 19:20 18.03.2020
834 Snow 5 1021 75 10000 6.2 250 18:41 18.03.2020
835 Clouds 6 1021 70 10000 8.2 260 18:21 18.03.2020
836 Clouds 6 1021 70 10000 8.2 260 18:21 18.03.2020
837 Clouds 6 1021 65 10000 8.2 260 17:58 18.03.2020
838 Clouds 6 1021 65 10000 8.2 260 17:40 18.03.2020
839 Snow 6 1021 75 10000 5.7 260 17:21 18.03.2020
840 Rain 7 1021 70 10000 7.2 260 16:58 18.03.2020
841 Rain 7 1021 70 10000 7.2 260 16:39 18.03.2020
842 Rain 7 1021 75 10000 8.2 240 16:20 18.03.2020
843 Rain 6 1021 81 10000 7.2 230 15:45 18.03.2020
844 Rain 6 1021 86 10000 6.2 230 15:20 18.03.2020
845 Rain 7 1021 75 10000 7.2 240 14:45 18.03.2020
846 Rain 7 1021 81 10000 6.7 280 14:22 18.03.2020
847 Rain 7 1021 81 10000 6.7 280 13:59 18.03.2020
848 Rain 7 1020 75 10000 7.2 250 13:37 18.03.2020
849 Rain 6 1020 86 10000 3.6 250 13:19 18.03.2020
850 Snow 6 1020 86 10000 6.7 230 12:41 18.03.2020
851 Snow 5 1020 81 10000 6.7 230 12:20 18.03.2020
852 Clouds 5 1020 80 10000 7.7 220 11:40 18.03.2020
853 Clouds 5 1020 86 10000 4.6 240 11:21 18.03.2020
854 Clouds 5 1020 80 10000 5.1 240 10:58 18.03.2020
855 Clouds 5 1020 80 10000 5.1 240 10:39 18.03.2020
856 Clouds 5 1019 86 10000 3.6 230 10:20 18.03.2020
857 Clouds 5 1019 86 10000 3.6 230 09:56 18.03.2020
858 Rain 4 1019 86 10000 4.1 270 09:38 18.03.2020
859 Clouds 4 1019 80 10000 5.7 250 09:20 18.03.2020
860 Clouds 4 1019 93 10000 4.1 260 08:39 18.03.2020
861 Rain 4 1019 80 9000 7.2 260 08:21 18.03.2020
862 -273 0 0 0 0 0 08:21 18.03.2020
863 Clouds 4 1018 86 10000 5.1 240 07:49 18.03.2020
864 Clouds 4 1018 86 10000 5.1 240 07:30 18.03.2020
865 Clouds 4 1018 86 10000 4.6 240 06:45 18.03.2020
866 Clouds 4 1017 86 10000 4.1 250 06:23 18.03.2020
867 Clouds 4 1017 80 10000 5.7 260 05:35 18.03.2020
868 Snow 4 1017 80 10000 5.1 250 04:27 18.03.2020
869 Snow 5 1016 80 10000 5.7 250 02:48 18.03.2020
870 Rain 5 1016 86 10000 6.2 260 01:48 18.03.2020
871 Rain 5 1015 81 10000 7.2 260 01:27 18.03.2020
872 Clouds 5 1015 87 10000 5.7 260 00:25 18.03.2020
873 Rain 5 1014 87 10000 6.7 270 23:50 17.03.2020
874 Clouds 6 1014 87 10000 6.7 270 23:28 17.03.2020
875 Rain 6 1013 87 10000 4.6 250 22:59 17.03.2020
876 Rain 6 1013 87 10000 4.6 250 22:40 17.03.2020
877 Rain 6 1013 93 10000 2.1 240 22:22 17.03.2020
878 Rain 6 1013 93 10000 3.6 270 21:40 17.03.2020
879 Rain 6 1013 93 10000 2.1 250 21:21 17.03.2020
880 Rain 6 1012 93 9000 1.5 280 20:41 17.03.2020
881 Rain 6 1012 93 10000 2.1 270 20:22 17.03.2020
882 Rain 6 1012 93 10000 2.1 270 19:59 17.03.2020
883 Rain 6 1012 100 8000 3.1 300 19:40 17.03.2020
884 Rain 7 1012 93 6000 1.5 280 19:18 17.03.2020
885 Rain 7 1012 93 7000 2.6 230 18:56 17.03.2020
886 Rain 7 1012 93 7000 2.6 230 18:37 17.03.2020
887 Rain 7 1012 93 7000 3.6 210 18:19 17.03.2020
888 Rain 7 1013 93 8000 4.6 210 17:40 17.03.2020
889 Rain 7 1014 93 10000 4.6 200 17:21 17.03.2020
890 Rain 7 1014 93 10000 5.7 220 16:55 17.03.2020
891 Rain 7 1014 93 10000 5.7 220 16:36 17.03.2020
892 Rain 7 1015 93 10000 8.7 220 16:18 17.03.2020
893 Rain 8 1015 87 10000 5.1 220 15:41 17.03.2020
894 Rain 8 1016 87 7000 6.2 230 15:19 17.03.2020
895 Rain 8 1016 81 10000 8.7 220 14:42 17.03.2020
896 Clouds 9 1016 81 10000 8.7 230 14:21 17.03.2020
897 Clouds 9 1016 81 10000 8.2 220 13:44 17.03.2020
898 Clouds 9 1016 81 10000 7.7 220 13:26 17.03.2020
899 Clouds 9 1017 76 10000 7.7 220 12:58 17.03.2020
900 Clouds 9 1017 76 10000 7.7 220 12:58 17.03.2020
901 Clouds 9 1017 76 10000 9.3 220 12:39 17.03.2020
902 Rain 9 1017 76 10000 9.3 220 12:21 17.03.2020
903 Rain 9 1017 76 10000 6.7 220 11:45 17.03.2020
904 Clouds 9 1017 81 10000 7.7 220 11:27 17.03.2020
905 Rain 9 1017 81 10000 7.7 220 11:27 17.03.2020
906 Clouds 9 1017 76 10000 7.2 230 10:58 17.03.2020
907 Clouds 9 1017 76 10000 7.2 230 10:37 17.03.2020
908 Clouds 9 1017 76 10000 9.3 230 10:19 17.03.2020
909 Clouds 8 1016 81 10000 9.8 230 09:55 17.03.2020
910 Clouds 8 1016 81 10000 9.8 230 09:36 17.03.2020
911 Clouds 8 1016 81 10000 8.7 230 09:18 17.03.2020
912 Clouds 7 1016 81 10000 7.7 230 08:42 17.03.2020
913 Clouds 7 1016 75 10000 8.7 240 08:21 17.03.2020
914 Rain 7 1015 87 10000 6.2 250 07:49 17.03.2020
915 Rain 7 1015 87 9000 7.7 280 07:24 17.03.2020
916 Clouds 7 1014 81 10000 10.3 230 06:53 17.03.2020
917 Clouds 7 1014 81 10000 8.7 230 06:27 17.03.2020
918 Clouds 7 1014 87 10000 8.2 220 05:34 17.03.2020
919 Clouds 7 1013 87 10000 7.7 230 03:36 17.03.2020
920 Clouds 8 1013 87 10000 8.2 230 02:31 17.03.2020
921 Clouds 8 1013 93 10000 8.7 220 01:39 17.03.2020
922 Rain 9 1012 87 10000 10.3 220 00:54 17.03.2020
923 Rain 8 1012 93 10000 8.2 220 00:19 17.03.2020
924 Drizzle 9 1011 93 4300 9.3 230 23:38 16.03.2020
925 Rain 9 1011 87 10000 10.8 220 23:19 16.03.2020
926 Clouds 8 1011 93 10000 8.2 230 22:38 16.03.2020
927 Clouds 8 1011 93 10000 10.8 220 22:20 16.03.2020
928 Clouds 8 1011 93 10000 10.8 220 22:20 16.03.2020
929 Clouds 8 1011 93 10000 9.8 220 21:45 16.03.2020
930 Rain 8 1011 93 10000 8.2 230 21:27 16.03.2020
931 Rain 8 1011 87 9000 7.7 240 20:59 16.03.2020
932 Rain 7 1011 87 9000 7.7 240 20:39 16.03.2020
933 Rain 7 1011 93 10000 7.7 220 20:20 16.03.2020
934 Rain 7 1011 93 7000 10.3 210 19:46 16.03.2020
935 Rain 7 1010 87 7000 9.8 200 19:23 16.03.2020
936 Rain 7 1011 87 7000 11.3 200 18:57 16.03.2020
937 Rain 6 1011 87 8000 10.3 190 18:39 16.03.2020
938 Rain 6 1011 87 8000 10.3 190 18:19 16.03.2020
939 Rain 6 1012 81 9000 10.3 190 17:46 16.03.2020
940 Rain 7 1012 81 10000 8.7 190 17:25 16.03.2020
941 Rain 7 1012 81 10000 9.3 200 16:54 16.03.2020
942 Rain 7 1012 81 10000 9.3 200 16:36 16.03.2020
943 Rain 7 1012 75 10000 11.3 200 16:18 16.03.2020
944 Rain 8 1012 75 10000 12.9 210 15:42 16.03.2020
945 Rain 8 1012 70 8000 14.4 210 15:22 16.03.2020
946 Rain 9 1013 61 10000 12.9 200 14:45 16.03.2020
947 Clouds 8 1013 65 10000 8.7 210 14:20 16.03.2020
948 Clouds 8 1013 65 10000 8.7 210 14:20 16.03.2020
949 Clouds 8 1014 65 10000 9.3 210 13:44 16.03.2020
950 Clouds 8 1014 65 10000 9.3 210 13:25 16.03.2020
951 Clouds 8 1015 75 10000 9.8 220 12:55 16.03.2020
952 Clouds 8 1015 75 10000 9.8 220 12:36 16.03.2020
953 Clouds 8 1015 75 10000 8.7 210 12:18 16.03.2020
954 Clouds 8 1015 81 10000 10.3 210 11:41 16.03.2020
955 Clouds 7 1015 81 10000 7.2 210 11:19 16.03.2020
956 Clouds 6 1015 87 10000 7.2 210 10:43 16.03.2020
957 Clouds 6 1015 87 10000 6.2 190 10:24 16.03.2020
958 Clouds 5 1015 93 10000 2.6 180 09:46 16.03.2020
959 Clouds 4 1015 93 10000 1 0 09:28 16.03.2020
960 Clouds 3 1015 93 10000 1 0 08:58 16.03.2020
961 Clouds 2 1015 79 10000 0.5 320 08:26 16.03.2020
962 Clouds 2 1015 94 10000 0.5 320 07:54 16.03.2020
963 Clouds 2 1015 94 10000 2.1 210 07:28 16.03.2020
964 Clouds 2 1015 94 10000 2.1 210 07:28 16.03.2020
965 Clouds 2 1014 93 10000 2.6 230 06:54 16.03.2020
966 Clouds 3 1014 93 10000 2.1 200 06:27 16.03.2020
967 Clouds 3 1014 93 10000 1 220 05:54 16.03.2020
968 Rain 4 1014 93 10000 2.1 200 03:31 16.03.2020
969 Clouds 4 1012 93 10000 2.1 250 01:20 16.03.2020
970 Clouds 4 1012 93 10000 3.1 220 00:42 16.03.2020
971 Clouds 5 1011 93 10000 1.5 220 23:49 15.03.2020
972 Clouds 5 1011 86 10000 1.5 230 23:21 15.03.2020
973 Clouds 5 1010 87 10000 2.1 300 22:56 15.03.2020
974 Clouds 6 1010 87 10000 2.1 300 22:37 15.03.2020
975 Clouds 6 1009 87 10000 1.5 310 22:19 15.03.2020
976 Clouds 6 1009 87 10000 2.6 300 21:39 15.03.2020
977 Clouds 6 1008 93 10000 2.6 290 21:19 15.03.2020
978 Clouds 6 1007 87 10000 3.1 290 20:43 15.03.2020
979 Rain 7 1006 87 10000 3.1 300 20:22 15.03.2020
980 Rain 7 1006 87 10000 3.1 300 19:58 15.03.2020
981 Clouds 7 1005 81 10000 4.6 290 19:40 15.03.2020
982 Clouds 7 1004 75 10000 4.1 280 19:22 15.03.2020
983 Clouds 8 1004 75 10000 4.1 280 18:57 15.03.2020
984 Clouds 8 1003 81 10000 6.7 280 18:38 15.03.2020
985 Clouds 9 1002 76 10000 7.2 280 18:20 15.03.2020
986 Clouds 9 1002 76 10000 6.7 280 17:42 15.03.2020
987 Clouds 9 1001 76 10000 7.2 280 17:22 15.03.2020
988 Clouds 9 1000 76 10000 7.7 280 16:59 15.03.2020
989 Clouds 9 1000 76 10000 7.7 280 16:40 15.03.2020
990 Clouds 9 999 76 10000 8.2 270 16:22 15.03.2020
991 Clouds 9 999 76 10000 7.7 260 15:56 15.03.2020
992 Clouds 9 999 76 10000 7.7 260 15:38 15.03.2020
993 Clouds 9 998 76 10000 8.2 250 15:19 15.03.2020
994 Clouds 9 997 81 10000 7.2 270 14:40 15.03.2020
995 Clouds 9 996 76 10000 8.7 260 14:22 15.03.2020
996 Clouds 9 996 81 10000 8.2 250 13:56 15.03.2020
997 Clouds 9 996 81 10000 8.2 250 13:37 15.03.2020
998 Clouds 9 995 81 10000 9.3 250 13:18 15.03.2020
999 Clouds 9 994 81 10000 7.2 250 12:40 15.03.2020
1000 Rain 9 994 81 10000 8.7 240 12:22 15.03.2020
1001 Rain 8 993 87 10000 8.2 240 11:44 15.03.2020
1002 Clouds 8 993 87 10000 9.8 240 11:25 15.03.2020
1003 Rain 8 992 87 7000 10.8 230 10:59 15.03.2020
1004 Rain 8 992 87 7000 10.8 230 10:40 15.03.2020
1005 Rain 7 992 93 4300 10.3 220 10:21 15.03.2020
1006 Rain 7 992 93 4300 10.3 220 09:57 15.03.2020
1007 Rain 7 992 87 10000 11.8 210 09:36 15.03.2020
1008 Clouds 7 991 87 9000 10.8 210 09:18 15.03.2020
1009 Clouds 6 991 81 10000 9.8 210 08:40 15.03.2020
1010 Rain 6 991 87 8000 10.3 210 08:19 15.03.2020
1011 Rain 6 991 87 3900 12.3 200 07:45 15.03.2020
1012 Clouds 6 990 75 10000 11.8 200 07:21 15.03.2020
1013 Clouds 7 991 75 10000 10.8 200 06:36 15.03.2020
1014 Clouds 7 991 81 10000 10.8 200 05:46 15.03.2020
1015 Clouds 7 991 75 10000 10.8 210 04:55 15.03.2020
1016 Clouds 7 991 75 10000 10.8 210 04:33 15.03.2020
1017 Clouds 7 992 81 10000 9.8 200 03:59 15.03.2020
1018 Clouds 7 992 75 10000 11.8 210 02:49 15.03.2020
1019 Clouds 8 993 81 10000 10.3 200 02:18 15.03.2020
1020 Rain 8 993 81 10000 9.8 210 00:57 15.03.2020
1021 Rain 8 993 81 10000 9.8 210 00:38 15.03.2020
1022 Rain 8 993 81 10000 9.8 210 00:18 15.03.2020
1023 Rain 8 993 93 10000 8.7 220 23:38 14.03.2020
1024 Rain 9 993 87 10000 11.3 210 23:19 14.03.2020
1025 Rain 9 994 87 10000 10.8 210 22:46 14.03.2020
1026 Rain 9 994 87 10000 10.8 210 22:27 14.03.2020
1027 Rain 9 994 81 10000 10.8 200 21:57 14.03.2020
1028 Rain 9 994 87 10000 9.3 210 21:37 14.03.2020
1029 Rain 9 994 87 10000 9.3 210 21:37 14.03.2020
1030 Rain 9 995 87 10000 12.3 210 21:19 14.03.2020
1031 Rain 9 995 87 10000 12.3 210 20:59 14.03.2020
1032 Rain 9 995 93 10000 9.8 210 20:41 14.03.2020
1033 Rain 8 995 93 6000 8.2 190 20:20 14.03.2020
1034 Rain 8 995 93 6000 8.2 190 19:59 14.03.2020
1035 Rain 8 995 93 4600 8.2 190 19:40 14.03.2020
1036 Rain 8 996 87 4000 7.7 190 19:20 14.03.2020
1037 Rain 7 996 93 4000 5.1 160 18:39 14.03.2020
1038 Rain 7 997 87 10000 3.6 140 18:19 14.03.2020
1039 Rain 8 998 87 10000 4.6 160 17:40 14.03.2020
1040 Rain 8 999 81 10000 6.7 180 17:21 14.03.2020
1041 Rain 8 1000 76 10000 5.1 180 16:42 14.03.2020
1042 Clouds 9 1001 70 10000 6.7 200 16:24 14.03.2020
1043 Clouds 9 1001 70 10000 6.7 200 15:59 14.03.2020
1044 Clouds 9 1002 76 10000 7.2 200 15:27 14.03.2020
1045 Clouds 9 1002 76 10000 7.2 200 14:59 14.03.2020
1046 Clouds 9 1002 81 10000 6.2 200 14:37 14.03.2020
1047 Clouds 9 1003 87 10000 5.7 210 14:19 14.03.2020
1048 Clouds 9 1003 87 10000 6.2 210 13:54 14.03.2020
1049 Clouds 9 1003 87 10000 6.2 210 13:36 14.03.2020
1050 Clouds 8 1004 87 10000 6.2 210 13:18 14.03.2020
1051 Rain 8 1004 87 10000 6.7 210 12:42 14.03.2020
1052 Drizzle 8 1004 93 5000 4.6 190 12:23 14.03.2020
1053 Rain 8 1004 87 10000 5.1 170 11:43 14.03.2020
1054 Rain 8 1004 87 10000 5.1 170 11:43 14.03.2020
1055 Clouds 7 1005 87 10000 5.1 170 11:25 14.03.2020
1056 Clouds 6 1005 87 10000 1 0 10:47 14.03.2020
1057 Clouds 6 1005 87 10000 1 0 10:47 14.03.2020
1058 Clouds 6 1006 87 10000 3.6 110 10:28 14.03.2020
1059 Rain 5 1006 93 9000 3.1 40 09:59 14.03.2020
1060 Rain 5 1006 93 9000 3.1 40 09:40 14.03.2020
1061 Rain 5 1006 93 8000 3.1 50 09:20 14.03.2020
1062 Rain 5 1007 93 10000 3.1 70 08:46 14.03.2020
1063 Rain 5 1007 86 10000 4.1 90 08:24 14.03.2020
1064 Rain 4 1007 86 10000 4.1 90 07:40 14.03.2020
1065 Rain 4 1008 86 10000 4.6 70 07:21 14.03.2020
1066 Rain 4 1008 86 10000 5.7 70 06:41 14.03.2020
1067 Rain 4 1009 86 10000 4.1 60 05:58 14.03.2020
1068 Rain 4 1010 86 10000 4.1 70 04:52 14.03.2020
1069 Snow 3 1012 86 10000 2.6 50 03:25 14.03.2020
1070 Snow 4 1012 80 10000 5.1 80 02:35 14.03.2020
1071 Clouds 4 1013 80 10000 5.1 90 01:39 14.03.2020
1072 Rain 4 1014 94 10000 4.6 80 00:22 14.03.2020
1073 Clouds 4 1015 94 10000 4.1 100 23:38 13.03.2020
1074 Clouds 4 1015 94 10000 4.1 100 23:38 13.03.2020
1075 Clouds 4 1015 91 10000 4.1 90 23:18 13.03.2020
1076 Clouds 4 1015 91 10000 4.6 90 22:41 13.03.2020
1077 Rain 4 1015 91 10000 5.1 90 22:20 13.03.2020
1078 Rain 4 1015 91 10000 5.1 90 21:40 13.03.2020
1079 Clouds 4 1015 91 10000 5.1 90 21:18 13.03.2020
1080 Clouds 5 1016 91 10000 6.2 90 20:41 13.03.2020
1081 Rain 5 1016 91 10000 5.7 90 20:22 13.03.2020
1082 Clouds 5 1016 70 10000 5.7 100 19:51 13.03.2020
1083 Clouds 5 1016 70 10000 5.7 100 19:31 13.03.2020
1084 Clouds 6 1016 65 10000 5.7 100 18:59 13.03.2020
1085 Clouds 6 1016 65 10000 5.7 100 18:39 13.03.2020
1086 Rain 6 1016 65 10000 5.7 100 18:21 13.03.2020
1087 Clouds 7 1016 65 10000 5.1 90 17:42 13.03.2020
1088 Clouds 7 1017 65 10000 6.2 100 17:21 13.03.2020
1089 Clouds 7 1017 65 10000 6.7 100 16:56 13.03.2020
1090 Clouds 7 1017 65 10000 6.7 100 16:38 13.03.2020
1091 Clouds 7 1017 73 10000 5.1 90 16:19 13.03.2020
1092 Clouds 7 1017 65 10000 5.1 80 15:41 13.03.2020
1093 Clouds 7 1018 73 10000 5.1 90 15:21 13.03.2020
1094 Clouds 7 1018 73 10000 5.1 110 14:44 13.03.2020
1095 Clouds 7 1018 73 10000 6.2 80 14:23 13.03.2020
1096 Clouds 7 1018 74 10000 6.2 80 13:59 13.03.2020
1097 Clouds 7 1018 74 10000 6.2 80 13:40 13.03.2020
1098 Clouds 7 1018 74 10000 5.7 90 13:21 13.03.2020
1099 Clouds 7 1018 65 10000 5.1 60 12:56 13.03.2020
1100 Clouds 7 1018 65 10000 5.1 60 12:38 13.03.2020
1101 Clouds 6 1018 72 10000 6.2 80 12:19 13.03.2020
1102 Clouds 6 1017 72 10000 6.2 80 11:45 13.03.2020
1103 Clouds 5 1017 72 10000 5.7 80 11:26 13.03.2020
1104 Clear 5 1017 75 10000 3.1 50 10:58 13.03.2020
1105 Clear 5 1017 75 10000 3.1 50 10:39 13.03.2020
1106 Clear 4 1016 93 10000 1 0 10:21 13.03.2020
1107 Clear 3 1016 77 10000 0.5 180 09:44 13.03.2020
1108 Clear 2 1015 77 10000 1 0 09:25 13.03.2020
1109 Clear 1 1015 92 10000 1 0 08:48 13.03.2020
1110 Clear 1 1014 77 10000 1 0 08:24 13.03.2020
1111 Clear 1 1014 87 10000 1 0 07:58 13.03.2020
1112 Clear 1 1013 87 10000 2.1 240 07:38 13.03.2020
1113 Clear 1 1013 87 10000 2.6 300 07:19 13.03.2020
1114 Clear 1 1012 87 10000 1.5 0 06:44 13.03.2020
1115 Clear 1 1012 87 10000 1.5 0 06:44 13.03.2020
1116 Clear 2 1011 87 10000 2.6 210 05:56 13.03.2020
1117 Clear 1 1011 87 10000 2.6 210 05:37 13.03.2020
1118 Clear 1 1009 91 10000 1.5 0 04:38 13.03.2020
1119 Clear 1 1008 91 10000 3.6 230 03:46 13.03.2020
1120 Clouds 2 1005 86 10000 1.5 0 01:48 13.03.2020
1121 Clouds 2 1004 93 10000 2.6 250 01:19 13.03.2020
1122 Clouds 2 1003 93 10000 1.5 240 00:56 13.03.2020
1123 Clouds 3 1002 86 10000 2.6 210 00:29 13.03.2020
1124 Clouds 3 1001 86 10000 2.6 270 23:59 12.03.2020
1125 Clouds 3 1001 86 10000 2.6 270 23:59 12.03.2020
1126 Clouds 4 1001 86 10000 3.1 270 23:28 12.03.2020
1127 Rain 4 1000 86 10000 2.6 220 22:57 12.03.2020
1128 Rain 4 1000 86 10000 2.6 220 22:39 12.03.2020
1129 Rain 4 999 93 10000 4.1 240 22:21 12.03.2020
1130 Rain 4 998 93 10000 3.6 250 21:46 12.03.2020
1131 Rain 4 998 86 10000 4.6 270 21:28 12.03.2020
1132 Rain 5 997 86 9000 6.2 280 20:58 12.03.2020
1133 Rain 5 997 86 9000 6.2 280 20:38 12.03.2020
1134 Rain 5 996 80 10000 6.7 260 20:19 12.03.2020
1135 Rain 5 995 75 10000 7.2 270 19:41 12.03.2020
1136 Rain 5 994 70 10000 8.7 280 19:20 12.03.2020
1137 Rain 6 993 86 10000 9.8 280 18:44 12.03.2020
1138 Rain 6 991 87 10000 11.3 270 18:24 12.03.2020
1139 Rain 6 989 87 10000 8.2 250 17:57 12.03.2020
1140 Rain 6 989 87 10000 8.2 250 17:39 12.03.2020
1141 Clouds 7 991 81 10000 11.3 250 17:20 12.03.2020
1142 Rain 7 988 87 10000 9.3 240 16:55 12.03.2020
1143 Rain 6 988 87 10000 9.3 240 16:37 12.03.2020
1144 Rain 7 987 87 10000 9.8 240 16:18 12.03.2020
1145 Rain 6 987 87 5000 10.8 220 15:45 12.03.2020
1146 Rain 6 987 87 5000 10.8 220 15:26 12.03.2020
1147 Rain 6 989 87 4000 12.3 210 14:41 12.03.2020
1148 Rain 5 989 93 10000 12.3 200 14:23 12.03.2020
1149 Rain 6 990 81 6000 11.3 200 13:56 12.03.2020
1150 Rain 6 990 81 6000 11.3 200 13:36 12.03.2020
1151 Rain 6 991 81 2900 10.3 200 13:18 12.03.2020
1152 Rain 6 991 75 6000 10.8 200 12:41 12.03.2020
1153 Clouds 6 992 81 10000 11.8 210 12:21 12.03.2020
1154 Clouds 6 992 81 10000 12.3 210 11:57 12.03.2020
1155 Clouds 6 992 81 10000 12.3 210 11:57 12.03.2020
1156 Clouds 5 992 81 10000 12.3 210 11:38 12.03.2020
1157 Rain 5 992 86 10000 11.3 210 11:19 12.03.2020
1158 Rain 5 993 86 5000 11.3 210 10:58 12.03.2020
1159 Rain 4 993 86 5000 11.3 210 10:40 12.03.2020
1160 Clouds 4 993 80 10000 11.8 210 10:22 12.03.2020
1161 Clouds 4 993 86 10000 10.8 220 09:46 12.03.2020
1162 Clouds 4 993 86 10000 10.8 220 09:25 12.03.2020
1163 Clouds 3 993 80 10000 11.8 210 08:44 12.03.2020
1164 Rain 2 993 86 10000 9.3 210 08:20 12.03.2020
1165 Rain 2 993 93 6000 7.2 200 07:56 12.03.2020
1166 Rain 2 993 93 6000 7.2 200 07:38 12.03.2020
1167 Rain 2 994 89 4400 6.7 210 07:20 12.03.2020
1168 -273 0 0 0 0 0 05:51 12.03.2020
1169 Snow 1 994 89 10000 3.6 250 05:25 12.03.2020
1170 Drizzle 2 993 82 1600 13.4 250 02:41 12.03.2020
1171 Clouds 2 992 86 10000 5.1 210 01:32 12.03.2020
1172 Snow 2 991 86 10000 5.7 210 00:47 12.03.2020
1173 Snow 2 991 93 10000 4.6 220 00:27 12.03.2020
1174 Snow 2 991 93 10000 3.1 240 23:47 11.03.2020
1175 Rain 2 991 86 10000 5.1 270 23:25 11.03.2020
1176 Rain 2 991 93 7000 7.2 230 22:48 11.03.2020
1177 Rain 2 991 86 10000 5.7 210 22:30 11.03.2020
1178 Rain 2 991 86 10000 5.7 210 21:59 11.03.2020
1179 Rain 3 991 86 10000 5.7 210 21:41 11.03.2020
1180 Rain 3 991 86 10000 6.2 210 21:22 11.03.2020
1181 Rain 3 991 86 10000 6.2 210 20:58 11.03.2020
1182 Clouds 3 992 86 10000 4.1 220 20:39 11.03.2020
1183 Rain 3 991 86 10000 3.1 210 20:19 11.03.2020
1184 Rain 3 992 86 10000 6.2 230 19:44 11.03.2020
1185 Rain 4 993 75 10000 8.7 240 19:25 11.03.2020
1186 Rain 4 993 75 10000 8.7 240 18:59 11.03.2020
1187 Rain 5 993 80 10000 6.7 250 18:40 11.03.2020
1188 Rain 5 993 81 10000 6.2 220 18:21 11.03.2020
1189 Clouds 6 994 81 10000 7.2 230 17:58 11.03.2020
1190 Clouds 6 994 81 10000 7.2 230 17:58 11.03.2020
1191 Clouds 6 994 81 10000 7.2 230 17:39 11.03.2020
1192 Clouds 6 994 75 10000 6.2 220 17:20 11.03.2020
1193 Clouds 7 994 75 10000 7.2 240 16:46 11.03.2020
1194 Rain 7 995 81 10000 8.2 230 16:23 11.03.2020
1195 Rain 7 995 81 10000 8.2 230 15:57 11.03.2020
1196 Rain 6 996 86 10000 7.2 250 15:39 11.03.2020
1197 Rain 7 996 75 10000 10.8 270 15:21 11.03.2020
1198 Rain 7 996 65 10000 10.8 220 14:42 11.03.2020
1199 Rain 7 996 75 10000 9.3 230 14:22 11.03.2020
1200 Clouds 7 996 65 10000 9.3 240 13:45 11.03.2020
1201 Snow 8 996 61 10000 11.8 240 13:27 11.03.2020
1202 Snow 8 996 61 10000 11.8 240 12:58 11.03.2020
1203 Snow 7 996 70 10000 11.3 230 12:40 11.03.2020
1204 Snow 7 996 65 10000 10.8 230 12:19 11.03.2020
1205 Clouds 7 996 70 10000 10.8 240 11:55 11.03.2020
1206 Clouds 7 996 70 10000 10.8 240 11:36 11.03.2020
1207 Rain 7 996 70 10000 11.3 230 11:18 11.03.2020
1208 Rain 6 996 75 10000 8.2 220 10:42 11.03.2020
1209 Rain 6 996 81 10000 10.3 240 10:18 11.03.2020
1210 Rain 7 996 93 10000 8.7 240 09:43 11.03.2020
1211 Rain 7 995 87 4200 14.4 210 09:25 11.03.2020
1212 Rain 7 995 87 10000 11.8 200 08:49 11.03.2020
1213 Rain 7 995 87 10000 11.8 200 08:31 11.03.2020
1214 Rain 7 996 87 7000 13.4 200 07:59 11.03.2020
1215 Rain 7 996 87 10000 11.3 210 07:38 11.03.2020
1216 Clouds 6 996 81 10000 12.9 210 07:18 11.03.2020
1217 Clouds 7 997 81 10000 11.8 200 06:37 11.03.2020
1218 Clouds 5 998 81 10000 7.7 190 05:35 11.03.2020
1219 Clouds 5 999 75 10000 9.3 200 04:18 11.03.2020
1220 Clouds 5 1000 81 10000 5.7 210 02:19 11.03.2020
1221 Clouds 5 1000 86 10000 6.7 210 01:27 11.03.2020
1222 Rain 4 1001 86 7000 5.7 220 00:45 11.03.2020
1223 Rain 5 1000 86 10000 4.1 240 23:57 10.03.2020
1224 Rain 4 1000 86 10000 4.1 240 23:39 10.03.2020
1225 Rain 4 1000 86 10000 6.7 230 23:20 10.03.2020
1226 Rain 5 1000 86 8000 8.7 260 22:38 10.03.2020
1227 Clouds 5 999 75 10000 6.7 250 22:19 10.03.2020
1228 Rain 5 999 80 10000 9.3 240 21:56 10.03.2020
1229 Rain 5 999 80 10000 9.3 240 21:38 10.03.2020
1230 Clouds 5 998 81 10000 9.3 240 21:19 10.03.2020
1231 Clouds 5 998 81 10000 6.2 230 20:57 10.03.2020
1232 Clouds 5 998 81 10000 6.2 230 20:38 10.03.2020
1233 Rain 5 997 86 10000 6.2 220 20:18 10.03.2020
1234 Rain 5 997 86 10000 6.2 220 19:56 10.03.2020
1235 Rain 6 997 80 10000 5.7 230 19:36 10.03.2020
1236 Rain 6 996 75 10000 7.7 250 19:18 10.03.2020
1237 Rain 7 996 81 10000 6.7 250 18:43 10.03.2020
1238 Rain 7 995 81 10000 8.2 260 18:25 10.03.2020
1239 Rain 7 994 75 10000 8.2 260 17:56 10.03.2020
1240 Rain 8 994 75 10000 8.2 260 17:38 10.03.2020
1241 Rain 8 994 70 10000 9.8 260 17:20 10.03.2020
1242 Clouds 9 993 70 10000 10.3 270 16:38 10.03.2020
1243 Clouds 9 993 70 10000 10.3 270 16:38 10.03.2020
1244 Rain 9 993 76 10000 9.3 270 16:18 10.03.2020
1245 Rain 9 993 76 10000 9.3 270 15:55 10.03.2020
1246 Clouds 9 992 76 10000 8.2 280 15:36 10.03.2020
1247 Rain 8 992 87 4900 10.3 270 15:18 10.03.2020
1248 Clouds 9 990 76 10000 8.2 270 14:40 10.03.2020
1249 Rain 9 990 87 6000 10.3 250 14:19 10.03.2020
1250 Rain 8 990 87 6000 9.8 250 13:45 10.03.2020
1251 Rain 8 990 87 6000 9.8 250 13:45 10.03.2020
1252 Rain 8 990 81 10000 7.7 250 13:27 10.03.2020
1253 Rain 9 990 81 10000 7.7 250 12:59 10.03.2020
1254 Rain 9 989 87 9000 9.8 240 12:39 10.03.2020
1255 Rain 9 989 81 10000 9.3 240 12:18 10.03.2020
1256 Rain 9 989 87 5000 7.2 240 11:43 10.03.2020
1257 Rain 9 989 81 10000 7.7 250 11:24 10.03.2020
1258 Rain 9 989 81 7000 11.3 250 10:58 10.03.2020
1259 Rain 8 989 81 7000 11.3 250 10:40 10.03.2020
1260 Rain 8 989 87 6000 10.8 240 10:21 10.03.2020
1261 Rain 8 989 81 10000 10.3 240 09:56 10.03.2020
1262 Rain 8 989 81 10000 10.3 240 09:37 10.03.2020
1263 Rain 9 989 81 10000 10.8 240 09:18 10.03.2020
1264 Rain 9 988 81 8000 10.3 240 08:43 10.03.2020
1265 Rain 9 989 87 10000 8.7 230 08:25 10.03.2020
1266 Rain 9 989 87 8000 6.7 230 07:45 10.03.2020
1267 Rain 9 989 87 8000 6.7 230 07:27 10.03.2020
1268 Clouds 9 989 81 10000 8.7 240 06:38 10.03.2020
1269 Rain 9 990 87 10000 8.7 240 05:58 10.03.2020
1270 Rain 9 990 87 10000 8.7 240 05:38 10.03.2020
1271 Rain 9 990 87 10000 7.7 200 04:33 10.03.2020
1272 Rain 9 991 87 9000 5.7 210 03:31 10.03.2020
1273 Rain 9 990 93 7000 9.8 240 01:43 10.03.2020
1274 Clouds 9 991 93 10000 6.7 230 00:52 10.03.2020
1275 Rain 9 991 93 10000 5.7 230 00:29 10.03.2020
1276 Rain 9 990 87 10000 6.7 230 23:55 09.03.2020
1277 Rain 9 990 87 10000 6.7 230 23:36 09.03.2020
1278 Clouds 9 991 87 10000 6.7 230 23:18 09.03.2020
1279 Rain 9 990 93 10000 7.2 250 22:38 09.03.2020
1280 Drizzle 9 990 93 4900 7.7 230 22:20 09.03.2020
1281 Rain 9 990 93 3700 10.8 220 21:45 09.03.2020
1282 Drizzle 8 990 93 4700 9.3 220 21:22 09.03.2020
1283 Drizzle 8 990 93 4700 9.3 220 20:58 09.03.2020
1284 Rain 8 990 100 5000 9.3 210 20:40 09.03.2020
1285 Rain 7 991 93 7000 9.8 200 20:22 09.03.2020
1286 Rain 7 991 93 7000 9.8 200 19:59 09.03.2020
1287 Rain 7 991 93 7000 9.8 200 19:59 09.03.2020
1288 Rain 7 992 93 8000 7.7 210 19:41 09.03.2020
1289 Drizzle 6 992 93 5000 6.2 190 19:18 09.03.2020
1290 Rain 6 994 93 8000 2.6 140 18:56 09.03.2020
1291 Rain 5 994 93 8000 2.6 140 18:37 09.03.2020
1292 Rain 5 995 86 7000 2.6 140 18:18 09.03.2020
1293 Rain 5 996 93 10000 4.1 160 17:55 09.03.2020
1294 Rain 5 996 93 10000 4.1 160 17:55 09.03.2020
1295 Rain 5 996 93 10000 4.1 160 17:36 09.03.2020
1296 Drizzle 4 997 93 5000 5.7 170 17:18 09.03.2020
1297 Rain 5 998 86 6000 7.7 180 16:42 09.03.2020
1298 Rain 5 1000 81 9000 7.7 190 16:22 09.03.2020
1299 Rain 6 1000 81 9000 7.7 190 15:59 09.03.2020
1300 Rain 6 1000 81 9000 7.7 190 15:40 09.03.2020
1301 Rain 7 1001 87 10000 8.7 210 15:21 09.03.2020
1302 Rain 7 1001 87 10000 8.7 210 15:21 09.03.2020
1303 Rain 7 1002 87 7000 8.7 210 14:59 09.03.2020
1304 Clouds 8 1002 87 9000 9.8 210 14:38 09.03.2020
1305 Clouds 8 1002 87 9000 9.8 210 14:20 09.03.2020
1306 Rain 8 1003 93 10000 9.3 210 13:58 09.03.2020
1307 Rain 8 1003 93 10000 9.3 210 13:39 09.03.2020
1308 Clouds 8 1003 87 10000 8.7 210 13:19 09.03.2020
1309 Clouds 8 1003 87 10000 9.3 210 12:43 09.03.2020
1310 Clouds 8 1003 87 10000 8.7 220 12:23 09.03.2020
1311 Rain 8 1003 81 10000 7.7 240 11:58 09.03.2020
1312 Rain 8 1003 81 10000 5.7 240 11:38 09.03.2020
1313 Rain 8 1003 81 10000 5.7 240 11:38 09.03.2020
1314 Clouds 8 1003 81 10000 5.7 240 11:19 09.03.2020
1315 Clouds 8 1003 81 10000 4.6 250 10:55 09.03.2020
1316 Clouds 7 1004 87 10000 4.1 240 10:36 09.03.2020
1317 Clouds 7 1004 87 10000 4.1 240 10:18 09.03.2020
1318 Clouds 6 1003 87 10000 4.6 220 09:40 09.03.2020
1319 Clouds 6 1003 87 10000 4.6 220 09:21 09.03.2020
1320 Clouds 5 1003 86 10000 6.2 230 08:44 09.03.2020
1321 Rain 5 1003 93 10000 5.7 220 08:26 09.03.2020
1322 Rain 5 1002 87 10000 4.6 250 07:42 09.03.2020
1323 Clouds 5 1002 87 10000 5.7 240 07:22 09.03.2020
1324 Clouds 5 1002 87 10000 5.7 240 07:22 09.03.2020
1325 Clouds 5 1001 87 10000 6.2 230 06:46 09.03.2020
1326 Clouds 5 1001 93 10000 3.6 230 06:27 09.03.2020
1327 Rain 5 1001 87 10000 3.6 210 05:58 09.03.2020
1328 Clouds 4 1000 93 10000 3.1 210 05:39 09.03.2020
1329 Clouds 4 1000 86 10000 4.6 210 04:43 09.03.2020
1330 Clouds 4 1000 86 10000 5.7 220 04:22 09.03.2020
1331 Clouds 4 999 93 10000 4.6 230 03:28 09.03.2020
1332 Clouds 5 998 93 10000 5.1 230 01:50 09.03.2020
1333 Rain 5 997 93 10000 4.6 220 00:40 09.03.2020
1334 Clouds 4 997 93 10000 4.6 220 00:22 09.03.2020
1335 Clouds 5 997 81 10000 4.6 220 23:53 08.03.2020
1336 Rain 5 997 86 10000 2.6 240 23:25 08.03.2020
1337 Rain 5 997 86 10000 4.6 240 22:58 08.03.2020
1338 Rain 5 996 86 10000 2.6 220 22:39 08.03.2020
1339 Rain 5 996 86 10000 2.6 220 22:20 08.03.2020
1340 Rain 5 996 93 10000 3.6 210 21:56 08.03.2020
1341 Rain 5 996 93 10000 3.6 210 21:56 08.03.2020
1342 Clouds 4 996 86 10000 6.2 220 21:38 08.03.2020
1343 Clouds 4 996 86 10000 6.2 220 21:19 08.03.2020
1344 Rain 4 995 86 10000 6.2 220 20:40 08.03.2020
1345 Rain 4 995 86 10000 6.2 220 20:40 08.03.2020
1346 Rain 4 995 86 10000 6.2 220 20:21 08.03.2020
1347 Rain 4 995 86 10000 6.2 220 20:21 08.03.2020
1348 Rain 4 995 86 10000 7.7 230 19:57 08.03.2020
1349 Rain 5 995 86 10000 7.7 230 19:37 08.03.2020
1350 Rain 5 995 81 10000 5.7 210 19:19 08.03.2020
1351 Rain 5 995 81 10000 5.7 210 18:42 08.03.2020
1352 Rain 5 995 81 10000 5.7 210 18:42 08.03.2020
1353 Rain 5 995 81 10000 5.7 210 18:24 08.03.2020
1354 Rain 6 995 87 10000 5.1 210 17:56 08.03.2020
1355 Rain 6 994 81 10000 7.2 240 17:38 08.03.2020
1356 Rain 6 994 81 10000 7.2 240 17:19 08.03.2020
1357 Rain 7 994 81 10000 7.2 240 16:46 08.03.2020
1358 Rain 8 994 81 10000 7.2 240 16:27 08.03.2020
1359 Rain 8 993 70 10000 8.2 220 15:56 08.03.2020
1360 Rain 8 993 75 10000 6.7 240 15:38 08.03.2020
1361 Rain 8 993 75 10000 6.7 240 15:19 08.03.2020
1362 Rain 8 993 75 10000 4.6 270 14:40 08.03.2020
1363 Rain 8 993 75 10000 4.6 270 14:21 08.03.2020
1364 Rain 8 993 75 10000 4.6 270 13:57 08.03.2020
1365 Rain 8 993 81 10000 7.2 260 13:38 08.03.2020
1366 Rain 8 993 81 10000 11.8 220 13:19 08.03.2020
1367 Clouds 8 993 81 10000 10.3 220 12:41 08.03.2020
1368 Clouds 8 993 81 10000 10.3 220 12:21 08.03.2020
1369 Clouds 8 993 81 10000 10.8 220 11:54 08.03.2020
1370 Clouds 8 993 81 10000 9.8 220 11:36 08.03.2020
1371 Clouds 7 993 81 10000 9.8 220 11:18 08.03.2020
1372 Rain 7 992 87 10000 8.2 210 10:41 08.03.2020
1373 Rain 7 992 87 10000 8.2 210 10:23 08.03.2020
1374 Clouds 7 992 81 10000 9.8 230 09:43 08.03.2020
1375 Clouds 7 992 81 10000 9.8 230 09:24 08.03.2020
1376 Rain 6 991 81 10000 8.2 230 08:51 08.03.2020
1377 Rain 6 991 87 10000 8.2 230 08:28 08.03.2020
1378 Rain 6 991 87 10000 8.2 230 07:56 08.03.2020
1379 Rain 6 991 87 10000 7.2 230 07:37 08.03.2020
1380 Rain 6 991 81 10000 8.2 230 07:18 08.03.2020
1381 Rain 7 990 87 10000 6.7 230 06:40 08.03.2020
1382 Rain 7 990 87 10000 5.1 240 06:22 08.03.2020
1383 Clouds 7 989 81 10000 6.2 240 05:19 08.03.2020
1384 Rain 8 989 87 10000 9.8 230 03:50 08.03.2020
1385 Clouds 9 989 87 10000 6.7 220 02:28 08.03.2020
1386 Rain 10 988 93 6000 13.9 220 01:22 08.03.2020
1387 Clouds 10 988 87 10000 13.4 200 00:43 08.03.2020
1388 Clouds 10 988 87 10000 13.4 200 00:24 08.03.2020
1389 Rain 10 989 87 10000 12.3 190 23:43 07.03.2020
1390 Clouds 10 989 87 10000 12.3 190 23:22 07.03.2020
1391 Rain 10 990 87 9000 13.4 200 22:40 07.03.2020
1392 Rain 10 990 87 9000 13.4 200 22:21 07.03.2020
1393 Rain 10 991 87 7000 12.3 190 21:48 07.03.2020
1394 Rain 10 991 87 7000 11.8 190 21:24 07.03.2020
1395 Rain 10 992 87 6000 11.8 190 20:42 07.03.2020
1396 Rain 10 993 87 10000 11.8 190 20:23 07.03.2020
1397 Rain 10 994 87 8000 11.3 190 19:57 07.03.2020
1398 Rain 10 994 87 7000 9.8 190 19:38 07.03.2020
1399 Rain 10 994 87 7000 9.8 190 19:19 07.03.2020
1400 Rain 10 995 93 9000 8.2 190 18:41 07.03.2020
1401 Rain 10 995 93 8000 9.8 190 18:22 07.03.2020
1402 Rain 10 996 87 9000 7.7 190 17:43 07.03.2020
1403 Rain 11 996 87 9000 7.7 200 17:22 07.03.2020
1404 Clouds 11 997 87 10000 10.3 210 16:59 07.03.2020
1405 Clouds 11 997 87 10000 10.3 210 16:41 07.03.2020
1406 Clouds 11 997 87 10000 12.9 200 16:22 07.03.2020
1407 Clouds 11 998 81 10000 12.3 210 15:57 07.03.2020
1408 Clouds 11 998 87 10000 11.8 210 15:37 07.03.2020
1409 Clouds 11 998 87 10000 11.8 210 15:19 07.03.2020
1410 Clouds 11 999 87 10000 11.3 210 14:46 07.03.2020
1411 Rain 11 999 93 10000 11.3 210 14:26 07.03.2020
1412 Rain 10 1000 93 10000 12.9 210 13:59 07.03.2020
1413 Rain 10 1000 93 10000 11.8 210 13:39 07.03.2020
1414 Rain 10 1000 93 10000 11.8 210 13:19 07.03.2020
1415 Rain 10 1000 93 7000 10.3 210 12:42 07.03.2020
1416 Rain 10 1000 93 8000 11.8 200 12:20 07.03.2020
1417 Rain 10 1001 93 8000 9.8 200 11:57 07.03.2020
1418 Rain 10 1001 93 8000 9.8 200 11:57 07.03.2020
1419 Rain 9 1001 93 8000 9.8 200 11:39 07.03.2020
1420 Rain 9 1001 93 5000 9.3 200 11:20 07.03.2020
1421 Rain 8 1002 93 7000 9.8 210 10:41 07.03.2020
1422 Rain 8 1002 93 7000 10.3 200 10:20 07.03.2020
1423 Clouds 8 1002 93 10000 9.3 210 09:56 07.03.2020
1424 Clouds 7 1003 93 10000 6.7 210 09:37 07.03.2020
1425 Clouds 7 1003 93 10000 6.7 210 09:18 07.03.2020
1426 Clouds 7 1003 100 10000 8.2 210 08:44 07.03.2020
1427 Clouds 6 1003 93 10000 6.7 200 08:21 07.03.2020
1428 Rain 6 1003 93 7000 3.6 180 07:49 07.03.2020
1429 Rain 5 1004 93 6000 2.1 170 07:23 07.03.2020
1430 Rain 5 1004 87 0 2.95 177 06:55 07.03.2020
1431 Rain 4 1005 87 0 2.95 177 06:29 07.03.2020
1432 Drizzle 4 1006 93 3800 5.1 210 05:52 07.03.2020
1433 Drizzle 4 1007 100 3500 4.6 200 04:42 07.03.2020
1434 Clouds 3 1008 100 10000 1 40 02:47 07.03.2020
1435 Clouds 3 1008 100 10000 1 0 02:24 07.03.2020
1436 Clouds 2 1008 92 10000 0.5 0 01:26 07.03.2020
1437 Clouds 3 1009 93 10000 3.1 190 00:38 07.03.2020
1438 Clouds 3 1009 93 10000 3.1 190 00:19 07.03.2020
1439 Clouds 3 1009 86 10000 2.6 190 23:43 06.03.2020
1440 Rain 3 1009 93 10000 1.5 0 23:25 06.03.2020
1441 Clouds 3 1008 86 10000 3.1 200 22:47 06.03.2020
1442 Clouds 4 1008 86 10000 4.1 240 22:21 06.03.2020
1443 Clouds 4 1008 86 10000 4.1 240 21:54 06.03.2020
1444 Clouds 4 1007 80 10000 2.1 240 21:36 06.03.2020
1445 Clouds 5 1007 80 10000 2.1 240 21:18 06.03.2020
1446 Clouds 5 1006 93 10000 4.6 230 20:37 06.03.2020
1447 Clouds 5 1006 93 10000 4.6 230 20:19 06.03.2020
1448 Clouds 5 1006 93 10000 4.1 220 19:44 06.03.2020
1449 Rain 5 1006 87 10000 6.7 220 19:26 06.03.2020
1450 Rain 6 1006 81 10000 5.1 220 18:44 06.03.2020
1451 Rain 6 1005 81 10000 5.1 230 18:21 06.03.2020
1452 Clouds 6 1005 81 10000 5.7 220 17:58 06.03.2020
1453 Clouds 6 1005 81 10000 5.7 220 17:40 06.03.2020
1454 Clouds 6 1005 81 10000 6.7 230 17:21 06.03.2020
1455 Clouds 6 1005 70 10000 6.2 230 16:57 06.03.2020
1456 Clouds 7 1005 70 10000 6.2 230 16:39 06.03.2020
1457 Clouds 7 1005 70 10000 6.2 230 16:19 06.03.2020
1458 Clouds 7 1005 81 10000 2.1 250 15:42 06.03.2020
1459 Rain 7 1004 81 10000 2.6 250 15:23 06.03.2020
1460 Clouds 7 1005 70 10000 0.5 0 14:42 06.03.2020
1461 Clouds 6 1005 75 10000 0.5 0 14:24 06.03.2020
1462 Clouds 6 1005 80 10000 1 0 13:58 06.03.2020
1463 Clouds 6 1005 80 10000 1 0 13:58 06.03.2020
1464 Clouds 6 1004 81 10000 2.38 185 13:40 06.03.2020
1465 Clouds 6 1004 86 10000 1 0 13:20 06.03.2020
1466 Clouds 5 1004 93 10000 0.5 0 12:54 06.03.2020
1467 Clouds 5 1004 93 9000 1 0 12:36 06.03.2020
1468 Clouds 4 1004 93 9000 1 0 12:18 06.03.2020
1469 Clouds 4 1004 100 9000 0.5 0 11:42 06.03.2020
1470 Clouds 3 1004 93 7000 0.5 0 11:20 06.03.2020
1471 Clouds 3 1003 100 8000 1.5 0 10:56 06.03.2020
1472 Clouds 2 1003 86 6000 1 0 10:36 06.03.2020
1473 Clouds 2 1003 86 6000 1 0 10:18 06.03.2020
1474 Clouds 1 1003 86 7000 1 0 09:42 06.03.2020
1475 Clouds 1 1002 86 6000 0.5 0 09:23 06.03.2020
1476 Clouds 1 1002 86 6000 0.5 0 09:23 06.03.2020
1477 Clouds 0 1002 100 6000 0.5 0 08:56 06.03.2020
1478 Mist 0 1001 100 4000 0.5 0 08:37 06.03.2020
1479 Mist -1 1001 100 4000 0.5 0 08:18 06.03.2020
1480 Mist -1 1001 100 2000 0.5 0 07:41 06.03.2020
1481 Fog -1 1000 100 1500 1 100 07:21 06.03.2020
1482 Fog -1 1000 100 900 0.5 0 06:42 06.03.2020
1483 Fog -1 1000 100 900 0.5 0 06:18 06.03.2020
1484 Fog -1 999 92 900 1.5 230 05:37 06.03.2020
1485 Fog 0 999 92 900 1.5 230 05:18 06.03.2020
1486 Clouds 1 999 93 10000 0.7 5 04:25 06.03.2020
1487 Mist 2 998 94 3500 1.5 250 01:43 06.03.2020
1488 Mist 2 998 94 4200 0.5 260 01:25 06.03.2020
1489 Clouds 2 998 93 7000 1 240 00:48 06.03.2020
1490 Clouds 2 998 100 9000 0.5 0 00:20 06.03.2020
1491 Clouds 2 998 100 10000 1 0 23:43 05.03.2020
1492 Clouds 2 998 100 10000 0.5 230 23:24 05.03.2020
1493 Clouds 2 998 93 8000 0.5 30 22:55 05.03.2020
1494 Clouds 2 998 93 10000 1 0 22:36 05.03.2020
1495 Clouds 2 998 93 10000 1 0 22:18 05.03.2020
1496 Clouds 3 998 93 10000 0.5 0 21:54 05.03.2020
1497 Clouds 3 998 93 10000 0.5 0 21:36 05.03.2020
1498 Clouds 3 998 93 10000 0.5 0 21:18 05.03.2020
1499 Clouds 3 998 86 10000 0.5 0 20:41 05.03.2020
1500 Rain 4 998 86 10000 0.5 0 20:20 05.03.2020
1501 Rain 4 998 80 10000 0.5 0 19:58 05.03.2020
1502 Rain 4 998 80 10000 1 0 19:39 05.03.2020
1503 Rain 5 998 80 10000 1 0 19:20 05.03.2020
1504 Rain 5 998 80 10000 1 10 18:58 05.03.2020
1505 Clouds 5 998 80 10000 1.5 350 18:37 05.03.2020
1506 Clouds 5 998 80 10000 1.5 350 18:37 05.03.2020
1507 Clouds 6 998 80 10000 1.5 350 18:18 05.03.2020
1508 Rain 6 998 80 10000 1.5 310 17:43 05.03.2020
1509 Rain 6 998 81 10000 2.6 300 17:24 05.03.2020
1510 Clouds 6 998 81 10000 1.5 0 16:59 05.03.2020
1511 Clouds 7 998 81 10000 1.5 260 16:41 05.03.2020
1512 Clouds 7 998 81 10000 1.5 260 16:21 05.03.2020
1513 Clouds 7 998 81 10000 2.1 240 15:45 05.03.2020
1514 Clouds 7 999 75 10000 1.5 0 15:24 05.03.2020
1515 Clouds 7 999 81 10000 0.5 0 14:59 05.03.2020
1516 Clouds 6 999 81 10000 0.5 0 14:41 05.03.2020
1517 Clouds 6 999 80 10000 1 0 14:22 05.03.2020
1518 Clouds 6 1000 80 10000 0.5 0 13:57 05.03.2020
1519 Clouds 6 1000 80 10000 1 0 13:38 05.03.2020
1520 Clouds 6 1000 80 10000 1 0 13:20 05.03.2020
1521 Clouds 5 1000 86 10000 1 0 12:42 05.03.2020
1522 Clouds 5 1000 80 10000 1 0 12:21 05.03.2020
1523 Clouds 5 1000 80 10000 1 0 11:58 05.03.2020
1524 Clouds 4 1001 80 10000 1 0 11:38 05.03.2020
1525 Clouds 4 1001 80 10000 1 0 11:19 05.03.2020
1526 Clouds 3 1001 86 10000 2.1 100 10:58 05.03.2020
1527 Clouds 3 1001 87 10000 2.6 100 10:40 05.03.2020
1528 Clouds 3 1001 87 10000 2.6 100 10:40 05.03.2020
1529 Clouds 2 1001 87 10000 2.6 100 10:21 05.03.2020
1530 Clouds 1 1001 87 10000 1.5 0 09:49 05.03.2020
1531 Clouds 0 1001 87 10000 1.5 0 09:28 05.03.2020
1532 Clouds 0 1001 87 10000 1.5 0 08:59 05.03.2020
1533 Clouds 0 1001 87 10000 1.5 0 08:41 05.03.2020
1534 Clouds 0 1001 87 10000 0.5 0 08:22 05.03.2020
1535 Clouds 0 1001 96 10000 0.5 0 07:42 05.03.2020
1536 Clouds 0 1001 96 10000 1 150 07:21 05.03.2020
1537 Clouds 0 1001 96 10000 1 170 06:44 05.03.2020
1538 Clouds 0 1002 96 8000 0.5 10 06:20 05.03.2020
1539 Clouds 0 1002 96 10000 0.5 0 05:35 05.03.2020
1540 Clouds 0 1002 96 10000 0.5 0 05:35 05.03.2020
1541 Clouds -1 1003 94 6000 1 0 04:23 05.03.2020
1542 Clouds -1 1003 94 6000 1 0 04:23 05.03.2020
1543 Clouds -1 1003 100 9000 1 0 03:58 05.03.2020
1544 Clouds 0 1004 94 10000 1 0 02:32 05.03.2020
1545 Clouds 0 1004 93 10000 1 0 01:26 05.03.2020
1546 Clouds 0 1004 92 10000 1.5 10 00:44 05.03.2020
1547 Clouds 1 1005 92 10000 0.5 10 23:57 04.03.2020
1548 Clouds 1 1005 92 10000 0.5 0 23:39 04.03.2020
1549 Clouds 2 1005 89 10000 0.5 0 23:20 04.03.2020
1550 Clouds 2 1005 89 10000 1.5 0 22:55 04.03.2020
1551 Clouds 2 1005 86 10000 1.5 280 22:36 04.03.2020
1552 Clouds 2 1005 86 10000 1.5 280 22:18 04.03.2020
1553 Clouds 2 1005 86 10000 2.1 0 21:41 04.03.2020
1554 Clouds 3 1005 80 10000 4.1 200 21:41 04.03.2020
1555 Clouds 3 1005 80 10000 4.1 200 21:21 04.03.2020
1556 Clouds 3 1005 89 10000 3.1 220 20:58 04.03.2020
1557 Clouds 3 1005 89 10000 3.1 220 20:58 04.03.2020
1558 Clouds 3 1005 89 10000 3.6 220 20:39 04.03.2020
1559 Clouds 4 1005 86 10000 3.6 220 20:21 04.03.2020
1560 Clouds 4 1005 86 10000 3.1 200 19:43 04.03.2020
1561 Clouds 4 1005 86 10000 2.6 230 19:24 04.03.2020
1562 Clouds 5 1005 70 10000 3.6 240 18:59 04.03.2020
1563 Clouds 6 1005 70 10000 3.6 240 18:41 04.03.2020
1564 Clouds 7 1005 70 10000 3.6 230 18:22 04.03.2020
1565 Clouds 6 1005 86 10000 4.1 220 17:57 04.03.2020
1566 Clouds 7 1005 86 10000 4.6 220 17:38 04.03.2020
1567 Rain 8 1005 67 10000 4.6 220 17:20 04.03.2020
1568 Rain 8 1005 61 10000 4.1 220 16:44 04.03.2020
1569 Clouds 8 1005 61 10000 5.1 220 16:26 04.03.2020
1570 Clouds 8 1005 65 10000 4.6 230 15:59 04.03.2020
1571 Clouds 8 1005 65 10000 4.6 230 15:59 04.03.2020
1572 Clouds 8 1005 65 10000 4.6 230 15:41 04.03.2020
1573 Clouds 8 1005 65 10000 4.1 240 15:23 04.03.2020
1574 Rain 8 1005 65 10000 5.1 220 14:56 04.03.2020
1575 Clouds 8 1006 70 10000 4.1 230 14:37 04.03.2020
1576 Clouds 8 1006 70 10000 4.1 230 14:19 04.03.2020
1577 Clouds 7 1006 75 10000 5.1 200 13:56 04.03.2020
1578 Clouds 7 1006 70 10000 4.6 200 13:38 04.03.2020
1579 Clouds 7 1006 70 10000 4.6 200 13:19 04.03.2020
1580 Rain 7 1007 75 10000 2.1 220 12:45 04.03.2020
1581 Clouds 7 1007 81 10000 2.1 260 12:27 04.03.2020
1582 Clouds 5 1007 75 10000 0.5 0 11:59 04.03.2020
1583 Clouds 5 1007 75 10000 0.5 0 11:41 04.03.2020
1584 Clouds 4 1007 93 10000 1 0 11:22 04.03.2020
1585 Clouds 3 1006 100 10000 0.5 0 10:56 04.03.2020
1586 Clouds 3 1006 100 10000 0.5 0 10:38 04.03.2020
1587 Clouds 2 1006 86 10000 0.5 0 10:18 04.03.2020
1588 Clouds 1 1006 86 10000 0.5 0 09:42 04.03.2020
1589 Clouds 0 1006 100 10000 0.5 250 09:21 04.03.2020
1590 Clouds 0 1006 100 10000 1 0 08:44 04.03.2020
1591 Clouds 1 1006 100 10000 1 60 08:26 04.03.2020
1592 Clouds 1 1006 92 10000 1 0 07:54 04.03.2020
1593 Clouds 0 1006 92 10000 1.5 90 07:35 04.03.2020
1594 Clouds 0 1006 92 10000 1 70 06:58 04.03.2020
1595 Clouds 0 1006 92 10000 1 70 06:40 04.03.2020
1596 Clouds 1 1006 92 10000 0.5 0 06:20 04.03.2020
1597 Clouds 1 1006 92 10000 2.1 30 05:45 04.03.2020
1598 Clouds 1 1006 88 10000 1 40 04:19 04.03.2020
1599 Clouds 1 1006 88 10000 1 90 03:38 04.03.2020
1600 Clouds 1 1006 88 10000 1.5 0 02:59 04.03.2020
1601 Clouds 1 1006 88 10000 1 230 02:32 04.03.2020
1602 Clouds 1 1006 86 10000 1.5 0 01:58 04.03.2020
1603 Clouds 1 1006 86 10000 1.5 0 01:38 04.03.2020
1604 Clouds 2 1006 88 10000 1.5 0 00:42 04.03.2020
1605 Clouds 2 1005 88 10000 1.5 0 00:24 04.03.2020
1606 Clouds 3 1005 88 10000 1 0 23:45 03.03.2020
1607 Clouds 3 1005 88 10000 1.5 0 23:27 03.03.2020
1608 Clear 3 1005 88 10000 2.6 270 22:56 03.03.2020
1609 Clear 3 1004 88 10000 1 230 22:38 03.03.2020
1610 Clear 3 1004 88 10000 1 230 22:19 03.03.2020
1611 Clouds 3 1004 88 10000 2.6 230 21:56 03.03.2020
1612 Clouds 3 1004 88 10000 2.1 220 21:36 03.03.2020
1613 Clouds 3 1004 88 10000 2.1 220 21:18 03.03.2020
1614 Clouds 3 1004 88 10000 2.1 220 21:18 03.03.2020
1615 Clear 4 1003 80 10000 4.1 190 20:40 03.03.2020
1616 Clouds 4 1003 80 10000 4.1 190 20:19 03.03.2020
1617 Clouds 4 1003 75 10000 4.6 210 19:58 03.03.2020
1618 Clouds 5 1002 75 10000 4.6 210 19:37 03.03.2020
1619 Clouds 5 1002 75 10000 4.6 210 19:19 03.03.2020
1620 Snow 5 1002 75 10000 4.6 240 18:57 03.03.2020
1621 Snow 6 1001 75 10000 5.7 260 18:39 03.03.2020
1622 Clouds 6 1001 75 10000 5.7 260 18:19 03.03.2020
1623 Clouds 6 1001 81 10000 5.7 290 17:55 03.03.2020
1624 Rain 7 1000 70 10000 5.7 290 17:37 03.03.2020
1625 Rain 7 1000 70 10000 5.7 290 17:18 03.03.2020
1626 Rain 7 1000 70 10000 6.2 280 16:55 03.03.2020
1627 Clouds 7 999 75 10000 7.2 280 16:36 03.03.2020
1628 Clouds 7 999 75 10000 7.2 280 16:18 03.03.2020
1629 Clouds 7 999 75 10000 7.2 280 16:18 03.03.2020
1630 Clouds 8 999 81 10000 7.2 280 15:43 03.03.2020
1631 Rain 8 998 75 10000 8.7 290 15:21 03.03.2020
1632 Rain 8 998 75 10000 8.7 290 15:21 03.03.2020
1633 Clouds 7 997 81 10000 6.2 270 14:55 03.03.2020
1634 Clouds 8 997 81 10000 6.2 240 14:36 03.03.2020
1635 Clouds 8 997 81 10000 6.2 240 14:18 03.03.2020
1636 Clouds 8 997 81 10000 5.7 250 13:42 03.03.2020
1637 Clouds 8 996 87 10000 5.1 270 13:24 03.03.2020
1638 Rain 7 996 87 10000 5.1 260 12:55 03.03.2020
1639 Clouds 8 995 81 10000 4.6 270 12:37 03.03.2020
1640 Clouds 7 995 81 10000 4.6 270 12:18 03.03.2020
1641 Clouds 7 994 81 10000 2.1 260 11:39 03.03.2020
1642 Clouds 7 994 81 10000 2.1 260 11:20 03.03.2020
1643 Clear 6 993 87 10000 2.6 240 10:58 03.03.2020
1644 Clear 6 993 87 10000 2.6 240 10:39 03.03.2020
1645 Clear 5 993 93 10000 2.6 220 10:20 03.03.2020
1646 Clear 5 992 93 10000 0.5 300 09:59 03.03.2020
1647 Clear 5 992 93 10000 0.5 300 09:40 03.03.2020
1648 Clear 4 991 100 10000 1 0 09:19 03.03.2020
1649 Clouds 4 991 100 10000 1 0 08:41 03.03.2020
1650 Clouds 4 990 93 10000 2.6 270 08:22 03.03.2020
1651 Clouds 4 990 100 10000 3.1 250 07:45 03.03.2020
1652 Clouds 3 989 93 10000 5.1 220 07:24 03.03.2020
1653 Clouds 3 989 93 10000 5.7 210 06:59 03.03.2020
1654 Rain 3 988 100 10000 5.1 220 06:39 03.03.2020
1655 Rain 3 988 100 10000 5.1 220 06:18 03.03.2020
1656 Clouds 3 988 93 10000 6.2 200 05:39 03.03.2020
1657 Rain 3 987 93 9000 11.3 210 04:48 03.03.2020
1658 Rain 4 987 93 10000 8.7 200 02:37 03.03.2020
1659 Clouds 4 987 80 10000 6.7 200 01:21 03.03.2020
1660 Snow 4 987 80 10000 7.7 220 00:40 03.03.2020
1661 Snow 4 987 80 10000 7.7 220 00:20 03.03.2020
1662 Snow 4 986 80 10000 8.2 220 23:43 02.03.2020
1663 Snow 4 986 86 10000 7.2 210 23:23 02.03.2020
1664 Clouds 4 986 86 10000 7.7 210 22:56 02.03.2020
1665 Clouds 4 986 86 10000 7.7 210 22:56 02.03.2020
1666 Clouds 4 986 86 10000 7.7 210 22:56 02.03.2020
1667 Clouds 4 986 86 10000 7.2 220 22:38 02.03.2020
1668 Clouds 4 986 86 10000 7.2 220 22:19 02.03.2020
1669 Clouds 3 986 80 10000 7.2 210 21:43 02.03.2020
1670 Clouds 4 986 80 10000 7.2 210 21:24 02.03.2020
1671 Clouds 4 986 86 10000 5.1 220 20:59 02.03.2020
1672 Clouds 4 986 86 10000 5.7 210 20:41 02.03.2020
1673 Snow 4 986 86 10000 5.7 210 20:21 02.03.2020
1674 Clouds 4 986 80 10000 7.2 210 19:57 02.03.2020
1675 Clouds 4 985 86 10000 5.7 220 19:39 02.03.2020
1676 Clouds 4 985 86 10000 5.7 220 19:20 02.03.2020
1677 Clouds 5 985 75 10000 8.7 230 18:55 02.03.2020
1678 Clouds 5 985 75 10000 8.7 230 18:55 02.03.2020
1679 Snow 5 985 70 10000 7.7 220 18:37 02.03.2020
1680 Snow 5 985 70 10000 7.7 220 18:18 02.03.2020
1681 Snow 5 985 70 10000 8.7 220 17:55 02.03.2020
1682 Clouds 5 985 70 10000 8.7 230 17:37 02.03.2020
1683 Clouds 6 985 70 10000 8.7 230 17:18 02.03.2020
1684 Clouds 6 984 70 10000 10.8 220 16:41 02.03.2020
1685 Clouds 6 984 70 10000 6.2 240 16:22 02.03.2020
1686 Clouds 6 984 75 10000 8.2 230 15:45 02.03.2020
1687 Clouds 6 984 75 10000 8.2 230 15:22 02.03.2020
1688 Clouds 6 984 81 10000 8.7 220 14:58 02.03.2020
1689 Clouds 6 984 81 10000 8.2 220 14:37 02.03.2020
1690 Clouds 6 984 81 10000 8.2 220 14:19 02.03.2020
1691 Clouds 5 984 87 10000 8.2 220 13:44 02.03.2020
1692 Clouds 5 984 93 10000 6.7 240 13:20 02.03.2020
1693 Clouds 5 983 86 10000 6.7 210 12:59 02.03.2020
1694 Rain 4 983 93 10000 7.2 230 12:40 02.03.2020
1695 Rain 4 983 93 10000 7.2 230 12:18 02.03.2020
1696 Snow 4 982 80 10000 8.2 220 11:38 02.03.2020
1697 Snow 4 982 80 10000 8.2 220 11:19 02.03.2020
1698 Snow 4 982 86 10000 6.7 220 10:55 02.03.2020
1699 Clouds 4 982 80 10000 6.7 210 10:36 02.03.2020
1700 Clouds 4 982 80 10000 6.7 210 10:18 02.03.2020
1701 Snow 3 982 86 10000 5.7 220 09:45 02.03.2020
1702 Clouds 3 982 93 10000 6.2 220 09:26 02.03.2020
1703 Snow 3 982 93 10000 5.1 220 08:48 02.03.2020
1704 Clouds 2 981 89 10000 4.1 230 08:22 02.03.2020
1705 Clouds 2 981 89 10000 2.6 210 07:47 02.03.2020
1706 Clouds 2 980 89 10000 3.6 230 07:28 02.03.2020
1707 Clouds 2 980 89 10000 3.1 230 06:50 02.03.2020
1708 Clouds 2 980 89 10000 5.1 230 05:58 02.03.2020
1709 Clouds 3 979 93 10000 6.2 220 04:56 02.03.2020
1710 Rain 3 979 86 10000 6.2 220 03:25 02.03.2020
1711 Clouds 3 979 80 10000 6.7 220 02:49 02.03.2020
1712 Clouds 3 978 86 10000 7.7 220 01:54 02.03.2020
1713 Rain 3 978 86 10000 8.2 220 01:33 02.03.2020
1714 Snow 3 978 86 10000 6.2 220 00:24 02.03.2020
1715 Snow 3 978 86 10000 6.2 220 00:24 02.03.2020
1716 Snow 3 978 86 10000 7.2 220 23:59 01.03.2020
1717 Snow 3 978 86 10000 7.2 220 23:41 01.03.2020
1718 Snow 3 978 86 10000 5.7 220 23:20 01.03.2020
1719 Rain 3 978 93 7000 8.2 240 22:43 01.03.2020
1720 Snow 3 978 86 10000 7.7 220 22:21 01.03.2020
1721 Snow 3 978 86 10000 7.7 220 22:21 01.03.2020
1722 Snow 3 978 93 10000 5.7 220 21:57 01.03.2020
1723 Snow 3 978 93 10000 5.7 220 21:57 01.03.2020
1724 Drizzle 3 978 93 3300 6.2 270 21:38 01.03.2020
1725 Drizzle 3 978 93 3300 6.2 270 21:19 01.03.2020
1726 Snow 3 977 86 10000 6.2 220 20:44 01.03.2020
1727 Rain 3 977 80 10000 6.2 240 20:25 01.03.2020
1728 Rain 3 977 80 10000 6.2 240 20:25 01.03.2020
1729 Snow 3 977 86 10000 6.2 230 19:57 01.03.2020
1730 Rain 3 976 86 10000 7.2 240 19:39 01.03.2020
1731 Rain 4 976 86 10000 7.2 240 19:21 01.03.2020
1732 Rain 4 976 75 6000 7.7 260 18:41 01.03.2020
1733 Snow 5 975 80 10000 8.2 230 18:20 01.03.2020
1734 Rain 5 976 80 10000 8.7 240 17:58 01.03.2020
1735 Rain 6 975 75 7000 11.3 250 17:40 01.03.2020
1736 Rain 6 975 75 7000 11.3 250 17:21 01.03.2020
1737 Rain 6 974 65 10000 10.8 240 16:58 01.03.2020
1738 Rain 6 974 65 10000 10.8 240 16:39 01.03.2020
1739 Clouds 6 974 70 10000 12.9 240 16:19 01.03.2020
1740 Clouds 6 974 75 10000 12.9 240 15:57 01.03.2020
1741 Clouds 6 973 87 10000 13.4 230 15:39 01.03.2020
1742 Clouds 6 973 87 10000 13.4 230 15:20 01.03.2020
1743 Rain 6 973 81 10000 13.9 230 14:57 01.03.2020
1744 Rain 5 973 86 4100 14.4 220 14:38 01.03.2020
1745 Rain 5 973 86 4100 14.4 220 14:20 01.03.2020
1746 Clouds 5 972 75 10000 13.9 210 13:56 01.03.2020
1747 Clouds 5 972 80 10000 14.4 210 13:37 01.03.2020
1748 Clouds 5 972 80 10000 14.4 210 13:37 01.03.2020
1749 Clouds 5 972 80 10000 14.4 210 13:18 01.03.2020
1750 Clouds 5 972 86 10000 11.3 210 12:42 01.03.2020
1751 Clouds 5 971 81 10000 10.8 220 12:21 01.03.2020
1752 Rain 5 970 75 9000 12.3 240 11:43 01.03.2020
1753 Rain 5 970 81 9000 12.3 240 11:25 01.03.2020
1754 Rain 5 969 81 8000 9.8 250 10:58 01.03.2020
1755 Rain 4 968 86 9000 9.8 250 10:38 01.03.2020
1756 Rain 4 968 86 9000 9.8 250 10:20 01.03.2020
1757 Rain 4 968 93 7000 6.7 260 09:58 01.03.2020
1758 Rain 4 968 93 7000 6.7 260 09:58 01.03.2020
1759 Rain 3 968 93 7000 6.7 260 09:40 01.03.2020
1760 Rain 3 968 93 6000 8.7 240 09:21 01.03.2020
1761 Rain 3 967 86 5000 9.8 240 08:42 01.03.2020
1762 Rain 3 966 93 10000 6.7 240 08:21 01.03.2020
1763 Rain 3 966 86 10000 6.7 250 07:43 01.03.2020
1764 Rain 4 965 93 10000 8.7 240 07:24 01.03.2020
1765 Rain 4 965 93 7000 10.3 250 06:58 01.03.2020
1766 Rain 4 965 86 10000 8.7 230 06:38 01.03.2020
1767 Rain 4 963 93 4000 12.9 220 04:27 01.03.2020
1768 Rain 4 962 86 10000 12.9 210 02:55 01.03.2020
1769 Rain 6 962 87 6000 14.4 230 01:54 01.03.2020
1770 Rain 6 961 81 8000 15.9 220 01:31 01.03.2020
1771 Rain 6 961 81 10000 12.3 220 00:45 01.03.2020
1772 Rain 6 961 87 10000 9.3 220 00:22 01.03.2020
1773 Rain 5 961 93 5000 6.7 230 23:54 29.02.2020
1774 Rain 4 961 86 10000 4.1 230 23:33 29.02.2020
1775 Rain 4 960 93 10000 2.1 200 22:45 29.02.2020
1776 Rain 4 960 100 10000 4.6 220 22:25 29.02.2020
1777 Drizzle 4 960 93 5000 2.6 160 21:44 29.02.2020
1778 Rain 3 960 86 5000 5.7 180 21:26 29.02.2020
1779 Rain 3 960 86 7000 8.2 190 20:45 29.02.2020
1780 Rain 3 960 86 10000 8.7 190 20:22 29.02.2020
1781 Rain 4 961 86 10000 9.8 190 19:58 29.02.2020
1782 Rain 4 961 86 10000 9.8 190 19:39 29.02.2020
1783 Rain 3 961 86 10000 9.3 190 19:39 29.02.2020
1784 Rain 3 961 86 10000 9.3 190 19:21 29.02.2020
1785 Rain 3 961 93 4900 9.8 180 18:44 29.02.2020
1786 Rain 3 962 86 6000 9.8 170 18:25 29.02.2020
1787 Rain 3 963 93 4900 9.8 160 17:59 29.02.2020
1788 Rain 3 963 93 4900 9.8 160 17:40 29.02.2020
1789 Rain 3 964 86 6000 9.8 170 17:21 29.02.2020
1790 Rain 3 964 80 7000 10.3 160 16:57 29.02.2020
1791 Rain 4 965 80 10000 9.3 160 16:39 29.02.2020
1792 Rain 4 965 80 10000 9.3 160 16:18 29.02.2020
1793 Rain 5 967 75 8000 9.3 170 15:42 29.02.2020
1794 Clouds 5 967 65 10000 9.3 180 15:23 29.02.2020
1795 Clouds 5 968 75 10000 9.3 190 14:55 29.02.2020
1796 Clouds 5 969 75 10000 9.8 200 14:37 29.02.2020
1797 Clouds 5 969 72 10000 9.8 200 14:19 29.02.2020
1798 Clouds 5 969 72 10000 10.8 200 13:42 29.02.2020
1799 Clouds 5 970 72 10000 9.8 200 13:23 29.02.2020
1800 Clouds 5 970 75 10000 10.3 210 12:43 29.02.2020
1801 Clouds 5 970 75 10000 10.3 210 12:43 29.02.2020
1802 Clouds 5 970 69 10000 9.8 210 12:23 29.02.2020
1803 Clouds 5 970 69 10000 9.3 210 11:58 29.02.2020
1804 Clouds 5 971 69 10000 8.7 220 11:39 29.02.2020
1805 Clouds 4 971 69 10000 8.7 220 11:21 29.02.2020
1806 Clouds 4 971 80 10000 7.7 210 10:47 29.02.2020
1807 Snow 4 971 80 10000 5.1 240 10:28 29.02.2020
1808 Clouds 4 971 80 10000 7.2 230 09:50 29.02.2020
1809 Clouds 4 971 93 10000 3.6 260 09:27 29.02.2020
1810 Clouds 4 971 93 10000 3.6 260 09:27 29.02.2020
1811 Clouds 4 971 93 10000 4.6 240 08:55 29.02.2020
1812 Clouds 4 972 93 10000 3.6 210 08:37 29.02.2020
1813 Clouds 4 972 93 10000 3.6 210 08:19 29.02.2020
1814 Clouds 4 972 93 10000 2.1 230 07:41 29.02.2020
1815 Rain 4 972 93 10000 3.6 230 07:19 29.02.2020
1816 Rain 4 972 86 10000 6.2 250 06:50 29.02.2020
1817 Rain 5 972 93 10000 6.2 240 06:25 29.02.2020
1818 Rain 7 971 93 8000 7.7 260 05:48 29.02.2020
1819 Drizzle 6 971 100 5000 3.1 80 04:50 29.02.2020
1820 Rain 6 973 100 4200 4.1 80 03:43 29.02.2020
1821 Rain 6 974 100 3700 5.7 70 03:22 29.02.2020
1822 Drizzle 5 976 93 3800 4.1 70 02:38 29.02.2020
1823 Drizzle 4 978 100 4300 4.1 70 01:23 29.02.2020
1824 Mist 3 980 93 4500 1 0 00:37 29.02.2020
1825 Mist 3 981 100 4000 3.1 60 23:56 28.02.2020
1826 Mist 3 982 100 5000 2.1 70 23:36 28.02.2020
1827 Mist 3 982 100 5000 2.1 70 23:18 28.02.2020
1828 Mist 3 982 100 5000 2.1 70 23:18 28.02.2020
1829 Rain 3 983 93 7000 2.1 50 22:41 28.02.2020
1830 Rain 3 983 93 7000 2.1 50 22:19 28.02.2020
1831 Rain 3 984 100 10000 1.5 70 21:41 28.02.2020
1832 -273 0 0 0 0 0 21:21 28.02.2020
1833 Rain 3 984 93 7000 1.5 0 20:41 28.02.2020
1834 Drizzle 3 984 100 3400 1.5 0 20:23 28.02.2020
1835 Drizzle 3 985 100 2900 1 0 19:59 28.02.2020
1836 Rain 3 985 100 10000 1.5 0 19:40 28.02.2020
1837 Rain 3 985 100 10000 1.5 0 19:21 28.02.2020
1838 Rain 3 985 100 10000 1.5 0 19:21 28.02.2020
1839 Drizzle 3 985 93 4100 2.6 80 18:58 28.02.2020
1840 Rain 3 985 93 9000 3.1 50 18:39 28.02.2020
1841 Rain 3 985 93 9000 3.1 50 18:21 28.02.2020
1842 Drizzle 3 985 93 3100 4.1 40 17:41 28.02.2020
1843 Drizzle 3 986 100 3400 4.1 50 17:22 28.02.2020
1844 Drizzle 3 986 100 3100 4.1 60 16:47 28.02.2020
1845 Drizzle 3 987 93 3900 4.6 70 16:21 28.02.2020
1846 Drizzle 2 988 93 3600 6.2 70 15:59 28.02.2020
1847 Drizzle 2 988 93 3600 6.2 70 15:41 28.02.2020
1848 Rain 2 989 93 8000 6.2 70 15:20 28.02.2020
1849 Rain 2 990 93 4500 5.7 80 14:58 28.02.2020
1850 Rain 3 990 93 4500 5.7 80 14:39 28.02.2020
1851 Rain 3 991 93 4300 6.7 80 14:19 28.02.2020
1852 Rain 3 992 93 8000 7.7 90 13:54 28.02.2020
1853 Rain 3 993 86 10000 7.7 100 13:36 28.02.2020
1854 Rain 4 993 86 10000 7.7 100 13:18 28.02.2020
1855 Rain 4 995 80 10000 5.7 120 12:41 28.02.2020
1856 Rain 4 995 80 10000 5.7 120 12:22 28.02.2020
1857 Rain 4 996 86 10000 6.7 120 11:42 28.02.2020
1858 Rain 5 997 86 10000 4.6 110 11:24 28.02.2020
1859 Rain 5 998 86 10000 4.6 120 10:58 28.02.2020
1860 Rain 5 999 86 10000 3.6 140 10:39 28.02.2020
1861 Rain 5 999 86 10000 3.6 140 10:20 28.02.2020
1862 Rain 4 1000 86 10000 2.6 90 09:44 28.02.2020
1863 Clouds 4 1000 86 10000 3.6 130 09:21 28.02.2020
1864 Clouds 4 1001 86 10000 3.6 160 08:56 28.02.2020
1865 Clouds 4 1001 80 10000 2.6 140 08:36 28.02.2020
1866 Clouds 4 1001 80 10000 2.6 140 08:18 28.02.2020
1867 Clouds 3 1003 86 10000 2.6 180 07:39 28.02.2020
1868 Clouds 3 1003 86 10000 2.6 180 07:19 28.02.2020
1869 Clouds 3 1003 92 10000 2.1 70 06:41 28.02.2020
1870 Clouds 3 1004 80 10000 4.1 180 05:50 28.02.2020
1871 Clouds 3 1005 86 10000 4.1 190 04:34 28.02.2020
1872 Clouds 3 1005 86 10000 5.1 210 03:43 28.02.2020
1873 Clouds 3 1006 80 10000 2.6 220 02:45 28.02.2020
1874 Clouds 4 1006 86 10000 3.6 240 02:20 28.02.2020
1875 Clouds 3 1006 86 10000 4.6 210 00:36 28.02.2020
1876 Rain 3 1006 86 10000 3.6 230 23:58 27.02.2020
1877 Clouds 3 1006 86 10000 3.1 210 23:38 27.02.2020
1878 Clouds 3 1006 86 10000 3.1 210 23:18 27.02.2020
1879 Clouds 3 1006 90 10000 2.6 180 22:40 27.02.2020
1880 Clouds 3 1006 90 10000 2.6 180 22:22 27.02.2020
1881 Clouds 3 1006 90 10000 3.6 250 21:55 27.02.2020
1882 Clear 3 1006 90 10000 4.6 260 21:37 27.02.2020
1883 Clear 2 1006 90 10000 4.6 260 21:18 27.02.2020
1884 Clear 2 1005 90 10000 6.2 260 20:43 27.02.2020
1885 Clear 2 1005 90 10000 5.1 230 20:23 27.02.2020
1886 Clear 3 1005 79 10000 3.6 270 19:59 27.02.2020
1887 Clear 3 1005 79 10000 3.6 270 19:41 27.02.2020
1888 Clear 3 1004 79 10000 4.1 270 19:23 27.02.2020
1889 Clear 3 1004 80 10000 4.6 260 18:58 27.02.2020
1890 Clear 4 1004 80 10000 4.1 280 18:39 27.02.2020
1891 Clear 4 1004 80 10000 4.1 280 18:20 27.02.2020
1892 Clouds 4 1003 80 10000 6.2 280 17:56 27.02.2020
1893 Clear 5 1003 75 10000 6.2 280 17:37 27.02.2020
1894 Clear 5 1003 75 10000 6.2 280 17:18 27.02.2020
1895 Clouds 5 1003 75 10000 5.1 280 16:42 27.02.2020
1896 Clear 4 1002 80 10000 4.1 280 16:20 27.02.2020
1897 Rain 4 1002 93 10000 6.7 280 15:59 27.02.2020
1898 Rain 5 1002 59 10000 10.3 300 15:38 27.02.2020
1899 Rain 5 1002 59 10000 10.3 300 15:20 27.02.2020
1900 Clouds 5 1001 75 10000 8.2 260 14:59 27.02.2020
1901 Clouds 5 1001 75 10000 8.2 260 14:39 27.02.2020
1902 Snow 5 1001 80 10000 8.2 270 14:20 27.02.2020
1903 Snow 5 1000 86 10000 6.2 270 13:43 27.02.2020
1904 Rain 4 1000 86 10000 8.2 280 13:22 27.02.2020
1905 Clouds 4 999 80 10000 6.7 270 12:56 27.02.2020
1906 Clouds 4 999 80 10000 5.1 250 12:38 27.02.2020
1907 Clouds 4 999 80 10000 5.1 250 12:18 27.02.2020
1908 Clouds 3 998 86 10000 4.1 260 11:42 27.02.2020
1909 Clouds 3 998 73 10000 4.1 240 11:22 27.02.2020
1910 Clouds 2 998 73 10000 3.6 220 10:45 27.02.2020
1911 Clouds 2 998 80 10000 1.5 0 10:24 27.02.2020
1912 Rain 1 998 86 10000 4.1 220 09:50 27.02.2020
1913 Clouds 1 997 86 10000 3.6 210 09:30 27.02.2020
1914 Clear 0 997 73 10000 0.5 0 08:59 27.02.2020
1915 Clear 0 997 73 10000 0.5 0 08:41 27.02.2020
1916 Clouds 0 997 73 10000 1.5 0 08:22 27.02.2020
1917 Clouds 0 996 90 10000 2.6 250 07:45 27.02.2020
1918 Clouds 0 996 90 10000 4.1 250 07:25 27.02.2020
1919 Clouds 0 996 90 10000 3.6 240 06:48 27.02.2020
1920 Clouds 0 996 90 10000 2.1 240 05:48 27.02.2020
1921 Clouds 1 996 92 10000 3.1 230 03:42 27.02.2020
1922 Rain 1 997 96 7000 3.1 220 02:22 27.02.2020
1923 Rain 1 997 100 10000 3.6 240 00:45 27.02.2020
1924 Rain 1 997 96 10000 3.1 230 00:26 27.02.2020
1925 Rain 1 998 100 10000 2.6 260 23:40 26.02.2020
1926 Clouds 1 998 87 10000 1.5 0 23:19 26.02.2020
1927 Clouds 1 998 87 10000 2.1 210 22:57 26.02.2020
1928 Clouds 1 998 87 10000 2.1 210 22:39 26.02.2020
1929 Snow 2 999 87 6000 4.1 210 22:19 26.02.2020
1930 Snow 2 999 87 3500 5.1 240 21:55 26.02.2020
1931 Clouds 2 999 93 10000 3.6 210 21:36 26.02.2020
1932 Clouds 2 999 93 10000 3.6 210 21:18 26.02.2020
1933 Clouds 2 999 87 10000 5.1 210 20:54 26.02.2020
1934 Clouds 2 999 87 10000 5.1 210 20:54 26.02.2020
1935 Clouds 2 1000 87 10000 4.6 230 20:36 26.02.2020
1936 Clouds 2 1000 86 10000 4.6 230 20:18 26.02.2020
1937 Clouds 2 1000 96 10000 5.7 250 19:44 26.02.2020
1938 Snow 2 1000 93 10000 4.1 240 19:20 26.02.2020
1939 Clouds 2 1000 100 10000 2.1 240 18:58 26.02.2020
1940 Clouds 2 1000 100 10000 2.1 240 18:39 26.02.2020
1941 Snow 3 1001 96 4500 6.7 260 18:21 26.02.2020
1942 Clouds 4 1001 96 10000 8.7 230 17:42 26.02.2020
1943 Clouds 4 1001 96 10000 8.7 230 17:23 26.02.2020
1944 Snow 5 1001 65 10000 6.2 250 16:57 26.02.2020
1945 Clouds 5 1001 65 10000 10.8 260 16:39 26.02.2020
1946 Clouds 5 1001 65 10000 10.8 260 16:39 26.02.2020
1947 Clouds 5 1001 65 10000 10.8 260 16:21 26.02.2020
1948 Clouds 5 1001 57 10000 8.2 260 15:46 26.02.2020
1949 Clouds 6 1001 57 10000 7.2 260 15:28 26.02.2020
1950 Clouds 6 1001 57 10000 7.2 260 14:57 26.02.2020
1951 Snow 6 1001 57 10000 6.2 270 14:39 26.02.2020
1952 Clouds 6 1001 57 10000 6.2 270 14:21 26.02.2020
1953 Rain 5 1001 75 10000 5.7 280 13:42 26.02.2020
1954 Rain 5 1001 75 10000 5.7 280 13:42 26.02.2020
1955 Clouds 5 1001 75 10000 7.2 230 13:20 26.02.2020
1956 Clouds 4 1001 75 10000 6.2 250 12:39 26.02.2020
1957 Snow 4 1000 80 10000 6.7 250 12:20 26.02.2020
1958 Clouds 3 1000 60 10000 5.7 260 11:57 26.02.2020
1959 Clouds 3 1000 60 10000 5.7 280 11:39 26.02.2020
1960 Clouds 3 1000 91 10000 5.7 280 11:21 26.02.2020
1961 Clouds 3 999 91 10000 5.1 270 10:42 26.02.2020
1962 Clouds 2 999 91 10000 5.1 270 10:23 26.02.2020
1963 Rain 2 999 93 10000 5.1 270 09:57 26.02.2020
1964 Clouds 2 998 91 10000 2.1 220 09:39 26.02.2020
1965 Clouds 1 998 91 10000 2.1 220 09:19 26.02.2020
1966 Rain 1 997 91 10000 2.6 270 08:39 26.02.2020
1967 Rain 1 997 91 8000 3.6 260 08:39 26.02.2020
1968 Rain 0 997 91 8000 3.6 260 08:19 26.02.2020
1969 Clouds 0 997 86 10000 1.5 290 07:50 26.02.2020
1970 Clouds 0 996 86 10000 3.6 270 07:29 26.02.2020
1971 Clouds 0 996 86 10000 4.1 250 06:57 26.02.2020
1972 Clouds 0 995 91 10000 2.1 280 06:39 26.02.2020
1973 Clouds 0 995 91 10000 2.1 280 06:18 26.02.2020
1974 Clouds 0 995 91 10000 2.6 250 05:47 26.02.2020
1975 Clouds 0 994 92 10000 3.1 240 04:49 26.02.2020
1976 Clouds 1 993 92 10000 2.6 220 02:54 26.02.2020
1977 Clouds 1 993 100 10000 2.6 240 01:50 26.02.2020
1978 Clouds 1 992 91 10000 2.6 240 00:51 26.02.2020
1979 Clouds 1 991 91 10000 1.5 0 00:27 26.02.2020
1980 Clouds 1 991 91 10000 1.5 0 00:27 26.02.2020
1981 Clouds 1 991 91 10000 2.6 260 23:57 25.02.2020
1982 Clouds 1 991 91 10000 2.1 240 23:38 25.02.2020
1983 Clouds 1 991 93 10000 2.1 240 23:20 25.02.2020
1984 Clouds 1 991 93 10000 1.5 260 22:42 25.02.2020
1985 Clouds 1 991 93 10000 0.5 0 22:20 25.02.2020
1986 Clouds 1 991 93 10000 1 0 21:58 25.02.2020
1987 Clouds 1 991 93 10000 1.5 0 21:37 25.02.2020
1988 Clouds 1 991 93 10000 1.5 0 21:18 25.02.2020
1989 Clouds 2 991 93 10000 1.5 0 20:55 25.02.2020
1990 Rain 2 990 88 10000 2.6 240 20:36 25.02.2020
1991 Rain 2 990 90 10000 2.6 240 20:18 25.02.2020
1992 Rain 2 990 93 10000 2.1 260 19:42 25.02.2020
1993 Rain 3 990 86 10000 4.6 290 19:20 25.02.2020
1994 Rain 3 990 86 10000 4.6 260 18:58 25.02.2020
1995 Clouds 3 990 93 10000 4.6 230 18:38 25.02.2020
1996 Clouds 3 990 93 10000 4.6 230 18:19 25.02.2020
1997 Clouds 3 990 93 10000 5.1 220 17:39 25.02.2020
1998 Clouds 3 990 93 10000 4.6 220 17:39 25.02.2020
1999 Clouds 3 990 93 10000 5.1 220 17:20 25.02.2020
2000 Clouds 4 990 86 10000 5.7 230 16:59 25.02.2020
2001 Clouds 4 990 86 10000 5.7 230 16:41 25.02.2020
2002 Clouds 4 991 80 10000 4.6 240 16:22 25.02.2020
2003 -273 0 0 0 0 0 16:22 25.02.2020
2004 Clouds 4 991 86 10000 5.7 230 15:59 25.02.2020
2005 Clouds 4 991 86 10000 5.7 230 15:59 25.02.2020
2006 Clouds 4 991 86 10000 4.1 250 15:41 25.02.2020
2007 Clouds 4 991 86 10000 4.1 250 15:20 25.02.2020
2008 Clouds 4 991 86 10000 3.6 250 14:58 25.02.2020
2009 Clouds 4 991 86 10000 5.1 250 14:38 25.02.2020
2010 Clouds 4 991 86 10000 5.1 250 14:18 25.02.2020
2011 Rain 4 992 93 10000 5.7 240 13:55 25.02.2020
2012 Rain 4 992 80 10000 6.2 260 13:37 25.02.2020
2013 Rain 5 992 80 10000 6.2 260 13:19 25.02.2020
2014 Clouds 4 992 86 10000 6.2 230 12:42 25.02.2020
2015 Clouds 4 992 86 10000 5.7 250 12:22 25.02.2020
2016 Rain 4 992 93 10000 5.7 230 11:57 25.02.2020
2017 Rain 3 992 93 10000 5.7 230 11:39 25.02.2020
2018 Clouds 3 992 86 10000 4.6 240 11:19 25.02.2020
2019 Clouds 3 993 93 10000 4.6 230 10:59 25.02.2020
2020 Clouds 3 993 93 10000 4.6 230 10:59 25.02.2020
2021 Clouds 3 993 93 10000 4.6 240 10:40 25.02.2020
2022 -273 0 0 0 0 0 10:21 25.02.2020
2023 Clouds 2 993 93 10000 4.1 240 09:41 25.02.2020
2024 Rain 2 993 93 10000 5.1 220 09:21 25.02.2020
2025 Clouds 2 993 93 10000 3.6 240 08:45 25.02.2020
2026 Clouds 2 993 93 10000 3.6 240 08:45 25.02.2020
2027 Clouds 2 993 93 10000 3.6 240 08:45 25.02.2020
2028 Clouds 2 994 100 10000 4.1 210 08:27 25.02.2020
2029 Rain 2 994 93 10000 2.6 220 07:56 25.02.2020
2030 Rain 2 994 93 10000 2.6 230 07:36 25.02.2020
2031 Rain 2 994 93 10000 2.6 230 07:18 25.02.2020
2032 Snow 2 995 93 10000 3.1 240 06:28 25.02.2020
2033 Rain 2 995 93 10000 4.1 230 05:25 25.02.2020
2034 Clouds 2 997 93 10000 1 270 02:54 25.02.2020
2035 Snow 2 997 93 10000 3.6 280 01:30 25.02.2020
2036 Clouds 2 997 93 10000 4.1 260 00:34 25.02.2020
2037 Clouds 2 997 86 10000 5.1 250 23:59 24.02.2020
2038 Clouds 2 997 86 10000 5.7 250 23:40 24.02.2020
2039 Clouds 2 997 86 10000 5.7 250 23:19 24.02.2020
2040 Clouds 2 997 86 10000 5.1 260 22:38 24.02.2020
2041 Clouds 2 997 86 10000 5.1 260 22:19 24.02.2020
2042 Clouds 3 997 86 10000 6.7 250 21:56 24.02.2020
2043 Clouds 3 997 86 10000 4.6 250 21:38 24.02.2020
2044 Clouds 3 997 86 10000 4.6 250 21:19 24.02.2020
2045 Clouds 3 997 93 10000 3.1 250 20:56 24.02.2020
2046 Rain 3 997 93 10000 3.6 260 20:37 24.02.2020
2047 Rain 2 997 93 10000 3.6 260 20:18 24.02.2020
2048 Rain 2 996 93 10000 4.6 260 19:56 24.02.2020
2049 Rain 2 996 93 10000 3.1 270 19:37 24.02.2020
2050 Rain 2 996 93 10000 3.1 270 19:19 24.02.2020
2051 Rain 2 996 93 10000 3.6 270 18:42 24.02.2020
2052 Rain 2 995 93 10000 4.6 270 18:23 24.02.2020
2053 Drizzle 3 995 93 4500 4.6 290 17:57 24.02.2020
2054 Clouds 3 995 93 6000 4.1 300 17:38 24.02.2020
2055 Clouds 3 995 93 6000 4.1 300 17:19 24.02.2020
2056 Clouds 3 994 93 10000 2.6 270 16:55 24.02.2020
2057 Drizzle 3 994 93 3300 2.1 290 16:37 24.02.2020
2058 Drizzle 3 994 93 3300 2.1 290 16:18 24.02.2020
2059 Clouds 3 994 93 7000 2.1 40 15:55 24.02.2020
2060 Haze 3 994 93 5000 4.6 50 15:37 24.02.2020
2061 Haze 3 994 93 5000 4.6 50 15:19 24.02.2020
2062 Drizzle 3 994 93 2600 6.2 50 14:40 24.02.2020
2063 Drizzle 3 994 93 2600 6.2 50 14:22 24.02.2020
2064 Rain 3 995 93 10000 6.7 60 13:58 24.02.2020
2065 Rain 3 995 93 10000 6.7 60 13:40 24.02.2020
2066 Rain 2 995 100 7000 7.2 60 13:22 24.02.2020
2067 Rain 2 996 93 5000 6.7 60 12:57 24.02.2020
2068 Rain 2 996 93 5000 6.7 60 12:39 24.02.2020
2069 Rain 2 997 93 6000 6.2 60 12:21 24.02.2020
2070 Rain 2 997 93 4800 7.7 60 11:46 24.02.2020
2071 Drizzle 2 998 93 4400 8.2 60 11:28 24.02.2020
2072 Rain 2 999 93 7000 7.2 70 10:48 24.02.2020
2073 Rain 2 1000 93 7000 7.7 60 10:30 24.02.2020
2074 Rain 2 1001 93 10000 7.7 60 09:55 24.02.2020
2075 Rain 2 1002 93 10000 7.2 70 09:37 24.02.2020
2076 Rain 2 1002 93 10000 7.2 70 09:18 24.02.2020
2077 Rain 2 1004 93 10000 6.7 70 08:47 24.02.2020
2078 Rain 2 1004 93 10000 6.7 70 08:47 24.02.2020
2079 Rain 2 1005 93 10000 6.2 80 08:28 24.02.2020
2080 Rain 2 1006 93 10000 6.2 80 07:48 24.02.2020
2081 Rain 2 1007 93 6000 4.6 80 07:28 24.02.2020
2082 Rain 2 1009 93 7000 4.1 120 06:37 24.02.2020
2083 Rain 2 1009 93 7000 4.1 120 06:18 24.02.2020
2084 Rain 3 1011 100 10000 2.6 70 05:30 24.02.2020
2085 Rain 3 1013 100 10000 2.1 50 04:25 24.02.2020
2086 Clouds 3 1015 100 10000 2.1 70 02:55 24.02.2020
2087 Clouds 2 1017 100 10000 2.1 40 01:47 24.02.2020
2088 Clouds 2 1017 100 10000 2.1 70 01:18 24.02.2020
2089 Clouds 2 1017 100 10000 1 0 00:36 24.02.2020
2090 Clouds 2 1017 100 10000 1 0 00:18 24.02.2020
2091 Clouds 3 1018 93 10000 1.5 0 23:41 23.02.2020
2092 Clouds 3 1018 86 10000 1 0 23:19 23.02.2020
2093 Clouds 3 1018 93 10000 0.78 282 22:56 23.02.2020
2094 Clouds 3 1018 93 10000 1.5 260 22:37 23.02.2020
2095 Clouds 3 1018 93 10000 1.5 260 22:18 23.02.2020
2096 Clouds 3 1017 93 10000 1.5 280 21:45 23.02.2020
2097 Clouds 4 1017 86 10000 1.5 0 21:20 23.02.2020
2098 Clouds 4 1017 86 10000 1.5 240 20:57 23.02.2020
2099 Clouds 4 1017 86 10000 1.5 240 20:38 23.02.2020
2100 Clouds 4 1017 86 10000 3.6 260 20:20 23.02.2020
2101 Clouds 5 1016 80 10000 4.1 240 19:57 23.02.2020
2102 Rain 5 1016 86 10000 5.1 250 19:38 23.02.2020
2103 Rain 5 1016 86 10000 5.1 250 19:38 23.02.2020
2104 Rain 5 1016 86 10000 5.1 250 19:18 23.02.2020
2105 Clouds 5 1015 86 10000 3.6 230 18:55 23.02.2020
2106 Rain 6 1015 75 10000 3.1 280 18:36 23.02.2020
2107 Rain 6 1015 75 10000 3.1 280 18:18 23.02.2020
2108 Rain 6 1013 81 10000 5.7 270 17:56 23.02.2020
2109 Rain 6 1013 81 10000 6.2 270 17:37 23.02.2020
2110 Rain 6 1013 81 10000 6.2 270 17:18 23.02.2020
2111 Clouds 7 1012 70 10000 9.8 270 16:42 23.02.2020
2112 Clouds 7 1012 70 10000 9.8 270 16:42 23.02.2020
2113 Clouds 7 1012 70 10000 9.8 270 16:24 23.02.2020
2114 Clouds 7 1012 75 10000 7.7 260 15:57 23.02.2020
2115 Clouds 7 1012 75 10000 7.7 260 15:38 23.02.2020
2116 Clouds 7 1011 75 10000 7.7 270 15:38 23.02.2020
2117 Clouds 6 1011 75 10000 7.7 270 15:20 23.02.2020
2118 Clouds 6 1011 75 10000 7.7 270 15:20 23.02.2020
2119 Rain 6 1010 75 10000 9.8 290 14:56 23.02.2020
2120 Rain 6 1010 75 10000 9.8 290 14:37 23.02.2020
2121 Rain 6 1010 81 10000 7.7 270 14:19 23.02.2020
2122 Snow 5 1009 80 10000 5.1 280 13:56 23.02.2020
2123 Snow 5 1009 80 10000 5.1 280 13:38 23.02.2020
2124 Clouds 5 1009 86 10000 4.6 260 13:19 23.02.2020
2125 Snow 4 1009 86 6000 9.8 280 12:41 23.02.2020
2126 Rain 4 1008 75 10000 6.7 270 12:21 23.02.2020
2127 Rain 3 1006 86 10000 5.7 280 11:39 23.02.2020
2128 Rain 3 1006 86 10000 5.7 280 11:20 23.02.2020
2129 Snow 4 1006 80 10000 7.2 250 10:59 23.02.2020
2130 Snow 4 1006 80 10000 7.2 250 10:59 23.02.2020
2131 Snow 4 1006 80 10000 7.2 250 10:41 23.02.2020
2132 Snow 3 1005 86 10000 8.2 260 10:23 23.02.2020
2133 Rain 3 1005 80 10000 6.7 260 09:56 23.02.2020
2134 Snow 3 1004 86 10000 4.6 230 09:38 23.02.2020
2135 Snow 3 1004 86 10000 4.6 230 09:19 23.02.2020
2136 Rain 2 1004 93 10000 5.7 260 08:50 23.02.2020
2137 Snow 2 1004 93 10000 4.6 210 08:29 23.02.2020
2138 Rain 2 1004 93 10000 3.6 230 07:48 23.02.2020
2139 Rain 3 1004 93 10000 3.6 230 07:29 23.02.2020
2140 Rain 3 1003 93 10000 2.6 260 06:25 23.02.2020
2141 Rain 3 1004 93 10000 5.7 230 05:34 23.02.2020
2142 Rain 3 1005 93 10000 6.7 230 04:23 23.02.2020
2143 Rain 3 1006 86 10000 6.7 220 02:50 23.02.2020
2144 Snow 3 1006 86 10000 8.7 230 01:43 23.02.2020
2145 Rain 3 1007 93 10000 6.2 230 01:21 23.02.2020
2146 Rain 3 1007 80 10000 10.3 230 00:44 23.02.2020
2147 Rain 3 1007 80 10000 7.2 230 00:23 23.02.2020
2148 Snow 3 1007 80 10000 8.2 250 23:43 22.02.2020
2149 Rain 3 1008 86 3600 9.3 270 23:24 22.02.2020
2150 Snow 4 1007 80 10000 6.2 240 22:45 22.02.2020
2151 Snow 4 1007 76 10000 9.3 250 22:20 22.02.2020
2152 Snow 4 1007 76 10000 10.8 260 21:46 22.02.2020
2153 Rain 3 1007 80 10000 10.3 250 21:28 22.02.2020
2154 Snow 4 1007 80 10000 9.8 250 20:59 22.02.2020
2155 Snow 3 1006 76 10000 10.8 250 20:40 22.02.2020
2156 Snow 4 1006 76 10000 10.8 250 20:21 22.02.2020
2157 Clouds 3 1006 76 10000 9.3 240 19:43 22.02.2020
2158 Clouds 4 1006 76 10000 10.8 260 19:24 22.02.2020
2159 Rain 3 1006 76 10000 10.8 250 18:57 22.02.2020
2160 Rain 4 1005 76 10000 12.9 260 18:37 22.02.2020
2161 Rain 3 1005 76 10000 12.9 260 18:19 22.02.2020
2162 Rain 4 1004 65 10000 13.9 250 17:44 22.02.2020
2163 Rain 4 1004 75 10000 12.3 260 17:26 22.02.2020
2164 Rain 4 1004 80 8000 10.8 250 17:00 22.02.2020
2165 Clouds 4 1004 75 10000 12.9 260 16:40 22.02.2020
2166 Clouds 4 1004 75 10000 12.9 260 16:20 22.02.2020
2167 Rain 4 1003 75 10000 11.3 250 15:56 22.02.2020
2168 Clouds 4 1003 75 10000 12.3 250 15:38 22.02.2020
2169 Clouds 4 1003 75 10000 12.3 250 15:20 22.02.2020
2170 Clouds 3 1004 75 2800 17 250 14:42 22.02.2020
2171 Rain 4 1003 86 10000 13.4 260 14:21 22.02.2020
2172 Rain 4 1003 86 10000 13.4 260 14:21 22.02.2020
2173 Clouds 4 1002 62 10000 10.8 250 13:43 22.02.2020
2174 Clouds 4 1002 62 10000 10.8 250 13:43 22.02.2020
2175 Rain 4 1002 80 5000 14.4 250 13:20 22.02.2020
2176 Clouds 4 1001 75 10000 12.9 250 12:58 22.02.2020
2177 Clouds 4 1001 75 10000 12.9 250 12:39 22.02.2020
2178 Rain 4 1000 70 10000 14.4 250 12:20 22.02.2020
2179 Rain 5 1000 70 10000 14.4 250 12:20 22.02.2020
2180 Rain 4 1000 80 10000 12.9 250 11:43 22.02.2020
2181 Snow 4 1000 80 10000 12.3 240 11:25 22.02.2020
2182 Clouds 4 999 75 8000 9.8 250 10:55 22.02.2020
2183 Rain 4 999 80 8000 11.3 250 10:36 22.02.2020
2184 Rain 4 999 80 8000 11.3 250 10:18 22.02.2020
2185 Rain 4 999 80 10000 10.8 250 09:43 22.02.2020
2186 Snow 4 998 75 10000 10.3 250 09:22 22.02.2020
2187 Rain 3 997 86 10000 11.8 260 08:57 22.02.2020
2188 Snow 3 997 80 10000 8.7 250 08:38 22.02.2020
2189 Snow 3 997 80 10000 8.7 250 08:20 22.02.2020
2190 Rain 4 997 86 10000 11.8 260 07:39 22.02.2020
2191 Rain 4 996 75 10000 12.3 240 07:18 22.02.2020
2192 Snow 4 996 80 10000 10.8 240 06:43 22.02.2020
2193 Clouds 6 995 75 10000 12.3 250 04:45 22.02.2020
2194 Rain 7 995 81 10000 11.8 250 04:25 22.02.2020
2195 Rain 8 993 81 10000 15.9 260 02:42 22.02.2020
2196 Rain 8 993 81 10000 14.9 250 01:49 22.02.2020
2197 Rain 10 992 87 10000 12.3 220 01:29 22.02.2020
2198 Rain 10 993 87 10000 13.4 220 00:49 22.02.2020
2199 Rain 9 993 93 9000 12.9 220 00:31 22.02.2020
2200 Rain 10 994 93 2700 12.9 220 23:53 21.02.2020
2201 Rain 10 995 93 4300 11.8 220 23:26 21.02.2020
2202 Rain 10 996 93 6000 13.9 220 22:59 21.02.2020
2203 Rain 10 996 87 6000 14.4 220 22:41 21.02.2020
2204 Rain 9 996 87 6000 14.4 220 22:23 21.02.2020
2205 Rain 10 996 87 6000 14.4 220 21:55 21.02.2020
2206 Rain 10 997 93 5000 14.4 220 21:37 21.02.2020
2207 Rain 10 997 93 5000 14.4 220 21:37 21.02.2020
2208 Rain 9 997 93 5000 14.4 220 21:18 21.02.2020
2209 Rain 10 997 87 7000 13.9 210 20:41 21.02.2020
2210 Rain 9 998 100 3500 13.4 210 20:23 21.02.2020
2211 Rain 9 999 93 4100 12.3 210 19:39 21.02.2020
2212 Rain 9 999 93 4100 12.3 210 19:19 21.02.2020
2213 Rain 9 999 100 3300 11.3 220 18:43 21.02.2020
2214 Rain 9 1000 100 3500 12.3 210 18:23 21.02.2020
2215 Rain 9 1000 100 2600 13.4 220 17:57 21.02.2020
2216 Drizzle 9 1000 100 2300 11.8 220 17:37 21.02.2020
2217 Drizzle 9 1000 100 2300 11.8 220 17:19 21.02.2020
2218 Drizzle 10 1000 93 2600 12.9 220 16:42 21.02.2020
2219 Drizzle 9 1001 93 2600 12.9 220 16:22 21.02.2020
2220 Rain 10 1001 93 2600 12.9 210 15:58 21.02.2020
2221 Rain 10 1001 93 2000 13.4 210 15:38 21.02.2020
2222 Rain 9 1001 93 2000 13.4 210 15:18 21.02.2020
2223 Rain 9 1001 93 2300 14.4 220 14:42 21.02.2020
2224 Rain 9 1001 93 6000 13.4 220 14:21 21.02.2020
2225 Rain 9 1002 93 3500 13.4 220 13:58 21.02.2020
2226 Rain 9 1002 93 6000 14.4 220 13:38 21.02.2020
2227 Rain 8 1002 93 6000 14.4 220 13:20 21.02.2020
2228 Rain 8 1001 93 4000 14.9 210 12:42 21.02.2020
2229 Rain 8 1001 93 4500 14.9 210 12:24 21.02.2020
2230 Rain 8 1001 93 4000 15.4 210 11:55 21.02.2020
2231 Rain 8 1001 87 4000 14.9 210 11:36 21.02.2020
2232 Rain 8 1001 87 4000 14.9 210 11:18 21.02.2020
2233 Rain 7 1001 93 3000 15.4 210 10:41 21.02.2020
2234 Rain 7 1001 93 3400 14.4 210 10:20 21.02.2020
2235 Rain 7 1002 93 5000 13.9 200 09:58 21.02.2020
2236 Rain 7 1002 93 4000 12.9 200 09:38 21.02.2020
2237 Rain 7 1002 93 4000 12.9 200 09:20 21.02.2020
2238 Rain 7 1003 87 4600 13.9 210 08:45 21.02.2020
2239 Rain 6 1003 93 3600 14.4 210 08:22 21.02.2020
2240 Rain 6 1003 93 2900 13.9 210 07:59 21.02.2020
2241 Rain 6 1003 93 2900 13.9 210 07:41 21.02.2020
2242 Rain 6 1004 93 3800 12.9 210 07:20 21.02.2020
2243 Rain 6 1004 87 4200 12.9 200 06:53 21.02.2020
2244 Rain 6 1005 87 3800 12.9 200 06:31 21.02.2020
2245 Rain 5 1006 87 3800 11.8 210 05:52 21.02.2020
2246 Rain 5 1007 81 10000 14.4 220 04:39 21.02.2020
2247 Rain 5 1007 81 10000 14.4 220 04:20 21.02.2020
2248 Clouds 5 1007 81 10000 12.3 220 03:42 21.02.2020
2249 Clouds 5 1007 81 10000 11.3 230 02:58 21.02.2020
2250 Rain 5 1007 86 10000 9.3 220 01:25 21.02.2020
2251 Rain 5 1007 86 10000 7.7 240 00:46 21.02.2020
2252 Rain 4 1007 86 8000 8.2 240 00:23 21.02.2020
2253 Rain 4 1006 86 10000 7.2 230 23:46 20.02.2020
2254 Rain 4 1006 80 3800 9.8 240 23:26 20.02.2020
2255 Clouds 4 1006 80 10000 8.2 240 22:59 20.02.2020
2256 Clouds 4 1006 80 10000 8.2 240 22:39 20.02.2020
2257 Rain 4 1006 80 10000 7.7 260 22:20 20.02.2020
2258 Rain 4 1006 80 10000 7.7 260 22:20 20.02.2020
2259 Clouds 4 1005 80 10000 7.2 250 21:56 20.02.2020
2260 Clouds 4 1005 80 10000 7.2 250 21:56 20.02.2020
2261 Rain 3 1004 86 10000 7.7 250 21:37 20.02.2020
2262 Rain 3 1004 86 10000 7.7 250 21:19 20.02.2020
2263 Clouds 3 1004 75 10000 9.3 260 20:55 20.02.2020
2264 Clouds 3 1003 86 10000 5.7 240 20:37 20.02.2020
2265 Snow 3 1003 86 10000 5.7 240 20:18 20.02.2020
2266 Clouds 3 1003 86 10000 6.2 250 19:57 20.02.2020
2267 Clouds 3 1003 86 10000 6.2 250 19:39 20.02.2020
2268 Snow 3 1001 80 10000 7.7 250 19:20 20.02.2020
2269 Rain 3 1001 86 10000 7.7 240 18:39 20.02.2020
2270 Snow 3 1001 80 10000 7.7 250 18:39 20.02.2020
2271 Rain 3 1001 86 10000 7.7 240 18:20 20.02.2020
2272 Clouds 3 1002 80 10000 9.3 250 17:54 20.02.2020
2273 Clouds 3 1002 80 10000 9.3 250 17:54 20.02.2020
2274 Clouds 3 1002 80 10000 9.3 250 17:36 20.02.2020
2275 Clouds 4 1002 80 10000 9.3 250 17:18 20.02.2020
2276 Snow 4 999 75 10000 9.8 250 16:54 20.02.2020
2277 Snow 4 999 75 10000 8.7 250 16:36 20.02.2020
2278 Snow 5 999 75 10000 8.7 250 16:18 20.02.2020
2279 Snow 5 999 66 10000 10.8 250 15:41 20.02.2020
2280 Rain 4 999 80 10000 7.2 270 15:20 20.02.2020
2281 Snow 5 998 75 10000 8.7 250 14:55 20.02.2020
2282 Clouds 5 998 75 10000 8.7 260 14:37 20.02.2020
2283 Clouds 5 998 75 10000 8.7 260 14:19 20.02.2020
2284 Snow 4 998 80 10000 5.7 270 13:44 20.02.2020
2285 Snow 4 998 80 10000 6.2 250 13:20 20.02.2020
2286 Snow 4 998 80 10000 6.2 260 12:58 20.02.2020
2287 Snow 4 998 80 10000 6.2 260 12:38 20.02.2020
2288 Clouds 4 997 86 10000 8.2 280 12:19 20.02.2020
2289 Clouds 4 996 75 10000 6.2 250 11:43 20.02.2020
2290 Snow 4 996 80 10000 5.1 250 11:23 20.02.2020
2291 Rain 4 996 93 10000 5.7 260 10:58 20.02.2020
2292 Rain 4 996 93 10000 5.7 260 10:40 20.02.2020
2293 Rain 4 995 93 10000 3.6 250 10:21 20.02.2020
2294 Rain 4 995 86 10000 3.6 240 09:47 20.02.2020
2295 Rain 4 995 93 10000 3.6 260 09:25 20.02.2020
2296 Rain 4 995 86 10000 3.6 250 08:59 20.02.2020
2297 Rain 5 995 86 10000 3.6 250 08:39 20.02.2020
2298 Rain 5 994 86 10000 3.6 260 08:21 20.02.2020
2299 Rain 5 994 86 10000 4.1 270 07:45 20.02.2020
2300 Rain 6 994 93 10000 4.1 270 07:26 20.02.2020
2301 Rain 7 994 87 10000 5.1 290 06:55 20.02.2020
2302 Rain 7 993 93 10000 5.7 260 06:27 20.02.2020
2303 Rain 8 993 93 10000 6.7 250 05:46 20.02.2020
2304 Rain 9 994 93 7000 11.3 220 04:55 20.02.2020
2305 Rain 9 994 87 7000 13.4 210 04:19 20.02.2020
2306 Rain 9 995 93 10000 10.8 200 03:30 20.02.2020
2307 Rain 9 996 93 9000 7.7 210 02:26 20.02.2020
2308 Drizzle 9 997 93 4200 7.2 220 01:18 20.02.2020
2309 Rain 9 997 93 10000 9.8 210 00:33 20.02.2020
2310 Drizzle 9 998 93 5000 8.7 220 23:52 19.02.2020
2311 Rain 9 998 93 7000 9.8 220 23:23 19.02.2020
2312 Rain 9 998 93 8000 10.3 220 22:54 19.02.2020
2313 Rain 9 998 93 6000 11.3 210 22:36 19.02.2020
2314 Rain 9 998 93 6000 11.3 210 22:18 19.02.2020
2315 Drizzle 9 998 93 4100 11.3 210 21:41 19.02.2020
2316 Rain 9 998 93 3300 10.8 210 21:19 19.02.2020
2317 Rain 9 998 93 3400 11.3 210 20:58 19.02.2020
2318 Rain 9 998 93 3400 11.3 210 20:58 19.02.2020
2319 Rain 9 998 93 3400 11.3 210 20:39 19.02.2020
2320 Rain 9 999 93 4000 11.8 210 20:20 19.02.2020
2321 Drizzle 8 999 93 4900 12.3 210 19:59 19.02.2020
2322 Rain 8 999 93 6000 11.8 210 19:39 19.02.2020
2323 Rain 8 999 93 6000 11.8 210 19:20 19.02.2020
2324 Rain 8 999 93 9000 10.8 210 18:58 19.02.2020
2325 Rain 8 1000 93 9000 10.3 210 18:40 19.02.2020
2326 Rain 8 1000 93 9000 10.3 210 18:22 19.02.2020
2327 Rain 8 1000 93 6000 9.8 200 17:57 19.02.2020
2328 Rain 8 1000 93 6000 9.8 200 17:39 19.02.2020
2329 Rain 7 1001 87 5000 7.7 200 17:18 19.02.2020
2330 Rain 7 1002 93 10000 7.2 190 16:43 19.02.2020
2331 Rain 7 1003 93 10000 6.7 180 16:19 19.02.2020
2332 Rain 6 1004 87 10000 6.7 170 15:56 19.02.2020
2333 Rain 6 1005 93 9000 6.2 170 15:37 19.02.2020
2334 Rain 6 1005 93 9000 6.2 170 15:19 19.02.2020
2335 Rain 6 1006 87 10000 5.1 160 14:41 19.02.2020
2336 Rain 5 1007 93 10000 4.6 160 14:22 19.02.2020
2337 Rain 5 1009 86 10000 5.7 190 13:43 19.02.2020
2338 Rain 5 1009 86 10000 5.7 190 13:23 19.02.2020
2339 Rain 5 1009 93 10000 7.7 210 12:58 19.02.2020
2340 Clouds 5 1010 81 10000 7.2 220 12:37 19.02.2020
2341 Clouds 5 1010 81 10000 7.2 220 12:18 19.02.2020
2342 Clouds 5 1010 86 10000 8.2 220 11:39 19.02.2020
2343 Clouds 5 1010 86 10000 7.7 220 11:20 19.02.2020
2344 Clouds 4 1011 86 10000 5.7 220 10:59 19.02.2020
2345 Clouds 5 1011 86 10000 5.7 220 10:39 19.02.2020
2346 Clouds 4 1011 86 10000 5.7 220 10:20 19.02.2020
2347 Clouds 3 1011 93 10000 3.6 230 09:59 19.02.2020
2348 Rain 3 1011 93 10000 6.2 230 09:41 19.02.2020
2349 Rain 3 1011 93 10000 6.2 230 09:41 19.02.2020
2350 Rain 4 1011 93 10000 6.2 230 09:20 19.02.2020
2351 Rain 3 1011 86 10000 7.2 230 08:48 19.02.2020
2352 Clouds 3 1011 86 10000 5.7 240 08:24 19.02.2020
2353 Clouds 3 1011 86 10000 5.7 230 07:57 19.02.2020
2354 Clouds 3 1011 80 10000 7.2 240 07:38 19.02.2020
2355 Clouds 3 1011 80 10000 7.2 240 07:18 19.02.2020
2356 Clouds 3 1011 85 10000 5.7 230 06:42 19.02.2020
2357 Clouds 3 1010 80 10000 7.2 250 05:26 19.02.2020
2358 Clouds 4 1009 75 10000 7.2 260 03:52 19.02.2020
2359 Clouds 3 1009 82 10000 5.1 240 02:35 19.02.2020
2360 Clouds 4 1008 80 10000 6.2 250 01:38 19.02.2020
2361 Clouds 3 1008 80 10000 6.2 250 01:20 19.02.2020
2362 Rain 3 1007 80 10000 7.2 250 00:39 19.02.2020
2363 Clouds 3 1007 82 10000 5.7 230 23:59 18.02.2020
2364 Clouds 3 1006 80 10000 6.2 250 23:39 18.02.2020
2365 Clouds 3 1006 80 10000 6.2 250 23:19 18.02.2020
2366 Clouds 3 1006 80 10000 6.2 250 23:19 18.02.2020
2367 Clouds 3 1006 80 10000 6.2 250 23:19 18.02.2020
2368 Clouds 3 1006 80 10000 6.2 250 23:19 18.02.2020
2369 Clouds 3 1006 86 10000 6.2 240 22:54 18.02.2020
2370 Clouds 3 1006 79 10000 4.6 230 22:36 18.02.2020
2371 Clouds 3 1006 79 10000 4.6 230 22:18 18.02.2020
2372 Rain 3 1006 80 10000 8.7 280 21:38 18.02.2020
2373 Rain 3 1006 80 10000 8.7 280 21:38 18.02.2020
2374 Rain 3 1006 80 10000 8.7 280 21:20 18.02.2020
2375 Clouds 3 1005 86 10000 6.2 260 20:59 18.02.2020
2376 Clouds 3 1004 86 10000 5.1 250 20:39 18.02.2020
2377 Snow 3 1004 86 10000 5.1 250 20:21 18.02.2020
2378 Snow 3 1004 86 10000 5.1 250 20:21 18.02.2020
2379 Rain 3 1004 93 10000 5.7 240 19:56 18.02.2020
2380 Rain 3 1004 93 10000 5.7 240 19:38 18.02.2020
2381 Rain 3 1004 86 10000 3.1 250 19:18 18.02.2020
2382 Rain 3 1004 86 10000 3.1 250 18:42 18.02.2020
2383 Rain 3 1004 80 10000 5.7 250 18:21 18.02.2020
2384 Snow 3 1003 86 10000 5.7 240 17:57 18.02.2020
2385 Snow 3 1003 86 10000 5.7 240 17:39 18.02.2020
2386 Rain 4 1003 86 10000 5.1 240 17:19 18.02.2020
2387 Rain 5 1002 75 10000 9.3 240 16:40 18.02.2020
2388 Rain 5 1002 75 10000 9.3 240 16:21 18.02.2020
2389 Clouds 5 1002 81 10000 8.2 230 15:42 18.02.2020
2390 Rain 5 1003 81 10000 9.8 220 15:21 18.02.2020
2391 Rain 6 1003 81 10000 7.2 220 14:59 18.02.2020
2392 Rain 6 1003 81 10000 7.2 220 14:41 18.02.2020
2393 Rain 6 1003 75 10000 10.3 220 14:21 18.02.2020
2394 Rain 5 1003 75 10000 11.3 220 13:59 18.02.2020
2395 Rain 5 1003 87 10000 8.2 220 13:40 18.02.2020
2396 Rain 5 1003 87 10000 8.2 220 13:21 18.02.2020
2397 Rain 5 1004 86 10000 7.7 220 12:44 18.02.2020
2398 Rain 5 1004 93 10000 9.8 230 12:25 18.02.2020
2399 Rain 5 1004 86 10000 7.7 240 11:56 18.02.2020
2400 Rain 5 1004 86 8000 9.3 230 11:38 18.02.2020
2401 Rain 5 1004 86 8000 9.3 230 11:20 18.02.2020
2402 Rain 5 1003 86 10000 10.3 220 10:44 18.02.2020
2403 Rain 5 1003 86 10000 10.3 220 10:44 18.02.2020
2404 Rain 5 1003 86 10000 12.9 220 10:22 18.02.2020
2405 Rain 5 1003 86 10000 9.8 220 09:56 18.02.2020
2406 Rain 4 1003 86 10000 9.8 220 09:38 18.02.2020
2407 Clouds 4 1004 86 10000 7.7 210 09:19 18.02.2020
2408 Clouds 4 1004 86 10000 8.2 220 08:55 18.02.2020
2409 Clouds 4 1003 86 10000 9.8 220 08:37 18.02.2020
2410 Clouds 4 1003 86 10000 9.8 220 08:18 18.02.2020
2411 Rain 4 1004 86 10000 9.8 230 07:45 18.02.2020
2412 Rain 4 1004 86 10000 9.8 230 07:25 18.02.2020
2413 Rain 4 1004 93 8000 7.7 230 06:50 18.02.2020
2414 Rain 4 1004 86 10000 7.7 230 06:28 18.02.2020
2415 Rain 4 1004 93 7000 7.2 230 05:47 18.02.2020
2416 Rain 4 1004 86 10000 9.3 220 05:18 18.02.2020
2417 Rain 3 1005 93 5000 8.7 230 03:41 18.02.2020
2418 Rain 3 1004 86 10000 7.7 210 02:58 18.02.2020
2419 Snow 4 1004 86 10000 6.7 240 01:25 18.02.2020
2420 Snow 3 1003 86 10000 6.7 210 00:22 18.02.2020
2421 Snow 3 1003 80 10000 6.2 230 23:58 17.02.2020
2422 Snow 3 1003 80 10000 6.2 210 23:38 17.02.2020
2423 Rain 3 1003 80 10000 6.2 210 23:19 17.02.2020
2424 Rain 3 1002 86 10000 5.1 250 22:56 17.02.2020
2425 Rain 3 1001 93 10000 7.2 210 22:38 17.02.2020
2426 Rain 3 1001 93 10000 7.2 210 22:18 17.02.2020
2427 Rain 3 1001 93 7000 7.2 250 21:39 17.02.2020
2428 Rain 3 1001 93 7000 7.2 250 21:18 17.02.2020
2429 Rain 4 1000 86 10000 9.8 230 20:43 17.02.2020
2430 Rain 4 1000 86 10000 11.3 230 20:22 17.02.2020
2431 Rain 4 999 86 10000 9.8 230 19:59 17.02.2020
2432 Clouds 4 999 80 10000 8.2 240 19:41 17.02.2020
2433 Clouds 4 999 80 10000 8.2 240 19:20 17.02.2020
2434 Rain 4 998 86 7000 11.3 240 18:38 17.02.2020
2435 Rain 4 998 86 10000 9.3 230 18:38 17.02.2020
2436 Rain 4 998 86 7000 11.3 240 18:20 17.02.2020
2437 Rain 5 998 81 10000 8.2 260 17:59 17.02.2020
2438 Clouds 5 997 81 10000 9.3 250 17:38 17.02.2020
2439 Clouds 5 997 81 10000 9.3 250 17:38 17.02.2020
2440 Clouds 5 997 81 10000 9.3 250 17:19 17.02.2020
2441 Rain 5 997 86 10000 11.3 250 16:56 17.02.2020
2442 Rain 6 997 86 10000 11.3 250 16:38 17.02.2020
2443 Rain 6 996 75 10000 12.9 240 16:20 17.02.2020
2444 Rain 6 996 75 10000 12.9 240 16:20 17.02.2020
2445 Rain 6 996 75 10000 11.3 240 15:45 17.02.2020
2446 Rain 7 996 75 8000 13.4 240 15:26 17.02.2020
2447 Rain 8 995 75 10000 9.3 250 14:56 17.02.2020
2448 Rain 7 995 75 10000 8.7 230 14:37 17.02.2020
2449 Rain 7 995 75 10000 8.7 230 14:19 17.02.2020
2450 Rain 7 995 87 10000 10.3 230 13:41 17.02.2020
2451 Rain 7 994 87 10000 9.3 230 13:20 17.02.2020
2452 Rain 7 994 87 5000 10.3 240 12:59 17.02.2020
2453 Rain 7 994 87 5000 10.3 240 12:40 17.02.2020
2454 Rain 7 993 81 4300 11.3 240 12:22 17.02.2020
2455 Rain 7 992 81 10000 8.2 240 11:47 17.02.2020
2456 Rain 7 992 81 10000 8.7 230 11:27 17.02.2020
2457 Rain 6 991 81 10000 8.7 230 10:58 17.02.2020
2458 Rain 7 991 81 10000 8.7 230 10:39 17.02.2020
2459 Rain 6 990 81 10000 7.7 230 10:20 17.02.2020
2460 Rain 6 990 81 10000 11.3 230 09:57 17.02.2020
2461 Rain 6 989 81 10000 9.8 230 09:38 17.02.2020
2462 Rain 6 989 81 10000 9.8 230 09:19 17.02.2020
2463 -273 0 0 0 0 0 08:42 17.02.2020
2464 Rain 6 987 81 10000 8.7 230 08:23 17.02.2020
2465 Rain 6 986 93 10000 9.3 220 07:59 17.02.2020
2466 Rain 6 985 93 10000 8.2 240 07:28 17.02.2020
2467 Rain 6 985 93 10000 12.3 220 06:58 17.02.2020
2468 Rain 5 985 93 10000 12.3 220 06:39 17.02.2020
2469 Rain 5 984 87 10000 11.8 230 06:19 17.02.2020
2470 Rain 5 983 87 5000 11.8 230 05:40 17.02.2020
2471 Rain 5 981 87 10000 15.4 220 04:23 17.02.2020
2472 Rain 5 980 86 5000 17.5 220 02:44 17.02.2020
2473 Rain 5 979 80 4400 15.9 220 00:59 17.02.2020
2474 Rain 5 978 80 5000 17.5 210 00:25 17.02.2020
2475 Rain 5 978 75 7000 17 210 23:56 16.02.2020
2476 Rain 6 978 70 10000 17 210 23:36 16.02.2020
2477 Rain 5 978 70 10000 17 210 23:18 16.02.2020
2478 Clouds 6 978 70 10000 16.5 210 22:54 16.02.2020
2479 Clouds 6 978 75 10000 15.4 210 22:36 16.02.2020
2480 Clouds 6 978 75 10000 15.4 210 22:18 16.02.2020
2481 Rain 5 978 70 10000 14.4 220 22:18 16.02.2020
2482 Rain 6 978 70 10000 14.4 220 21:42 16.02.2020
2483 Rain 6 977 70 10000 13.9 220 21:24 16.02.2020
2484 Clouds 6 977 75 10000 13.4 220 20:58 16.02.2020
2485 Clouds 6 977 75 10000 13.4 220 20:40 16.02.2020
2486 Clouds 6 977 75 10000 13.4 220 20:40 16.02.2020
2487 Clouds 6 976 75 10000 14.9 220 20:22 16.02.2020
2488 Clouds 6 976 75 10000 13.9 220 19:59 16.02.2020
2489 Clouds 5 975 86 10000 11.8 210 19:40 16.02.2020
2490 Clouds 5 975 86 10000 11.8 210 19:19 16.02.2020
2491 Clouds 5 975 86 10000 11.8 210 19:19 16.02.2020
2492 Clouds 5 974 86 10000 13.4 210 18:58 16.02.2020
2493 Clouds 5 974 86 10000 13.4 220 18:40 16.02.2020
2494 Clouds 5 974 86 10000 13.4 220 18:21 16.02.2020
2495 Rain 6 974 86 7000 15.9 230 17:43 16.02.2020
2496 Rain 6 973 81 6000 17 210 17:20 16.02.2020
2497 Rain 6 973 75 10000 15.9 210 16:56 16.02.2020
2498 Rain 6 973 75 10000 16.5 210 16:38 16.02.2020
2499 Rain 7 973 75 10000 16.5 210 16:20 16.02.2020
2500 Clouds 7 973 70 10000 15.9 210 15:42 16.02.2020
2501 Clouds 7 973 75 10000 16.5 200 15:23 16.02.2020
2502 Clouds 7 974 70 10000 17 200 14:59 16.02.2020
2503 Clouds 7 974 70 10000 16.5 210 14:38 16.02.2020
2504 Clouds 7 974 70 10000 16.5 210 14:19 16.02.2020
2505 Clouds 7 974 70 10000 17 210 13:45 16.02.2020
2506 Clouds 7 974 70 10000 16.5 220 13:23 16.02.2020
2507 Clouds 7 974 65 10000 15.9 210 12:42 16.02.2020
2508 Clouds 6 974 70 10000 17 210 12:20 16.02.2020
2509 Clouds 6 974 70 10000 14.9 220 11:59 16.02.2020
2510 Clouds 6 974 70 10000 13.9 210 11:37 16.02.2020
2511 Clouds 6 974 70 10000 13.9 210 11:18 16.02.2020
2512 Clouds 6 974 75 10000 13.4 220 10:56 16.02.2020
2513 Clouds 5 974 75 10000 14.9 220 10:37 16.02.2020
2514 Clouds 5 974 75 10000 14.9 220 10:19 16.02.2020
2515 Clouds 5 973 73 10000 12.3 230 09:39 16.02.2020
2516 Clouds 5 973 73 10000 12.3 230 09:21 16.02.2020
2517 Clouds 5 973 73 10000 13.9 230 08:59 16.02.2020
2518 Clouds 5 973 73 10000 13.9 230 08:59 16.02.2020
2519 Clouds 5 973 73 10000 13.9 230 08:40 16.02.2020
2520 Snow 5 972 75 10000 12.3 230 08:20 16.02.2020
2521 Snow 5 972 80 10000 12.3 230 08:20 16.02.2020
2522 Snow 5 972 80 10000 13.4 220 07:44 16.02.2020
2523 Snow 5 971 75 10000 12.3 220 07:25 16.02.2020
2524 Snow 6 970 75 10000 12.3 230 06:33 16.02.2020
2525 Rain 7 971 75 10000 11.3 220 04:38 16.02.2020
2526 Rain 7 970 87 7000 10.8 190 03:24 16.02.2020
2527 Rain 6 972 81 6000 8.7 180 02:27 16.02.2020
2528 Clouds 6 973 81 10000 6.7 170 01:42 16.02.2020
2529 Clouds 6 974 81 10000 8.7 190 01:21 16.02.2020
2530 Clouds 6 975 81 10000 8.7 200 00:51 16.02.2020
2531 Clouds 5 976 75 10000 9.3 210 00:28 16.02.2020
2532 Clouds 6 976 81 10000 9.8 210 23:45 15.02.2020
2533 Clouds 6 977 81 10000 11.8 210 23:26 15.02.2020
2534 Clouds 6 977 81 10000 11.8 210 23:26 15.02.2020
2535 Clouds 6 976 81 10000 9.3 220 22:59 15.02.2020
2536 Clouds 7 976 81 10000 8.7 220 22:41 15.02.2020
2537 Clouds 7 976 81 10000 8.7 220 22:21 15.02.2020
2538 Clouds 7 976 81 10000 10.3 220 21:58 15.02.2020
2539 Rain 7 976 87 10000 8.7 220 21:39 15.02.2020
2540 Rain 7 976 87 10000 8.7 220 21:20 15.02.2020
2541 Clouds 7 975 81 10000 9.8 220 20:39 15.02.2020
2542 Clouds 6 975 81 10000 9.8 220 20:21 15.02.2020
2543 Clouds 6 975 81 10000 9.8 220 20:21 15.02.2020
2544 Clouds 6 975 87 10000 6.7 220 19:44 15.02.2020
2545 Rain 6 974 87 10000 6.7 240 19:22 15.02.2020
2546 Rain 6 974 87 10000 6.7 240 19:22 15.02.2020
2547 Rain 7 974 93 9000 10.3 230 18:44 15.02.2020
2548 Rain 8 973 87 3700 13.9 200 18:23 15.02.2020
2549 Rain 9 972 87 10000 11.3 200 17:58 15.02.2020
2550 Rain 9 972 87 10000 11.3 200 17:58 15.02.2020
2551 Rain 9 973 87 6000 12.3 200 17:38 15.02.2020
2552 Rain 9 973 87 6000 12.3 200 17:20 15.02.2020
2553 Rain 9 974 93 2900 11.8 190 16:43 15.02.2020
2554 Rain 9 974 87 3500 10.3 180 16:24 15.02.2020
2555 Rain 9 976 93 4900 10.3 180 15:58 15.02.2020
2556 Rain 9 976 93 4900 10.3 180 15:40 15.02.2020
2557 Rain 9 976 93 4900 10.3 180 15:40 15.02.2020
2558 Rain 9 978 93 3800 12.3 190 15:22 15.02.2020
2559 Rain 9 979 93 3800 11.3 180 14:45 15.02.2020
2560 Rain 10 980 87 4000 12.3 180 14:19 15.02.2020
2561 Rain 10 981 87 10000 10.3 180 13:56 15.02.2020
2562 Rain 10 983 93 6000 10.3 190 13:37 15.02.2020
2563 Rain 9 983 93 6000 10.3 190 13:19 15.02.2020
2564 Rain 9 983 87 7000 9.8 170 12:42 15.02.2020
2565 Rain 9 984 93 6000 10.3 160 12:23 15.02.2020
2566 Rain 8 986 87 6000 8.2 160 11:49 15.02.2020
2567 Rain 8 987 87 6000 9.3 160 11:31 15.02.2020
2568 Rain 7 989 87 8000 9.3 160 10:56 15.02.2020
2569 Rain 8 990 81 10000 6.2 150 10:37 15.02.2020
2570 Rain 8 990 81 10000 6.2 150 10:37 15.02.2020
2571 Rain 8 990 81 10000 6.2 150 10:18 15.02.2020
2572 Rain 7 992 81 10000 5.7 130 09:41 15.02.2020
2573 Rain 7 993 81 10000 5.1 120 09:23 15.02.2020
2574 Rain 7 994 75 10000 5.7 140 08:44 15.02.2020
2575 Clouds 7 995 81 10000 4.6 130 08:25 15.02.2020
2576 Clouds 7 996 87 10000 3.6 110 07:59 15.02.2020
2577 Clouds 6 997 81 10000 3.6 120 07:39 15.02.2020
2578 Clouds 6 997 81 10000 3.6 120 07:18 15.02.2020
2579 Clouds 5 999 80 10000 4.1 120 06:37 15.02.2020
2580 Clouds 5 999 80 10000 3.1 90 05:54 15.02.2020
2581 Clouds 5 1001 80 10000 3.6 140 04:48 15.02.2020
2582 Clouds 5 1003 80 10000 3.6 220 03:43 15.02.2020
2583 Clouds 5 1004 75 10000 4.1 200 02:58 15.02.2020
2584 Clouds 5 1004 75 10000 5.7 200 02:23 15.02.2020
2585 Clouds 5 1005 75 10000 5.7 200 01:41 15.02.2020
2586 Clouds 6 1005 81 10000 6.2 200 00:43 15.02.2020
2587 Clouds 6 1005 75 10000 6.2 210 00:24 15.02.2020
2588 Clouds 6 1005 81 10000 4.6 210 23:42 14.02.2020
2589 Clouds 6 1005 81 10000 4.1 230 23:20 14.02.2020
2590 Clouds 6 1005 75 10000 5.7 220 22:45 14.02.2020
2591 Clouds 6 1005 75 10000 5.1 220 22:24 14.02.2020
2592 Clouds 7 1005 70 10000 6.7 220 21:54 14.02.2020
2593 Clouds 7 1005 70 10000 7.7 230 21:36 14.02.2020
2594 Clouds 7 1005 70 10000 7.7 230 21:18 14.02.2020
2595 Clouds 7 1005 75 10000 4.1 270 20:42 14.02.2020
2596 Rain 7 1004 75 10000 6.2 220 20:19 14.02.2020
2597 Rain 7 1004 75 10000 5.1 220 19:56 14.02.2020
2598 Rain 7 1003 75 10000 7.2 230 19:38 14.02.2020
2599 Rain 7 1003 75 10000 7.2 230 19:18 14.02.2020
2600 Rain 7 1003 70 10000 8.7 230 18:55 14.02.2020
2601 Rain 7 1003 70 10000 8.7 230 18:55 14.02.2020
2602 Rain 8 1002 70 10000 10.3 230 18:37 14.02.2020
2603 Rain 8 1002 70 10000 10.3 230 18:18 14.02.2020
2604 Clouds 9 1001 70 10000 8.7 230 17:41 14.02.2020
2605 Clouds 9 1001 70 10000 8.7 230 17:19 14.02.2020
2606 Rain 9 1001 66 10000 10.3 230 16:57 14.02.2020
2607 Rain 9 1000 76 10000 10.8 220 16:38 14.02.2020
2608 Rain 9 1000 76 10000 10.8 220 16:19 14.02.2020
2609 Rain 9 1000 76 10000 11.8 220 15:54 14.02.2020
2610 Clouds 10 1000 81 10000 11.8 220 15:36 14.02.2020
2611 Clouds 10 1000 81 10000 11.8 220 15:18 14.02.2020
2612 Clouds 9 999 87 10000 11.8 220 14:42 14.02.2020
2613 Clouds 9 999 87 10000 12.3 210 14:23 14.02.2020
2614 Rain 9 999 87 10000 12.3 210 13:59 14.02.2020
2615 Rain 8 999 87 10000 12.3 210 13:39 14.02.2020
2616 Rain 8 999 100 10000 9.3 200 13:20 14.02.2020
2617 Rain 8 999 100 10000 9.3 200 13:20 14.02.2020
2618 Rain 7 999 87 3500 6.7 180 12:57 14.02.2020
2619 Rain 7 999 93 6000 8.7 180 12:38 14.02.2020
2620 Rain 7 999 93 6000 8.7 180 12:20 14.02.2020
2621 Rain 7 1000 93 3000 10.3 180 11:58 14.02.2020
2622 Rain 7 1000 93 3000 10.3 180 11:39 14.02.2020
2623 Rain 6 1000 93 2800 7.7 180 11:20 14.02.2020
2624 Rain 6 1001 87 3500 7.7 170 10:44 14.02.2020
2625 Clouds 6 1001 81 10000 7.2 150 10:25 14.02.2020
2626 Clouds 6 1002 81 10000 6.7 130 09:56 14.02.2020
2627 Clouds 6 1003 81 10000 6.7 150 09:37 14.02.2020
2628 Clouds 5 1003 81 10000 6.7 150 09:19 14.02.2020
2629 Clouds 5 1005 86 10000 4.6 130 08:40 14.02.2020
2630 Clouds 5 1005 86 10000 4.6 130 08:22 14.02.2020
2631 Clouds 5 1005 86 10000 4.6 130 08:22 14.02.2020
2632 Clouds 4 1006 93 10000 2.1 90 07:50 14.02.2020
2633 Clouds 4 1006 86 10000 3.1 80 07:31 14.02.2020
2634 Clouds 3 1007 93 10000 2.6 70 06:54 14.02.2020
2635 Clouds 3 1007 86 10000 3.1 80 06:22 14.02.2020
2636 Clouds 3 1007 93 10000 3.6 80 05:42 14.02.2020
2637 Clouds 1 1009 100 10000 1.5 80 03:51 14.02.2020
2638 Clouds 1 1010 93 10000 2.6 80 02:58 14.02.2020
2639 Clouds 2 1010 93 10000 1.5 80 02:18 14.02.2020
2640 Clouds 2 1010 93 10000 2.6 60 01:18 14.02.2020
2641 Clouds 2 1009 93 10000 1 130 00:32 14.02.2020
2642 Clouds 2 1009 93 10000 1 120 23:59 13.02.2020
2643 Clouds 2 1009 93 10000 1 120 23:41 13.02.2020
2644 Clouds 1 1009 89 10000 0.5 0 23:19 13.02.2020
2645 Clouds 2 1008 89 10000 1 0 22:41 13.02.2020
2646 Clouds 2 1008 89 10000 1 0 22:20 13.02.2020
2647 Clouds 2 1008 89 10000 2.1 250 21:59 13.02.2020
2648 Clouds 2 1008 89 10000 2.1 250 21:40 13.02.2020
2649 Clouds 2 1007 89 10000 2.6 230 21:20 13.02.2020
2650 Clouds 3 1006 89 10000 1.5 360 20:43 13.02.2020
2651 Clouds 3 1006 90 10000 1.5 360 20:23 13.02.2020
2652 Clouds 3 1005 86 10000 1.5 330 19:58 13.02.2020
2653 Clouds 3 1004 80 10000 2.1 360 19:39 13.02.2020
2654 Clouds 4 1004 80 10000 2.1 360 19:21 13.02.2020
2655 Clouds 4 1004 80 10000 2.1 20 18:58 13.02.2020
2656 Clouds 4 1004 80 10000 2.1 20 18:58 13.02.2020
2657 Clouds 5 1004 80 10000 2.1 20 18:39 13.02.2020
2658 Clouds 5 1003 80 10000 2.6 10 18:21 13.02.2020
2659 Clouds 5 1002 80 10000 3.6 30 17:57 13.02.2020
2660 Clouds 5 1001 75 10000 4.1 20 17:37 13.02.2020
2661 Clouds 5 1001 75 10000 4.1 20 17:19 13.02.2020
2662 Clouds 5 1000 81 10000 5.7 30 16:43 13.02.2020
2663 Clouds 5 999 81 10000 6.7 40 16:21 13.02.2020
2664 Clouds 5 998 80 10000 8.7 40 15:58 13.02.2020
2665 Clouds 5 998 80 10000 8.7 40 15:40 13.02.2020
2666 Clouds 5 998 81 10000 9.3 40 15:20 13.02.2020
2667 Clouds 5 997 86 10000 7.7 30 14:59 13.02.2020
2668 Clouds 5 997 86 10000 7.7 30 14:40 13.02.2020
2669 Clouds 5 997 86 10000 7.7 30 14:40 13.02.2020
2670 Clouds 5 997 86 10000 7.7 30 14:22 13.02.2020
2671 Clouds 5 996 86 10000 8.2 30 13:54 13.02.2020
2672 Clouds 5 995 86 10000 7.2 40 13:36 13.02.2020
2673 Clouds 5 995 86 10000 7.2 40 13:18 13.02.2020
2674 Rain 4 994 86 10000 7.2 30 12:48 13.02.2020
2675 Rain 4 993 86 9000 5.7 30 12:30 13.02.2020
2676 Rain 4 992 93 10000 6.2 40 11:57 13.02.2020
2677 Rain 4 991 86 10000 8.7 50 11:39 13.02.2020
2678 Rain 4 991 86 10000 8.7 50 11:18 13.02.2020
2679 Rain 4 991 86 10000 8.7 50 10:43 13.02.2020
2680 Rain 3 990 100 6000 9.3 50 10:23 13.02.2020
2681 Rain 3 990 93 5000 8.7 50 09:46 13.02.2020
2682 Rain 3 990 93 5000 8.7 60 09:24 13.02.2020
2683 Rain 3 990 93 5000 8.7 60 09:24 13.02.2020
2684 Rain 3 990 93 6000 8.7 60 08:47 13.02.2020
2685 Rain 2 990 93 8000 9.3 60 08:20 13.02.2020
2686 Rain 2 990 83 9000 9.8 60 07:44 13.02.2020
2687 Rain 2 990 83 9000 9.8 60 07:44 13.02.2020
2688 Rain 2 991 83 10000 8.2 60 07:24 13.02.2020
2689 Rain 2 991 83 10000 8.2 60 07:24 13.02.2020
2690 Rain 2 991 83 10000 9.3 60 06:54 13.02.2020
2691 Rain 2 991 83 10000 8.2 70 06:36 13.02.2020
2692 Clouds 1 992 83 10000 8.7 60 05:56 13.02.2020
2693 Clouds 1 994 86 10000 6.7 60 04:50 13.02.2020
2694 Clouds 1 995 86 10000 5.7 70 04:24 13.02.2020
2695 Clouds 1 996 86 10000 6.2 70 03:41 13.02.2020
2696 Clouds 1 998 89 10000 5.1 60 02:59 13.02.2020
2697 Clouds 0 998 87 10000 4.6 50 02:20 13.02.2020
2698 Clouds 0 999 87 10000 4.1 60 01:54 13.02.2020
2699 Clouds 0 999 87 10000 4.1 60 01:54 13.02.2020
2700 Clouds 0 1000 87 10000 4.6 70 01:25 13.02.2020
2701 Clouds 0 1002 92 10000 3.1 50 00:28 13.02.2020
2702 Clouds 0 1002 87 10000 2.6 80 23:43 12.02.2020
2703 Clouds 0 1003 86 10000 1.5 0 23:23 12.02.2020
2704 Clouds 0 1003 86 10000 1.5 0 23:23 12.02.2020
2705 Clouds 1 1004 81 10000 2.6 50 22:59 12.02.2020
2706 Clouds 1 1004 81 10000 2.6 50 22:41 12.02.2020
2707 Clouds 1 1004 86 10000 3.6 180 22:22 12.02.2020
2708 Clouds 1 1004 81 10000 2.6 170 21:55 12.02.2020
2709 Clouds 1 1005 81 10000 1.5 0 21:37 12.02.2020
2710 Clouds 1 1005 81 10000 1.5 0 21:18 12.02.2020
2711 Clouds 2 1005 81 10000 3.1 230 20:43 12.02.2020
2712 Clouds 2 1006 81 10000 3.6 180 20:25 12.02.2020
2713 Clouds 2 1006 79 10000 2.1 160 19:57 12.02.2020
2714 Clouds 2 1006 79 10000 2.1 160 19:39 12.02.2020
2715 Rain 2 1006 79 5000 7.2 240 19:21 12.02.2020
2716 Clouds 2 1006 79 10000 6.2 230 18:50 12.02.2020
2717 Clouds 2 1006 79 10000 7.2 220 18:20 12.02.2020
2718 Clouds 2 1006 79 10000 7.2 220 18:20 12.02.2020
2719 Clouds 2 1006 79 10000 7.2 220 18:20 12.02.2020
2720 Clouds 3 1006 79 10000 6.2 210 17:59 12.02.2020
2721 Clouds 3 1006 79 10000 6.7 200 17:40 12.02.2020
2722 Snow 3 1006 60 10000 6.7 200 17:19 12.02.2020
2723 Snow 4 1006 80 10000 6.2 230 16:56 12.02.2020
2724 Clouds 4 1006 80 10000 5.7 230 16:36 12.02.2020
2725 Clouds 4 1006 80 10000 5.7 230 16:18 12.02.2020
2726 Clouds 4 1006 80 10000 5.7 230 16:18 12.02.2020
2727 Snow 4 1005 61 10000 7.2 250 15:38 12.02.2020
2728 Snow 4 1005 61 10000 7.2 250 15:19 12.02.2020
2729 Clouds 4 1005 61 10000 6.7 250 14:42 12.02.2020
2730 Clouds 3 1005 93 10000 1 0 14:21 12.02.2020
2731 Rain 3 1005 60 10000 2.1 280 13:59 12.02.2020
2732 Rain 3 1005 59 10000 2.1 280 13:40 12.02.2020
2733 Snow 3 1005 60 10000 4.1 290 13:40 12.02.2020
2734 Snow 3 1005 59 10000 4.1 290 13:22 12.02.2020
2735 Snow 3 1005 59 10000 5.1 230 12:58 12.02.2020
2736 Thunderstorm 3 1004 59 10000 6.7 240 12:39 12.02.2020
2737 Thunderstorm 3 1004 59 10000 6.7 240 12:39 12.02.2020
2738 Thunderstorm 3 1004 59 10000 6.7 240 12:19 12.02.2020
2739 Thunderstorm 3 1004 74 8000 5.7 270 11:58 12.02.2020
2740 Thunderstorm 3 1004 74 8000 5.7 270 11:40 12.02.2020
2741 Rain 3 1004 69 10000 10.8 250 11:20 12.02.2020
2742 Clear 4 1003 69 10000 7.7 250 10:56 12.02.2020
2743 Clear 3 1002 69 10000 5.7 250 10:38 12.02.2020
2744 Clear 3 1002 69 10000 5.7 250 10:20 12.02.2020
2745 Clear 3 1002 69 10000 5.7 250 10:20 12.02.2020
2746 Rain 3 1002 69 10000 5.1 300 09:42 12.02.2020
2747 Clear 3 1001 74 10000 5.7 250 09:24 12.02.2020
2748 Clear 3 1001 74 10000 5.7 250 09:24 12.02.2020
2749 Clouds 3 1001 69 10000 7.7 250 08:58 12.02.2020
2750 Clear 3 1001 69 10000 7.7 250 08:38 12.02.2020
2751 Clear 3 1001 69 10000 7.7 250 08:20 12.02.2020
2752 Rain 3 1000 77 10000 6.7 260 07:45 12.02.2020
2753 Clear 3 1000 69 10000 7.7 250 07:24 12.02.2020
2754 Clear 3 1000 74 10000 6.7 250 06:59 12.02.2020
2755 Rain 3 1000 64 10000 7.7 260 06:24 12.02.2020
2756 Clear 3 999 69 10000 7.7 250 05:44 12.02.2020
2757 Clear 3 999 74 10000 8.2 250 05:21 12.02.2020
2758 Rain 4 999 69 10000 11.8 270 04:41 12.02.2020
2759 Clear 4 998 60 10000 10.3 260 03:43 12.02.2020
2760 Clear 4 998 60 10000 10.3 260 03:43 12.02.2020
2761 Clouds 4 998 69 10000 9.3 260 03:24 12.02.2020
2762 Clouds 3 997 69 10000 11.8 260 02:32 12.02.2020
2763 Clouds 3 997 73 10000 9.8 260 01:59 12.02.2020
2764 Rain 2 997 86 10000 6.7 260 00:58 12.02.2020
2765 Rain 2 997 86 10000 6.7 260 00:39 12.02.2020
2766 Rain 3 997 86 5000 7.2 270 00:21 12.02.2020
2767 Rain 2 997 73 9000 8.7 260 23:45 11.02.2020
2768 Rain 3 996 73 10000 9.3 260 23:27 11.02.2020
2769 Rain 3 995 73 10000 7.7 260 22:56 11.02.2020
2770 Clouds 3 994 73 10000 7.2 260 22:38 11.02.2020
2771 Clouds 3 994 73 10000 7.2 260 22:19 11.02.2020
2772 Rain 3 995 73 10000 9.3 280 21:56 11.02.2020
2773 Rain 3 995 73 10000 9.3 280 21:56 11.02.2020
2774 Rain 3 994 73 10000 8.2 240 21:37 11.02.2020
2775 Rain 3 994 73 10000 8.2 240 21:18 11.02.2020
2776 Rain 3 994 73 10000 8.2 240 21:18 11.02.2020
2777 Clouds 3 994 73 10000 9.3 250 20:56 11.02.2020
2778 Clouds 3 994 73 10000 10.8 260 20:37 11.02.2020
2779 Clouds 3 994 76 10000 10.8 260 20:18 11.02.2020
2780 Snow 3 993 76 10000 9.8 250 19:43 11.02.2020
2781 Snow 3 993 76 10000 9.8 250 19:43 11.02.2020
2782 Snow 3 993 74 10000 8.7 260 19:24 11.02.2020
2783 Rain 3 993 76 6000 9.3 260 18:57 11.02.2020
2784 Rain 3 993 76 6000 9.3 260 18:57 11.02.2020
2785 Snow 3 993 76 10000 9.8 250 18:39 11.02.2020
2786 Snow 3 993 76 10000 9.8 250 18:20 11.02.2020
2787 Snow 3 992 69 10000 11.3 260 17:55 11.02.2020
2788 Rain 3 992 76 10000 9.8 260 17:36 11.02.2020
2789 Rain 3 992 72 10000 9.8 260 17:18 11.02.2020
2790 Rain 2 992 72 10000 7.7 260 16:57 11.02.2020
2791 Clouds 3 992 72 5000 10.3 260 16:37 11.02.2020
2792 Clouds 3 992 72 5000 10.3 260 16:19 11.02.2020
2793 Rain 3 991 72 10000 10.3 260 15:45 11.02.2020
2794 Rain 3 992 72 10000 8.7 270 15:26 11.02.2020
2795 Snow 3 991 69 10000 7.7 250 14:57 11.02.2020
2796 Rain 3 991 72 10000 8.2 260 14:38 11.02.2020
2797 Rain 3 991 71 10000 8.2 260 14:18 11.02.2020
2798 Rain 3 991 86 10000 8.7 260 13:42 11.02.2020
2799 Clouds 3 991 80 9000 9.3 250 13:21 11.02.2020
2800 Clouds 3 991 80 9000 9.3 250 13:21 11.02.2020
2801 Clouds 3 991 80 9000 9.3 250 13:21 11.02.2020
2802 Rain 3 990 69 10000 9.3 250 12:58 11.02.2020
2803 Rain 3 990 69 10000 10.8 250 12:40 11.02.2020
2804 Rain 3 990 69 10000 10.8 250 12:20 11.02.2020
2805 Clouds 3 990 69 10000 6.2 250 11:55 11.02.2020
2806 Rain 2 990 74 9000 12.9 260 11:36 11.02.2020
2807 Rain 3 990 74 9000 12.9 260 11:18 11.02.2020
2808 Rain 3 989 69 10000 8.7 270 10:39 11.02.2020
2809 Rain 3 989 69 10000 8.7 270 10:20 11.02.2020
2810 Rain 3 989 69 10000 9.3 250 09:56 11.02.2020
2811 Snow 3 989 69 10000 6.7 250 09:38 11.02.2020
2812 Snow 3 989 69 10000 6.7 250 09:20 11.02.2020
2813 Clouds 3 988 80 10000 8.2 270 08:46 11.02.2020
2814 Clouds 2 988 74 10000 6.7 240 08:24 11.02.2020
2815 Snow 3 988 83 10000 7.2 260 07:48 11.02.2020
2816 Rain 3 987 80 10000 9.8 260 07:26 11.02.2020
2817 Rain 3 987 80 10000 9.3 260 06:44 11.02.2020
2818 Rain 3 987 80 5000 10.3 280 06:22 11.02.2020
2819 Rain 3 986 93 10000 11.8 260 05:58 11.02.2020
2820 Rain 3 985 80 10000 8.7 260 05:25 11.02.2020
2821 Rain 3 985 86 9000 11.3 260 04:42 11.02.2020
2822 Rain 3 984 86 10000 6.7 270 03:21 11.02.2020
2823 Snow 3 983 95 10000 11.3 260 02:32 11.02.2020
2824 Rain 3 983 86 10000 8.7 250 01:38 11.02.2020
2825 Snow 3 982 80 10000 6.7 250 00:41 11.02.2020
2826 Snow 3 981 80 10000 7.2 260 23:59 10.02.2020
2827 Rain 3 980 80 6000 10.3 250 23:38 10.02.2020
2828 Rain 3 980 80 6000 10.3 250 23:20 10.02.2020
2829 Rain 4 980 86 2500 9.8 260 22:41 10.02.2020
2830 Rain 3 980 86 2500 9.8 260 22:20 10.02.2020
2831 Rain 3 979 80 10000 8.7 250 21:47 10.02.2020
2832 Rain 3 979 86 5000 8.2 260 21:27 10.02.2020
2833 Rain 2 979 93 10000 7.7 220 20:58 10.02.2020
2834 Rain 2 979 93 10000 7.7 220 20:58 10.02.2020
2835 Rain 2 979 93 10000 7.7 220 20:58 10.02.2020
2836 Rain 2 979 93 10000 7.7 220 20:40 10.02.2020
2837 Rain 2 979 93 10000 9.8 220 20:21 10.02.2020
2838 Rain 2 979 93 10000 9.8 220 20:21 10.02.2020
2839 Clouds 2 979 93 3400 10.8 220 19:59 10.02.2020
2840 Clouds 2 979 93 3400 10.8 220 19:39 10.02.2020
2841 Snow 2 979 100 4900 12.9 220 19:19 10.02.2020
2842 Drizzle 2 980 92 4400 11.3 220 18:59 10.02.2020
2843 Snow 2 980 92 10000 9.8 220 18:41 10.02.2020
2844 Snow 2 980 92 10000 9.8 220 18:21 10.02.2020
2845 Clouds 2 980 86 10000 9.3 220 17:58 10.02.2020
2846 Clouds 2 980 86 10000 9.3 220 17:38 10.02.2020
2847 Snow 2 980 67 10000 9.3 240 17:20 10.02.2020
2848 Rain 1 981 93 10000 9.3 250 16:59 10.02.2020
2849 Rain 1 981 93 10000 9.3 250 16:59 10.02.2020
2850 Thunderstorm 1 980 67 10000 9.3 240 16:40 10.02.2020
2851 Thunderstorm 2 980 67 10000 9.3 240 16:20 10.02.2020
2852 Snow 2 981 67 4500 6.7 260 15:56 10.02.2020
2853 Snow 2 981 67 10000 14.9 230 15:38 10.02.2020
2854 Snow 2 981 67 10000 14.9 230 15:20 10.02.2020
2855 Rain 2 981 67 10000 9.3 240 14:56 10.02.2020
2856 Rain 2 981 93 10000 6.7 210 14:37 10.02.2020
2857 Rain 3 981 93 10000 6.7 210 14:18 10.02.2020
2858 Rain 2 981 93 10000 5.7 210 13:42 10.02.2020
2859 Snow 2 982 93 10000 8.2 230 13:24 10.02.2020
2860 Snow 2 982 93 10000 11.8 230 12:51 10.02.2020
2861 Clouds 2 981 93 10000 10.8 210 12:27 10.02.2020
2862 Rain 2 982 86 10000 11.3 230 11:56 10.02.2020
2863 Snow 2 981 86 10000 11.3 220 11:38 10.02.2020
2864 Snow 2 981 86 10000 11.3 220 11:20 10.02.2020
2865 Thunderstorm 2 981 86 10000 11.8 240 10:47 10.02.2020
2866 Thunderstorm 2 981 93 9000 9.3 220 10:28 10.02.2020
2867 Snow 3 981 86 10000 8.2 230 09:48 10.02.2020
2868 Snow 3 981 86 10000 8.2 230 09:48 10.02.2020
2869 Rain 2 981 86 10000 7.7 240 09:26 10.02.2020
2870 Rain 2 981 86 10000 10.8 260 08:57 10.02.2020
2871 Rain 2 981 80 10000 8.7 240 08:37 10.02.2020
2872 Rain 2 981 80 10000 8.7 240 08:19 10.02.2020
2873 Rain 3 981 93 10000 6.7 260 07:50 10.02.2020
2874 Snow 3 980 73 10000 8.7 240 07:27 10.02.2020
2875 Rain 2 980 86 10000 7.2 250 06:22 10.02.2020
2876 Snow 3 978 86 10000 4.6 230 04:42 10.02.2020
2877 Rain 3 977 86 10000 8.7 260 03:34 10.02.2020
2878 Rain 4 976 75 10000 8.7 250 02:54 10.02.2020
2879 Rain 4 975 75 10000 9.8 250 01:57 10.02.2020
2880 Rain 4 974 86 10000 7.7 260 00:51 10.02.2020
2881 Rain 4 974 86 10000 8.7 250 00:31 10.02.2020
2882 Rain 4 974 86 10000 8.7 250 00:31 10.02.2020
2883 Snow 4 973 80 10000 7.7 260 23:56 09.02.2020
2884 Rain 4 972 86 10000 7.7 250 23:38 09.02.2020
2885 Rain 4 972 86 10000 7.7 250 23:19 09.02.2020
2886 Rain 5 972 80 10000 8.2 250 22:39 09.02.2020
2887 Clouds 5 971 75 10000 9.3 250 22:21 09.02.2020
2888 Clouds 5 971 86 10000 8.7 250 21:42 09.02.2020
2889 Rain 5 970 81 10000 9.8 250 21:23 09.02.2020
2890 Clouds 5 970 86 10000 8.2 240 20:48 09.02.2020
2891 Rain 5 969 86 10000 8.7 260 20:27 09.02.2020
2892 Rain 5 968 86 9000 11.3 260 19:58 09.02.2020
2893 Rain 5 968 86 9000 11.3 260 19:39 09.02.2020
2894 Rain 5 968 87 9000 10.8 250 19:20 09.02.2020
2895 Rain 5 967 81 10000 9.3 240 18:56 09.02.2020
2896 Rain 5 967 87 10000 8.7 250 18:36 09.02.2020
2897 Rain 6 967 87 10000 8.7 250 18:18 09.02.2020
2898 Rain 6 966 87 5000 12.3 250 17:40 09.02.2020
2899 Rain 7 966 87 5000 12.3 250 17:22 09.02.2020
2900 Rain 7 966 87 5000 12.3 250 17:21 09.02.2020
2901 Rain 8 965 70 10000 10.3 250 16:44 09.02.2020
2902 Rain 8 964 75 10000 11.8 250 16:24 09.02.2020
2903 Rain 8 963 66 10000 15.9 240 15:59 09.02.2020
2904 Rain 9 963 66 10000 15.9 240 15:41 09.02.2020
2905 Rain 9 963 70 10000 13.9 240 15:22 09.02.2020
2906 Clouds 9 963 70 10000 15.9 240 14:57 09.02.2020
2907 Clouds 9 963 70 10000 15.9 240 14:39 09.02.2020
2908 Clouds 9 962 76 10000 15.4 240 14:20 09.02.2020
2909 Clouds 9 962 71 10000 15.9 240 13:44 09.02.2020
2910 Rain 9 962 76 10000 15.4 240 13:26 09.02.2020
2911 Rain 10 962 76 10000 14.9 220 12:56 09.02.2020
2912 Rain 10 962 81 10000 11.8 230 12:38 09.02.2020
2913 Rain 10 962 81 10000 11.8 230 12:18 09.02.2020
2914 Clouds 10 963 81 10000 15.9 210 11:41 09.02.2020
2915 Clouds 10 963 81 10000 15.9 210 11:20 09.02.2020
2916 Rain 9 963 87 7000 14.9 210 10:57 09.02.2020
2917 Rain 10 964 87 6000 17.5 210 10:38 09.02.2020
2918 Rain 10 964 87 6000 17.5 210 10:20 09.02.2020
2919 Rain 10 964 93 10000 14.4 210 09:41 09.02.2020
2920 Rain 10 965 93 10000 15.9 200 09:22 09.02.2020
2921 Rain 10 967 93 10000 14.4 200 08:45 09.02.2020
2922 Rain 10 967 93 10000 14.4 200 08:45 09.02.2020
2923 Rain 9 968 100 4200 10.8 210 08:26 09.02.2020
2924 Rain 7 971 100 3700 2.1 110 07:58 09.02.2020
2925 Rain 7 972 100 2300 3.1 50 07:34 09.02.2020
2926 Rain 5 974 100 4600 4.1 70 06:45 09.02.2020
2927 Drizzle 4 978 93 5000 1.5 60 05:57 09.02.2020
2928 Rain 4 978 100 10000 2.1 70 05:35 09.02.2020
2929 Rain 3 980 100 10000 2.1 90 04:54 09.02.2020
2930 Rain 3 981 100 8000 2.1 180 03:51 09.02.2020
2931 Drizzle 3 982 100 1700 1 0 02:44 09.02.2020
2932 Rain 3 983 100 6000 2.1 100 01:55 09.02.2020
2933 Rain 4 985 93 9000 2.1 110 01:34 09.02.2020
2934 Rain 4 985 93 6000 2.1 180 00:41 09.02.2020
2935 Rain 4 987 93 8000 5.1 220 00:18 09.02.2020
2936 Rain 4 989 86 8000 6.2 220 23:42 08.02.2020
2937 Rain 4 989 86 8000 6.2 220 23:19 08.02.2020
2938 Rain 5 989 86 6000 3.6 260 22:41 08.02.2020
2939 Rain 6 990 86 8000 5.1 260 22:21 08.02.2020
2940 Rain 7 990 93 10000 7.2 280 21:58 08.02.2020
2941 Rain 7 990 93 10000 7.2 280 21:39 08.02.2020
2942 Rain 7 989 93 2000 12.9 230 21:19 08.02.2020
2943 Rain 8 989 87 4200 16.5 210 20:55 08.02.2020
2944 Rain 8 989 87 4200 16.5 210 20:55 08.02.2020
2945 Rain 7 989 87 6000 17.5 200 20:37 08.02.2020
2946 Rain 8 989 87 6000 17.5 200 20:18 08.02.2020
2947 Rain 8 989 87 6000 17.5 200 20:18 08.02.2020
2948 Rain 8 990 81 5000 15.4 190 19:41 08.02.2020
2949 Rain 7 990 81 5000 15.4 190 19:20 08.02.2020
2950 Rain 7 991 81 5000 15.4 190 18:59 08.02.2020
2951 Rain 7 992 81 5000 12.9 180 18:41 08.02.2020
2952 Rain 8 992 81 5000 12.9 180 18:22 08.02.2020
2953 Rain 8 993 75 10000 12.3 180 17:43 08.02.2020
2954 Rain 8 995 75 10000 12.3 180 17:21 08.02.2020
2955 Clouds 8 996 70 10000 11.8 180 16:57 08.02.2020
2956 Clouds 8 997 70 10000 11.8 190 16:38 08.02.2020
2957 Clouds 8 997 70 10000 11.8 190 16:19 08.02.2020
2958 Clouds 8 998 70 10000 10.8 190 15:41 08.02.2020
2959 Clouds 8 999 70 10000 9.3 190 15:19 08.02.2020
2960 Clouds 8 1000 65 10000 10.8 190 14:55 08.02.2020
2961 Clouds 8 1001 65 10000 9.3 190 14:36 08.02.2020
2962 Clouds 8 1001 65 10000 9.3 190 14:18 08.02.2020
2963 Clouds 8 1001 65 10000 8.2 200 13:41 08.02.2020
2964 Clouds 8 1002 75 10000 8.2 200 13:23 08.02.2020
2965 Clouds 7 1003 75 10000 6.7 190 12:49 08.02.2020
2966 Clouds 7 1003 75 10000 6.7 190 12:49 08.02.2020
2967 Clouds 7 1003 75 10000 6.7 200 12:24 08.02.2020
2968 Clouds 6 1003 81 10000 9.3 200 11:59 08.02.2020
2969 Clouds 6 1003 81 10000 10.3 210 11:40 08.02.2020
2970 Clouds 6 1003 81 10000 10.3 210 11:20 08.02.2020
2971 Clouds 5 1003 80 10000 7.7 220 10:43 08.02.2020
2972 Clouds 5 1003 80 10000 7.7 220 10:42 08.02.2020
2973 Clouds 5 1003 80 10000 10.8 210 10:23 08.02.2020
2974 Clouds 5 1003 80 10000 9.8 210 09:53 08.02.2020
2975 Clouds 4 1002 80 10000 9.3 210 09:29 08.02.2020
2976 Clouds 4 1002 86 10000 10.8 220 08:56 08.02.2020
2977 Clouds 4 1001 80 10000 9.3 210 08:38 08.02.2020
2978 Clouds 4 1001 80 10000 9.3 210 08:20 08.02.2020
2979 Clouds 4 1001 80 10000 11.3 210 07:48 08.02.2020
2980 Clouds 4 1001 86 10000 11.3 220 07:30 08.02.2020
2981 Rain 5 1000 86 10000 7.7 230 06:30 08.02.2020
2982 Rain 5 1000 86 10000 7.7 230 06:30 08.02.2020
2983 Rain 5 999 86 10000 8.7 240 05:48 08.02.2020
2984 Rain 5 997 86 10000 7.7 240 05:30 08.02.2020
2985 Rain 7 995 87 4300 10.3 200 04:49 08.02.2020
2986 Rain 8 996 75 10000 11.3 200 03:52 08.02.2020
2987 Rain 9 995 87 10000 9.3 190 02:52 08.02.2020
2988 Rain 8 996 93 10000 7.2 170 01:53 08.02.2020
2989 Clouds 8 996 87 10000 9.3 170 01:24 08.02.2020
2990 Rain 8 997 81 10000 7.7 150 00:39 08.02.2020
2991 Rain 7 997 81 10000 7.7 150 00:21 08.02.2020
2992 Rain 7 998 87 10000 4.6 110 23:45 07.02.2020
2993 Rain 6 999 87 10000 6.2 120 23:21 07.02.2020
2994 Clouds 6 1000 81 10000 5.7 120 22:58 07.02.2020
2995 Clouds 6 1000 81 10000 6.7 110 22:39 07.02.2020
2996 Clouds 6 1000 81 10000 6.7 110 22:19 07.02.2020
2997 Rain 6 1001 81 10000 6.7 120 21:43 07.02.2020
2998 Rain 6 1002 75 10000 6.7 130 21:22 07.02.2020
2999 Clouds 6 1002 70 10000 6.7 140 20:55 07.02.2020
3000 Rain 6 1003 79 10000 4.1 120 20:37 07.02.2020
3001 Rain 6 1003 73 10000 4.1 120 20:18 07.02.2020
3002 Clouds 6 1004 60 10000 4.6 130 19:40 07.02.2020
3003 Clouds 5 1004 60 10000 6.2 130 19:19 07.02.2020
3004 Clouds 5 1005 52 10000 2.6 120 18:55 07.02.2020
3005 Clouds 5 1005 56 10000 3.1 130 18:37 07.02.2020
3006 Clouds 5 1005 56 10000 3.1 130 18:18 07.02.2020
3007 Clouds 6 1005 52 10000 3.1 110 17:42 07.02.2020
3008 Clouds 7 1006 52 10000 5.1 140 17:21 07.02.2020
3009 Clouds 7 1007 52 10000 6.2 160 16:54 07.02.2020
3010 Clouds 7 1008 45 10000 2.6 130 16:25 07.02.2020
3011 Clouds 7 1008 42 10000 2.1 110 15:56 07.02.2020
3012 Clouds 7 1008 42 10000 2.1 110 15:56 07.02.2020
3013 Clouds 7 1009 52 10000 4.1 110 15:38 07.02.2020
3014 Clouds 7 1009 52 10000 4.1 110 15:20 07.02.2020
3015 Clouds 7 1009 52 10000 4.1 110 15:20 07.02.2020
3016 Clouds 6 1009 75 10000 3.1 70 14:42 07.02.2020
3017 Clear 6 1010 80 10000 3.6 70 14:24 07.02.2020
3018 Clear 5 1011 93 10000 4.6 40 13:57 07.02.2020
3019 Clear 5 1012 86 10000 4.1 60 13:39 07.02.2020
3020 Clouds 5 1012 86 10000 4.1 60 13:20 07.02.2020
3021 Clouds 4 1013 62 10000 3.6 60 12:44 07.02.2020
3022 Clouds 4 1014 93 10000 4.6 60 12:26 07.02.2020
3023 Clouds 3 1014 93 10000 3.1 80 11:58 07.02.2020
3024 Clouds 2 1015 62 7000 0.5 0 11:39 07.02.2020
3025 Clear 1 1015 91 7000 0.5 0 11:18 07.02.2020
3026 Rain 0 1016 91 8000 1.5 0 10:40 07.02.2020
3027 Clear 0 1016 91 10000 2.6 90 10:21 07.02.2020
3028 Clear -1 1016 100 10000 3.1 60 09:47 07.02.2020
3029 Fog -1 1017 100 10000 1 0 09:27 07.02.2020
3030 Fog -1 1018 92 10000 1 0 08:58 07.02.2020
3031 Fog -1 1018 100 400 2.1 130 08:37 07.02.2020
3032 Fog -1 1018 100 400 2.1 130 08:19 07.02.2020
3033 Fog -1 1018 92 100 1 0 07:40 07.02.2020
3034 Fog -1 1018 92 100 1 0 07:40 07.02.2020
3035 Fog -1 1019 100 200 1 0 07:19 07.02.2020
3036 Clear -1 1019 100 6000 2.1 250 06:43 07.02.2020
3037 Mist 0 1020 100 5000 2.1 230 06:22 07.02.2020
3038 Fog -1 1020 92 750 2.1 120 05:43 07.02.2020
3039 Fog 0 1022 92 200 0.5 0 03:57 07.02.2020
3040 Fog 0 1024 100 200 1 0 02:28 07.02.2020
3041 Fog 1 1024 100 350 1 80 01:25 07.02.2020
3042 Clouds 2 1025 93 9000 1.5 60 00:37 07.02.2020
3043 Clouds 2 1025 93 10000 1 0 23:40 06.02.2020
3044 Clouds 2 1025 93 10000 1 0 23:21 06.02.2020
3045 Clouds 2 1025 86 10000 1.5 0 22:58 06.02.2020
3046 Clouds 3 1026 93 10000 2.1 150 22:40 06.02.2020
3047 Clouds 3 1026 93 10000 2.1 150 22:22 06.02.2020
3048 Clouds 4 1026 81 10000 1.5 0 21:37 06.02.2020
3049 Clouds 4 1026 81 10000 1.5 0 21:19 06.02.2020
3050 Clouds 5 1027 81 10000 2.1 140 20:56 06.02.2020
3051 Clouds 5 1027 81 10000 1.5 0 20:37 06.02.2020
3052 Clouds 5 1027 81 10000 1.5 0 20:18 06.02.2020
3053 Clouds 6 1027 81 10000 1.5 0 19:57 06.02.2020
3054 Clouds 6 1027 81 10000 1.5 0 19:38 06.02.2020
3055 Clouds 6 1027 75 10000 1.5 0 19:20 06.02.2020
3056 Clouds 6 1027 75 10000 2.1 210 18:57 06.02.2020
3057 Clouds 6 1027 81 10000 2.6 220 18:38 06.02.2020
3058 Clouds 6 1027 81 10000 2.6 220 18:19 06.02.2020
3059 Clouds 7 1027 81 10000 3.6 220 17:42 06.02.2020
3060 Clouds 8 1028 75 10000 4.1 210 17:20 06.02.2020
3061 Clouds 8 1028 75 10000 3.6 210 16:45 06.02.2020
3062 Clouds 8 1028 75 10000 4.6 220 16:27 06.02.2020
3063 Clouds 8 1028 81 10000 5.1 230 15:58 06.02.2020
3064 Clouds 8 1028 81 10000 5.1 230 15:40 06.02.2020
3065 Clouds 8 1028 75 10000 4.6 240 15:20 06.02.2020
3066 Clouds 8 1028 75 10000 6.2 230 14:46 06.02.2020
3067 Clouds 8 1029 75 10000 6.2 220 14:25 06.02.2020
3068 Clouds 8 1029 75 10000 5.7 210 13:46 06.02.2020
3069 Clouds 8 1029 81 10000 6.2 220 13:27 06.02.2020
3070 Clouds 7 1029 87 10000 5.1 230 12:46 06.02.2020
3071 Clouds 7 1029 81 10000 5.1 230 12:20 06.02.2020
3072 Clouds 7 1029 87 10000 4.1 210 11:59 06.02.2020
3073 Clouds 7 1029 87 10000 4.1 210 11:41 06.02.2020
3074 Clouds 6 1029 81 10000 3.1 200 11:22 06.02.2020
3075 Clouds 6 1029 87 10000 1.5 240 10:59 06.02.2020
3076 Clouds 6 1029 87 10000 1.5 240 10:41 06.02.2020
3077 Clouds 6 1029 87 10000 2.6 230 10:21 06.02.2020
3078 Clouds 6 1029 87 10000 2.1 210 09:59 06.02.2020
3079 Clouds 6 1029 81 10000 1 0 09:40 06.02.2020
3080 Clouds 6 1029 81 10000 1 0 09:20 06.02.2020
3081 Clouds 6 1029 81 10000 1 270 08:43 06.02.2020
3082 Clouds 6 1029 81 10000 1 280 08:23 06.02.2020
3083 Clouds 6 1029 81 10000 2.1 240 07:54 06.02.2020
3084 Clouds 6 1029 87 10000 2.1 240 07:29 06.02.2020
3085 Clouds 6 1029 81 10000 2.1 250 06:47 06.02.2020
3086 Clouds 6 1029 87 10000 2.6 260 06:19 06.02.2020
3087 Clouds 6 1029 87 10000 3.1 240 05:24 06.02.2020
3088 Clouds 6 1030 93 10000 3.1 230 03:47 06.02.2020
3089 Clouds 6 1030 93 10000 4.1 220 02:58 06.02.2020
3090 Clouds 6 1030 87 10000 4.6 210 01:45 06.02.2020
3091 Clouds 6 1031 87 10000 3.1 190 00:59 06.02.2020
3092 Clouds 6 1031 87 10000 4.1 220 00:28 06.02.2020
3093 Clouds 5 1031 87 10000 4.6 220 23:55 05.02.2020
3094 Clouds 5 1031 87 10000 4.6 220 23:55 05.02.2020
3095 Clouds 6 1031 87 10000 3.6 230 23:36 05.02.2020
3096 Clouds 6 1031 87 10000 3.6 230 23:18 05.02.2020
3097 Clouds 6 1032 87 10000 5.1 220 22:40 05.02.2020
3098 Clouds 6 1032 87 10000 5.1 220 22:22 05.02.2020
3099 Clouds 5 1032 87 10000 4.6 220 21:57 05.02.2020
3100 Clouds 5 1032 87 10000 4.6 220 21:39 05.02.2020
3101 Clouds 5 1032 87 10000 4.6 220 21:19 05.02.2020
3102 Clouds 6 1032 87 10000 4.6 220 20:39 05.02.2020
3103 Clouds 6 1031 87 10000 6.2 210 20:20 05.02.2020
3104 Clouds 6 1031 87 10000 6.7 210 19:58 05.02.2020
3105 Clouds 6 1031 87 10000 6.7 210 19:40 05.02.2020
3106 Clouds 6 1032 87 10000 5.7 220 19:19 05.02.2020
3107 Clouds 6 1032 87 10000 4.6 240 18:56 05.02.2020
3108 Clouds 6 1032 81 10000 3.6 240 18:38 05.02.2020
3109 Clouds 7 1032 81 10000 3.6 240 18:18 05.02.2020
3110 Clouds 7 1032 75 10000 3.6 250 17:38 05.02.2020
3111 Clouds 7 1032 75 10000 3.6 250 17:38 05.02.2020
3112 Clouds 7 1032 75 10000 3.6 250 17:19 05.02.2020
3113 Clouds 7 1032 70 10000 5.7 240 16:57 05.02.2020
3114 Clouds 7 1032 70 10000 5.7 240 16:38 05.02.2020
3115 Clouds 7 1032 70 10000 5.7 240 16:19 05.02.2020
3116 Clouds 7 1032 81 10000 5.1 240 15:45 05.02.2020
3117 Clouds 7 1033 81 10000 4.6 240 15:20 05.02.2020
3118 Clouds 7 1033 75 10000 5.7 230 14:57 05.02.2020
3119 Clouds 7 1033 81 10000 6.2 230 14:38 05.02.2020
3120 Clouds 7 1033 81 10000 6.2 230 14:20 05.02.2020
3121 Clouds 7 1034 81 10000 4.6 230 13:43 05.02.2020
3122 Clouds 7 1034 81 10000 4.1 230 13:22 05.02.2020
3123 Clouds 7 1034 87 10000 5.1 230 12:55 05.02.2020
3124 Clouds 7 1034 87 10000 4.6 220 12:36 05.02.2020
3125 Clouds 7 1034 87 10000 4.6 220 12:18 05.02.2020
3126 Clouds 7 1034 87 10000 4.1 230 11:41 05.02.2020
3127 Clouds 6 1034 87 10000 4.6 240 11:22 05.02.2020
3128 Clouds 6 1034 93 10000 4.6 230 10:44 05.02.2020
3129 Clouds 5 1034 93 10000 4.6 230 10:26 05.02.2020
3130 Clouds 5 1034 93 10000 4.1 230 09:59 05.02.2020
3131 Clouds 5 1034 100 10000 4.1 230 09:38 05.02.2020
3132 Clouds 5 1034 100 10000 4.1 230 09:20 05.02.2020
3133 Clouds 5 1034 93 10000 4.6 230 08:46 05.02.2020
3134 Clouds 4 1034 93 10000 4.6 220 08:24 05.02.2020
3135 Clouds 4 1034 93 10000 3.6 230 07:55 05.02.2020
3136 Clouds 4 1033 86 10000 4.1 230 07:34 05.02.2020
3137 Clouds 4 1033 86 10000 2.6 240 06:53 05.02.2020
3138 Clouds 4 1034 86 10000 2.6 240 06:23 05.02.2020
3139 Clouds 4 1034 86 10000 1 0 05:58 05.02.2020
3140 Clouds 4 1034 93 10000 0.5 0 05:19 05.02.2020
3141 Clouds 4 1034 93 10000 2.6 240 04:53 05.02.2020
3142 Clouds 4 1034 93 10000 1.5 0 03:56 05.02.2020
3143 Clear 3 1034 86 10000 2.1 260 02:28 05.02.2020
3144 Clouds 2 1034 93 10000 0.5 0 01:53 05.02.2020
3145 Clouds 3 1033 91 10000 1.5 160 00:43 05.02.2020
3146 Clouds 3 1033 80 10000 1 0 23:57 04.02.2020
3147 Clouds 4 1033 75 10000 1 0 23:38 04.02.2020
3148 Clouds 4 1033 75 10000 1 0 23:18 04.02.2020
3149 Clouds 4 1032 86 10000 2.6 210 22:55 04.02.2020
3150 Clouds 4 1032 86 10000 1.5 0 22:37 04.02.2020
3151 Clouds 4 1032 86 10000 1.5 0 22:19 04.02.2020
3152 Clouds 5 1032 86 10000 2.6 220 21:41 04.02.2020
3153 Clouds 5 1031 80 10000 3.6 230 21:19 04.02.2020
3154 Clouds 5 1031 80 10000 2.6 210 20:59 04.02.2020
3155 Clouds 5 1031 80 10000 2.6 210 20:41 04.02.2020
3156 Clouds 5 1031 80 10000 2.6 240 20:21 04.02.2020
3157 Clouds 5 1030 75 10000 1 0 19:57 04.02.2020
3158 Clouds 6 1030 81 10000 1 0 19:39 04.02.2020
3159 Clouds 6 1030 81 10000 1 0 19:21 04.02.2020
3160 Clouds 6 1029 81 10000 2.6 240 18:55 04.02.2020
3161 Clouds 6 1028 81 10000 2.1 0 18:36 04.02.2020
3162 Clouds 6 1028 81 10000 2.1 0 18:36 04.02.2020
3163 Clouds 6 1028 81 10000 2.1 0 18:18 04.02.2020
3164 Clouds 8 1027 70 10000 5.1 280 17:42 04.02.2020
3165 Clouds 8 1027 70 10000 5.1 280 17:21 04.02.2020
3166 Clouds 9 1026 70 10000 5.7 300 16:55 04.02.2020
3167 Clouds 8 1026 66 10000 5.7 300 16:36 04.02.2020
3168 Clouds 9 1026 66 10000 5.7 300 16:18 04.02.2020
3169 Clouds 9 1026 66 10000 4.1 290 15:55 04.02.2020
3170 Clouds 9 1025 66 10000 6.7 290 15:37 04.02.2020
3171 Clouds 9 1025 66 10000 6.7 290 15:18 04.02.2020
3172 Clouds 9 1024 66 10000 5.7 280 14:41 04.02.2020
3173 Clear 9 1023 66 10000 4.6 300 14:21 04.02.2020
3174 Clear 9 1023 66 10000 7.2 300 13:56 04.02.2020
3175 Clear 9 1022 66 10000 7.7 290 13:38 04.02.2020
3176 Clouds 9 1022 66 10000 7.7 290 13:18 04.02.2020
3177 Clouds 9 1022 71 10000 4.6 290 12:43 04.02.2020
3178 Clouds 9 1020 76 10000 4.6 290 12:24 04.02.2020
3179 Clouds 9 1020 76 10000 3.6 260 11:57 04.02.2020
3180 Clouds 8 1019 81 10000 3.1 260 11:38 04.02.2020
3181 Clouds 8 1019 81 10000 3.1 260 11:19 04.02.2020
3182 Clouds 8 1018 76 10000 3.1 270 10:49 04.02.2020
3183 Clouds 7 1016 81 10000 3.6 270 10:26 04.02.2020
3184 Clouds 7 1015 81 10000 5.7 270 09:58 04.02.2020
3185 Clouds 7 1013 81 10000 4.6 280 09:39 04.02.2020
3186 Clouds 7 1013 81 10000 4.6 280 09:21 04.02.2020
3187 Clouds 7 1012 81 10000 4.1 270 08:46 04.02.2020
3188 Clouds 6 1011 81 10000 3.6 260 08:27 04.02.2020
3189 Clouds 6 1010 87 10000 4.1 240 07:53 04.02.2020
3190 Clouds 6 1009 81 10000 5.7 260 07:25 04.02.2020
3191 Clouds 5 1008 81 10000 8.2 270 06:58 04.02.2020
3192 Clouds 5 1008 81 10000 8.2 270 06:40 04.02.2020
3193 Rain 5 1005 70 10000 10.3 270 05:34 04.02.2020
3194 Rain 5 1005 70 10000 10.3 270 05:34 04.02.2020
3195 Clouds 4 1004 70 10000 8.7 270 04:27 04.02.2020
3196 Rain 3 1003 80 10000 10.3 270 03:47 04.02.2020
3197 Clouds 3 1003 80 10000 10.3 270 03:29 04.02.2020
3198 Clouds 3 1004 80 10000 8.2 260 02:38 04.02.2020
3199 Snow 3 1004 75 10000 8.2 260 02:18 04.02.2020
3200 Snow 2 1003 75 10000 5.1 230 01:44 04.02.2020
3201 Snow 2 1003 73 10000 5.7 250 00:55 04.02.2020
3202 Rain 2 1003 86 10000 8.2 270 00:23 04.02.2020
3203 Snow 3 1002 80 10000 7.7 260 23:48 03.02.2020
3204 Rain 3 1003 93 6000 6.7 270 23:28 03.02.2020
3205 Rain 4 1003 75 10000 7.7 260 22:54 03.02.2020
3206 Clouds 3 1002 80 10000 8.7 250 22:36 03.02.2020
3207 Clouds 4 1002 80 10000 8.7 250 22:18 03.02.2020
3208 Snow 3 1002 80 10000 9.8 250 21:41 03.02.2020
3209 Rain 3 1003 86 10000 9.3 250 21:19 03.02.2020
3210 Rain 3 1003 86 10000 9.3 250 21:19 03.02.2020
3211 Snow 3 1003 80 10000 9.3 260 20:42 03.02.2020
3212 Snow 3 1003 80 10000 6.7 250 20:20 03.02.2020
3213 Rain 3 1003 86 10000 8.2 250 19:59 03.02.2020
3214 Rain 4 1003 75 10000 8.7 260 19:40 03.02.2020
3215 Rain 4 1003 75 10000 8.7 260 19:21 03.02.2020
3216 Snow 4 1003 80 10000 7.7 250 18:57 03.02.2020
3217 Clouds 4 1003 75 10000 8.2 260 18:38 03.02.2020
3218 Clouds 4 1003 75 10000 8.2 260 18:20 03.02.2020
3219 Snow 4 1003 75 10000 7.2 260 17:54 03.02.2020
3220 Clouds 4 1003 75 10000 8.2 250 17:36 03.02.2020
3221 Clouds 4 1003 75 10000 8.2 250 17:18 03.02.2020
3222 Clouds 4 1003 75 10000 8.2 250 17:18 03.02.2020
3223 Clouds 5 1003 75 10000 8.2 260 16:40 03.02.2020
3224 Clouds 5 1003 75 10000 8.2 260 16:21 03.02.2020
3225 Clouds 5 1003 75 10000 8.2 260 16:21 03.02.2020
3226 Rain 5 1003 80 7000 9.3 260 15:56 03.02.2020
3227 Rain 5 1004 75 7000 10.8 260 15:37 03.02.2020
3228 Rain 6 1004 75 7000 10.8 260 15:19 03.02.2020
3229 Snow 5 1004 70 10000 7.2 250 14:43 03.02.2020
3230 Rain 6 1004 75 8000 8.7 250 14:25 03.02.2020
3231 Rain 5 1003 75 10000 10.3 250 13:58 03.02.2020
3232 Rain 6 1003 75 10000 10.3 250 13:39 03.02.2020
3233 Rain 6 1003 75 10000 8.7 250 13:19 03.02.2020
3234 Snow 6 1003 70 10000 8.7 250 12:56 03.02.2020
3235 Clouds 6 1003 75 10000 6.7 260 12:36 03.02.2020
3236 Clouds 6 1003 75 10000 6.7 260 12:18 03.02.2020
3237 Rain 6 1003 75 7000 12.3 260 11:39 03.02.2020
3238 Snow 5 1003 75 10000 6.2 260 11:19 03.02.2020
3239 Rain 5 1003 80 10000 7.7 250 10:57 03.02.2020
3240 Clouds 5 1002 70 10000 8.7 250 10:38 03.02.2020
3241 Clouds 5 1002 70 10000 8.7 250 10:38 03.02.2020
3242 Clouds 5 1002 70 10000 8.7 250 10:19 03.02.2020
3243 Clouds 5 1001 80 10000 6.7 250 09:39 03.02.2020
3244 Clouds 5 1001 80 10000 6.7 250 09:19 03.02.2020
3245 Rain 5 1001 75 10000 10.3 260 08:41 03.02.2020
3246 Rain 5 1001 75 10000 10.3 260 08:41 03.02.2020
3247 Snow 5 1000 75 10000 8.7 250 08:23 03.02.2020
3248 Rain 5 1000 75 10000 10.3 240 07:43 03.02.2020
3249 Rain 6 1000 75 10000 8.2 240 07:23 03.02.2020
3250 Rain 6 1000 75 10000 10.3 240 06:57 03.02.2020
3251 Rain 6 1000 81 10000 9.3 240 06:31 03.02.2020
3252 Rain 6 1000 81 10000 8.2 250 05:55 03.02.2020
3253 Rain 6 1000 81 10000 8.7 260 05:33 03.02.2020
3254 Rain 7 999 75 10000 7.7 240 04:45 03.02.2020
3255 Rain 7 999 75 10000 7.7 240 04:45 03.02.2020
3256 Clouds 8 997 81 10000 8.7 250 02:48 03.02.2020
3257 Clouds 8 997 81 10000 8.7 250 02:48 03.02.2020
3258 Rain 8 997 93 10000 7.7 240 02:27 03.02.2020
3259 Rain 8 995 93 4200 9.8 220 00:49 03.02.2020
3260 Rain 8 995 93 5000 8.7 210 00:27 03.02.2020
3261 Rain 7 995 87 10000 9.8 210 23:56 02.02.2020
3262 Rain 7 995 87 8000 7.2 220 23:36 02.02.2020
3263 Rain 7 995 87 8000 7.2 220 23:18 02.02.2020
3264 Rain 7 995 87 4800 8.2 210 22:39 02.02.2020
3265 Rain 7 995 87 6000 5.1 230 22:39 02.02.2020
3266 Rain 7 995 87 4800 8.2 210 22:39 02.02.2020
3267 Rain 7 995 87 6000 5.1 230 22:21 02.02.2020
3268 Rain 7 996 87 9000 6.7 210 21:58 02.02.2020
3269 Rain 7 996 87 10000 7.2 220 21:39 02.02.2020
3270 Rain 7 996 87 10000 7.2 220 21:20 02.02.2020
3271 Rain 7 996 87 10000 7.2 210 20:57 02.02.2020
3272 Rain 7 996 87 10000 8.2 210 20:39 02.02.2020
3273 Rain 7 996 87 10000 8.2 210 20:20 02.02.2020
3274 Rain 7 996 87 10000 6.7 210 19:57 02.02.2020
3275 Rain 6 996 93 10000 6.2 210 19:38 02.02.2020
3276 Rain 7 996 93 10000 6.2 210 19:20 02.02.2020
3277 Clouds 7 996 93 10000 6.2 220 18:55 02.02.2020
3278 Rain 7 996 93 6000 8.7 210 18:36 02.02.2020
3279 Rain 7 996 93 6000 8.7 210 18:36 02.02.2020
3280 Rain 7 996 93 6000 8.7 210 18:36 02.02.2020
3281 Rain 7 996 93 6000 8.7 210 18:18 02.02.2020
3282 Rain 7 996 93 10000 6.7 230 17:56 02.02.2020
3283 Clouds 7 996 87 10000 7.2 210 17:37 02.02.2020
3284 Clouds 7 996 87 10000 7.2 210 17:18 02.02.2020
3285 Rain 7 996 87 10000 7.7 210 16:56 02.02.2020
3286 Rain 7 996 93 10000 8.2 210 16:37 02.02.2020
3287 Rain 7 996 93 10000 8.2 210 16:18 02.02.2020
3288 Clouds 7 996 100 10000 7.7 220 15:40 02.02.2020
3289 Clouds 7 996 100 10000 7.7 220 15:40 02.02.2020
3290 Rain 6 997 93 8000 1.5 0 15:20 02.02.2020
3291 Rain 6 997 93 6000 2.6 70 14:59 02.02.2020
3292 Drizzle 6 997 100 2600 3.6 90 14:41 02.02.2020
3293 Drizzle 5 997 100 2600 3.6 90 14:18 02.02.2020
3294 Drizzle 5 998 100 3200 4.1 80 13:58 02.02.2020
3295 Rain 5 998 93 6000 3.6 70 13:38 02.02.2020
3296 Rain 5 998 93 6000 3.6 70 13:19 02.02.2020
3297 Rain 4 998 100 4500 3.6 70 12:46 02.02.2020
3298 Rain 4 999 100 4500 4.1 70 12:23 02.02.2020
3299 Drizzle 4 999 93 2900 3.6 70 11:59 02.02.2020
3300 Drizzle 4 999 100 4000 3.1 70 11:41 02.02.2020
3301 Drizzle 3 999 100 4000 3.1 70 11:19 02.02.2020
3302 Rain 3 999 100 6000 2.6 60 10:56 02.02.2020
3303 Rain 3 999 93 2700 2.1 60 10:37 02.02.2020
3304 Rain 3 999 93 2700 2.1 60 10:19 02.02.2020
3305 Rain 3 1000 93 4700 2.1 60 09:55 02.02.2020
3306 Rain 3 1000 93 7000 1.5 0 09:37 02.02.2020
3307 Rain 2 1000 93 7000 1.5 0 09:19 02.02.2020
3308 Rain 2 1000 100 10000 2.6 60 08:42 02.02.2020
3309 Rain 2 1000 93 10000 1 40 08:24 02.02.2020
3310 Rain 2 1000 93 10000 1 40 08:24 02.02.2020
3311 Rain 2 1000 93 10000 1 40 08:24 02.02.2020
3312 Clouds 2 1000 100 10000 2.6 50 07:46 02.02.2020
3313 Clouds 2 1000 100 9000 2.1 50 07:28 02.02.2020
3314 Clouds 1 1001 95 6000 2.1 50 06:43 02.02.2020
3315 Clouds 1 1001 95 9000 1.5 70 06:25 02.02.2020
3316 Clouds 1 1001 95 10000 2.1 70 05:47 02.02.2020
3317 Clouds 1 1001 95 10000 2.1 70 05:47 02.02.2020
3318 Fog 1 1002 95 600 0.5 0 04:47 02.02.2020
3319 Clouds 2 1003 95 10000 1.5 70 03:26 02.02.2020
3320 Clouds 2 1003 100 10000 1.5 50 02:31 02.02.2020
3321 Clear 2 1004 93 10000 1 0 01:54 02.02.2020
3322 Clear 2 1004 93 10000 1.5 300 01:22 02.02.2020
3323 Clear 2 1004 93 10000 1 220 00:43 02.02.2020
3324 Clear 2 1003 93 10000 0.5 310 00:22 02.02.2020
3325 Clear 3 1003 93 10000 2.1 300 23:46 01.02.2020
3326 Clear 3 1003 93 10000 0.5 0 23:21 01.02.2020
3327 Clear 3 1003 93 10000 4.1 230 22:51 01.02.2020
3328 Clear 4 1003 93 10000 4.1 230 22:20 01.02.2020
3329 Clear 4 1003 93 10000 4.1 230 22:20 01.02.2020
3330 Clear 4 1002 80 10000 3.1 250 21:57 01.02.2020
3331 Clear 5 1002 80 10000 3.1 250 21:38 01.02.2020
3332 Clear 5 1002 80 10000 3.6 250 21:18 01.02.2020
3333 Clear 5 1001 81 10000 5.7 270 20:40 01.02.2020
3334 Clouds 6 1001 81 10000 5.7 270 20:20 01.02.2020
3335 Clouds 6 1000 81 10000 6.2 270 19:57 01.02.2020
3336 Clouds 6 1000 81 10000 6.2 270 19:39 01.02.2020
3337 Clouds 6 999 81 10000 6.7 270 19:19 01.02.2020
3338 Clouds 6 998 81 10000 5.1 270 18:57 01.02.2020
3339 Clouds 7 997 75 10000 5.1 270 18:38 01.02.2020
3340 Clouds 7 997 75 10000 5.1 270 18:20 01.02.2020
3341 Clouds 7 996 81 10000 5.1 270 17:56 01.02.2020
3342 Clouds 7 997 81 10000 7.2 280 17:38 01.02.2020
3343 Clouds 8 995 76 10000 4.6 260 17:19 01.02.2020
3344 Clouds 8 994 81 10000 4.6 270 16:42 01.02.2020
3345 Clouds 9 993 81 10000 6.7 270 16:23 01.02.2020
3346 Clouds 9 992 81 10000 8.2 280 15:58 01.02.2020
3347 Clouds 9 991 87 10000 6.2 260 15:38 01.02.2020
3348 Clouds 9 991 87 10000 6.2 260 15:18 01.02.2020
3349 Clouds 9 989 93 10000 6.7 250 14:40 01.02.2020
3350 Clouds 9 989 93 10000 6.7 250 14:21 01.02.2020
3351 Clouds 8 989 87 10000 6.7 240 13:45 01.02.2020
3352 Clouds 9 989 87 10000 8.2 240 13:24 01.02.2020
3353 Clouds 8 988 87 10000 9.3 240 12:57 01.02.2020
3354 Rain 8 987 87 10000 10.8 250 12:39 01.02.2020
3355 Rain 8 987 87 10000 10.8 250 12:21 01.02.2020
3356 Rain 8 987 93 5000 11.3 240 11:42 01.02.2020
3357 Rain 8 986 93 5000 11.3 240 11:23 01.02.2020
3358 Rain 8 986 93 9000 9.8 230 10:58 01.02.2020
3359 Rain 8 986 93 9000 9.8 230 10:39 01.02.2020
3360 Rain 8 986 93 6000 10.3 230 10:21 01.02.2020
3361 Rain 8 985 93 4900 9.8 230 09:58 01.02.2020
3362 Rain 8 985 93 6000 10.3 230 09:40 01.02.2020
3363 Rain 8 985 93 6000 10.3 230 09:20 01.02.2020
3364 Rain 8 985 93 6000 11.3 220 08:48 01.02.2020
3365 Rain 8 984 93 8000 11.8 220 07:51 01.02.2020
3366 Rain 8 984 93 10000 11.8 220 07:27 01.02.2020
3367 Rain 8 984 93 6000 12.9 220 06:58 01.02.2020
3368 Rain 8 984 93 6000 12.9 220 06:38 01.02.2020
3369 Rain 8 984 93 3600 11.3 220 05:52 01.02.2020
3370 Rain 8 984 93 3600 11.3 220 05:52 01.02.2020
3371 Rain 8 985 87 9000 9.8 210 04:20 01.02.2020
3372 Rain 8 985 87 6000 10.8 220 03:22 01.02.2020
3373 Rain 8 986 87 3300 10.3 220 02:46 01.02.2020
3374 Rain 8 986 81 9000 10.8 220 02:28 01.02.2020
3375 Rain 9 986 81 8000 9.8 220 01:55 01.02.2020
3376 Rain 9 986 76 10000 11.8 220 01:33 01.02.2020
3377 Rain 9 986 93 10000 10.3 220 00:30 01.02.2020
3378 Rain 9 987 87 6000 10.3 210 23:59 31.01.2020
3379 Clouds 9 987 81 10000 10.8 210 23:37 31.01.2020
3380 Clouds 10 987 81 10000 10.8 210 23:18 31.01.2020
3381 Clouds 10 987 81 10000 11.3 210 22:41 31.01.2020
3382 Clouds 10 987 81 10000 11.3 210 22:41 31.01.2020
3383 Rain 10 988 87 10000 10.8 210 22:22 31.01.2020
3384 Clouds 10 988 81 10000 11.3 210 21:59 31.01.2020
3385 Clouds 10 988 81 10000 11.3 210 21:39 31.01.2020
3386 Rain 10 988 81 10000 11.3 210 21:19 31.01.2020
3387 Clouds 10 988 76 10000 9.8 210 20:56 31.01.2020
3388 Clouds 10 988 76 10000 9.8 210 20:56 31.01.2020
3389 Rain 10 988 81 10000 10.3 210 20:38 31.01.2020
3390 Rain 10 988 81 10000 10.3 210 20:38 31.01.2020
3391 Rain 10 988 81 10000 10.3 210 20:20 31.01.2020
3392 Clouds 10 989 87 10000 9.8 210 19:56 31.01.2020
3393 Rain 10 989 81 10000 11.8 220 19:37 31.01.2020
3394 Rain 11 989 81 10000 11.8 220 19:18 31.01.2020
3395 Rain 10 989 93 10000 5.7 240 18:41 31.01.2020
3396 Rain 10 989 93 4000 5.7 230 18:23 31.01.2020
3397 Rain 10 990 93 3600 9.3 210 17:54 31.01.2020
3398 Rain 11 990 87 4900 9.3 210 17:36 31.01.2020
3399 Rain 11 990 87 4900 9.3 210 17:36 31.01.2020
3400 Rain 11 990 87 4900 9.3 210 17:18 31.01.2020
3401 Rain 11 990 87 10000 8.2 230 16:54 31.01.2020
3402 Rain 11 990 87 10000 8.2 230 16:54 31.01.2020
3403 Clouds 11 990 87 10000 7.7 220 16:36 31.01.2020
3404 Clouds 11 990 87 10000 7.7 220 16:18 31.01.2020
3405 Rain 11 991 93 10000 9.3 210 15:41 31.01.2020
3406 Rain 11 991 93 10000 9.3 210 15:21 31.01.2020
3407 Clouds 11 991 93 10000 9.8 220 14:55 31.01.2020
3408 Clouds 12 991 87 10000 8.2 220 14:36 31.01.2020
3409 Clouds 12 991 87 10000 8.2 220 14:36 31.01.2020
3410 Clouds 12 991 87 10000 8.2 220 14:18 31.01.2020
3411 Clouds 12 991 87 10000 6.7 230 13:43 31.01.2020
3412 Rain 11 991 93 9000 10.8 220 13:25 31.01.2020
3413 Drizzle 11 991 93 4000 10.3 210 12:45 31.01.2020
3414 Rain 11 991 93 10000 10.3 210 12:24 31.01.2020
3415 Rain 11 991 93 5000 9.3 210 11:56 31.01.2020
3416 Rain 11 991 93 10000 10.8 210 11:38 31.01.2020
3417 Rain 11 991 93 10000 10.8 210 11:19 31.01.2020
3418 Rain 11 992 93 10000 9.8 210 10:55 31.01.2020
3419 Rain 11 992 93 6000 8.7 220 10:37 31.01.2020
3420 Rain 11 992 93 6000 8.7 220 10:18 31.01.2020
3421 Rain 10 992 93 10000 8.7 220 09:42 31.01.2020
3422 Rain 10 992 93 7000 8.2 220 09:21 31.01.2020
3423 Rain 10 992 93 10000 8.7 220 08:56 31.01.2020
3424 Clouds 10 992 93 10000 8.7 220 08:38 31.01.2020
3425 Clouds 10 992 93 10000 8.7 220 08:19 31.01.2020
3426 Rain 10 992 100 10000 6.7 220 07:46 31.01.2020
3427 Rain 9 992 100 2700 9.3 220 07:18 31.01.2020
3428 Drizzle 8 992 93 3600 8.7 220 06:31 31.01.2020
3429 Rain 8 992 93 10000 8.2 220 05:53 31.01.2020
3430 Drizzle 7 993 100 4600 5.7 230 05:18 31.01.2020
3431 Haze 7 994 87 3700 8.2 230 03:47 31.01.2020
3432 Clouds 7 994 81 10000 7.7 250 01:44 31.01.2020
3433 Clouds 7 994 75 10000 10.8 250 00:47 31.01.2020
3434 Clouds 7 994 81 10000 10.3 240 00:29 31.01.2020
3435 Clouds 7 994 81 10000 10.8 250 23:58 30.01.2020
3436 Clouds 7 994 70 10000 12.3 250 23:26 30.01.2020
3437 Clouds 7 994 75 10000 11.3 240 22:58 30.01.2020
3438 Clouds 7 994 75 10000 9.8 240 22:38 30.01.2020
3439 Clouds 7 994 75 10000 9.8 240 22:19 30.01.2020
3440 Clouds 7 994 75 10000 7.7 230 21:57 30.01.2020
3441 Clouds 7 993 75 10000 7.7 250 21:39 30.01.2020
3442 Clouds 7 993 75 10000 7.7 250 21:18 30.01.2020
3443 Clouds 7 993 75 10000 7.7 250 21:18 30.01.2020
3444 Clouds 7 993 75 10000 7.7 250 21:18 30.01.2020
3445 Clouds 8 992 75 10000 7.7 250 20:42 30.01.2020
3446 Clouds 8 992 75 10000 7.7 250 20:22 30.01.2020
3447 Clouds 8 991 81 10000 11.3 240 19:58 30.01.2020
3448 Clouds 8 991 81 10000 10.8 240 19:40 30.01.2020
3449 Clouds 8 991 81 10000 10.8 240 19:19 30.01.2020
3450 Clouds 8 990 87 10000 11.8 240 18:42 30.01.2020
3451 Clouds 9 989 76 10000 11.8 240 18:23 30.01.2020
3452 Clouds 9 989 76 10000 12.9 250 17:58 30.01.2020
3453 Rain 9 988 81 5000 12.3 240 17:39 30.01.2020
3454 Rain 9 988 81 5000 12.3 240 17:19 30.01.2020
3455 Clouds 9 987 76 8000 13.4 240 16:58 30.01.2020
3456 Clouds 10 987 76 10000 12.9 240 16:39 30.01.2020
3457 Clouds 10 987 76 10000 12.9 240 16:20 30.01.2020
3458 Rain 10 986 81 9000 12.3 230 15:44 30.01.2020
3459 Rain 10 986 87 4600 10.8 230 15:21 30.01.2020
3460 Rain 10 987 87 10000 12.3 220 14:50 30.01.2020
3461 Rain 10 987 93 9000 13.4 220 14:27 30.01.2020
3462 Rain 10 987 93 9000 15.4 210 13:59 30.01.2020
3463 Rain 10 987 93 9000 15.4 210 13:39 30.01.2020
3464 Clouds 10 987 87 10000 13.9 210 13:20 30.01.2020
3465 Clouds 10 988 87 10000 12.3 210 12:43 30.01.2020
3466 Clouds 9 989 87 10000 14.9 200 12:25 30.01.2020
3467 Clouds 9 989 93 10000 12.3 210 11:59 30.01.2020
3468 Rain 9 990 93 10000 9.8 210 11:40 30.01.2020
3469 Rain 8 990 93 10000 9.8 210 11:21 30.01.2020
3470 Rain 8 991 87 9000 8.2 200 10:43 30.01.2020
3471 Drizzle 7 992 93 4900 7.2 200 10:25 30.01.2020
3472 Rain 7 992 87 5000 8.7 200 09:56 30.01.2020
3473 Rain 7 993 87 10000 9.8 200 09:37 30.01.2020
3474 Rain 7 993 87 10000 9.8 200 09:19 30.01.2020
3475 Clouds 7 993 87 10000 8.7 210 08:42 30.01.2020
3476 Clouds 7 994 81 10000 10.8 210 08:22 30.01.2020
3477 Clouds 7 994 81 10000 9.8 210 07:52 30.01.2020
3478 Clouds 7 994 81 10000 9.8 210 07:52 30.01.2020
3479 Clouds 8 994 87 10000 8.2 210 07:32 30.01.2020
3480 Clouds 8 996 87 10000 9.3 220 06:47 30.01.2020
3481 Clouds 8 995 87 10000 10.3 220 06:29 30.01.2020
3482 Clouds 8 996 87 10000 9.3 220 05:47 30.01.2020
3483 Clouds 8 996 87 10000 8.7 220 05:24 30.01.2020
3484 Clouds 8 997 87 10000 9.3 240 03:55 30.01.2020
3485 Rain 8 997 87 10000 9.3 250 03:37 30.01.2020
3486 Rain 8 998 93 9000 10.3 230 02:47 30.01.2020
3487 Clouds 9 997 93 6000 11.8 240 00:43 30.01.2020
3488 Clouds 9 997 93 8000 11.3 240 00:21 30.01.2020
3489 Rain 9 997 93 8000 11.8 240 23:47 29.01.2020
3490 Rain 9 997 93 8000 11.8 240 23:47 29.01.2020
3491 Drizzle 9 996 93 4000 12.9 240 23:22 29.01.2020
3492 Rain 9 996 93 6000 11.8 240 22:58 29.01.2020
3493 Rain 9 996 93 6000 11.8 240 22:39 29.01.2020
3494 Rain 9 996 93 10000 11.8 240 22:19 29.01.2020
3495 Rain 9 996 93 8000 11.3 240 21:58 29.01.2020
3496 Rain 9 996 93 10000 11.3 240 21:38 29.01.2020
3497 -273 0 0 0 0 0 21:38 29.01.2020
3498 Rain 8 996 93 10000 11.3 240 21:19 29.01.2020
3499 Rain 8 995 87 10000 11.3 240 20:58 29.01.2020
3500 Rain 8 995 93 7000 11.3 240 20:38 29.01.2020
3501 Rain 8 995 93 7000 11.3 240 20:38 29.01.2020
3502 Rain 8 995 93 7000 11.3 240 20:19 29.01.2020
3503 Rain 8 995 87 10000 12.3 240 19:56 29.01.2020
3504 Drizzle 8 995 93 4900 10.8 240 19:37 29.01.2020
3505 Drizzle 8 995 93 4900 10.8 240 19:18 29.01.2020
3506 Rain 8 995 87 7000 10.3 250 18:46 29.01.2020
3507 Drizzle 8 995 87 5000 10.8 250 18:19 29.01.2020
3508 Rain 8 994 93 7000 10.8 250 17:57 29.01.2020
3509 Rain 8 994 87 7000 11.8 250 17:38 29.01.2020
3510 Rain 8 994 87 7000 11.8 250 17:20 29.01.2020
3511 Rain 7 994 93 7000 11.8 230 16:41 29.01.2020
3512 Rain 7 994 93 4200 13.9 220 16:22 29.01.2020
3513 Rain 6 994 93 4100 12.9 210 15:41 29.01.2020
3514 Rain 6 995 87 5000 11.3 210 15:23 29.01.2020
3515 Rain 6 996 93 6000 10.3 210 14:59 29.01.2020
3516 Rain 6 996 93 6000 10.3 210 14:40 29.01.2020
3517 Rain 6 996 93 7000 9.8 210 14:19 29.01.2020
3518 Rain 6 997 93 10000 8.7 210 13:41 29.01.2020
3519 Rain 6 997 93 10000 8.7 210 13:22 29.01.2020
3520 Rain 5 998 93 8000 7.7 220 12:58 29.01.2020
3521 Rain 5 998 93 10000 7.7 220 12:39 29.01.2020
3522 Rain 5 998 93 10000 7.7 220 12:21 29.01.2020
3523 Rain 5 998 86 10000 5.7 230 11:56 29.01.2020
3524 Rain 5 999 86 10000 5.7 220 11:38 29.01.2020
3525 Rain 5 999 86 10000 5.7 220 11:38 29.01.2020
3526 Rain 4 999 86 10000 5.7 220 11:19 29.01.2020
3527 Clouds 4 998 86 10000 1.5 240 10:46 29.01.2020
3528 Clouds 3 998 86 10000 3.1 180 10:22 29.01.2020
3529 Rain 3 998 80 10000 5.7 250 09:40 29.01.2020
3530 Rain 3 998 80 10000 5.7 250 09:22 29.01.2020
3531 Clouds 3 997 86 10000 5.1 240 08:59 29.01.2020
3532 Clouds 3 997 86 10000 5.1 240 08:40 29.01.2020
3533 Clouds 3 997 86 10000 6.2 250 08:22 29.01.2020
3534 Clouds 3 997 86 10000 4.1 240 07:45 29.01.2020
3535 Rain 3 996 86 10000 6.7 230 07:25 29.01.2020
3536 Rain 3 996 86 7000 7.2 240 06:55 29.01.2020
3537 Rain 3 996 86 7000 7.2 240 06:55 29.01.2020
3538 Rain 3 996 80 9000 7.7 240 06:37 29.01.2020
3539 Rain 3 996 80 9000 7.7 240 06:18 29.01.2020
3540 Clouds 3 995 80 10000 6.7 240 05:46 29.01.2020
3541 Clouds 3 995 80 10000 7.2 240 05:27 29.01.2020
3542 Rain 2 995 86 10000 6.2 240 04:38 29.01.2020
3543 Snow 3 995 87 10000 6.2 240 03:50 29.01.2020
3544 Rain 3 994 86 10000 7.2 240 02:33 29.01.2020
3545 Rain 3 993 80 10000 9.3 250 00:44 29.01.2020
3546 Clouds 4 992 80 10000 8.2 240 00:25 29.01.2020
3547 Clouds 4 992 86 10000 3.1 230 23:58 28.01.2020
3548 Rain 4 992 86 10000 3.1 230 23:37 28.01.2020
3549 Rain 4 992 86 10000 3.1 230 23:18 28.01.2020
3550 Rain 4 991 86 10000 6.7 230 22:41 28.01.2020
3551 Rain 4 991 86 10000 6.7 230 22:21 28.01.2020
3552 Rain 4 991 86 10000 8.2 240 21:42 28.01.2020
3553 Rain 4 990 80 10000 8.2 250 21:23 28.01.2020
3554 Rain 4 990 80 10000 8.2 250 21:23 28.01.2020
3555 Rain 4 990 80 10000 8.7 240 20:58 28.01.2020
3556 Rain 4 990 80 10000 8.7 240 20:40 28.01.2020
3557 Clouds 4 990 75 10000 9.3 230 20:21 28.01.2020
3558 Rain 4 989 86 10000 7.7 230 19:39 28.01.2020
3559 Rain 4 989 86 10000 7.7 230 19:21 28.01.2020
3560 Rain 4 989 86 10000 7.7 230 19:21 28.01.2020
3561 Rain 4 988 86 10000 9.8 220 18:58 28.01.2020
3562 Rain 4 988 80 10000 6.7 220 18:40 28.01.2020
3563 Rain 4 988 80 10000 6.7 220 18:21 28.01.2020
3564 Rain 4 987 86 10000 8.7 220 17:57 28.01.2020
3565 Rain 4 987 93 10000 7.7 230 17:37 28.01.2020
3566 Rain 4 987 93 10000 7.7 230 17:19 28.01.2020
3567 Rain 4 987 93 10000 7.2 220 16:54 28.01.2020
3568 Rain 4 987 86 7000 5.1 250 16:36 28.01.2020
3569 Rain 4 987 86 7000 5.1 250 16:18 28.01.2020
3570 Rain 4 986 86 10000 4.1 230 15:41 28.01.2020
3571 Rain 4 986 86 10000 4.1 230 15:19 28.01.2020
3572 Rain 4 986 86 10000 4.1 230 15:19 28.01.2020
3573 Clouds 4 986 86 10000 3.6 230 14:46 28.01.2020
3574 Rain 4 986 86 10000 6.2 230 14:20 28.01.2020
3575 Rain 3 985 93 10000 6.7 220 13:58 28.01.2020
3576 Rain 3 985 86 10000 4.6 210 13:39 28.01.2020
3577 Rain 3 985 86 10000 4.6 210 13:20 28.01.2020
3578 Rain 3 985 86 10000 3.6 210 12:42 28.01.2020
3579 Rain 3 985 86 10000 4.1 200 12:42 28.01.2020
3580 Rain 3 985 86 10000 3.6 210 12:22 28.01.2020
3581 Clouds 2 985 86 10000 2.6 250 11:48 28.01.2020
3582 Rain 2 985 93 10000 3.6 220 11:23 28.01.2020
3583 Clouds 2 985 93 10000 3.1 220 10:58 28.01.2020
3584 Clouds 2 985 95 10000 0.5 0 10:39 28.01.2020
3585 Clouds 1 985 95 10000 0.5 0 10:20 28.01.2020
3586 Clouds 1 985 95 10000 1 0 09:43 28.01.2020
3587 Clouds 1 985 95 10000 1 0 09:21 28.01.2020
3588 Rain 1 985 95 10000 3.1 240 08:56 28.01.2020
3589 Clouds 1 985 95 10000 3.1 240 08:38 28.01.2020
3590 Clouds 1 985 93 10000 3.1 240 08:18 28.01.2020
3591 Clouds 1 984 93 10000 2.6 260 07:36 28.01.2020
3592 Clouds 1 984 93 10000 3.6 240 06:49 28.01.2020
3593 Clouds 1 984 93 10000 2.1 260 06:25 28.01.2020
3594 Rain 1 984 93 10000 3.6 250 05:53 28.01.2020
3595 Rain 1 983 100 10000 3.1 250 05:25 28.01.2020
3596 Drizzle 1 983 98 4700 1 0 03:57 28.01.2020
3597 Drizzle 1 983 98 5000 1 30 02:58 28.01.2020
3598 Clouds 1 983 98 3800 1.5 40 02:25 28.01.2020
3599 Rain 1 983 93 5000 2.6 50 01:57 28.01.2020
3600 Rain 1 983 93 10000 3.1 40 01:22 28.01.2020
3601 Rain 1 983 93 10000 2.6 80 00:45 28.01.2020
3602 Rain 1 983 93 10000 3.1 90 00:24 28.01.2020
3603 Rain 2 984 86 10000 3.6 130 23:46 27.01.2020
3604 Rain 2 984 86 10000 3.6 120 23:28 27.01.2020
3605 Rain 2 984 86 10000 3.6 120 23:28 27.01.2020
3606 Snow 2 985 89 10000 2.1 80 22:46 27.01.2020
3607 Clouds 2 985 89 10000 1.5 0 22:22 27.01.2020
3608 Clouds 2 985 89 10000 1.5 0 22:22 27.01.2020
3609 Snow 2 985 89 10000 1.5 180 21:59 27.01.2020
3610 Snow 2 986 89 10000 2.6 170 21:39 27.01.2020
3611 Snow 2 986 89 10000 2.6 170 21:19 27.01.2020
3612 Snow 2 986 89 10000 2.6 170 21:19 27.01.2020
3613 Snow 2 986 89 10000 4.6 170 20:57 27.01.2020
3614 Snow 3 987 89 10000 1 0 20:38 27.01.2020
3615 Snow 3 987 87 10000 1 0 20:20 27.01.2020
3616 Snow 3 987 80 10000 2.1 90 19:57 27.01.2020
3617 Snow 3 987 80 10000 2.1 90 19:57 27.01.2020
3618 Rain 3 987 80 10000 6.2 200 19:38 27.01.2020
3619 Rain 3 987 80 10000 6.2 200 19:20 27.01.2020
3620 Clouds 3 988 87 10000 3.1 200 18:40 27.01.2020
3621 Clouds 3 988 87 10000 3.1 200 18:40 27.01.2020
3622 Clouds 4 988 87 10000 3.1 200 18:21 27.01.2020
3623 Clouds 4 988 80 10000 3.1 190 17:58 27.01.2020
3624 Clouds 4 989 75 10000 5.7 200 17:38 27.01.2020
3625 Clouds 4 989 75 10000 5.7 200 17:19 27.01.2020
3626 Clouds 5 989 75 10000 5.7 200 16:56 27.01.2020
3627 Clouds 5 989 75 10000 5.7 200 16:56 27.01.2020
3628 Clouds 5 989 75 10000 6.2 200 16:37 27.01.2020
3629 Clouds 5 989 75 10000 6.2 200 16:19 27.01.2020
3630 Clouds 5 989 75 10000 6.2 220 15:41 27.01.2020
3631 Clouds 5 990 76 10000 7.7 210 15:20 27.01.2020
3632 Clouds 5 990 75 10000 7.2 210 14:57 27.01.2020
3633 Clouds 5 990 76 10000 8.7 210 14:39 27.01.2020
3634 Clouds 5 990 73 10000 8.7 210 14:20 27.01.2020
3635 Clouds 5 990 75 10000 7.2 210 13:42 27.01.2020
3636 Clouds 5 990 70 10000 8.7 220 13:22 27.01.2020
3637 Clouds 5 991 70 10000 10.8 210 12:57 27.01.2020
3638 Clouds 4 990 80 10000 10.3 210 12:39 27.01.2020
3639 Clouds 4 990 80 10000 10.3 210 12:20 27.01.2020
3640 Clouds 3 990 80 10000 8.2 220 11:42 27.01.2020
3641 Rain 4 991 78 10000 10.3 210 11:21 27.01.2020
3642 Snow 3 991 80 10000 9.3 210 10:55 27.01.2020
3643 Clouds 3 991 69 10000 7.2 220 10:36 27.01.2020
3644 Clouds 3 991 69 10000 7.2 220 10:18 27.01.2020
3645 Snow 3 991 78 10000 8.7 220 09:39 27.01.2020
3646 Snow 3 991 78 10000 8.7 220 09:19 27.01.2020
3647 Clouds 3 991 78 10000 9.8 220 08:47 27.01.2020
3648 Snow 3 991 74 10000 9.8 220 08:23 27.01.2020
3649 Snow 3 991 80 10000 7.7 210 07:55 27.01.2020
3650 Clouds 4 990 80 10000 9.8 210 07:36 27.01.2020
3651 Clouds 4 990 80 10000 9.8 210 07:18 27.01.2020
3652 Rain 4 991 86 10000 7.2 210 06:32 27.01.2020
3653 Rain 4 992 80 10000 5.1 190 05:37 27.01.2020
3654 Clouds 3 992 80 10000 6.2 200 04:20 27.01.2020
3655 Snow 3 993 86 10000 6.2 180 03:27 27.01.2020
3656 Clouds 2 995 89 10000 2.6 60 01:32 27.01.2020
3657 Clouds 2 996 88 10000 3.6 60 00:59 27.01.2020
3658 Clouds 2 996 88 10000 2.6 40 00:38 27.01.2020
3659 Clouds 2 996 88 10000 2.6 40 00:19 27.01.2020
3660 Clouds 2 997 88 10000 2.6 70 23:42 26.01.2020
3661 Clouds 2 998 88 10000 3.1 140 23:20 26.01.2020
3662 Clouds 2 998 88 10000 4.6 170 22:57 26.01.2020
3663 Clouds 2 998 88 10000 3.1 160 22:37 26.01.2020
3664 Clouds 2 998 88 10000 3.1 160 22:18 26.01.2020
3665 Clouds 2 998 88 10000 3.6 150 21:56 26.01.2020
3666 Clouds 2 998 86 10000 2.6 50 21:38 26.01.2020
3667 Clouds 2 998 86 10000 2.6 50 21:19 26.01.2020
3668 Clouds 2 999 88 10000 0.5 0 20:55 26.01.2020
3669 Clouds 2 999 88 10000 2.6 230 20:36 26.01.2020
3670 Clouds 2 999 83 10000 3.6 220 20:18 26.01.2020
3671 Clouds 3 999 83 10000 4.1 220 19:56 26.01.2020
3672 Clouds 3 999 86 10000 4.1 210 19:36 26.01.2020
3673 Clouds 3 999 86 10000 4.1 210 19:18 26.01.2020
3674 Clouds 3 999 86 10000 1 0 18:41 26.01.2020
3675 Clouds 3 999 86 10000 1 0 18:22 26.01.2020
3676 Clouds 3 999 86 10000 1.5 230 17:58 26.01.2020
3677 Clouds 4 999 86 10000 1.5 230 17:38 26.01.2020
3678 Clouds 4 999 86 10000 4.6 230 17:19 26.01.2020
3679 Rain 4 999 86 10000 3.1 270 16:58 26.01.2020
3680 Rain 5 999 81 10000 7.2 240 16:39 26.01.2020
3681 Rain 5 999 81 10000 7.2 240 16:20 26.01.2020
3682 Rain 5 999 86 0 5.81 230 15:55 26.01.2020
3683 Rain 5 999 86 0 5.81 230 15:37 26.01.2020
3684 Rain 5 1003 88 0 2.24 90 15:18 26.01.2020
3685 Rain 6 1003 81 0 2.68 113 14:40 26.01.2020
3686 Rain 6 1003 82 0 2.68 113 14:19 26.01.2020
3687 Rain 6 1003 82 0 2.68 113 14:19 26.01.2020
3688 Rain 7 998 81 0 6.71 240 13:42 26.01.2020
3689 Rain 7 998 81 0 6.71 240 13:20 26.01.2020
3690 Rain 7 998 87 0 4.47 250 12:58 26.01.2020
3691 Rain 7 998 87 0 4.47 250 12:39 26.01.2020
3692 Rain 7 999 92 0 0.45 202 12:21 26.01.2020
3693 Rain 7 998 87 0 4.92 240 12:21 26.01.2020
3694 Rain 7 998 87 0 4.92 240 11:57 26.01.2020
3695 Rain 7 1001 89 0 1.79 113 11:38 26.01.2020
3696 Rain 7 997 87 10000 7.7 210 11:18 26.01.2020
3697 Rain 7 997 87 10000 7.7 210 11:18 26.01.2020
3698 Rain 8 997 87 6000 7.7 200 10:57 26.01.2020
3699 Rain 8 997 87 6000 7.7 200 10:38 26.01.2020
3700 Rain 8 997 87 6000 7.7 200 10:38 26.01.2020
3701 Rain 8 997 87 6000 7.7 200 10:38 26.01.2020
3702 Rain 8 997 87 6000 7.7 200 10:20 26.01.2020
3703 Rain 8 997 93 10000 8.2 190 09:56 26.01.2020
3704 Rain 8 997 93 7000 8.2 190 09:38 26.01.2020
3705 Rain 8 997 93 7000 8.2 190 09:19 26.01.2020
3706 Rain 8 997 93 8000 5.7 190 08:42 26.01.2020
3707 Rain 8 998 93 7000 6.7 190 08:22 26.01.2020
3708 Rain 8 998 87 10000 7.2 180 07:53 26.01.2020
3709 Rain 8 998 87 10000 8.7 180 07:27 26.01.2020
3710 Rain 8 999 81 5000 8.2 180 06:55 26.01.2020
3711 Rain 8 999 81 10000 8.7 190 06:25 26.01.2020
3712 Rain 7 1000 81 10000 7.2 200 05:29 26.01.2020
3713 Clouds 7 1001 81 10000 6.7 190 04:43 26.01.2020
3714 Clouds 7 1003 75 10000 5.7 180 02:38 26.01.2020
3715 Rain 7 1004 81 10000 6.2 180 01:45 26.01.2020
3716 Rain 7 1004 81 10000 6.2 180 01:23 26.01.2020
3717 Clouds 7 1005 81 10000 5.1 180 00:42 26.01.2020
3718 Clouds 7 1005 81 10000 5.1 190 00:24 26.01.2020
3719 Clouds 7 1010 88 0 0.45 90 23:39 25.01.2020
3720 Rain 7 1010 86 0 0.89 338 23:21 25.01.2020
3721 Rain 7 1010 86 0 0.45 90 22:56 25.01.2020
3722 Rain 7 1010 86 0 0.89 90 22:36 25.01.2020
3723 Rain 7 1011 84 0 1.34 90 22:18 25.01.2020
3724 Rain 7 1013 87 0 1.79 230 21:41 25.01.2020
3725 Rain 7 1013 87 0 4.02 210 21:23 25.01.2020
3726 Rain 7 1007 75 0 4.02 200 20:56 25.01.2020
3727 Rain 7 1007 75 0 4.02 200 20:38 25.01.2020
3728 Clouds 7 1012 87 0 0.89 90 20:20 25.01.2020
3729 Clouds 7 1012 78 0 4.02 113 19:44 25.01.2020
3730 Clouds 7 1012 78 0 4.02 113 19:20 25.01.2020
3731 Clouds 7 1014 81 0 4.68 205 18:57 25.01.2020
3732 Clouds 7 1014 81 0 4.68 205 18:57 25.01.2020
3733 Clouds 7 1012 81 0 1.34 90 18:39 25.01.2020
3734 Clouds 7 1012 78 0 3.13 113 18:20 25.01.2020
3735 Clouds 7 1008 81 0 5.36 210 17:42 25.01.2020
3736 Clouds 7 1013 81 0 1.79 113 17:23 25.01.2020
3737 Clouds 7 1009 81 0 5.36 230 16:58 25.01.2020
3738 Clouds 7 1013 81 0 1.34 90 16:39 25.01.2020
3739 Clouds 7 1009 81 0 5.81 230 16:19 25.01.2020
3740 Clouds 7 1003 87 0 5.81 220 15:47 25.01.2020
3741 Clouds 7 1014 84 0 1.79 113 15:25 25.01.2020
3742 Clouds 7 1014 84 0 1.79 90 14:59 25.01.2020
3743 Clouds 7 1002 87 0 5.36 220 14:40 25.01.2020
3744 Clouds 7 1014 85 0 1.34 113 14:18 25.01.2020
3745 Clouds 7 1015 87 0 1.79 113 13:42 25.01.2020
3746 Clouds 7 1015 87 0 1.79 113 13:42 25.01.2020
3747 Clouds 6 1011 87 0 5.81 210 13:23 25.01.2020
3748 Drizzle 6 1012 93 5000 6.7 210 12:45 25.01.2020
3749 Drizzle 6 1012 93 5000 6.7 210 12:26 25.01.2020
3750 Clouds 6 1012 93 7000 7.7 220 11:45 25.01.2020
3751 Clouds 6 1012 93 7000 7.7 220 11:22 25.01.2020
3752 Clouds 6 1012 93 10000 10.8 220 10:59 25.01.2020
3753 Clouds 6 1012 87 10000 8.7 220 10:40 25.01.2020
3754 Clouds 6 1012 87 10000 8.7 220 10:20 25.01.2020
3755 Clouds 6 1012 87 10000 4.6 210 09:41 25.01.2020
3756 Clouds 6 1012 87 10000 4.6 210 09:22 25.01.2020
3757 Clouds 6 1012 87 10000 5.1 210 08:47 25.01.2020
3758 Clouds 7 1012 87 10000 4.6 200 08:28 25.01.2020
3759 Clouds 7 1012 87 10000 3.1 210 07:50 25.01.2020
3760 Clouds 6 1013 87 10000 3.6 220 06:53 25.01.2020
3761 Clouds 6 1013 87 10000 6.7 200 06:28 25.01.2020
3762 Clouds 6 1013 93 10000 5.7 210 05:47 25.01.2020
3763 Clouds 7 1013 93 10000 5.7 210 05:18 25.01.2020
3764 Clouds 7 1014 93 10000 8.2 210 03:51 25.01.2020
3765 Rain 7 1014 93 6000 6.7 220 03:19 25.01.2020
3766 Haze 7 1015 93 3100 7.7 220 02:20 25.01.2020
3767 Rain 8 1015 100 7000 6.7 220 01:43 25.01.2020
3768 Drizzle 8 1016 93 2500 5.7 220 00:44 25.01.2020
3769 Drizzle 8 1016 93 1800 5.7 210 00:26 25.01.2020
3770 Drizzle 8 1016 93 2400 5.7 210 23:58 24.01.2020
3771 Drizzle 8 1016 93 2400 5.7 210 23:39 24.01.2020
3772 Drizzle 8 1016 93 2400 5.7 210 23:39 24.01.2020
3773 Mist 8 1017 93 2600 5.7 200 23:21 24.01.2020
3774 Mist 8 1017 93 3500 5.7 220 22:44 24.01.2020
3775 Mist 8 1017 93 4300 6.7 210 22:25 24.01.2020
3776 Mist 8 1017 93 3300 5.7 210 21:43 24.01.2020
3777 Mist 8 1017 93 3300 5.7 210 21:21 24.01.2020
3778 Mist 8 1017 93 3300 5.7 210 21:21 24.01.2020
3779 Clouds 8 1017 93 8000 5.1 210 20:57 24.01.2020
3780 Clouds 8 1017 100 7000 4.1 200 20:39 24.01.2020
3781 Clouds 8 1017 100 7000 4.1 200 20:20 24.01.2020
3782 Mist 8 1017 100 5000 5.1 210 19:56 24.01.2020
3783 Mist 8 1017 100 3300 3.6 210 19:38 24.01.2020
3784 Mist 8 1017 100 3300 3.6 210 19:20 24.01.2020
3785 Mist 8 1017 100 4500 3.1 220 18:43 24.01.2020
3786 Clouds 8 1018 93 10000 3.6 230 18:23 24.01.2020
3787 Clouds 8 1018 93 10000 5.1 220 17:46 24.01.2020
3788 Clouds 8 1018 87 10000 2.6 250 17:23 24.01.2020
3789 Clouds 8 1018 87 10000 2.6 260 16:58 24.01.2020
3790 Clouds 9 1018 87 10000 2.6 260 16:39 24.01.2020
3791 Clouds 8 1018 87 10000 2.6 270 16:19 24.01.2020
3792 Clouds 9 1018 87 10000 2.6 280 15:42 24.01.2020
3793 Clouds 9 1018 87 10000 2.6 280 15:22 24.01.2020
3794 Clouds 9 1019 87 10000 3.1 280 14:55 24.01.2020
3795 Clouds 9 1019 87 10000 3.1 260 14:37 24.01.2020
3796 Clouds 9 1019 87 10000 3.1 260 14:19 24.01.2020
3797 Clouds 9 1019 87 10000 3.6 250 13:41 24.01.2020
3798 Clouds 9 1020 87 10000 3.6 260 13:22 24.01.2020
3799 Clouds 9 1020 87 10000 3.6 260 13:22 24.01.2020
3800 Clouds 9 1020 93 10000 4.1 250 12:43 24.01.2020
3801 Clouds 8 1020 93 10000 4.1 230 12:21 24.01.2020
3802 Clouds 8 1020 93 10000 3.1 240 11:45 24.01.2020
3803 Clouds 8 1020 93 10000 4.1 240 11:19 24.01.2020
3804 Clouds 8 1020 93 10000 5.1 220 10:58 24.01.2020
3805 Clouds 8 1020 93 10000 5.1 220 10:40 24.01.2020
3806 Clouds 8 1020 93 10000 4.1 240 10:19 24.01.2020
3807 Clouds 8 1020 93 10000 4.6 230 09:41 24.01.2020
3808 Clouds 8 1020 100 10000 4.6 240 09:23 24.01.2020
3809 Clouds 8 1020 93 10000 4.6 230 08:41 24.01.2020
3810 Clouds 8 1020 93 10000 4.6 230 08:41 24.01.2020
3811 Clouds 8 1020 93 10000 4.6 230 08:21 24.01.2020
3812 Clouds 8 1019 100 7000 6.2 230 07:58 24.01.2020
3813 Clouds 8 1019 100 7000 6.2 230 07:39 24.01.2020
3814 Clouds 8 1019 93 7000 6.7 220 06:54 24.01.2020
3815 Mist 8 1020 93 5000 6.2 230 06:33 24.01.2020
3816 Rain 8 1020 93 7000 7.2 230 05:59 24.01.2020
3817 Clouds 8 1020 93 7000 6.7 230 05:18 24.01.2020
3818 Clouds 7 1022 93 10000 4.1 210 02:54 24.01.2020
3819 Clouds 7 1022 93 8000 6.2 220 02:27 24.01.2020
3820 Clouds 7 1022 93 8000 6.7 230 01:53 24.01.2020
3821 Clouds 7 1023 93 10000 7.2 230 01:33 24.01.2020
3822 Clouds 8 1023 93 7000 7.2 220 00:31 24.01.2020
3823 Clouds 8 1024 93 7000 8.2 240 23:56 23.01.2020
3824 Clouds 8 1024 93 10000 6.7 240 23:37 23.01.2020
3825 Clouds 8 1024 93 10000 6.7 240 23:18 23.01.2020
3826 Clouds 8 1024 93 10000 5.1 230 22:39 23.01.2020
3827 Clouds 7 1024 93 10000 4.1 230 22:19 23.01.2020
3828 Clouds 8 1024 87 9000 5.1 230 21:58 23.01.2020
3829 Clouds 8 1024 87 9000 5.1 230 21:39 23.01.2020
3830 Clouds 8 1025 87 10000 4.1 230 21:21 23.01.2020
3831 Clouds 8 1025 87 10000 5.1 230 20:59 23.01.2020
3832 Clouds 8 1025 93 10000 5.7 230 20:39 23.01.2020
3833 Clouds 8 1025 93 10000 5.7 230 20:20 23.01.2020
3834 Clouds 7 1025 100 7000 4.6 230 19:56 23.01.2020
3835 Clouds 7 1025 100 7000 4.6 230 19:38 23.01.2020
3836 Clouds 7 1025 100 10000 6.2 220 19:19 23.01.2020
3837 Clouds 7 1025 93 10000 5.7 240 18:55 23.01.2020
3838 Clouds 8 1025 93 10000 6.7 240 18:37 23.01.2020
3839 Clouds 8 1025 93 10000 6.7 240 18:18 23.01.2020
3840 Clouds 8 1025 93 10000 5.7 230 17:43 23.01.2020
3841 Clouds 8 1026 87 10000 5.7 250 17:20 23.01.2020
3842 Clouds 8 1026 93 10000 5.1 230 16:57 23.01.2020
3843 Clouds 8 1027 93 10000 5.7 230 16:37 23.01.2020
3844 Clouds 8 1027 93 10000 5.7 230 16:18 23.01.2020
3845 Clouds 9 1027 81 10000 5.7 240 15:56 23.01.2020
3846 Clouds 9 1027 81 10000 7.2 240 15:37 23.01.2020
3847 Clouds 9 1027 81 10000 7.2 240 15:18 23.01.2020
3848 Clouds 9 1028 81 10000 6.7 240 14:55 23.01.2020
3849 Clouds 9 1028 81 10000 6.7 240 14:55 23.01.2020
3850 Clouds 9 1028 87 10000 5.1 240 14:37 23.01.2020
3851 Clouds 9 1028 87 10000 5.1 240 14:19 23.01.2020
3852 Clouds 8 1029 87 10000 6.7 230 13:43 23.01.2020
3853 Clouds 8 1029 87 10000 6.7 230 13:20 23.01.2020
3854 Clouds 8 1029 87 10000 5.7 240 12:47 23.01.2020
3855 Clouds 8 1030 87 10000 5.7 250 12:26 23.01.2020
3856 Clouds 8 1030 93 10000 6.2 240 11:59 23.01.2020
3857 Clouds 8 1030 87 10000 6.2 240 11:39 23.01.2020
3858 Clouds 8 1030 87 10000 6.2 240 11:20 23.01.2020
3859 Clouds 8 1030 87 10000 5.7 250 10:45 23.01.2020
3860 Clouds 8 1030 87 10000 6.7 250 10:23 23.01.2020
3861 Clouds 8 1031 87 10000 5.7 250 09:59 23.01.2020
3862 Clouds 8 1031 87 10000 5.1 240 09:39 23.01.2020
3863 Clouds 8 1031 87 10000 5.1 240 09:20 23.01.2020
3864 Clouds 8 1030 81 10000 5.7 250 08:42 23.01.2020
3865 Clouds 8 1030 81 10000 5.1 250 08:24 23.01.2020
3866 Clouds 8 1030 81 10000 5.1 250 08:24 23.01.2020
3867 Clouds 8 1030 81 10000 5.7 250 07:48 23.01.2020
3868 Clouds 8 1031 87 10000 4.1 250 07:27 23.01.2020
3869 Clouds 8 1031 93 10000 3.6 250 06:54 23.01.2020
3870 Clouds 8 1031 93 10000 4.6 230 06:23 23.01.2020
3871 Clouds 8 1031 93 10000 5.1 240 05:58 23.01.2020
3872 Clouds 8 1031 93 10000 5.1 240 05:58 23.01.2020
3873 Clouds 8 1033 93 10000 4.1 230 04:24 23.01.2020
3874 Clouds 8 1034 100 10000 4.1 240 02:35 23.01.2020
3875 Mist 8 1035 100 4000 2.1 200 01:41 23.01.2020
3876 Clouds 9 1035 100 8000 3.1 250 00:28 23.01.2020
3877 Clouds 9 1035 100 10000 3.6 240 23:48 22.01.2020
3878 Clouds 9 1035 100 9000 3.1 240 23:30 22.01.2020
3879 Clouds 9 1035 100 6000 2.6 240 22:59 22.01.2020
3880 Clouds 9 1035 100 6000 2.6 240 22:41 22.01.2020
3881 Clouds 9 1035 100 6000 2.6 250 22:23 22.01.2020
3882 Clouds 9 1036 100 10000 3.1 240 21:41 22.01.2020
3883 Clouds 9 1036 100 10000 3.1 240 21:22 22.01.2020
3884 Clouds 9 1036 93 10000 2.6 240 20:58 22.01.2020
3885 Clouds 9 1036 93 10000 2.6 240 20:39 22.01.2020
3886 Clouds 9 1036 100 10000 2.6 240 20:21 22.01.2020
3887 Clouds 9 1036 93 10000 3.1 220 19:57 22.01.2020
3888 Clouds 9 1036 93 10000 3.1 220 19:39 22.01.2020
3889 Clouds 9 1036 93 10000 3.6 230 19:19 22.01.2020
3890 Clouds 9 1036 93 10000 3.1 230 18:57 22.01.2020
3891 Clouds 9 1036 93 10000 3.6 230 18:38 22.01.2020
3892 Clouds 10 1036 93 10000 3.6 230 18:19 22.01.2020
3893 Clouds 10 1036 93 10000 3.6 230 17:55 22.01.2020
3894 Clouds 10 1036 93 10000 3.6 230 17:36 22.01.2020
3895 Clouds 10 1036 93 10000 3.6 230 17:18 22.01.2020
3896 Clouds 10 1036 93 10000 4.1 230 16:43 22.01.2020
3897 Clouds 10 1036 93 10000 4.1 230 16:23 22.01.2020
3898 Clouds 10 1037 93 10000 4.6 220 15:58 22.01.2020
3899 Clouds 10 1037 93 10000 4.6 220 15:39 22.01.2020
3900 Clouds 10 1037 93 10000 4.6 230 15:21 22.01.2020
3901 Clouds 10 1037 93 10000 5.7 230 14:56 22.01.2020
3902 Clouds 10 1037 93 10000 5.1 230 14:36 22.01.2020
3903 Clouds 10 1037 93 10000 5.1 230 14:36 22.01.2020
3904 Clouds 10 1037 93 10000 5.1 230 14:18 22.01.2020
3905 Clouds 10 1037 93 10000 4.1 230 13:54 22.01.2020
3906 Clouds 10 1038 93 10000 4.6 230 13:36 22.01.2020
3907 Clouds 10 1038 93 10000 4.6 230 13:18 22.01.2020
3908 Clouds 10 1038 93 10000 3.6 230 12:54 22.01.2020
3909 Clouds 10 1038 93 10000 3.6 240 12:36 22.01.2020
3910 Clouds 10 1038 93 10000 3.6 240 12:18 22.01.2020
3911 Clouds 10 1038 93 10000 3.6 230 11:54 22.01.2020
3912 Clouds 9 1038 93 10000 3.6 230 11:36 22.01.2020
3913 Clouds 9 1038 93 10000 3.6 230 11:18 22.01.2020
3914 Clouds 9 1038 93 10000 3.6 250 10:41 22.01.2020
3915 Clouds 9 1038 93 10000 3.6 250 10:19 22.01.2020
3916 Clouds 8 1038 100 10000 3.6 240 09:42 22.01.2020
3917 Clouds 8 1038 100 10000 3.6 240 09:42 22.01.2020
3918 Clouds 8 1037 100 10000 3.1 230 09:24 22.01.2020
3919 Clouds 8 1037 100 10000 3.1 250 08:57 22.01.2020
3920 Clouds 9 1037 93 10000 2.6 240 08:38 22.01.2020
3921 Clouds 9 1037 93 10000 2.6 240 08:20 22.01.2020
3922 Clouds 9 1037 100 10000 3.6 240 07:46 22.01.2020
3923 Clouds 9 1037 100 10000 5.1 250 07:27 22.01.2020
3924 Clouds 9 1037 100 10000 3.1 220 06:38 22.01.2020
3925 Clouds 9 1037 100 10000 3.1 220 06:20 22.01.2020
3926 Clouds 9 1037 100 10000 4.1 220 05:19 22.01.2020
3927 Clouds 9 1038 93 10000 2.6 230 03:29 22.01.2020
3928 Rain 9 1038 100 10000 3.1 230 02:49 22.01.2020
3929 Clouds 9 1038 100 10000 3.6 260 01:35 22.01.2020
3930 Rain 9 1038 93 10000 4.6 240 00:42 22.01.2020
3931 Clouds 9 1038 100 10000 4.6 230 00:23 22.01.2020
3932 Rain 9 1038 100 10000 3.6 240 23:38 21.01.2020
3933 Rain 9 1038 100 10000 3.6 240 23:38 21.01.2020
3934 Rain 9 1038 100 10000 3.6 240 23:20 21.01.2020
3935 Rain 9 1038 100 7000 5.1 230 22:42 21.01.2020
3936 Clouds 9 1038 93 10000 3.6 220 22:24 21.01.2020
3937 Clouds 9 1038 93 10000 3.6 220 22:24 21.01.2020
3938 Clouds 9 1038 93 10000 4.6 230 21:59 21.01.2020
3939 Clouds 9 1038 93 10000 4.6 230 21:39 21.01.2020
3940 Clouds 9 1038 100 10000 5.1 230 21:21 21.01.2020
3941 Clouds 9 1038 93 10000 5.7 220 20:58 21.01.2020
3942 Clouds 9 1038 93 10000 4.6 230 20:39 21.01.2020
3943 Clouds 9 1038 93 10000 4.6 230 20:20 21.01.2020
3944 Clouds 9 1038 100 7000 4.6 220 19:58 21.01.2020
3945 Clouds 9 1037 93 10000 3.6 230 19:39 21.01.2020
3946 Clouds 9 1037 93 10000 3.6 230 19:21 21.01.2020
3947 Clouds 9 1037 93 10000 3.1 230 18:56 21.01.2020
3948 Clouds 9 1037 93 10000 2.6 250 18:38 21.01.2020
3949 Clouds 9 1037 93 10000 2.6 250 18:20 21.01.2020
3950 Clouds 9 1037 93 10000 3.1 230 17:45 21.01.2020
3951 Clouds 9 1037 93 10000 3.1 250 17:21 21.01.2020
3952 Clouds 9 1037 93 10000 5.7 240 16:59 21.01.2020
3953 Clouds 9 1037 100 10000 6.7 230 16:37 21.01.2020
3954 Clouds 9 1037 100 10000 6.7 230 16:19 21.01.2020
3955 Clouds 9 1038 93 10000 7.2 230 15:56 21.01.2020
3956 Clouds 9 1038 100 10000 5.7 240 15:37 21.01.2020
3957 Clouds 9 1038 100 10000 5.7 240 15:18 21.01.2020
3958 Clouds 9 1039 93 10000 4.6 250 14:38 21.01.2020
3959 Clouds 10 1039 93 10000 4.6 250 14:20 21.01.2020
3960 Clouds 9 1039 93 10000 6.2 220 13:40 21.01.2020
3961 Clouds 9 1039 93 10000 6.2 220 13:19 21.01.2020
3962 Clouds 9 1039 100 10000 6.2 230 12:56 21.01.2020
3963 Clouds 9 1039 93 10000 5.1 220 12:37 21.01.2020
3964 Clouds 9 1039 93 10000 5.1 220 12:19 21.01.2020
3965 Clouds 9 1039 93 10000 6.2 210 11:40 21.01.2020
3966 Clouds 9 1039 93 10000 6.2 210 11:21 21.01.2020
3967 Rain 9 1039 93 4900 6.7 230 10:55 21.01.2020
3968 Clouds 9 1039 93 10000 6.7 230 10:37 21.01.2020
3969 Clouds 9 1039 93 10000 6.7 230 10:18 21.01.2020
3970 Rain 8 1039 100 10000 3.6 230 09:41 21.01.2020
3971 Rain 8 1039 100 10000 3.6 230 09:22 21.01.2020
3972 Clouds 8 1039 100 10000 4.6 230 08:50 21.01.2020
3973 Clouds 8 1039 100 6000 5.1 230 08:30 21.01.2020
3974 Clouds 8 1039 93 9000 5.1 230 07:59 21.01.2020
3975 Clouds 8 1039 93 9000 5.1 230 07:40 21.01.2020
3976 Clouds 8 1039 93 10000 5.1 220 07:40 21.01.2020
3977 Clouds 8 1039 93 10000 5.1 220 07:21 21.01.2020
3978 Clouds 8 1039 93 6000 6.2 220 06:49 21.01.2020
3979 Clouds 8 1039 93 8000 5.7 220 06:29 21.01.2020
3980 Clouds 8 1039 93 8000 5.7 220 06:29 21.01.2020
3981 Clouds 8 1039 93 8000 5.7 220 06:29 21.01.2020
3982 Clouds 8 1039 93 10000 5.1 220 05:42 21.01.2020
3983 Clouds 8 1039 93 10000 5.1 220 05:42 21.01.2020
3984 Clouds 8 1039 93 10000 4.1 230 04:40 21.01.2020
3985 Clouds 8 1039 87 10000 6.2 220 02:56 21.01.2020
3986 Clouds 8 1040 87 10000 5.1 230 01:53 21.01.2020
3987 Clouds 8 1041 87 10000 4.6 240 01:18 21.01.2020
3988 Clouds 8 1040 87 10000 5.1 230 00:36 21.01.2020
3989 Clouds 8 1040 87 10000 6.7 220 23:58 20.01.2020
3990 Clouds 8 1040 87 10000 7.2 220 23:38 20.01.2020
3991 Clouds 8 1040 87 10000 7.2 220 23:19 20.01.2020
3992 Clouds 8 1040 87 10000 8.7 230 22:56 20.01.2020
3993 Clouds 7 1041 81 10000 6.2 240 22:37 20.01.2020
3994 Clouds 8 1041 81 10000 7.2 240 22:19 20.01.2020
3995 Clouds 8 1041 81 10000 7.2 240 21:57 20.01.2020
3996 Clouds 7 1041 81 10000 7.7 240 21:37 20.01.2020
3997 Clouds 7 1041 81 10000 7.7 240 21:37 20.01.2020
3998 Clouds 7 1041 81 10000 7.7 240 21:18 20.01.2020
3999 Clouds 7 1041 87 10000 7.2 230 20:55 20.01.2020
4000 Clouds 7 1041 87 10000 6.2 230 20:36 20.01.2020
4001 Clouds 7 1041 87 10000 6.2 230 20:18 20.01.2020
4002 Clouds 7 1041 87 10000 5.1 220 19:56 20.01.2020
4003 Clouds 7 1041 87 10000 5.1 210 19:37 20.01.2020
4004 Clouds 7 1041 87 10000 5.1 210 19:18 20.01.2020
4005 Clouds 7 1042 87 10000 6.2 210 18:42 20.01.2020
4006 Clouds 7 1042 87 10000 6.2 210 18:21 20.01.2020
4007 Clouds 7 1042 87 10000 6.2 210 17:39 20.01.2020
4008 Clouds 7 1042 87 10000 7.2 220 17:19 20.01.2020
4009 Clouds 7 1042 87 10000 7.2 220 16:58 20.01.2020
4010 Clouds 7 1042 87 10000 7.2 210 16:37 20.01.2020
4011 Clouds 7 1042 87 10000 7.2 210 16:18 20.01.2020
4012 Clouds 7 1042 87 10000 7.2 210 16:18 20.01.2020
4013 Clouds 7 1042 87 10000 7.2 220 15:41 20.01.2020
4014 Clouds 7 1042 87 10000 7.2 220 15:22 20.01.2020
4015 Clouds 7 1042 93 10000 8.2 220 14:59 20.01.2020
4016 Clouds 7 1042 87 10000 7.7 220 14:41 20.01.2020
4017 Clouds 7 1042 87 10000 7.7 220 14:21 20.01.2020
4018 Clouds 7 1043 87 10000 6.7 210 13:57 20.01.2020
4019 Clouds 7 1043 87 10000 7.2 210 13:38 20.01.2020
4020 Clouds 7 1043 87 10000 7.2 210 13:20 20.01.2020
4021 Clouds 7 1043 87 10000 6.7 210 12:44 20.01.2020
4022 Clouds 7 1043 87 10000 6.7 210 12:25 20.01.2020
4023 Clouds 7 1043 87 10000 6.7 210 12:25 20.01.2020
4024 Clouds 7 1043 87 10000 5.7 210 11:56 20.01.2020
4025 Clouds 7 1043 87 10000 6.2 220 11:37 20.01.2020
4026 Clouds 7 1043 87 10000 6.2 220 11:18 20.01.2020
4027 Clouds 7 1043 87 10000 5.1 220 10:46 20.01.2020
4028 Clouds 7 1043 87 10000 6.7 210 10:21 20.01.2020
4029 Clouds 7 1043 87 10000 5.1 220 09:42 20.01.2020
4030 Clouds 7 1043 87 10000 5.1 210 09:24 20.01.2020
4031 Clouds 7 1043 87 10000 5.7 220 08:56 20.01.2020
4032 Clouds 6 1043 87 10000 5.7 220 08:34 20.01.2020
4033 Clouds 6 1043 87 10000 6.2 210 07:59 20.01.2020
4034 Clouds 6 1043 87 10000 6.2 210 07:41 20.01.2020
4035 Clouds 6 1043 87 10000 7.2 210 07:21 20.01.2020
4036 Clouds 6 1043 87 10000 7.7 220 06:44 20.01.2020
4037 Clouds 6 1043 87 10000 7.2 220 06:22 20.01.2020
4038 Clouds 6 1043 81 10000 5.7 200 05:38 20.01.2020
4039 Clouds 6 1043 81 10000 5.7 200 05:19 20.01.2020
4040 Clouds 6 1044 93 10000 6.2 220 04:23 20.01.2020
4041 Clouds 5 1043 87 10000 5.1 230 01:59 20.01.2020
4042 Clouds 5 1044 87 10000 6.2 220 01:40 20.01.2020
4043 Clouds 5 1044 87 10000 6.2 220 01:18 20.01.2020
4044 Clouds 5 1044 81 10000 5.7 220 00:42 20.01.2020
4045 Clouds 5 1043 81 10000 5.7 240 00:20 20.01.2020
4046 Clouds 5 1043 81 10000 6.7 240 23:38 19.01.2020
4047 Clouds 5 1043 81 10000 6.7 240 23:19 19.01.2020
4048 Clouds 5 1043 81 10000 3.6 250 22:56 19.01.2020
4049 Clouds 5 1043 86 10000 6.2 230 22:37 19.01.2020
4050 Clouds 5 1043 86 10000 6.2 230 22:19 19.01.2020
4051 Clouds 5 1043 80 10000 6.2 250 21:56 19.01.2020
4052 Clouds 5 1043 80 10000 5.7 240 21:38 19.01.2020
4053 Clouds 5 1043 80 10000 5.7 240 21:19 19.01.2020
4054 Clouds 5 1043 80 10000 5.1 230 20:56 19.01.2020
4055 Clouds 5 1043 80 10000 3.6 240 20:38 19.01.2020
4056 Clouds 5 1043 80 10000 3.6 240 20:19 19.01.2020
4057 Clouds 5 1044 80 10000 2.6 250 19:55 19.01.2020
4058 Clouds 5 1043 75 10000 4.6 250 19:37 19.01.2020
4059 Clouds 5 1043 75 10000 4.6 250 19:19 19.01.2020
4060 Clouds 5 1043 75 10000 4.1 240 18:55 19.01.2020
4061 Clouds 5 1043 75 10000 4.1 250 18:37 19.01.2020
4062 Clouds 5 1043 75 10000 4.1 250 18:19 19.01.2020
4063 Clouds 5 1043 75 10000 4.1 250 18:19 19.01.2020
4064 Clouds 5 1043 75 10000 7.7 230 17:57 19.01.2020
4065 Clouds 5 1043 75 10000 7.7 230 17:38 19.01.2020
4066 Clouds 5 1043 75 10000 7.7 230 17:19 19.01.2020
4067 Clouds 5 1043 70 10000 6.2 220 16:57 19.01.2020
4068 Clouds 6 1043 70 10000 5.7 210 16:37 19.01.2020
4069 Clouds 6 1043 70 10000 5.7 210 16:19 19.01.2020
4070 Clouds 6 1042 75 10000 6.7 220 15:55 19.01.2020
4071 Clouds 6 1043 75 10000 7.2 220 15:37 19.01.2020
4072 Clouds 6 1043 75 10000 7.2 220 15:18 19.01.2020
4073 Clouds 6 1043 81 10000 2.1 230 14:41 19.01.2020
4074 Clouds 5 1043 100 10000 1.5 0 14:21 19.01.2020
4075 Clouds 5 1044 81 10000 3.1 190 13:59 19.01.2020
4076 Clouds 5 1043 100 9000 1 0 13:40 19.01.2020
4077 Clouds 5 1043 100 9000 1 0 13:22 19.01.2020
4078 Clouds 5 1044 86 10000 2.1 190 12:59 19.01.2020
4079 Clouds 4 1043 93 8000 1.5 0 12:41 19.01.2020
4080 Clouds 4 1043 93 10000 1 50 12:21 19.01.2020
4081 Clouds 4 1043 100 7000 0.5 0 11:57 19.01.2020
4082 Clouds 3 1044 100 10000 2.89 217 11:38 19.01.2020
4083 Clear 2 1043 94 8000 1.5 230 11:18 19.01.2020
4084 Clear 1 1042 100 9000 1.5 40 10:41 19.01.2020
4085 Clear 1 1042 100 9000 1.5 40 10:21 19.01.2020
4086 Clear 1 1042 100 8000 0.5 0 09:57 19.01.2020
4087 Clear 1 1042 94 10000 0.5 0 09:38 19.01.2020
4088 Clear 1 1042 94 10000 0.5 0 09:20 19.01.2020
4089 Clouds 1 1042 100 9000 1.5 210 08:55 19.01.2020
4090 Clouds 0 1041 92 10000 1.5 0 08:33 19.01.2020
4091 Clouds -1 1041 100 10000 0.5 0 07:58 19.01.2020
4092 Clear -1 1041 92 10000 0.5 0 07:29 19.01.2020
4093 Fog -1 1040 100 900 0.5 0 06:55 19.01.2020
4094 Clear -1 1040 100 7000 1 340 06:22 19.01.2020
4095 Clear -1 1038 100 6000 0.5 0 03:58 19.01.2020
4096 Clear -1 1038 92 10000 1.5 320 02:34 19.01.2020
4097 Clouds 0 1038 92 9000 0.5 0 01:42 19.01.2020
4098 Clouds 0 1037 89 10000 0.5 0 01:20 19.01.2020
4099 Clouds 0 1037 92 10000 2.1 0 00:44 19.01.2020
4100 Clouds 1 1036 89 10000 0.5 0 00:21 19.01.2020
4101 Clouds 1 1036 89 10000 0.5 0 23:47 18.01.2020
4102 Clouds 1 1035 86 10000 2.1 300 23:25 18.01.2020
4103 Clouds 1 1035 86 10000 2.1 220 22:59 18.01.2020
4104 Clouds 1 1034 89 10000 1 0 22:41 18.01.2020
4105 Clouds 1 1034 89 10000 1 0 22:21 18.01.2020
4106 Clouds 1 1034 89 10000 2.1 260 21:58 18.01.2020
4107 Clouds 2 1034 86 10000 1.5 0 21:38 18.01.2020
4108 Clouds 2 1034 86 10000 1.5 0 21:20 18.01.2020
4109 Clouds 2 1033 89 10000 2.6 260 20:56 18.01.2020
4110 Clouds 3 1033 89 10000 2.6 270 20:38 18.01.2020
4111 Clouds 3 1033 87 10000 2.6 270 20:18 18.01.2020
4112 Clouds 3 1033 87 10000 2.6 270 20:18 18.01.2020
4113 Clouds 3 1032 87 10000 4.1 250 19:42 18.01.2020
4114 Clouds 3 1032 87 10000 5.1 230 19:24 18.01.2020
4115 Clouds 3 1031 87 10000 3.1 220 18:43 18.01.2020
4116 Clouds 4 1030 80 10000 3.1 250 18:24 18.01.2020
4117 Clouds 4 1030 86 10000 3.6 240 17:58 18.01.2020
4118 Clouds 4 1029 80 10000 3.6 220 17:40 18.01.2020
4119 Clouds 4 1029 80 10000 3.6 220 17:20 18.01.2020
4120 Clouds 5 1028 80 10000 3.1 230 16:56 18.01.2020
4121 Clouds 5 1028 75 10000 3.6 260 16:37 18.01.2020
4122 Clouds 5 1028 75 10000 3.6 260 16:19 18.01.2020
4123 Clouds 6 1027 80 10000 3.6 240 15:43 18.01.2020
4124 Clouds 6 1027 80 10000 3.1 230 15:24 18.01.2020
4125 Clouds 6 1026 70 10000 3.1 270 14:58 18.01.2020
4126 Clouds 6 1026 70 10000 2.6 290 14:39 18.01.2020
4127 Clouds 6 1026 70 10000 2.6 290 14:19 18.01.2020
4128 Clouds 6 1026 75 10000 3.6 250 13:45 18.01.2020
4129 Clouds 6 1025 81 10000 1.5 0 13:27 18.01.2020
4130 Clouds 5 1025 80 10000 2.6 250 12:59 18.01.2020
4131 Clouds 5 1024 80 10000 4.6 260 12:40 18.01.2020
4132 Clouds 4 1024 80 10000 4.6 260 12:21 18.01.2020
4133 Rain 4 1024 86 10000 5.1 260 11:44 18.01.2020
4134 Clouds 3 1023 86 10000 5.1 280 11:24 18.01.2020
4135 Clouds 3 1023 86 10000 4.1 270 10:57 18.01.2020
4136 Clouds 3 1022 86 10000 4.6 260 10:38 18.01.2020
4137 Clouds 3 1022 86 10000 4.6 260 10:20 18.01.2020
4138 Rain 3 1022 86 10000 3.6 240 09:48 18.01.2020
4139 Clouds 2 1022 86 10000 4.6 220 09:30 18.01.2020
4140 Clouds 3 1021 93 10000 3.6 230 08:56 18.01.2020
4141 Rain 2 1021 86 10000 4.1 260 08:38 18.01.2020
4142 Rain 2 1021 86 10000 4.1 260 08:19 18.01.2020
4143 Clear 3 1020 85 10000 2.6 240 07:47 18.01.2020
4144 Rain 2 1020 93 10000 3.6 250 07:29 18.01.2020
4145 Clear 2 1020 85 10000 5.1 240 06:47 18.01.2020
4146 Clear 2 1019 85 10000 4.1 260 05:59 18.01.2020
4147 Clear 2 1018 83 10000 3.1 260 05:21 18.01.2020
4148 Clear 3 1016 83 10000 3.1 270 02:55 18.01.2020
4149 Rain 3 1015 81 10000 5.1 270 01:52 18.01.2020
4150 Clouds 3 1014 81 10000 4.1 230 01:30 18.01.2020
4151 Clear 3 1013 81 10000 4.6 250 00:36 18.01.2020
4152 Clear 3 1013 81 10000 4.6 250 00:18 18.01.2020
4153 Rain 3 1012 80 10000 3.6 260 23:41 17.01.2020
4154 Rain 3 1012 80 10000 3.6 260 23:19 17.01.2020
4155 Clouds 3 1011 86 10000 4.1 240 22:44 17.01.2020
4156 Clear 3 1011 86 10000 4.6 220 22:21 17.01.2020
4157 Rain 4 1011 80 10000 6.7 290 21:58 17.01.2020
4158 Clear 4 1010 75 10000 3.1 250 21:40 17.01.2020
4159 Clear 4 1010 75 10000 3.1 250 21:22 17.01.2020
4160 Clouds 4 1010 80 10000 5.7 260 20:57 17.01.2020
4161 Rain 4 1009 80 10000 5.7 260 20:37 17.01.2020
4162 Rain 4 1009 80 10000 5.7 260 20:19 17.01.2020
4163 Clouds 5 1009 80 10000 5.1 250 19:55 17.01.2020
4164 Rain 5 1008 80 10000 6.2 260 19:37 17.01.2020
4165 Rain 5 1008 80 10000 6.2 260 19:18 17.01.2020
4166 Clouds 4 1008 93 10000 4.1 240 18:45 17.01.2020
4167 Rain 4 1007 93 10000 6.7 240 18:27 17.01.2020
4168 Clouds 4 1007 86 10000 4.6 240 17:56 17.01.2020
4169 Clouds 4 1007 86 10000 4.1 240 17:38 17.01.2020
4170 Clouds 5 1007 86 10000 4.1 240 17:20 17.01.2020
4171 Rain 5 1006 81 10000 4.1 250 16:42 17.01.2020
4172 Clouds 5 1006 86 10000 3.6 240 16:42 17.01.2020
4173 Rain 6 1006 81 10000 4.1 250 16:20 17.01.2020
4174 Rain 6 1006 81 10000 4.6 250 15:48 17.01.2020
4175 Rain 6 1005 87 10000 7.7 240 15:28 17.01.2020
4176 Rain 6 1005 87 8000 6.2 240 14:56 17.01.2020
4177 Rain 6 1005 87 8000 6.2 240 14:56 17.01.2020
4178 Rain 6 1005 81 10000 8.2 230 14:38 17.01.2020
4179 Rain 6 1005 81 10000 8.2 230 14:20 17.01.2020
4180 Rain 6 1005 81 10000 8.2 230 14:20 17.01.2020
4181 Clouds 6 1004 75 10000 7.7 230 13:41 17.01.2020
4182 Clouds 6 1004 75 10000 6.7 230 13:22 17.01.2020
4183 Clouds 5 1004 80 10000 6.2 220 12:46 17.01.2020
4184 Clouds 5 1004 80 10000 7.7 220 12:23 17.01.2020
4185 Clouds 5 1004 80 10000 7.7 220 12:23 17.01.2020
4186 Clouds 4 1004 86 10000 6.2 210 11:41 17.01.2020
4187 Clouds 3 1004 86 10000 5.7 220 11:20 17.01.2020
4188 Clouds 3 1004 86 10000 4.1 220 10:55 17.01.2020
4189 Clouds 3 1003 86 10000 3.1 190 10:36 17.01.2020
4190 Clouds 3 1003 86 10000 3.1 190 10:18 17.01.2020
4191 Clouds 3 1003 86 10000 2.6 180 09:42 17.01.2020
4192 Clouds 3 1003 86 10000 2.6 200 09:20 17.01.2020
4193 Clouds 3 1002 86 10000 4.1 200 08:55 17.01.2020
4194 Clouds 3 1002 86 10000 5.1 210 08:37 17.01.2020
4195 Clouds 4 1002 86 10000 5.1 210 08:18 17.01.2020
4196 Clouds 4 1002 86 10000 5.7 210 07:43 17.01.2020
4197 Clouds 4 1002 86 10000 4.6 200 07:24 17.01.2020
4198 Clouds 4 1002 93 10000 3.1 180 06:43 17.01.2020
4199 Clouds 4 1001 86 10000 3.6 200 06:20 17.01.2020
4200 Clouds 5 1001 81 10000 2.1 140 04:25 17.01.2020
4201 Clouds 6 1000 86 0 6.71 220 02:55 17.01.2020
4202 Clouds 6 1000 86 0 6.71 220 02:30 17.01.2020
4203 Rain 6 1000 84 0 1.34 148 01:32 17.01.2020
4204 Rain 6 1000 81 0 9.39 210 00:58 17.01.2020
4205 Rain 7 998 75 0 9.39 210 00:29 17.01.2020
4206 Clouds 7 997 81 10000 8.7 210 23:54 16.01.2020
4207 Clouds 7 997 81 10000 8.7 210 23:54 16.01.2020
4208 Clouds 7 997 81 10000 8.7 210 23:36 16.01.2020
4209 Clouds 7 997 81 10000 8.7 210 23:18 16.01.2020
4210 Clouds 8 997 75 10000 10.8 210 22:40 16.01.2020
4211 Clouds 8 996 75 10000 11.3 210 22:21 16.01.2020
4212 Clouds 8 995 81 10000 10.8 210 21:56 16.01.2020
4213 Clouds 8 995 81 10000 8.7 210 21:37 16.01.2020
4214 Clouds 8 995 81 10000 8.7 210 21:18 16.01.2020
4215 Clouds 8 994 81 10000 8.7 230 20:56 16.01.2020
4216 Clouds 9 993 87 10000 11.3 220 20:37 16.01.2020
4217 Clouds 9 993 87 10000 11.3 220 20:18 16.01.2020
4218 Rain 10 992 87 10000 11.8 210 19:54 16.01.2020
4219 Rain 10 992 87 10000 11.8 210 19:54 16.01.2020
4220 Rain 10 992 81 10000 9.8 190 19:36 16.01.2020
4221 Rain 10 992 81 10000 9.8 190 19:18 16.01.2020
4222 Rain 10 992 87 10000 9.8 180 18:54 16.01.2020
4223 Rain 10 992 81 9000 9.3 170 18:36 16.01.2020
4224 Rain 9 992 81 9000 9.3 170 18:18 16.01.2020
4225 Clouds 9 991 81 10000 10.3 160 17:41 16.01.2020
4226 Rain 8 992 81 10000 7.7 140 17:21 16.01.2020
4227 Rain 8 993 93 10000 6.7 100 16:56 16.01.2020
4228 Rain 8 994 87 10000 6.7 110 16:37 16.01.2020
4229 Rain 8 994 87 10000 6.7 110 16:18 16.01.2020
4230 Rain 8 996 81 10000 6.7 120 15:44 16.01.2020
4231 Rain 8 997 75 10000 6.7 110 15:21 16.01.2020
4232 Clouds 8 998 75 10000 7.7 110 14:55 16.01.2020
4233 Clouds 8 999 81 10000 6.2 100 14:37 16.01.2020
4234 Clouds 8 999 81 10000 6.2 100 14:18 16.01.2020
4235 Clouds 9 1000 76 10000 6.2 110 13:43 16.01.2020
4236 Clouds 8 1001 76 10000 6.7 140 13:24 16.01.2020
4237 Clouds 9 1002 76 10000 7.2 130 12:45 16.01.2020
4238 Clouds 9 1003 81 10000 6.2 140 12:27 16.01.2020
4239 Clouds 8 1003 87 10000 7.7 150 11:54 16.01.2020
4240 Clouds 8 1003 87 10000 6.2 130 11:36 16.01.2020
4241 Clouds 8 1003 87 10000 6.2 130 11:18 16.01.2020
4242 Rain 8 1003 81 8000 5.1 150 10:38 16.01.2020
4243 Rain 8 1003 81 8000 5.1 150 10:20 16.01.2020
4244 Rain 8 1003 81 10000 5.7 160 09:56 16.01.2020
4245 Rain 8 1004 87 10000 4.6 160 09:37 16.01.2020
4246 Rain 8 1004 87 10000 4.6 160 09:19 16.01.2020
4247 Rain 8 1004 87 10000 3.6 150 08:48 16.01.2020
4248 Rain 8 1004 87 10000 4.1 110 08:29 16.01.2020
4249 Rain 6 1005 87 10000 3.1 140 07:44 16.01.2020
4250 Rain 6 1005 87 10000 3.1 120 07:25 16.01.2020
4251 Rain 6 1006 81 10000 4.1 140 06:59 16.01.2020
4252 Rain 6 1006 87 10000 2.6 110 06:37 16.01.2020
4253 Rain 6 1007 81 10000 3.6 150 05:58 16.01.2020
4254 Rain 6 1007 81 10000 3.1 150 05:39 16.01.2020
4255 Clouds 6 1008 81 10000 3.1 160 04:37 16.01.2020
4256 Clouds 6 1008 81 10000 3.1 160 04:37 16.01.2020
4257 Clouds 5 1007 81 10000 5.7 210 03:28 16.01.2020
4258 Clouds 5 1006 81 10000 8.2 220 02:36 16.01.2020
4259 Clouds 5 1005 81 10000 9.8 220 00:48 16.01.2020
4260 Clouds 6 1004 81 10000 8.7 220 00:24 16.01.2020
4261 Clouds 6 1004 75 10000 7.7 230 23:48 15.01.2020
4262 Clouds 6 1003 81 10000 7.2 220 23:23 15.01.2020
4263 Clear 6 1003 81 10000 9.3 220 22:57 15.01.2020
4264 Clear 6 1002 81 10000 10.8 220 22:39 15.01.2020
4265 Clear 6 1002 81 10000 10.8 220 22:19 15.01.2020
4266 Clear 6 1001 81 10000 11.3 220 21:57 15.01.2020
4267 Clear 6 1000 70 10000 11.3 230 21:37 15.01.2020
4268 Clear 6 1000 70 10000 11.3 230 21:19 15.01.2020
4269 Clouds 6 1000 70 10000 8.7 230 20:57 15.01.2020
4270 Clouds 6 1000 70 10000 8.7 230 20:39 15.01.2020
4271 Clouds 6 999 70 10000 8.7 220 20:39 15.01.2020
4272 Clouds 7 999 70 10000 8.7 220 20:20 15.01.2020
4273 Clouds 7 998 70 10000 11.3 230 19:55 15.01.2020
4274 Rain 7 997 70 10000 12.9 220 19:37 15.01.2020
4275 Rain 7 997 70 10000 12.9 220 19:18 15.01.2020
4276 Rain 7 996 70 10000 14.9 220 18:56 15.01.2020
4277 Rain 7 995 75 10000 14.4 220 18:38 15.01.2020
4278 Rain 7 995 75 10000 14.4 220 18:19 15.01.2020
4279 Rain 7 995 75 10000 14.4 220 18:19 15.01.2020
4280 Rain 7 995 75 10000 14.4 220 18:19 15.01.2020
4281 Rain 7 994 75 10000 15.4 220 17:55 15.01.2020
4282 Rain 7 994 81 10000 14.9 220 17:37 15.01.2020
4283 Rain 7 994 81 10000 14.9 220 17:18 15.01.2020
4284 Rain 7 993 87 9000 13.4 220 16:40 15.01.2020
4285 Rain 7 993 87 9000 13.4 220 16:21 15.01.2020
4286 Rain 7 993 87 7000 12.9 220 15:57 15.01.2020
4287 Clouds 7 992 75 10000 12.9 210 15:39 15.01.2020
4288 Clouds 7 992 75 10000 12.9 210 15:18 15.01.2020
4289 Rain 7 992 75 10000 12.9 220 14:43 15.01.2020
4290 Clouds 7 991 75 10000 14.4 220 14:20 15.01.2020
4291 Clouds 7 991 70 10000 14.9 210 13:46 15.01.2020
4292 Clouds 7 990 75 10000 15.4 220 13:26 15.01.2020
4293 Clouds 7 990 75 10000 13.4 210 12:59 15.01.2020
4294 Clouds 7 990 75 10000 13.4 210 12:39 15.01.2020
4295 Clouds 6 989 75 10000 13.9 220 12:19 15.01.2020
4296 Clouds 6 989 75 10000 13.9 220 12:19 15.01.2020
4297 Clouds 6 989 75 10000 14.4 210 11:56 15.01.2020
4298 Clouds 6 989 75 10000 12.3 210 11:37 15.01.2020
4299 Clouds 6 989 75 10000 12.3 210 11:19 15.01.2020
4300 Clouds 5 988 75 10000 13.9 220 10:43 15.01.2020
4301 Clouds 5 988 75 10000 13.4 220 10:25 15.01.2020
4302 Clouds 5 988 75 10000 11.8 220 09:44 15.01.2020
4303 Clouds 5 987 75 10000 11.8 220 09:23 15.01.2020
4304 Clouds 5 987 75 10000 12.9 210 08:56 15.01.2020
4305 Clouds 5 986 75 10000 11.3 210 08:38 15.01.2020
4306 Clouds 5 986 75 10000 11.3 210 08:19 15.01.2020
4307 Clouds 5 986 75 10000 13.9 210 07:51 15.01.2020
4308 Clouds 5 986 80 10000 12.3 210 07:31 15.01.2020
4309 Clouds 5 986 80 10000 12.3 210 06:45 15.01.2020
4310 Clouds 4 985 80 10000 11.3 210 06:19 15.01.2020
4311 Clouds 4 985 75 10000 12.3 210 04:36 15.01.2020
4312 Clouds 4 984 75 10000 12.3 220 02:32 15.01.2020
4313 Clouds 4 984 75 10000 11.3 220 01:27 15.01.2020
4314 Clouds 4 983 75 10000 11.3 210 00:45 15.01.2020
4315 Clouds 4 983 75 10000 11.3 210 00:26 15.01.2020
4316 Clouds 4 982 75 10000 10.3 210 23:48 14.01.2020
4317 Clouds 4 982 75 10000 11.3 210 23:29 14.01.2020
4318 Clouds 4 982 80 10000 10.3 210 22:59 14.01.2020
4319 Clouds 4 982 80 10000 10.3 210 22:40 14.01.2020
4320 Clouds 4 982 75 10000 10.3 210 22:19 14.01.2020
4321 Clouds 4 981 75 10000 9.8 220 21:58 14.01.2020
4322 Clouds 4 981 80 10000 6.7 230 21:39 14.01.2020
4323 Clouds 4 981 80 10000 6.7 230 21:20 14.01.2020
4324 Clouds 4 980 86 10000 6.7 220 20:56 14.01.2020
4325 Snow 4 979 80 10000 6.7 220 20:38 14.01.2020
4326 Snow 4 979 80 10000 6.7 220 20:19 14.01.2020
4327 Snow 4 979 80 10000 6.7 220 19:55 14.01.2020
4328 Rain 4 979 80 10000 7.2 220 19:37 14.01.2020
4329 Rain 4 979 80 10000 7.2 220 19:18 14.01.2020
4330 Rain 4 979 86 10000 5.7 210 18:41 14.01.2020
4331 Rain 4 978 93 10000 4.6 190 18:20 14.01.2020
4332 Rain 4 978 93 10000 4.6 190 17:58 14.01.2020
4333 Rain 3 979 93 10000 5.1 190 17:37 14.01.2020
4334 Rain 4 979 93 10000 5.1 190 17:18 14.01.2020
4335 Rain 4 979 86 10000 4.1 180 16:44 14.01.2020
4336 Rain 4 979 86 10000 3.6 180 16:23 14.01.2020
4337 Rain 4 979 86 10000 4.1 180 15:58 14.01.2020
4338 Rain 4 979 80 10000 6.2 180 15:40 14.01.2020
4339 Rain 4 979 80 10000 6.2 180 15:19 14.01.2020
4340 Rain 5 980 80 10000 7.2 190 14:45 14.01.2020
4341 Clouds 5 980 80 10000 7.2 190 14:21 14.01.2020
4342 Rain 6 981 75 10000 8.7 200 13:57 14.01.2020
4343 Clouds 6 982 75 10000 8.7 190 13:38 14.01.2020
4344 Clouds 6 982 75 10000 8.7 190 13:18 14.01.2020
4345 Clouds 6 982 75 10000 8.7 190 13:18 14.01.2020
4346 Clouds 5 982 80 10000 7.2 190 12:42 14.01.2020
4347 Rain 5 982 80 10000 8.2 200 12:21 14.01.2020
4348 Clouds 5 982 80 10000 6.7 190 11:55 14.01.2020
4349 Clouds 5 983 80 10000 7.2 210 11:36 14.01.2020
4350 Clouds 5 983 80 10000 7.2 210 11:18 14.01.2020
4351 Rain 4 982 75 10000 10.3 210 10:40 14.01.2020
4352 Rain 4 982 75 10000 10.3 210 10:20 14.01.2020
4353 Clouds 4 982 75 10000 10.8 210 09:58 14.01.2020
4354 Clouds 4 982 75 10000 10.8 210 09:58 14.01.2020
4355 Clouds 4 982 75 10000 10.8 210 09:40 14.01.2020
4356 Clouds 4 983 75 10000 9.3 210 09:21 14.01.2020
4357 Clouds 4 983 75 10000 11.3 210 08:48 14.01.2020
4358 Clouds 4 982 77 10000 11.3 210 08:25 14.01.2020
4359 Snow 4 982 75 10000 12.3 210 07:56 14.01.2020
4360 Clouds 4 982 75 10000 11.3 210 07:33 14.01.2020
4361 Clouds 4 982 75 10000 12.3 220 06:56 14.01.2020
4362 Clouds 4 982 71 10000 11.8 220 06:33 14.01.2020
4363 Clouds 4 982 71 10000 13.4 220 05:27 14.01.2020
4364 Rain 4 981 75 10000 12.3 220 03:52 14.01.2020
4365 Clouds 5 980 75 10000 13.4 220 02:50 14.01.2020
4366 Clouds 5 980 75 10000 12.9 220 01:55 14.01.2020
4367 Snow 5 978 75 10000 11.3 210 00:51 14.01.2020
4368 Rain 6 978 75 10000 13.9 220 00:33 14.01.2020
4369 Rain 5 978 75 10000 13.9 220 00:33 14.01.2020
4370 Clouds 6 978 75 10000 14.4 220 23:55 13.01.2020
4371 Clouds 6 977 75 10000 13.4 210 23:37 13.01.2020
4372 Clouds 7 977 75 10000 13.4 210 23:18 13.01.2020
4373 Clouds 7 977 75 10000 13.4 210 23:18 13.01.2020
4374 Rain 7 977 81 10000 14.9 210 22:42 13.01.2020
4375 Rain 7 977 75 10000 14.9 210 22:21 13.01.2020
4376 Clouds 7 976 75 10000 14.4 200 21:57 13.01.2020
4377 Rain 7 976 81 10000 13.4 200 21:38 13.01.2020
4378 Rain 7 976 81 10000 13.4 200 21:38 13.01.2020
4379 Rain 7 976 81 10000 13.4 200 21:19 13.01.2020
4380 Clouds 7 976 81 10000 15.4 210 20:58 13.01.2020
4381 Clouds 7 976 81 10000 15.4 210 20:40 13.01.2020
4382 Rain 7 975 75 10000 13.9 200 20:22 13.01.2020
4383 Rain 7 975 81 5000 11.8 190 19:58 13.01.2020
4384 Rain 7 975 81 5000 11.8 190 19:58 13.01.2020
4385 Rain 7 975 81 5000 11.8 190 19:39 13.01.2020
4386 Clouds 7 975 70 10000 12.3 190 19:19 13.01.2020
4387 Clouds 7 975 70 10000 13.4 200 18:56 13.01.2020
4388 Rain 7 975 81 10000 12.3 200 18:37 13.01.2020
4389 Rain 7 975 81 10000 12.3 200 18:37 13.01.2020
4390 Rain 7 975 81 10000 12.3 200 18:18 13.01.2020
4391 Rain 7 976 87 3800 14.9 160 17:40 13.01.2020
4392 Rain 7 976 87 3800 14.9 160 17:40 13.01.2020
4393 Rain 7 976 87 3800 14.9 160 17:22 13.01.2020
4394 Rain 6 977 87 5000 12.9 160 16:56 13.01.2020
4395 Rain 6 977 86 0 12.52 160 16:37 13.01.2020
4396 Rain 6 979 81 0 12.52 160 16:19 13.01.2020
4397 Rain 7 981 81 0 9.39 160 15:43 13.01.2020
4398 Rain 7 983 81 0 11.18 160 15:22 13.01.2020
4399 Rain 7 985 86 0 3.58 245 14:57 13.01.2020
4400 Rain 7 988 81 0 3.58 338 14:37 13.01.2020
4401 Clouds 7 987 87 0 8.49 150 14:18 13.01.2020
4402 Clouds 7 989 75 0 9.39 140 13:41 13.01.2020
4403 Clouds 7 993 84 0 3.13 338 13:23 13.01.2020
4404 Rain 7 990 75 0 7.15 140 12:58 13.01.2020
4405 Clouds 7 995 75 10000 5.7 140 12:40 13.01.2020
4406 Clouds 7 995 75 10000 5.7 140 12:22 13.01.2020
4407 Clouds 7 995 75 10000 5.7 140 11:56 13.01.2020
4408 Clouds 7 995 75 10000 7.7 150 11:37 13.01.2020
4409 Clouds 6 995 75 10000 7.7 150 11:18 13.01.2020
4410 Clouds 6 997 81 10000 4.1 110 10:55 13.01.2020
4411 Clouds 6 998 80 10000 4.6 110 10:36 13.01.2020
4412 Clouds 5 998 80 10000 4.6 110 10:18 13.01.2020
4413 Clouds 5 1000 80 10000 6.7 160 09:40 13.01.2020
4414 Clouds 4 1000 80 10000 6.7 160 09:22 13.01.2020
4415 Clouds 4 1000 80 10000 6.2 160 08:42 13.01.2020
4416 Clouds 4 1001 80 10000 7.2 170 08:21 13.01.2020
4417 Clouds 4 1002 80 10000 8.2 180 07:57 13.01.2020
4418 Clouds 4 1003 86 10000 4.6 170 07:38 13.01.2020
4419 Clouds 4 1003 86 10000 3.6 150 06:55 13.01.2020
4420 Clouds 4 1004 80 10000 6.2 170 06:36 13.01.2020
4421 Clouds 4 1004 80 10000 6.2 170 06:36 13.01.2020
4422 Clouds 4 1005 86 10000 6.2 180 05:36 13.01.2020
4423 Clouds 4 1006 86 10000 6.2 210 04:25 13.01.2020
4424 Clouds 4 1007 86 10000 5.7 210 03:31 13.01.2020
4425 Clouds 4 1007 75 10000 8.2 230 02:47 13.01.2020
4426 Clouds 4 1008 86 10000 6.2 220 02:29 13.01.2020
4427 Clouds 4 1008 86 10000 6.2 210 01:23 13.01.2020
4428 Clouds 4 1008 86 10000 6.2 220 00:42 13.01.2020
4429 Clouds 4 1009 86 10000 6.7 220 00:24 13.01.2020
4430 Clouds 4 1009 81 10000 6.7 220 23:55 12.01.2020
4431 Clouds 4 1009 86 10000 7.2 210 23:36 12.01.2020
4432 Clouds 4 1009 86 10000 7.2 210 23:18 12.01.2020
4433 Clouds 4 1009 86 10000 7.2 210 23:18 12.01.2020
4434 Clouds 4 1010 86 10000 7.2 210 22:42 12.01.2020
4435 Clouds 4 1010 86 10000 4.1 220 22:24 12.01.2020
4436 Clouds 4 1010 80 10000 4.6 220 21:57 12.01.2020
4437 Clouds 4 1010 80 10000 4.6 220 21:38 12.01.2020
4438 Clouds 4 1010 80 10000 4.6 220 21:19 12.01.2020
4439 Clouds 4 1010 80 10000 3.1 220 20:56 12.01.2020
4440 Clouds 4 1010 80 10000 4.6 240 20:38 12.01.2020
4441 Clouds 4 1010 80 10000 4.6 240 20:20 12.01.2020
4442 Clouds 4 1010 80 10000 8.2 240 19:56 12.01.2020
4443 Clouds 4 1010 86 10000 3.1 250 19:37 12.01.2020
4444 Clouds 4 1010 86 10000 3.1 250 19:18 12.01.2020
4445 Rain 4 1011 86 10000 5.1 250 18:57 12.01.2020
4446 Rain 4 1011 86 10000 5.1 250 18:57 12.01.2020
4447 Rain 4 1011 86 10000 5.1 250 18:39 12.01.2020
4448 Clouds 4 1010 86 10000 7.2 230 18:21 12.01.2020
4449 Rain 4 1011 80 10000 9.3 230 17:54 12.01.2020
4450 Clouds 4 1010 86 10000 5.7 250 17:36 12.01.2020
4451 Clouds 4 1010 86 10000 5.7 250 17:18 12.01.2020
4452 Rain 4 1010 86 8000 4.6 260 16:54 12.01.2020
4453 Rain 4 1010 80 10000 9.3 230 16:36 12.01.2020
4454 Rain 5 1010 80 10000 9.3 230 16:18 12.01.2020
4455 Clouds 5 1010 75 10000 7.2 240 15:40 12.01.2020
4456 Clouds 5 1010 75 10000 7.2 240 15:21 12.01.2020
4457 Rain 5 1010 80 10000 10.8 250 14:44 12.01.2020
4458 Clouds 6 1010 75 10000 5.1 250 14:25 12.01.2020
4459 Clouds 6 1010 87 10000 5.7 250 13:58 12.01.2020
4460 Clouds 6 1010 81 10000 5.7 250 13:40 12.01.2020
4461 Clouds 6 1010 81 10000 5.7 250 13:22 12.01.2020
4462 Rain 5 1010 81 10000 6.7 240 12:58 12.01.2020
4463 Rain 5 1010 86 10000 6.7 260 12:38 12.01.2020
4464 Rain 5 1010 86 10000 6.7 260 12:19 12.01.2020
4465 Rain 5 1009 86 10000 5.1 260 11:42 12.01.2020
4466 Rain 5 1009 93 10000 6.2 270 11:22 12.01.2020
4467 Rain 5 1008 81 10000 5.7 250 10:58 12.01.2020
4468 Clouds 5 1008 87 10000 4.6 250 10:40 12.01.2020
4469 Clouds 5 1008 87 10000 4.6 250 10:20 12.01.2020
4470 Rain 5 1007 87 10000 3.6 250 09:43 12.01.2020
4471 Rain 5 1007 93 9000 3.1 240 09:24 12.01.2020
4472 Drizzle 4 1006 93 4700 2.1 230 08:48 12.01.2020
4473 Rain 4 1007 93 10000 3.1 220 08:25 12.01.2020
4474 Clouds 3 1007 100 10000 0.5 0 07:56 12.01.2020
4475 Clouds 3 1007 100 10000 1.5 70 07:37 12.01.2020
4476 Clouds 4 1007 100 10000 1.5 70 07:19 12.01.2020
4477 Clouds 4 1008 93 10000 0.5 0 06:38 12.01.2020
4478 Clouds 4 1008 93 10000 1.5 100 05:58 12.01.2020
4479 Clouds 4 1008 93 10000 1 0 04:56 12.01.2020
4480 Clouds 4 1009 86 10000 2.6 270 03:43 12.01.2020
4481 Clouds 4 1009 93 10000 4.1 210 02:48 12.01.2020
4482 Clouds 5 1009 93 10000 3.1 190 02:24 12.01.2020
4483 Clouds 5 1009 86 10000 1 0 01:34 12.01.2020
4484 Clouds 5 1008 86 10000 2.6 270 00:46 12.01.2020
4485 Clouds 5 1008 86 10000 2.6 270 00:22 12.01.2020
4486 Clouds 5 1008 87 10000 6.2 230 23:57 11.01.2020
4487 Clouds 5 1008 93 10000 5.1 230 23:39 11.01.2020
4488 Rain 5 1008 93 10000 5.1 230 23:18 11.01.2020
4489 Rain 6 1008 93 10000 3.6 250 22:56 11.01.2020
4490 Rain 6 1008 93 10000 5.1 220 22:37 11.01.2020
4491 Rain 6 1008 93 10000 5.1 220 22:19 11.01.2020
4492 Clouds 6 1007 93 10000 6.2 220 21:44 11.01.2020
4493 Rain 7 1007 93 10000 4.1 210 21:19 11.01.2020
4494 Rain 7 1006 87 9000 6.2 270 20:56 11.01.2020
4495 Rain 7 1006 87 10000 5.7 250 20:38 11.01.2020
4496 Rain 7 1006 87 10000 5.7 250 20:19 11.01.2020
4497 Rain 8 1006 87 9000 6.7 260 19:56 11.01.2020
4498 Rain 8 1005 93 8000 6.7 250 19:38 11.01.2020
4499 Rain 8 1005 93 8000 6.7 250 19:20 11.01.2020
4500 Rain 8 1005 93 4900 6.7 250 18:55 11.01.2020
4501 Rain 8 1005 93 10000 5.7 240 18:36 11.01.2020
4502 Rain 8 1005 93 10000 5.7 240 18:36 11.01.2020
4503 Rain 8 1005 93 10000 5.7 240 18:18 11.01.2020
4504 Rain 9 1004 87 8000 9.3 220 17:56 11.01.2020
4505 Rain 9 1004 87 10000 9.8 220 17:37 11.01.2020
4506 Rain 9 1004 87 10000 9.8 220 17:18 11.01.2020
4507 Rain 9 1004 93 10000 7.2 220 16:43 11.01.2020
4508 Rain 9 1004 93 10000 6.7 230 16:23 11.01.2020
4509 Rain 9 1004 93 10000 6.7 220 15:43 11.01.2020
4510 Rain 9 1004 93 10000 6.7 220 15:24 11.01.2020
4511 Rain 9 1004 93 10000 8.2 220 14:59 11.01.2020
4512 Rain 9 1003 93 10000 6.2 220 14:41 11.01.2020
4513 Rain 9 1003 93 10000 6.2 220 14:22 11.01.2020
4514 Rain 9 1004 93 10000 6.7 230 13:55 11.01.2020
4515 Rain 9 1003 93 9000 5.7 220 13:37 11.01.2020
4516 Rain 9 1003 93 9000 5.7 220 13:18 11.01.2020
4517 Rain 9 1003 93 10000 3.6 240 12:44 11.01.2020
4518 Rain 10 1003 93 6000 5.7 250 12:26 11.01.2020
4519 Rain 11 1002 93 5000 8.2 260 11:55 11.01.2020
4520 Rain 11 1001 87 10000 15.9 210 11:37 11.01.2020
4521 Rain 11 1001 87 10000 15.9 210 11:18 11.01.2020
4522 Rain 11 1001 87 10000 15.9 210 11:18 11.01.2020
4523 Rain 11 1001 87 5000 13.9 200 10:43 11.01.2020
4524 Rain 11 1001 87 5000 13.9 200 10:24 11.01.2020
4525 Clouds 11 1002 87 10000 13.9 200 09:39 11.01.2020
4526 Clouds 11 1002 87 10000 13.9 200 09:21 11.01.2020
4527 Clouds 11 1002 87 10000 13.9 200 09:21 11.01.2020
4528 Clouds 11 1002 81 10000 14.4 200 08:43 11.01.2020
4529 Rain 11 1003 87 10000 14.9 200 08:23 11.01.2020
4530 Drizzle 11 1003 93 4700 13.9 200 07:45 11.01.2020
4531 Rain 11 1003 93 2400 15.4 200 07:26 11.01.2020
4532 Clouds 11 1003 87 8000 14.9 200 06:56 11.01.2020
4533 Rain 10 1004 93 4600 13.9 200 06:22 11.01.2020
4534 Rain 10 1005 87 3800 15.9 190 04:48 11.01.2020
4535 Rain 10 1005 87 10000 14.4 190 04:30 11.01.2020
4536 Rain 10 1006 93 2900 13.9 190 03:49 11.01.2020
4537 Rain 10 1007 87 7000 13.4 200 02:41 11.01.2020
4538 Rain 10 1007 87 10000 12.9 200 01:44 11.01.2020
4539 Rain 9 1008 87 10000 12.9 200 01:20 11.01.2020
4540 Drizzle 9 1009 93 4200 12.3 200 00:46 11.01.2020
4541 Rain 9 1009 87 4500 13.9 200 00:20 11.01.2020
4542 Rain 8 1009 87 10000 14.4 200 23:41 10.01.2020
4543 Rain 8 1009 87 10000 14.4 200 23:22 10.01.2020
4544 Rain 8 1010 87 3600 12.9 200 22:59 10.01.2020
4545 Rain 8 1010 87 3600 12.9 200 22:40 10.01.2020
4546 Rain 8 1010 87 4200 8.7 190 22:21 10.01.2020
4547 Rain 7 1011 93 6000 8.2 190 21:57 10.01.2020
4548 Rain 7 1012 93 3700 11.8 180 21:38 10.01.2020
4549 Rain 7 1012 93 3700 11.8 180 21:19 10.01.2020
4550 Rain 7 1013 87 4100 10.3 190 20:43 10.01.2020
4551 Rain 7 1013 87 7000 10.3 190 20:24 10.01.2020
4552 Rain 7 1013 87 7000 10.3 190 20:24 10.01.2020
4553 Rain 6 1013 87 8000 8.2 190 19:59 10.01.2020
4554 Rain 6 1014 87 10000 7.7 190 19:38 10.01.2020
4555 Rain 6 1014 87 10000 7.7 190 19:19 10.01.2020
4556 Rain 6 1015 81 10000 9.3 190 18:43 10.01.2020
4557 Rain 6 1015 75 10000 8.2 180 18:19 10.01.2020
4558 Clouds 6 1016 75 10000 9.8 190 17:58 10.01.2020
4559 Clouds 6 1016 81 10000 6.2 170 17:39 10.01.2020
4560 Clouds 6 1016 81 10000 6.2 170 17:20 10.01.2020
4561 Clouds 5 1016 81 10000 6.2 180 16:58 10.01.2020
4562 Clouds 5 1017 75 10000 8.7 180 16:39 10.01.2020
4563 Clouds 5 1017 75 10000 8.7 180 16:20 10.01.2020
4564 Clouds 5 1017 81 10000 5.1 190 15:56 10.01.2020
4565 Clouds 5 1017 81 10000 4.1 190 15:37 10.01.2020
4566 Clouds 5 1017 81 10000 4.1 190 15:18 10.01.2020
4567 Clouds 5 1018 87 10000 6.7 200 14:55 10.01.2020
4568 Clouds 5 1018 93 8000 0.5 0 14:37 10.01.2020
4569 Clouds 5 1018 93 8000 0.5 0 14:18 10.01.2020
4570 Clouds 5 1019 100 6000 1 0 13:44 10.01.2020
4571 Clouds 5 1019 100 10000 1 0 13:26 10.01.2020
4572 Mist 4 1019 100 5000 2.1 50 12:59 10.01.2020
4573 Mist 4 1019 100 5000 2.1 10 12:39 10.01.2020
4574 Mist 3 1019 100 5000 2.1 10 12:19 10.01.2020
4575 Mist 3 1019 100 5000 2.1 10 12:19 10.01.2020
4576 Mist 3 1019 100 5000 1 0 11:56 10.01.2020
4577 Mist 2 1019 100 5000 1.5 0 11:38 10.01.2020
4578 Mist 2 1019 100 5000 1.5 0 11:18 10.01.2020
4579 Mist 2 1019 94 5000 1 0 10:57 10.01.2020
4580 Mist 1 1019 94 5000 1.5 0 10:36 10.01.2020
4581 Mist 1 1019 94 5000 1.5 0 10:18 10.01.2020
4582 Mist 1 1018 94 3300 1.5 230 09:42 10.01.2020
4583 Mist 1 1018 100 4600 1 0 09:23 10.01.2020
4584 Mist 2 1018 94 5000 2.1 260 08:43 10.01.2020
4585 Mist 1 1018 93 4700 2.1 220 08:24 10.01.2020
4586 Mist 1 1017 93 4500 1.5 230 07:46 10.01.2020
4587 Mist 1 1017 93 5000 1 0 07:28 10.01.2020
4588 Drizzle 1 1016 93 4000 1.5 50 06:50 10.01.2020
4589 Mist 0 1016 93 5000 1.5 90 06:26 10.01.2020
4590 Mist 0 1016 93 4900 1 80 05:51 10.01.2020
4591 Mist -1 1015 100 4500 1 0 03:46 10.01.2020
4592 Fog -2 1014 100 500 0.5 0 03:27 10.01.2020
4593 Fog -1 1014 100 150 0.5 0 02:50 10.01.2020
4594 Fog -1 1014 92 200 1 0 01:47 10.01.2020
4595 Fog -1 1014 92 200 1 0 01:47 10.01.2020
4596 Fog -1 1013 100 400 0.5 0 01:28 10.01.2020
4597 Fog -1 1013 100 5000 1 290 00:44 10.01.2020
4598 Fog -1 1012 100 5000 1 270 23:58 09.01.2020
4599 Fog -1 1011 100 10000 1 0 23:39 09.01.2020
4600 Fog 0 1011 100 10000 1 0 23:20 09.01.2020
4601 Clear 0 1011 92 10000 0.5 0 22:57 09.01.2020
4602 Fog 0 1011 90 10000 0.5 0 22:39 09.01.2020
4603 Fog 0 1011 90 10000 0.5 0 22:19 09.01.2020
4604 Clear 1 1010 90 10000 1.1 293 21:57 09.01.2020
4605 Clouds 0 1010 90 10000 0.5 0 21:38 09.01.2020
4606 Clouds 1 1010 90 10000 0.5 0 21:19 09.01.2020
4607 Clouds 1 1010 90 10000 1 280 20:57 09.01.2020
4608 Clouds 1 1010 90 10000 1 280 20:39 09.01.2020
4609 Clouds 1 1009 92 10000 0.5 320 20:19 09.01.2020
4610 Clouds 1 1009 92 10000 0.5 320 19:57 09.01.2020
4611 Clouds 1 1009 92 10000 0.5 0 19:37 09.01.2020
4612 Clouds 1 1008 92 10000 2.1 250 19:19 09.01.2020
4613 Clouds 1 1008 92 10000 2.6 220 18:55 09.01.2020
4614 Clouds 1 1008 92 10000 2.6 220 18:36 09.01.2020
4615 Clouds 2 1007 93 10000 1.5 250 18:18 09.01.2020
4616 Clouds 2 1007 86 10000 1.5 310 17:41 09.01.2020
4617 Clouds 3 1006 86 10000 1 280 17:18 09.01.2020
4618 Clouds 3 1006 86 10000 1.5 280 16:49 09.01.2020
4619 Clouds 4 1006 86 10000 2.1 280 16:24 09.01.2020
4620 Clouds 4 1006 93 10000 2.1 270 15:57 09.01.2020
4621 Clouds 4 1006 93 10000 2.1 270 15:57 09.01.2020
4622 Clouds 4 1006 93 10000 2.1 270 15:39 09.01.2020
4623 Clouds 4 1005 86 10000 0.5 0 15:18 09.01.2020
4624 Clouds 4 1005 80 10000 0.5 0 14:42 09.01.2020
4625 Clouds 4 1005 93 10000 2.1 230 14:21 09.01.2020
4626 Clouds 4 1005 86 10000 1.5 210 13:57 09.01.2020
4627 Clouds 4 1005 86 10000 1.5 210 13:39 09.01.2020
4628 Clouds 4 1004 80 10000 2.1 110 13:20 09.01.2020
4629 Clouds 4 1004 80 10000 2.1 110 12:58 09.01.2020
4630 Clouds 4 1005 86 10000 2.1 120 12:38 09.01.2020
4631 Rain 3 1005 93 10000 2.6 80 12:19 09.01.2020
4632 Rain 3 1005 93 9000 3.1 30 11:55 09.01.2020
4633 Rain 3 1005 93 9000 3.1 30 11:37 09.01.2020
4634 Rain 3 1005 93 10000 2.6 350 11:19 09.01.2020
4635 Rain 3 1005 93 7000 3.1 10 10:42 09.01.2020
4636 Rain 3 1005 93 6000 2.1 320 10:22 09.01.2020
4637 Rain 3 1004 93 8000 1.5 0 09:49 09.01.2020
4638 Rain 3 1004 93 8000 1.5 0 09:26 09.01.2020
4639 Rain 3 1004 93 6000 1 0 09:00 09.01.2020
4640 Rain 3 1004 93 6000 0.5 0 08:41 09.01.2020
4641 Rain 3 1004 93 8000 0.5 70 08:22 09.01.2020
4642 Rain 3 1004 93 8000 0.5 70 07:57 09.01.2020
4643 Rain 3 1004 93 10000 1 10 07:38 09.01.2020
4644 Clouds 3 1005 93 10000 1.5 10 07:19 09.01.2020
4645 Clouds 3 1005 93 10000 1.5 0 06:38 09.01.2020
4646 Clouds 3 1006 93 10000 2.1 80 06:18 09.01.2020
4647 Snow 2 1006 93 10000 2.1 80 05:40 09.01.2020
4648 Clouds 3 1008 93 10000 2.6 70 04:42 09.01.2020
4649 Clouds 3 1010 93 10000 3.1 70 03:28 09.01.2020
4650 Clouds 3 1010 93 10000 3.1 50 02:47 09.01.2020
4651 Clouds 3 1015 90 0 1.32 131 01:53 09.01.2020
4652 Clouds 3 1013 93 10000 2.6 80 01:33 09.01.2020
4653 Clouds 3 1013 93 10000 2.6 80 00:40 09.01.2020
4654 Clouds 3 1013 93 10000 2.6 60 00:19 09.01.2020
4655 Clouds 3 1014 93 10000 3.1 70 23:41 08.01.2020
4656 Clouds 3 1014 100 10000 2.1 50 23:23 08.01.2020
4657 Clouds 3 1014 93 10000 2.1 40 22:56 08.01.2020
4658 Clouds 2 1014 93 10000 2.1 40 22:38 08.01.2020
4659 Clouds 2 1014 93 10000 1.5 360 22:19 08.01.2020
4660 Clouds 3 1015 86 10000 1.5 0 21:55 08.01.2020
4661 Clouds 3 1015 86 10000 1.5 0 21:37 08.01.2020
4662 Clouds 3 1015 86 10000 3.1 260 21:18 08.01.2020
4663 Clouds 3 1015 86 10000 4.1 240 20:41 08.01.2020
4664 Rain 4 1016 86 10000 4.6 230 20:21 08.01.2020
4665 Rain 4 1016 86 10000 4.6 230 19:59 08.01.2020
4666 Rain 4 1016 86 10000 5.7 210 19:38 08.01.2020
4667 Rain 4 1017 86 10000 5.1 230 19:20 08.01.2020
4668 Rain 4 1017 86 10000 5.1 230 18:58 08.01.2020
4669 Rain 4 1017 86 10000 4.6 230 18:39 08.01.2020
4670 Rain 4 1017 80 10000 7.7 240 18:19 08.01.2020
4671 Rain 4 1017 86 10000 7.2 220 17:57 08.01.2020
4672 Rain 4 1017 86 10000 7.2 220 17:38 08.01.2020
4673 Rain 4 1016 86 10000 5.1 250 17:19 08.01.2020
4674 Rain 4 1016 86 10000 5.1 250 17:19 08.01.2020
4675 Clouds 4 1016 86 10000 6.7 220 16:55 08.01.2020
4676 Clouds 5 1016 86 10000 6.7 220 16:37 08.01.2020
4677 Rain 5 1016 86 10000 8.7 240 16:18 08.01.2020
4678 Rain 5 1016 93 10000 7.7 230 15:44 08.01.2020
4679 Rain 5 1016 93 10000 7.7 230 15:44 08.01.2020
4680 Rain 5 1016 81 10000 5.7 220 15:21 08.01.2020
4681 Rain 5 1016 81 10000 5.7 220 14:58 08.01.2020
4682 Rain 6 1016 81 10000 7.7 230 14:40 08.01.2020
4683 Rain 6 1016 81 10000 6.2 230 14:20 08.01.2020
4684 Rain 5 1016 81 10000 6.2 220 13:41 08.01.2020
4685 Rain 6 1016 81 10000 6.2 220 13:21 08.01.2020
4686 Rain 6 1016 81 10000 6.2 220 13:21 08.01.2020
4687 Rain 5 1016 86 10000 7.7 210 12:54 08.01.2020
4688 Rain 5 1016 86 10000 7.7 210 12:36 08.01.2020
4689 Rain 5 1016 81 10000 6.7 230 12:18 08.01.2020
4690 Rain 5 1015 86 10000 4.1 200 11:47 08.01.2020
4691 Rain 5 1015 86 10000 4.6 220 11:19 08.01.2020
4692 Rain 5 1014 86 10000 6.7 210 10:57 08.01.2020
4693 Rain 5 1014 86 10000 6.7 210 10:39 08.01.2020
4694 Rain 4 1014 80 10000 6.2 220 10:19 08.01.2020
4695 Rain 5 1014 80 10000 6.7 220 09:42 08.01.2020
4696 Rain 5 1013 80 10000 6.2 220 09:20 08.01.2020
4697 Rain 5 1012 75 10000 6.7 240 08:57 08.01.2020
4698 Rain 5 1012 75 10000 6.7 240 08:37 08.01.2020
4699 Rain 5 1012 80 10000 5.7 230 08:19 08.01.2020
4700 Rain 5 1012 81 10000 8.7 220 07:50 08.01.2020
4701 Rain 5 1012 81 10000 8.7 220 07:32 08.01.2020
4702 Rain 5 1011 75 10000 6.7 240 06:49 08.01.2020
4703 Rain 6 1011 75 10000 6.7 240 06:25 08.01.2020
4704 Rain 6 1010 81 10000 6.2 230 05:53 08.01.2020
4705 Clouds 6 1010 81 10000 5.1 220 04:59 08.01.2020
4706 Clouds 6 1009 75 10000 7.2 230 04:26 08.01.2020
4707 Rain 7 1007 81 10000 5.1 250 02:45 08.01.2020
4708 Rain 7 1007 81 10000 5.1 250 02:45 08.01.2020
4709 Rain 8 1006 70 10000 8.7 250 02:23 08.01.2020
4710 Rain 8 1006 76 10000 8.2 250 01:50 08.01.2020
4711 Clouds 8 1005 70 10000 7.7 240 01:23 08.01.2020
4712 Clouds 9 1004 76 10000 7.2 250 00:38 08.01.2020
4713 Rain 9 1004 81 10000 9.8 250 00:20 08.01.2020
4714 Rain 10 1003 81 10000 10.3 250 23:43 07.01.2020
4715 Rain 10 1002 76 7000 13.9 240 23:20 07.01.2020
4716 Rain 10 1002 76 7000 13.9 240 23:20 07.01.2020
4717 Clouds 11 1001 71 10000 14.4 240 22:40 07.01.2020
4718 Clouds 11 1001 81 8000 11.3 220 22:20 07.01.2020
4719 Clouds 11 1000 81 9000 11.8 220 21:57 07.01.2020
4720 Clouds 11 1000 81 9000 11.8 220 21:38 07.01.2020
4721 Clouds 11 1000 81 10000 10.8 220 21:20 07.01.2020
4722 Clouds 11 1000 81 10000 10.8 220 20:55 07.01.2020
4723 Rain 12 999 71 10000 12.3 240 20:36 07.01.2020
4724 Rain 12 999 87 10000 11.8 230 20:18 07.01.2020
4725 Rain 12 998 93 3000 10.8 230 19:38 07.01.2020
4726 Drizzle 12 998 93 3500 11.8 220 19:20 07.01.2020
4727 Drizzle 13 998 93 3500 11.8 220 18:58 07.01.2020
4728 Rain 13 998 87 10000 10.8 230 18:40 07.01.2020
4729 Rain 13 997 87 10000 16.5 210 18:19 07.01.2020
4730 Clouds 13 997 87 10000 15.4 200 17:58 07.01.2020
4731 Clouds 13 997 87 10000 15.4 200 17:39 07.01.2020
4732 Rain 12 997 87 10000 15.9 200 17:20 07.01.2020
4733 Drizzle 12 997 87 5000 16.5 200 16:56 07.01.2020
4734 Drizzle 12 997 87 5000 16.5 200 16:37 07.01.2020
4735 Clouds 12 997 87 10000 13.9 200 16:18 07.01.2020
4736 Rain 12 998 87 10000 13.9 200 15:55 07.01.2020
4737 Rain 12 998 87 10000 13.9 200 15:36 07.01.2020
4738 Clouds 12 999 87 10000 13.9 200 15:18 07.01.2020
4739 Clouds 12 1000 87 10000 13.9 200 14:41 07.01.2020
4740 Clouds 12 1001 87 10000 11.3 210 14:22 07.01.2020
4741 Clouds 12 1001 87 10000 11.3 210 13:56 07.01.2020
4742 Clouds 12 1000 87 10000 12.3 200 13:37 07.01.2020
4743 Rain 11 1001 93 10000 12.9 200 13:18 07.01.2020
4744 Rain 11 1002 87 10000 12.3 200 12:40 07.01.2020
4745 Rain 11 1002 87 10000 12.3 200 12:40 07.01.2020
4746 Rain 11 1002 87 10000 12.3 200 12:40 07.01.2020
4747 Rain 11 1002 87 10000 13.9 190 12:19 07.01.2020
4748 Rain 10 1003 93 10000 10.3 190 11:43 07.01.2020
4749 Rain 10 1004 87 10000 11.3 190 11:23 07.01.2020
4750 Rain 10 1004 87 10000 11.3 190 10:58 07.01.2020
4751 Rain 10 1004 93 6000 10.3 180 10:39 07.01.2020
4752 Rain 10 1005 87 4900 10.3 190 10:21 07.01.2020
4753 Rain 9 1006 87 7000 8.7 190 09:55 07.01.2020
4754 Rain 9 1006 87 7000 8.7 190 09:37 07.01.2020
4755 Rain 9 1006 87 10000 5.1 200 09:19 07.01.2020
4756 Rain 8 1007 81 10000 4.6 190 08:41 07.01.2020
4757 Rain 8 1007 87 9000 6.7 190 08:18 07.01.2020
4758 Rain 8 1008 87 7000 7.2 200 07:49 07.01.2020
4759 Rain 8 1008 81 10000 8.2 180 07:23 07.01.2020
4760 Rain 8 1009 81 10000 7.7 200 06:50 07.01.2020
4761 Rain 8 1009 81 10000 7.7 200 06:30 07.01.2020
4762 Rain 7 1010 81 10000 9.3 200 05:41 07.01.2020
4763 Clouds 6 1012 87 10000 4.1 190 03:52 07.01.2020
4764 Clouds 6 1012 87 10000 4.1 190 03:52 07.01.2020
4765 Clouds 6 1012 87 10000 4.1 190 03:25 07.01.2020
4766 Clear 6 1013 87 10000 6.2 200 02:20 07.01.2020
4767 Clear 6 1012 87 10000 6.2 200 01:40 07.01.2020
4768 Clear 6 1012 87 10000 6.2 200 01:40 07.01.2020
4769 Clear 6 1012 87 10000 6.2 200 01:40 07.01.2020
4770 Clear 6 1012 87 10000 6.2 200 01:40 07.01.2020
4771 Clouds 6 1013 81 10000 7.7 220 00:59 07.01.2020
4772 Clear 6 1013 81 10000 7.2 200 00:21 07.01.2020
4773 Clear 6 1013 81 10000 5.1 200 23:57 06.01.2020
4774 Clear 6 1013 81 10000 5.1 200 23:38 06.01.2020
4775 Clear 6 1012 81 10000 5.1 230 23:20 06.01.2020
4776 Clear 6 1011 81 10000 7.2 240 22:44 06.01.2020
4777 Clear 6 1011 81 10000 7.2 240 22:44 06.01.2020
4778 Clear 6 1011 81 10000 6.7 240 22:25 06.01.2020
4779 Clear 6 1011 81 10000 6.7 240 21:59 06.01.2020
4780 Clouds 6 1010 81 10000 6.2 240 21:40 06.01.2020
4781 Clouds 6 1010 81 10000 7.7 240 21:21 06.01.2020
4782 Clouds 6 1010 81 10000 7.7 240 20:58 06.01.2020
4783 Clouds 6 1010 81 10000 7.7 230 20:40 06.01.2020
4784 Clouds 6 1009 81 10000 7.2 220 20:21 06.01.2020
4785 Rain 6 1008 87 10000 5.7 230 19:57 06.01.2020
4786 Rain 6 1008 87 10000 5.7 230 19:39 06.01.2020
4787 Rain 7 1008 81 10000 6.7 260 19:20 06.01.2020
4788 Rain 7 1007 87 10000 6.2 230 18:48 06.01.2020
4789 Rain 7 1006 87 10000 5.7 250 18:25 06.01.2020
4790 Rain 7 1006 87 10000 5.7 250 18:00 06.01.2020
4791 Rain 7 1006 81 10000 6.2 250 17:39 06.01.2020
4792 Rain 7 1006 81 10000 6.2 250 17:39 06.01.2020
4793 Rain 8 1005 81 10000 7.2 240 17:19 06.01.2020
4794 Rain 8 1004 81 10000 8.2 250 16:55 06.01.2020
4795 Rain 8 1004 81 10000 8.2 250 16:36 06.01.2020
4796 Clouds 8 1004 87 10000 7.2 250 16:18 06.01.2020
4797 Rain 8 1003 87 10000 6.2 250 15:42 06.01.2020
4798 Rain 9 1002 87 10000 7.7 250 15:20 06.01.2020
4799 Rain 9 1002 87 10000 7.7 250 14:59 06.01.2020
4800 Rain 9 1002 93 5000 9.8 240 14:40 06.01.2020
4801 Rain 9 1001 93 3800 12.3 200 14:20 06.01.2020
4802 Rain 9 1001 93 3800 12.3 200 13:57 06.01.2020
4803 Rain 9 1002 93 6000 13.4 200 13:37 06.01.2020
4804 Rain 9 1002 93 5000 12.9 200 13:19 06.01.2020
4805 Rain 9 1003 93 6000 11.3 190 12:43 06.01.2020
4806 Rain 9 1003 93 6000 10.8 190 12:20 06.01.2020
4807 Rain 9 1003 93 6000 10.8 190 11:58 06.01.2020
4808 Rain 9 1004 93 3800 10.8 190 11:39 06.01.2020
4809 Rain 9 1004 81 5000 12.3 190 11:20 06.01.2020
4810 Clouds 10 1004 76 10000 10.3 190 10:46 06.01.2020
4811 Clouds 9 1004 76 10000 10.3 190 10:28 06.01.2020
4812 Clouds 9 1006 76 10000 10.8 200 09:59 06.01.2020
4813 Clouds 9 1006 76 10000 10.8 200 09:37 06.01.2020
4814 Clouds 9 1007 81 10000 7.2 190 09:19 06.01.2020
4815 Clouds 9 1007 76 10000 7.7 200 08:43 06.01.2020
4816 Clouds 9 1008 76 10000 8.2 180 08:24 06.01.2020
4817 Clouds 9 1009 76 10000 3.1 0 07:51 06.01.2020
4818 Clouds 9 1009 76 10000 3.1 0 07:26 06.01.2020
4819 Clouds 9 1011 87 6000 6.2 190 06:45 06.01.2020
4820 Clouds 8 1011 81 10000 6.7 200 06:18 06.01.2020
4821 Drizzle 9 1012 87 5000 6.2 200 05:40 06.01.2020
4822 Clouds 9 1013 76 10000 5.7 200 04:30 06.01.2020
4823 Clouds 9 1014 76 10000 5.1 190 03:58 06.01.2020
4824 Clouds 9 1015 81 10000 6.7 190 02:40 06.01.2020
4825 Clouds 9 1016 81 10000 9.8 200 02:21 06.01.2020
4826 Clouds 9 1017 87 10000 8.2 210 01:41 06.01.2020
4827 Clouds 9 1017 87 10000 6.2 210 01:20 06.01.2020
4828 Clouds 10 1018 87 10000 7.7 210 00:40 06.01.2020
4829 Clouds 10 1018 87 10000 8.2 210 00:19 06.01.2020
4830 Clouds 10 1018 87 10000 8.2 210 00:19 06.01.2020
4831 Clouds 10 1018 87 10000 6.7 210 23:41 05.01.2020
4832 Clouds 10 1018 87 10000 9.3 210 23:21 05.01.2020
4833 Clouds 11 1018 81 10000 9.8 210 22:55 05.01.2020
4834 Clouds 11 1018 81 10000 9.8 210 22:37 05.01.2020
4835 Clouds 11 1019 87 10000 9.8 210 22:18 05.01.2020
4836 Clouds 11 1019 87 10000 10.8 200 21:41 05.01.2020
4837 Clouds 11 1019 87 10000 9.8 210 21:21 05.01.2020
4838 Clouds 11 1020 87 10000 9.8 210 20:58 05.01.2020
4839 Clouds 11 1020 87 10000 9.8 210 20:39 05.01.2020
4840 Clouds 11 1020 87 10000 8.7 210 20:20 05.01.2020
4841 Clouds 10 1020 87 10000 8.7 210 19:59 05.01.2020
4842 Clouds 10 1020 87 10000 10.8 200 19:39 05.01.2020
4843 Clouds 10 1020 87 10000 8.2 200 19:20 05.01.2020
4844 Clouds 10 1020 93 10000 7.2 210 18:56 05.01.2020
4845 Clouds 10 1020 93 10000 7.2 210 18:38 05.01.2020
4846 Clouds 10 1020 93 10000 9.8 210 18:19 05.01.2020
4847 Clouds 10 1020 93 10000 9.8 210 18:19 05.01.2020
4848 Clouds 10 1020 93 10000 9.8 210 17:58 05.01.2020
4849 Clouds 10 1020 93 10000 9.8 210 17:58 05.01.2020
4850 Clouds 10 1020 93 10000 9.8 210 17:39 05.01.2020
4851 Clouds 10 1021 87 10000 8.7 200 17:20 05.01.2020
4852 Clouds 10 1021 87 10000 8.7 200 16:57 05.01.2020
4853 Clouds 10 1021 87 10000 8.7 200 16:57 05.01.2020
4854 Clouds 10 1021 87 10000 8.2 200 16:39 05.01.2020
4855 Clouds 10 1021 87 10000 8.2 210 16:19 05.01.2020
4856 Clouds 10 1021 87 10000 8.2 210 16:19 05.01.2020
4857 Clouds 9 1021 93 10000 8.7 210 15:39 05.01.2020
4858 Clouds 9 1021 93 7000 9.8 210 15:20 05.01.2020
4859 Clouds 9 1021 93 6000 10.3 210 14:56 05.01.2020
4860 Clouds 9 1021 93 6000 10.3 210 14:38 05.01.2020
4861 Clouds 9 1021 93 9000 9.8 210 14:20 05.01.2020
4862 Clouds 9 1021 93 9000 9.8 210 13:56 05.01.2020
4863 Clouds 9 1022 93 8000 9.8 220 13:38 05.01.2020
4864 Rain 9 1022 93 9000 9.3 210 13:19 05.01.2020
4865 Rain 9 1022 93 9000 9.3 210 12:56 05.01.2020
4866 Rain 9 1023 93 6000 10.3 210 12:37 05.01.2020
4867 Rain 9 1023 93 7000 12.9 210 12:19 05.01.2020
4868 Clouds 9 1023 93 7000 8.2 210 11:44 05.01.2020
4869 Clouds 8 1023 87 10000 8.2 210 11:20 05.01.2020
4870 Clouds 8 1023 87 10000 8.2 210 11:20 05.01.2020
4871 Clouds 8 1023 87 10000 8.2 210 10:58 05.01.2020
4872 Rain 8 1023 93 10000 9.8 210 10:40 05.01.2020
4873 Rain 8 1023 93 6000 7.2 220 10:19 05.01.2020
4874 Clouds 8 1023 93 10000 7.2 220 09:42 05.01.2020
4875 Clouds 8 1023 87 10000 7.7 210 09:22 05.01.2020
4876 Clouds 8 1023 93 10000 4.6 220 08:51 05.01.2020
4877 Clouds 8 1023 93 10000 4.6 220 08:32 05.01.2020
4878 Rain 8 1024 93 10000 5.1 250 07:59 05.01.2020
4879 Rain 8 1024 93 6000 5.7 250 07:39 05.01.2020
4880 Clouds 8 1024 93 10000 6.7 230 07:20 05.01.2020
4881 Clouds 8 1024 93 10000 6.7 230 06:21 05.01.2020
4882 Rain 8 1024 93 10000 6.2 230 05:34 05.01.2020
4883 Clouds 9 1025 87 10000 7.7 220 04:48 05.01.2020
4884 Clouds 9 1025 87 10000 7.7 230 04:18 05.01.2020
4885 Clouds 9 1026 87 10000 8.2 230 02:47 05.01.2020
4886 Clouds 9 1026 87 10000 8.2 240 02:24 05.01.2020
4887 Clouds 9 1026 87 10000 8.7 240 01:48 05.01.2020
4888 Clouds 8 1026 93 10000 7.2 230 01:19 05.01.2020
4889 Clouds 9 1026 87 10000 8.2 230 00:54 05.01.2020
4890 Clouds 9 1026 87 10000 8.2 230 00:36 05.01.2020
4891 Clouds 8 1026 93 10000 7.7 230 00:18 05.01.2020
4892 Clouds 8 1027 93 10000 7.7 230 23:40 04.01.2020
4893 Clouds 8 1027 93 10000 7.7 230 23:19 04.01.2020
4894 Clouds 8 1027 93 10000 7.7 230 23:19 04.01.2020
4895 Clouds 8 1027 93 10000 7.7 230 23:19 04.01.2020
4896 Clouds 8 1027 93 10000 8.2 220 22:40 04.01.2020
4897 Clouds 8 1027 93 7000 6.7 220 22:22 04.01.2020
4898 Clouds 8 1027 93 6000 8.2 220 21:58 04.01.2020
4899 Clouds 8 1027 93 6000 8.2 220 21:39 04.01.2020
4900 Clouds 8 1027 93 10000 6.7 220 21:20 04.01.2020
4901 Clouds 8 1027 93 10000 6.7 220 20:59 04.01.2020
4902 Clouds 8 1027 93 10000 7.7 230 20:40 04.01.2020
4903 Clouds 8 1027 87 10000 6.7 230 20:21 04.01.2020
4904 Clouds 8 1027 87 10000 6.7 230 19:56 04.01.2020
4905 Clouds 8 1027 100 10000 7.2 230 19:38 04.01.2020
4906 Clouds 8 1028 100 6000 7.7 230 19:19 04.01.2020
4907 Drizzle 8 1028 93 4800 7.2 220 18:54 04.01.2020
4908 Drizzle 8 1028 93 4800 7.2 220 18:36 04.01.2020
4909 Clouds 8 1028 100 10000 7.2 220 18:18 04.01.2020
4910 Clouds 8 1028 100 10000 7.2 220 18:18 04.01.2020
4911 Clouds 8 1028 93 10000 7.2 220 17:41 04.01.2020
4912 Clouds 8 1028 93 10000 7.2 220 17:23 04.01.2020
4913 Clouds 8 1028 93 10000 6.7 230 16:57 04.01.2020
4914 Clouds 8 1028 93 10000 6.7 230 16:39 04.01.2020
4915 Clouds 8 1028 93 10000 6.7 230 16:39 04.01.2020
4916 Clouds 8 1028 93 7000 6.2 220 16:21 04.01.2020
4917 Haze 8 1027 100 4900 7.2 220 15:43 04.01.2020
4918 Clouds 8 1027 87 10000 6.7 240 15:20 04.01.2020
4919 Clouds 9 1027 87 10000 6.7 240 14:59 04.01.2020
4920 Clouds 9 1027 87 10000 6.7 240 14:59 04.01.2020
4921 Clouds 9 1027 87 10000 6.7 240 14:59 04.01.2020
4922 Clouds 9 1027 87 10000 7.2 240 14:40 04.01.2020
4923 Clouds 9 1027 93 10000 4.6 240 14:20 04.01.2020
4924 Clouds 9 1027 93 10000 4.6 240 13:58 04.01.2020
4925 Clouds 9 1027 87 10000 5.7 230 13:37 04.01.2020
4926 Clouds 9 1028 87 10000 4.1 250 13:19 04.01.2020
4927 Clouds 9 1028 87 10000 4.1 250 12:42 04.01.2020
4928 Clouds 9 1028 87 10000 4.6 220 12:20 04.01.2020
4929 Clouds 9 1028 87 10000 4.6 220 12:20 04.01.2020
4930 Clouds 9 1028 87 10000 4.6 220 11:59 04.01.2020
4931 Clouds 8 1027 87 10000 4.6 240 11:41 04.01.2020
4932 Clouds 8 1027 93 10000 4.1 220 11:20 04.01.2020
4933 Clouds 8 1027 93 10000 4.1 220 10:59 04.01.2020
4934 Clouds 8 1027 87 10000 2.6 240 10:38 04.01.2020
4935 Clouds 8 1026 87 10000 5.1 240 10:19 04.01.2020
4936 Clouds 8 1026 87 10000 6.2 240 09:43 04.01.2020
4937 Clouds 8 1026 87 10000 6.2 240 09:43 04.01.2020
4938 Clouds 8 1026 87 10000 6.7 250 09:25 04.01.2020
4939 Rain 8 1026 87 10000 6.2 240 08:47 04.01.2020
4940 Rain 8 1026 87 10000 6.2 240 08:28 04.01.2020
4941 Rain 8 1025 87 9000 6.7 250 07:52 04.01.2020
4942 Rain 8 1025 87 9000 6.7 250 07:52 04.01.2020
4943 Rain 8 1025 87 9000 6.7 250 07:33 04.01.2020
4944 Rain 8 1024 87 10000 7.7 250 06:43 04.01.2020
4945 Clouds 8 1024 87 10000 8.2 250 05:52 04.01.2020
4946 Clouds 8 1024 87 10000 8.2 250 04:48 04.01.2020
4947 Clouds 7 1024 87 10000 8.2 250 04:28 04.01.2020
4948 Rain 7 1023 87 10000 8.7 250 03:19 04.01.2020
4949 Clouds 8 1024 87 10000 9.3 240 02:36 04.01.2020
4950 Rain 7 1023 81 10000 7.7 240 01:58 04.01.2020
4951 Clouds 7 1023 81 10000 7.2 260 01:32 04.01.2020
4952 Clouds 7 1023 81 10000 7.2 260 01:32 04.01.2020
4953 Rain 7 1023 87 10000 6.7 250 00:56 04.01.2020
4954 Rain 7 1024 87 10000 5.1 240 00:28 04.01.2020
4955 Rain 7 1023 87 10000 6.2 250 23:52 03.01.2020
4956 Clouds 7 1023 87 10000 6.7 240 23:27 03.01.2020
4957 Rain 7 1023 87 10000 6.7 250 22:55 03.01.2020
4958 Rain 7 1023 87 10000 6.7 250 22:37 03.01.2020
4959 Rain 7 1023 87 10000 7.2 260 22:18 03.01.2020
4960 Rain 7 1022 87 10000 7.7 250 21:56 03.01.2020
4961 Rain 7 1022 87 10000 7.7 250 21:37 03.01.2020
4962 Rain 7 1022 81 10000 7.7 250 21:18 03.01.2020
4963 Rain 7 1022 81 10000 9.3 260 20:43 03.01.2020
4964 Rain 7 1022 87 9000 9.3 240 20:19 03.01.2020
4965 Rain 7 1022 87 9000 9.3 240 20:19 03.01.2020
4966 Rain 7 1022 87 9000 9.3 240 19:59 03.01.2020
4967 Clouds 7 1022 81 10000 6.2 250 19:40 03.01.2020
4968 Clouds 6 1022 81 10000 5.7 240 19:22 03.01.2020
4969 Clouds 6 1022 81 10000 6.2 250 18:46 03.01.2020
4970 Clouds 6 1022 81 10000 6.2 250 18:26 03.01.2020
4971 Clouds 6 1022 81 10000 6.2 250 18:26 03.01.2020
4972 Clouds 5 1021 75 10000 7.7 250 17:57 03.01.2020
4973 Clouds 5 1021 75 10000 7.7 250 17:39 03.01.2020
4974 Rain 5 1021 81 10000 7.7 260 17:20 03.01.2020
4975 Rain 6 1021 81 10000 7.7 250 16:43 03.01.2020
4976 Rain 6 1021 81 10000 7.7 250 16:24 03.01.2020
4977 Rain 6 1021 81 10000 6.2 240 15:58 03.01.2020
4978 Rain 7 1020 70 10000 6.7 250 15:40 03.01.2020
4979 Rain 7 1020 70 10000 5.7 250 15:18 03.01.2020
4980 Rain 6 1020 70 10000 6.2 260 14:39 03.01.2020
4981 Rain 6 1020 81 10000 4.1 240 14:20 03.01.2020
4982 Clouds 7 1020 81 10000 5.7 220 13:56 03.01.2020
4983 Clouds 7 1020 81 10000 5.7 220 13:37 03.01.2020
4984 Rain 6 1019 81 10000 5.7 240 13:19 03.01.2020
4985 Rain 6 1019 81 10000 5.1 240 12:40 03.01.2020
4986 Rain 5 1019 86 10000 3.6 230 12:21 03.01.2020
4987 Rain 5 1019 86 6000 3.1 270 11:49 03.01.2020
4988 Clouds 4 1018 86 10000 5.1 220 11:30 03.01.2020
4989 Clouds 4 1018 80 10000 4.6 240 10:48 03.01.2020
4990 Clouds 4 1018 80 10000 4.6 240 10:28 03.01.2020
4991 Clouds 4 1017 84 10000 3.1 230 09:59 03.01.2020
4992 Clouds 4 1017 84 10000 3.1 230 09:41 03.01.2020
4993 Clouds 4 1016 75 10000 3.6 260 09:22 03.01.2020
4994 Clouds 5 1016 75 10000 4.6 280 08:57 03.01.2020
4995 Clouds 5 1016 75 10000 4.6 280 08:38 03.01.2020
4996 Clouds 4 1015 80 10000 1 0 08:20 03.01.2020
4997 Clouds 4 1015 80 10000 1.5 0 07:41 03.01.2020
4998 Clouds 4 1014 86 10000 2.1 200 07:19 03.01.2020
4999 Clouds 4 1013 86 10000 1.5 0 06:51 03.01.2020
5000 Clouds 4 1013 86 10000 1.5 0 06:33 03.01.2020
5001 Rain 5 1012 75 10000 1.5 0 05:47 03.01.2020
5002 Clouds 4 1010 80 10000 3.1 240 04:27 03.01.2020
5003 Clouds 5 1009 75 10000 3.1 260 02:59 03.01.2020
5004 Clouds 5 1008 75 10000 4.1 260 02:41 03.01.2020
5005 Clouds 6 1007 70 10000 2.6 240 01:45 03.01.2020
5006 Clouds 7 1005 81 10000 8.2 280 00:53 03.01.2020
5007 Clouds 7 1005 81 10000 8.2 280 00:31 03.01.2020
5008 Rain 8 1004 81 10000 9.3 280 23:56 02.01.2020
5009 Clouds 8 1003 87 10000 8.2 290 23:38 02.01.2020
5010 Clouds 10 1002 87 10000 8.7 290 23:19 02.01.2020
5011 Drizzle 10 1001 93 3700 9.8 220 22:45 02.01.2020
5012 Drizzle 10 1001 93 2500 9.8 220 22:22 02.01.2020
5013 Drizzle 10 1001 93 2500 9.8 220 22:00 02.01.2020
5014 Drizzle 10 1000 93 5000 9.8 220 21:41 02.01.2020
5015 Rain 10 1000 93 3300 10.8 220 21:23 02.01.2020
5016 Rain 10 1000 93 3300 10.8 220 20:59 02.01.2020
5017 Rain 10 1000 93 3800 10.8 210 20:39 02.01.2020
5018 Rain 10 1000 93 9000 10.8 210 20:21 02.01.2020
5019 Rain 10 1000 93 10000 11.8 210 19:55 02.01.2020
5020 Rain 10 1000 93 10000 11.8 210 19:55 02.01.2020
5021 Rain 10 1000 93 10000 11.8 210 19:55 02.01.2020
5022 Rain 10 1000 93 10000 11.8 210 19:37 02.01.2020
5023 Clouds 10 1000 87 6000 10.3 200 19:19 02.01.2020
5024 Clouds 10 1000 87 10000 10.8 210 18:56 02.01.2020
5025 Clouds 10 1000 87 10000 10.8 210 18:38 02.01.2020
5026 Clouds 10 1000 87 10000 10.8 210 18:20 02.01.2020
5027 Clouds 10 1000 87 10000 10.8 210 17:56 02.01.2020
5028 Clouds 10 1000 93 10000 11.8 210 17:36 02.01.2020
5029 Clouds 10 1000 93 10000 11.8 210 17:36 02.01.2020
5030 Clouds 10 1000 93 10000 12.9 210 17:18 02.01.2020
5031 Clouds 10 1000 93 10000 12.9 210 17:18 02.01.2020
5032 Rain 10 1001 93 10000 11.8 210 16:54 02.01.2020
5033 Rain 10 1001 93 10000 11.8 210 16:36 02.01.2020
5034 Drizzle 10 1001 93 5000 12.9 210 16:18 02.01.2020
5035 Rain 10 1001 93 10000 10.8 210 15:42 02.01.2020
5036 Rain 9 1002 93 5000 9.8 210 15:24 02.01.2020
5037 Rain 9 1002 87 10000 9.8 200 14:57 02.01.2020
5038 Rain 9 1002 87 10000 9.8 200 14:37 02.01.2020
5039 Rain 9 1002 87 10000 9.8 200 14:37 02.01.2020
5040 Rain 9 1003 93 7000 10.3 200 14:18 02.01.2020
5041 Rain 9 1004 93 5000 9.3 210 13:55 02.01.2020
5042 Rain 9 1004 93 5000 9.3 210 13:36 02.01.2020
5043 Rain 9 1005 87 5000 8.7 210 12:58 02.01.2020
5044 Rain 9 1005 87 5000 8.7 210 12:39 02.01.2020
5045 Clouds 9 1006 81 10000 8.2 200 12:20 02.01.2020
5046 Clouds 9 1006 81 10000 8.2 200 11:41 02.01.2020
5047 Clouds 9 1007 81 10000 7.2 210 11:20 02.01.2020
5048 Clouds 9 1008 81 10000 8.2 210 10:45 02.01.2020
5049 Clouds 9 1008 81 10000 8.2 210 10:26 02.01.2020
5050 Clouds 9 1008 81 10000 9.3 200 09:55 02.01.2020
5051 Clouds 9 1008 81 10000 9.3 200 09:34 02.01.2020
5052 Clouds 9 1009 81 10000 4.1 190 08:50 02.01.2020
5053 Clouds 9 1009 81 10000 4.1 190 08:28 02.01.2020
5054 Clouds 8 1009 81 10000 6.7 190 07:57 02.01.2020
5055 Clouds 8 1009 81 10000 5.7 190 07:31 02.01.2020
5056 Clouds 8 1010 81 10000 6.7 180 06:57 02.01.2020
5057 Clouds 8 1010 81 10000 6.7 180 06:57 02.01.2020
5058 Clouds 8 1010 81 10000 4.6 200 06:39 02.01.2020
5059 Clouds 8 1011 81 10000 7.2 200 05:36 02.01.2020
5060 Clouds 8 1012 81 10000 6.7 180 04:33 02.01.2020
5061 Clouds 8 1013 81 10000 7.2 180 02:55 02.01.2020
5062 Clouds 7 1014 81 10000 5.7 180 02:20 02.01.2020
5063 Clouds 7 1015 81 10000 5.7 170 01:46 02.01.2020
5064 Clouds 7 1016 81 10000 5.1 180 01:19 02.01.2020
5065 Clouds 7 1016 87 10000 6.2 190 00:34 02.01.2020
5066 Clouds 7 1017 81 10000 1.5 0 23:58 01.01.2020
5067 Clouds 7 1017 81 10000 2.1 210 23:40 01.01.2020
5068 Clouds 6 1018 81 10000 3.1 220 23:19 01.01.2020
5069 Clouds 6 1018 81 10000 5.7 210 22:38 01.01.2020
5070 Clouds 6 1018 81 10000 5.7 210 22:38 01.01.2020
5071 Clouds 6 1018 81 10000 5.7 210 22:20 01.01.2020
5072 Clouds 6 1018 81 10000 5.7 210 22:20 01.01.2020
5073 Clouds 6 1018 81 10000 5.7 210 22:20 01.01.2020
5074 Clouds 6 1019 75 10000 5.7 200 21:56 01.01.2020
5075 Clouds 7 1019 75 10000 5.7 200 21:38 01.01.2020
5076 Clouds 7 1019 75 10000 6.2 190 21:19 01.01.2020
5077 Clouds 7 1019 75 10000 6.2 190 21:19 01.01.2020
5078 Clouds 7 1019 75 10000 6.2 190 20:55 01.01.2020
5079 Clouds 7 1020 75 10000 8.2 190 20:37 01.01.2020
5080 Clouds 7 1020 75 10000 7.2 190 20:18 01.01.2020
5081 Clouds 7 1020 75 10000 7.2 190 19:55 01.01.2020
5082 Clouds 7 1020 75 10000 6.2 190 19:36 01.01.2020
5083 Clouds 7 1021 75 10000 6.7 210 19:18 01.01.2020
5084 Clouds 7 1021 75 10000 6.7 220 18:55 01.01.2020
5085 Clouds 7 1021 75 10000 6.7 220 18:36 01.01.2020
5086 Clouds 7 1021 81 10000 4.6 210 18:18 01.01.2020
5087 Clouds 7 1021 81 10000 4.6 210 17:55 01.01.2020
5088 Clouds 7 1021 81 10000 5.7 220 17:37 01.01.2020
5089 Clouds 7 1022 81 10000 5.7 220 17:18 01.01.2020
5090 Clouds 7 1022 75 10000 7.7 230 16:39 01.01.2020
5091 Clouds 7 1022 75 10000 7.7 230 16:39 01.01.2020
5092 Clouds 7 1022 75 10000 6.7 220 16:20 01.01.2020
5093 Clouds 7 1022 75 10000 6.7 220 15:57 01.01.2020
5094 Clouds 7 1023 75 10000 6.2 220 15:39 01.01.2020
5095 Clouds 7 1023 81 10000 7.7 230 15:20 01.01.2020
5096 Clouds 7 1023 81 10000 5.1 240 14:57 01.01.2020
5097 Clouds 7 1023 81 10000 5.1 240 14:39 01.01.2020
5098 Clouds 7 1024 81 10000 4.6 230 14:20 01.01.2020
5099 Clouds 7 1024 81 10000 5.1 220 13:55 01.01.2020
5100 Clouds 7 1024 81 10000 5.1 220 13:37 01.01.2020
5101 Clouds 7 1024 81 10000 5.1 220 13:37 01.01.2020
5102 Clouds 7 1024 81 10000 3.1 250 13:18 01.01.2020
5103 Clouds 7 1024 81 10000 4.1 220 12:55 01.01.2020
5104 Clouds 7 1024 81 10000 4.1 220 12:36 01.01.2020
5105 Clouds 7 1025 81 10000 3.6 220 12:18 01.01.2020
5106 Clouds 7 1025 81 10000 2.6 240 11:42 01.01.2020
5107 Clouds 7 1025 81 10000 1.5 0 11:21 01.01.2020
5108 Clouds 7 1025 81 10000 2.1 260 10:57 01.01.2020
5109 Clouds 7 1025 81 10000 2.1 260 10:38 01.01.2020
5110 Clouds 7 1025 93 10000 2.6 230 10:19 01.01.2020
5111 Clouds 6 1025 93 10000 2.1 240 09:42 01.01.2020
5112 Clouds 6 1026 93 7000 2.1 260 09:23 01.01.2020
5113 Mist 6 1026 100 4800 0.5 0 08:57 01.01.2020
5114 Mist 6 1026 100 4800 0.5 0 08:39 01.01.2020
5115 Mist 5 1026 100 4700 1 0 08:20 01.01.2020
5116 Mist 5 1026 100 4700 1 0 07:59 01.01.2020
5117 Mist 6 1026 100 4000 1.5 0 07:41 01.01.2020
5118 Mist 5 1026 100 4100 1 0 07:20 01.01.2020
5119 Mist 5 1026 100 2900 0.5 0 06:40 01.01.2020
5120 Mist 5 1026 100 2400 1 0 06:18 01.01.2020
5121 Mist 4 1027 100 2200 0.5 0 04:36 01.01.2020
5122 Mist 4 1028 100 2400 1 40 03:40 01.01.2020
5123 Mist 4 1028 100 2300 0.5 0 03:21 01.01.2020
5124 Mist 3 1029 100 3900 1.5 60 02:43 01.01.2020
5125 Mist 3 1029 91 4500 0.5 0 02:24 01.01.2020
5126 Mist 2 1030 83 4300 0.5 0 01:45 01.01.2020
5127 Mist 2 1030 84 5000 1 0 01:23 01.01.2020
5128 Mist 1 1030 84 4400 0.5 190 00:45 01.01.2020
5129 Mist 0 1030 84 3900 1 230 00:26 01.01.2020
5130 Mist 0 1030 84 3900 1 230 23:56 31.12.2019
5131 Mist 0 1030 84 4200 0.5 0 23:37 31.12.2019
5132 Mist 0 1030 86 4500 1 0 23:18 31.12.2019
5133 Mist 0 1030 86 4500 1 0 22:55 31.12.2019
5134 Mist -1 1030 100 3900 1 280 22:36 31.12.2019
5135 Mist 0 1031 86 5000 2.1 170 22:18 31.12.2019
5136 Fog -1 1031 100 4000 1 10 21:43 31.12.2019
5137 Fog -1 1032 100 8000 0.5 0 21:25 31.12.2019
5138 Fog -1 1032 100 8000 0.5 0 20:57 31.12.2019
5139 Fog -1 1032 100 9000 1 350 20:39 31.12.2019
5140 Fog -1 1032 92 9000 1 0 20:20 31.12.2019
5141 Fog -1 1032 92 9000 1 0 19:57 31.12.2019
5142 Fog -1 1032 92 9000 1 270 19:39 31.12.2019
5143 Fog -1 1032 100 9000 0.5 0 19:20 31.12.2019
5144 Fog -1 1032 100 9000 0.5 0 18:56 31.12.2019
5145 Fog 0 1032 92 9000 0.5 300 18:38 31.12.2019
5146 Fog 0 1032 92 9000 0.5 310 18:19 31.12.2019
5147 Clear 0 1032 85 10000 0.5 0 17:55 31.12.2019
5148 Clear 0 1032 85 10000 0.5 0 17:36 31.12.2019
5149 Clear 0 1032 85 10000 0.5 0 17:36 31.12.2019
5150 Clear 0 1032 85 10000 0.5 0 17:36 31.12.2019
5151 Clear 1 1032 84 10000 0.5 0 17:18 31.12.2019
5152 Clear 1 1032 84 10000 0.5 0 16:55 31.12.2019
5153 Clear 2 1032 84 10000 1.5 250 16:36 31.12.2019
5154 Clear 2 1033 84 10000 0.5 0 16:18 31.12.2019
5155 Clear 3 1033 84 10000 0.5 0 15:55 31.12.2019
5156 Clear 3 1033 93 10000 0.5 0 15:37 31.12.2019
5157 Clear 3 1033 84 10000 0.5 0 15:19 31.12.2019
5158 Clear 2 1033 84 10000 1 250 14:55 31.12.2019
5159 Clear 2 1033 84 10000 1 250 14:36 31.12.2019
5160 Clouds 2 1034 100 10000 1 240 14:18 31.12.2019
5161 Clouds 2 1034 100 10000 1 240 13:54 31.12.2019
5162 Clouds 2 1034 78 10000 1 0 13:36 31.12.2019
5163 Clear 1 1034 78 7000 0.5 0 13:18 31.12.2019
5164 Clear 0 1035 78 6000 1 250 12:40 31.12.2019
5165 Clear 0 1035 78 6000 1 250 12:40 31.12.2019
5166 Clear 0 1035 100 8000 0.5 320 12:21 31.12.2019
5167 Clear 0 1035 100 8000 0.5 320 11:58 31.12.2019
5168 Clear 0 1034 78 10000 1.5 300 11:40 31.12.2019
5169 Clouds -1 1035 100 6000 1 0 11:21 31.12.2019
5170 Clouds -1 1035 100 6000 1 0 10:58 31.12.2019
5171 Fog -2 1035 100 10000 1.5 230 10:39 31.12.2019
5172 Fog -2 1035 100 5000 1.5 220 10:20 31.12.2019
5173 Fog -2 1035 100 5000 1.5 220 10:20 31.12.2019
5174 Fog -2 1035 100 5000 1.5 220 09:59 31.12.2019
5175 Fog -2 1035 100 5000 1.5 220 09:59 31.12.2019
5176 Fog -2 1034 100 5000 1 0 09:40 31.12.2019
5177 Fog -2 1034 92 10000 1.5 70 09:22 31.12.2019
5178 Fog -2 1034 92 10000 1.5 70 08:59 31.12.2019
5179 Fog -2 1034 92 10000 2.1 60 08:41 31.12.2019
5180 Fog -2 1033 92 10000 1 60 08:20 31.12.2019
5181 Mist -2 1033 100 1500 1 220 07:44 31.12.2019
5182 Clouds -2 1033 92 10000 2.1 230 07:22 31.12.2019
5183 Clouds -1 1033 100 7000 0.5 0 06:51 31.12.2019
5184 Mist -1 1032 100 4200 2.1 240 05:59 31.12.2019
5185 Fog 0 1031 100 7000 1.5 90 04:30 31.12.2019
5186 Clouds 0 1032 92 10000 1 120 03:59 31.12.2019
5187 Clouds 0 1032 92 10000 1 120 03:59 31.12.2019
5188 Clouds 0 1031 92 10000 1.5 0 02:56 31.12.2019
5189 Clouds 1 1031 92 10000 1 0 02:19 31.12.2019
5190 Clouds 1 1031 89 10000 1 0 01:48 31.12.2019
5191 Clouds 1 1031 89 10000 1 0 01:48 31.12.2019
5192 Clouds 1 1031 88 10000 1 0 01:28 31.12.2019
5193 Clouds 2 1031 88 10000 1.5 0 00:47 31.12.2019
5194 Clouds 2 1031 86 10000 2.6 260 00:23 31.12.2019
5195 Clouds 3 1030 86 10000 2.1 240 23:57 30.12.2019
5196 Clouds 3 1030 86 10000 2.1 240 23:38 30.12.2019
5197 Clouds 3 1030 86 10000 4.1 260 23:20 30.12.2019
5198 Clouds 3 1030 86 10000 3.6 220 22:58 30.12.2019
5199 Clouds 3 1030 86 10000 3.6 220 22:39 30.12.2019
5200 Clouds 3 1029 80 10000 3.1 230 22:20 30.12.2019
5201 Clouds 4 1029 86 10000 4.6 240 21:57 30.12.2019
5202 Clouds 4 1029 86 10000 4.6 240 21:38 30.12.2019
5203 Clouds 4 1028 86 10000 4.1 240 21:19 30.12.2019
5204 Clouds 4 1028 86 10000 4.1 240 20:56 30.12.2019
5205 Clouds 4 1028 86 10000 4.1 240 20:56 30.12.2019
5206 Clouds 4 1028 86 10000 3.6 210 20:38 30.12.2019
5207 Clouds 5 1027 75 10000 3.6 250 20:20 30.12.2019
5208 Clouds 5 1027 80 10000 2.1 250 19:57 30.12.2019
5209 Clouds 5 1027 80 10000 2.1 250 19:37 30.12.2019
5210 Clouds 5 1027 86 10000 1 0 19:19 30.12.2019
5211 Clouds 5 1027 86 10000 1 0 19:19 30.12.2019
5212 Clouds 6 1027 86 10000 1 0 18:56 30.12.2019
5213 Clouds 6 1026 86 10000 2.6 210 18:38 30.12.2019
5214 Clouds 7 1025 81 10000 1.5 0 18:20 30.12.2019
5215 Clouds 7 1025 87 10000 3.6 270 17:55 30.12.2019
5216 Clouds 7 1025 87 10000 3.6 270 17:36 30.12.2019
5217 Clouds 7 1024 87 10000 2.6 250 17:18 30.12.2019
5218 Clouds 7 1024 81 10000 4.6 250 16:55 30.12.2019
5219 Clouds 7 1024 81 10000 4.6 250 16:55 30.12.2019
5220 Clouds 7 1024 81 10000 4.6 250 16:36 30.12.2019
5221 Clouds 7 1023 87 10000 3.6 250 16:18 30.12.2019
5222 Clouds 8 1023 87 10000 3.6 250 15:54 30.12.2019
5223 Clouds 8 1023 81 10000 3.6 270 15:36 30.12.2019
5224 Clouds 8 1022 81 10000 5.1 280 15:18 30.12.2019
5225 Clouds 8 1022 81 10000 5.1 280 15:18 30.12.2019
5226 Clouds 9 1022 81 10000 7.2 280 14:42 30.12.2019
5227 Clouds 9 1022 81 10000 7.2 280 14:42 30.12.2019
5228 Clouds 9 1022 87 10000 6.7 280 14:19 30.12.2019
5229 Clouds 9 1021 81 10000 7.2 260 13:55 30.12.2019
5230 Clouds 9 1021 81 10000 7.2 260 13:37 30.12.2019
5231 Clouds 9 1020 93 10000 5.7 270 13:18 30.12.2019
5232 Drizzle 9 1021 93 3100 7.2 250 12:42 30.12.2019
5233 Rain 10 1021 93 3700 9.3 230 12:20 30.12.2019
5234 Rain 10 1021 93 3700 9.3 230 11:58 30.12.2019
5235 Drizzle 10 1020 93 6000 9.3 230 11:40 30.12.2019
5236 Clouds 10 1020 93 7000 10.3 220 11:19 30.12.2019
5237 Clouds 10 1019 81 7000 10.3 220 10:44 30.12.2019
5238 Clouds 10 1019 81 10000 9.3 210 10:21 30.12.2019
5239 Clouds 10 1019 81 10000 9.3 210 09:57 30.12.2019
5240 Clouds 10 1019 81 10000 9.3 220 09:37 30.12.2019
5241 Clouds 10 1019 81 10000 11.3 220 09:19 30.12.2019
5242 Clouds 10 1019 81 10000 9.8 210 08:49 30.12.2019
5243 Clouds 10 1019 81 10000 9.8 220 08:23 30.12.2019
5244 Clouds 10 1019 81 10000 9.8 220 07:55 30.12.2019
5245 Clouds 10 1019 81 10000 10.3 220 07:33 30.12.2019
5246 Clouds 9 1019 81 10000 9.3 210 06:51 30.12.2019
5247 Clouds 9 1019 81 10000 8.7 210 04:50 30.12.2019
5248 Clouds 10 1020 81 10000 9.3 210 03:52 30.12.2019
5249 Clouds 10 1020 81 10000 10.3 210 02:47 30.12.2019
5250 Clouds 10 1020 81 10000 10.3 210 02:29 30.12.2019
5251 Clouds 10 1020 81 10000 9.8 210 01:47 30.12.2019
5252 Clouds 10 1021 81 10000 9.8 200 01:19 30.12.2019
5253 Clouds 10 1020 81 10000 9.3 210 00:42 30.12.2019
5254 Clouds 11 1021 81 10000 9.3 210 23:59 29.12.2019
5255 Clouds 11 1020 81 10000 7.2 220 23:38 29.12.2019
5256 Clouds 11 1020 81 10000 6.2 220 23:20 29.12.2019
5257 Clouds 11 1020 81 10000 8.2 210 22:41 29.12.2019
5258 Clouds 11 1020 81 10000 9.3 210 22:22 29.12.2019
5259 Clouds 11 1020 81 10000 9.3 210 21:57 29.12.2019
5260 Clouds 11 1021 81 10000 8.2 210 21:39 29.12.2019
5261 Clouds 11 1021 81 10000 9.3 210 21:20 29.12.2019
5262 Clouds 11 1021 81 10000 9.3 210 20:57 29.12.2019
5263 Clouds 11 1020 81 10000 8.2 210 20:38 29.12.2019
5264 Clouds 11 1021 81 10000 8.7 210 20:20 29.12.2019
5265 Clouds 10 1021 81 10000 8.7 210 19:58 29.12.2019
5266 Clouds 10 1020 81 10000 9.3 210 19:39 29.12.2019
5267 Clouds 10 1020 87 10000 7.7 200 19:20 29.12.2019
5268 Clouds 10 1020 87 10000 9.8 200 18:55 29.12.2019
5269 Clouds 10 1020 87 10000 9.8 200 18:37 29.12.2019
5270 Clouds 10 1021 87 10000 8.2 210 18:18 29.12.2019
5271 Clouds 10 1021 87 10000 8.2 220 17:56 29.12.2019
5272 Clouds 10 1021 87 10000 8.2 220 17:38 29.12.2019
5273 Clouds 10 1021 87 10000 7.7 220 17:19 29.12.2019
5274 Clouds 10 1021 87 10000 7.7 220 16:55 29.12.2019
5275 Clouds 10 1021 87 10000 8.2 210 16:36 29.12.2019
5276 Clouds 10 1021 87 10000 8.2 210 16:36 29.12.2019
5277 Clouds 11 1021 87 10000 6.2 220 16:18 29.12.2019
5278 Clouds 11 1021 87 10000 6.2 220 15:55 29.12.2019
5279 Clouds 11 1021 87 10000 8.2 220 15:37 29.12.2019
5280 Clouds 11 1021 81 10000 7.7 220 15:18 29.12.2019
5281 Clouds 11 1021 81 10000 7.7 220 14:55 29.12.2019
5282 Clouds 11 1021 81 10000 7.7 220 14:37 29.12.2019
5283 Clouds 11 1021 81 10000 8.2 220 14:18 29.12.2019
5284 Clouds 11 1021 81 10000 8.2 220 13:41 29.12.2019
5285 Clouds 11 1022 81 10000 8.2 210 13:22 29.12.2019
5286 Clouds 11 1022 81 10000 8.2 210 12:59 29.12.2019
5287 Clouds 11 1022 87 10000 7.7 220 12:41 29.12.2019
5288 Clouds 11 1022 81 10000 8.2 210 12:22 29.12.2019
5289 Clouds 11 1022 87 10000 7.2 210 11:46 29.12.2019
5290 Clouds 10 1022 87 10000 7.2 210 11:23 29.12.2019
5291 Clouds 11 1022 87 10000 7.2 210 11:00 29.12.2019
5292 Clouds 10 1022 87 10000 8.2 210 10:41 29.12.2019
5293 Clouds 11 1022 87 10000 7.7 220 10:19 29.12.2019
5294 Clouds 10 1022 81 10000 8.2 210 09:47 29.12.2019
5295 Clouds 10 1022 81 10000 8.2 210 09:28 29.12.2019
5296 Clouds 10 1022 87 10000 8.7 200 08:59 29.12.2019
5297 Clouds 10 1022 81 10000 9.8 200 08:41 29.12.2019
5298 Clouds 10 1022 81 10000 10.8 200 08:23 29.12.2019
5299 Clouds 11 1022 81 10000 11.3 200 07:49 29.12.2019
5300 Clouds 11 1022 87 10000 10.8 210 07:27 29.12.2019
5301 Rain 10 1022 87 10000 10.8 200 06:52 29.12.2019
5302 Rain 11 1022 81 10000 10.8 200 06:22 29.12.2019
5303 Rain 10 1022 81 10000 11.3 190 05:45 29.12.2019
5304 Clouds 10 1024 81 10000 10.3 200 04:33 29.12.2019
5305 Rain 10 1024 87 10000 8.2 190 03:39 29.12.2019
5306 Rain 10 1024 81 10000 4.6 190 02:36 29.12.2019
5307 Rain 10 1024 87 10000 6.7 190 02:18 29.12.2019
5308 Rain 10 1024 87 10000 7.7 180 01:31 29.12.2019
5309 Rain 10 1024 87 10000 7.7 180 01:31 29.12.2019
5310 Rain 10 1026 87 10000 6.7 200 00:51 29.12.2019
5311 Rain 10 1026 87 10000 6.7 200 00:25 29.12.2019
5312 Rain 10 1026 87 10000 5.7 190 23:56 28.12.2019
5313 Rain 10 1026 87 10000 5.7 190 23:37 28.12.2019
5314 Rain 10 1027 87 10000 4.1 220 23:18 28.12.2019
5315 Rain 10 1027 87 10000 4.1 220 23:18 28.12.2019
5316 Rain 10 1027 87 10000 4.1 220 23:18 28.12.2019
5317 Rain 10 1026 87 9000 5.1 200 22:37 28.12.2019
5318 Rain 10 1026 87 10000 2.1 230 22:18 28.12.2019
5319 Clouds 10 1025 87 10000 2.6 160 21:56 28.12.2019
5320 Clouds 10 1025 87 10000 2.6 160 21:37 28.12.2019
5321 Rain 10 1026 81 10000 2.1 150 21:19 28.12.2019
5322 Rain 10 1026 87 10000 3.6 210 20:54 28.12.2019
5323 Rain 10 1026 87 10000 3.6 210 20:36 28.12.2019
5324 Rain 10 1026 87 10000 4.6 200 20:18 28.12.2019
5325 Rain 10 1026 87 10000 2.1 200 19:41 28.12.2019
5326 Rain 10 1026 87 10000 4.1 230 19:23 28.12.2019
5327 Rain 10 1026 87 10000 4.1 230 18:59 28.12.2019
5328 Rain 10 1025 81 10000 4.1 220 18:40 28.12.2019
5329 Rain 10 1025 81 10000 5.1 200 18:20 28.12.2019
5330 Rain 10 1025 81 10000 5.1 200 17:58 28.12.2019
5331 Rain 10 1025 87 10000 5.1 200 17:39 28.12.2019
5332 Rain 10 1025 81 10000 2.6 220 17:19 28.12.2019
5333 Rain 10 1025 87 10000 1 0 16:48 28.12.2019
5334 Rain 10 1025 87 10000 1 0 16:26 28.12.2019
5335 Clouds 10 1025 81 10000 4.6 180 15:57 28.12.2019
5336 Clouds 10 1025 81 10000 4.6 180 15:39 28.12.2019
5337 Rain 10 1026 81 10000 6.2 190 15:20 28.12.2019
5338 Rain 10 1026 87 10000 5.7 180 14:45 28.12.2019
5339 Rain 10 1026 87 10000 5.1 190 14:24 28.12.2019
5340 Rain 10 1026 87 10000 5.1 190 14:24 28.12.2019
5341 Rain 10 1026 87 10000 5.1 170 13:57 28.12.2019
5342 Rain 10 1026 87 10000 5.1 170 13:38 28.12.2019
5343 Rain 10 1027 87 10000 5.1 190 13:19 28.12.2019
5344 Rain 10 1027 81 10000 5.7 190 12:44 28.12.2019
5345 Rain 10 1027 81 10000 5.1 190 12:24 28.12.2019
5346 Rain 10 1027 87 10000 8.2 200 11:58 28.12.2019
5347 Rain 10 1027 87 10000 8.2 200 11:39 28.12.2019
5348 Clouds 10 1027 87 10000 8.2 200 11:20 28.12.2019
5349 Clouds 10 1027 81 10000 8.2 200 10:46 28.12.2019
5350 Clouds 10 1026 81 10000 8.7 190 10:22 28.12.2019
5351 Clouds 10 1026 81 10000 8.7 190 10:22 28.12.2019
5352 Clouds 10 1026 81 10000 8.7 190 09:58 28.12.2019
5353 Clouds 10 1026 87 10000 8.7 200 09:40 28.12.2019
5354 Clouds 10 1025 87 10000 9.3 190 09:20 28.12.2019
5355 Clouds 10 1026 81 10000 9.3 190 08:44 28.12.2019
5356 Clouds 10 1026 81 10000 9.3 190 08:26 28.12.2019
5357 Clouds 10 1025 81 10000 8.7 190 07:55 28.12.2019
5358 Clouds 10 1025 81 10000 8.7 190 07:31 28.12.2019
5359 Clouds 10 1025 87 10000 7.7 190 06:41 28.12.2019
5360 Clouds 11 1026 87 10000 5.1 200 04:51 28.12.2019
5361 Clouds 10 1026 93 10000 1.5 0 03:47 28.12.2019
5362 Clouds 10 1025 93 10000 2.1 140 02:48 28.12.2019
5363 Clouds 10 1025 87 10000 3.6 150 01:59 28.12.2019
5364 Clouds 10 1026 93 10000 4.1 160 01:30 28.12.2019
5365 Rain 10 1026 93 7000 3.6 160 00:58 28.12.2019
5366 Rain 10 1026 93 10000 3.1 140 00:38 28.12.2019
5367 Clouds 10 1026 93 10000 3.1 150 00:19 28.12.2019
5368 Rain 10 1026 93 10000 3.6 190 23:43 27.12.2019
5369 Rain 10 1026 93 10000 5.1 190 23:20 27.12.2019
5370 Rain 10 1026 93 10000 5.1 190 22:58 27.12.2019
5371 Rain 10 1026 93 8000 2.1 240 22:38 27.12.2019
5372 Clouds 10 1026 87 10000 3.6 200 22:20 27.12.2019
5373 Clouds 10 1026 87 10000 3.6 200 22:20 27.12.2019
5374 Clouds 10 1025 93 10000 1.5 0 21:55 27.12.2019
5375 Clouds 10 1025 93 10000 1.5 0 21:37 27.12.2019
5376 Clouds 10 1025 87 10000 1.5 0 21:18 27.12.2019
5377 Clouds 10 1024 93 10000 2.1 180 20:41 27.12.2019
5378 Drizzle 10 1024 93 3700 2.1 0 20:22 27.12.2019
5379 Rain 10 1024 93 6000 1.5 0 19:43 27.12.2019
5380 Clouds 9 1024 93 10000 3.1 120 19:21 27.12.2019
5381 Clouds 9 1024 93 10000 3.1 120 18:59 27.12.2019
5382 Rain 9 1024 93 10000 2.6 90 18:39 27.12.2019
5383 Rain 9 1024 93 6000 1.5 120 18:21 27.12.2019
5384 Rain 9 1024 93 6000 1.5 120 17:57 27.12.2019
5385 Rain 9 1024 93 7000 1.5 0 17:39 27.12.2019
5386 Drizzle 9 1023 93 4900 1 0 17:19 27.12.2019
5387 Drizzle 9 1023 93 4900 1 0 16:58 27.12.2019
5388 Rain 9 1023 93 8000 3.1 150 16:38 27.12.2019
5389 Clouds 9 1023 87 10000 3.6 150 16:19 27.12.2019
5390 Clouds 8 1023 87 10000 2.6 140 15:44 27.12.2019
5391 Clouds 8 1023 87 10000 1.5 0 15:22 27.12.2019
5392 Clouds 8 1023 87 10000 2.1 150 14:57 27.12.2019
5393 Clouds 8 1023 87 10000 2.1 150 14:39 27.12.2019
5394 Clouds 8 1023 93 10000 2.6 130 14:20 27.12.2019
5395 Clouds 8 1023 93 10000 2.6 130 14:20 27.12.2019
5396 Clouds 7 1023 93 10000 2.1 100 13:48 27.12.2019
5397 Clouds 7 1023 100 10000 2.6 80 13:25 27.12.2019
5398 Clouds 7 1023 100 10000 2.6 80 12:58 27.12.2019
5399 Rain 7 1023 93 10000 2.1 40 12:40 27.12.2019
5400 Rain 7 1023 93 6000 2.1 50 12:21 27.12.2019
5401 Rain 7 1022 93 8000 2.1 80 11:45 27.12.2019
5402 Rain 7 1022 93 8000 2.1 80 11:26 27.12.2019
5403 Rain 7 1022 100 8000 2.6 60 10:56 27.12.2019
5404 Rain 6 1022 100 8000 2.6 60 10:38 27.12.2019
5405 Rain 6 1022 100 8000 3.1 60 10:20 27.12.2019
5406 Rain 6 1022 100 8000 3.6 60 09:42 27.12.2019
5407 Rain 6 1022 93 5000 2.6 50 09:21 27.12.2019
5408 Rain 6 1022 93 5000 2.6 50 08:56 27.12.2019
5409 Rain 6 1022 93 3800 3.1 50 08:36 27.12.2019
5410 Rain 6 1021 93 10000 3.1 50 07:51 27.12.2019
5411 Rain 5 1021 93 10000 3.1 50 07:31 27.12.2019
5412 Rain 5 1021 93 10000 2.1 60 06:37 27.12.2019
5413 Clouds 5 1021 87 10000 3.6 110 05:37 27.12.2019
5414 Clouds 5 1021 93 10000 2.1 110 03:40 27.12.2019
5415 Clouds 5 1020 87 10000 2.1 50 02:20 27.12.2019
5416 Clouds 5 1020 87 10000 3.1 60 01:37 27.12.2019
5417 Clouds 5 1020 87 10000 3.1 90 01:18 27.12.2019
5418 Clouds 5 1019 87 10000 4.1 80 00:41 27.12.2019
5419 Clouds 5 1019 87 10000 3.1 80 00:23 27.12.2019
5420 Clouds 5 1019 87 10000 3.6 70 23:41 26.12.2019
5421 Clouds 5 1018 86 10000 3.6 70 23:22 26.12.2019
5422 Clouds 6 1018 81 10000 3.6 60 22:47 26.12.2019
5423 Clouds 5 1017 87 10000 4.1 80 22:23 26.12.2019
5424 Clouds 5 1017 81 10000 5.1 80 21:59 26.12.2019
5425 Clouds 6 1017 81 10000 5.1 80 21:39 26.12.2019
5426 Clouds 5 1017 81 10000 4.6 80 21:20 26.12.2019
5427 Clouds 5 1016 81 10000 5.1 80 20:46 26.12.2019
5428 Clouds 5 1016 81 10000 6.2 80 20:23 26.12.2019
5429 Clouds 5 1015 81 10000 5.1 80 19:59 26.12.2019
5430 Clouds 5 1015 81 10000 5.1 80 19:40 26.12.2019
5431 Clouds 5 1015 86 10000 5.7 80 19:21 26.12.2019
5432 Clouds 5 1015 86 10000 5.7 80 18:58 26.12.2019
5433 Clouds 5 1015 86 10000 5.1 70 18:39 26.12.2019
5434 Rain 5 1015 86 10000 6.2 70 18:19 26.12.2019
5435 Rain 5 1014 81 10000 5.7 70 17:55 26.12.2019
5436 Rain 6 1014 81 10000 5.7 70 17:37 26.12.2019
5437 Rain 6 1014 81 10000 4.6 70 17:18 26.12.2019
5438 Rain 6 1014 81 10000 6.2 70 16:41 26.12.2019
5439 Clouds 6 1014 81 10000 5.7 70 16:22 26.12.2019
5440 Clouds 6 1014 81 10000 5.1 80 15:55 26.12.2019
5441 Clouds 6 1014 81 10000 5.1 80 15:37 26.12.2019
5442 Clouds 6 1014 81 10000 5.7 70 15:18 26.12.2019
5443 Clouds 6 1014 75 10000 6.2 70 14:39 26.12.2019
5444 Clouds 6 1014 81 10000 4.6 80 14:21 26.12.2019
5445 Clouds 5 1014 86 10000 5.7 70 13:43 26.12.2019
5446 Clouds 5 1014 86 10000 6.2 70 13:21 26.12.2019
5447 Clouds 5 1014 86 10000 6.2 70 12:58 26.12.2019
5448 Clouds 5 1014 80 10000 7.2 60 12:38 26.12.2019
5449 Clouds 5 1014 80 10000 6.7 60 12:19 26.12.2019
5450 Clouds 5 1014 80 10000 6.7 60 11:57 26.12.2019
5451 Clouds 5 1014 80 10000 6.7 60 11:38 26.12.2019
5452 Clouds 5 1014 80 10000 7.2 70 11:19 26.12.2019
5453 Clouds 5 1015 80 10000 7.2 70 10:42 26.12.2019
5454 Clouds 4 1015 80 10000 6.2 70 10:18 26.12.2019
5455 Clouds 4 1015 80 10000 7.2 70 09:45 26.12.2019
5456 Clouds 4 1015 80 10000 7.2 70 09:26 26.12.2019
5457 Clouds 4 1016 86 10000 7.7 60 08:42 26.12.2019
5458 Clouds 4 1016 86 10000 8.2 70 08:24 26.12.2019
5459 Clouds 4 1016 86 10000 7.2 70 07:53 26.12.2019
5460 Clouds 4 1017 86 10000 7.2 70 07:26 26.12.2019
5461 Clouds 4 1017 86 10000 6.2 60 06:52 26.12.2019
5462 Clouds 4 1018 86 10000 5.1 60 06:31 26.12.2019
5463 Clouds 4 1018 86 10000 6.2 60 05:45 26.12.2019
5464 Clouds 4 1019 86 10000 4.6 60 04:48 26.12.2019
5465 Clouds 4 1019 86 10000 4.6 60 04:29 26.12.2019
5466 Clouds 3 1020 93 10000 3.6 80 02:54 26.12.2019
5467 Clouds 3 1020 93 10000 3.6 80 02:32 26.12.2019
5468 Clouds 3 1021 86 10000 3.1 110 01:46 26.12.2019
5469 Clouds 4 1021 86 10000 3.6 110 01:26 26.12.2019
5470 Clouds 4 1021 81 10000 3.6 90 00:48 26.12.2019
5471 Clouds 4 1021 81 10000 3.6 90 00:24 26.12.2019
5472 Clouds 4 1021 81 10000 3.6 90 00:24 26.12.2019
5473 Clouds 4 1021 81 10000 3.6 90 23:58 25.12.2019
5474 Clouds 4 1022 81 10000 4.1 90 23:38 25.12.2019
5475 Clouds 4 1022 87 10000 3.1 80 23:20 25.12.2019
5476 Clouds 4 1022 93 10000 2.1 70 22:57 25.12.2019
5477 Clouds 4 1022 93 10000 2.1 70 22:37 25.12.2019
5478 Clouds 4 1022 93 10000 2.6 60 22:19 25.12.2019
5479 Clouds 4 1022 93 10000 2.6 60 21:57 25.12.2019
5480 Clouds 4 1022 93 10000 2.1 60 21:39 25.12.2019
5481 Clouds 4 1022 93 10000 2.6 70 21:19 25.12.2019
5482 Clouds 4 1023 93 10000 1 0 20:41 25.12.2019
5483 Clouds 4 1023 93 10000 1 0 20:21 25.12.2019
5484 Clouds 4 1023 93 10000 1 0 19:59 25.12.2019
5485 Clouds 4 1023 93 10000 1.5 0 19:41 25.12.2019
5486 Clouds 4 1023 93 10000 1.5 70 19:21 25.12.2019
5487 Clouds 4 1023 93 10000 0.5 0 18:40 25.12.2019
5488 Clouds 4 1023 93 10000 1 240 18:21 25.12.2019
5489 Clouds 4 1023 93 10000 0.5 0 17:57 25.12.2019
5490 Clouds 4 1023 93 10000 0.5 0 17:39 25.12.2019
5491 Clouds 5 1023 87 10000 1 240 17:18 25.12.2019
5492 Clouds 5 1023 87 10000 2.6 230 16:39 25.12.2019
5493 Clouds 6 1022 93 10000 3.1 230 16:20 25.12.2019
5494 Clouds 6 1022 93 10000 3.1 230 15:59 25.12.2019
5495 Clouds 7 1022 93 10000 2.1 250 15:40 25.12.2019
5496 Clear 6 1022 87 10000 1.5 240 15:22 25.12.2019
5497 Clear 7 1022 87 10000 1.5 240 14:59 25.12.2019
5498 Clear 7 1022 87 10000 2.1 240 14:40 25.12.2019
5499 Clouds 6 1022 87 10000 1.5 250 14:22 25.12.2019
5500 Clouds 6 1022 87 10000 1.5 250 13:57 25.12.2019
5501 Clouds 6 1022 87 10000 1.5 250 13:57 25.12.2019
5502 Clouds 6 1022 93 10000 2.1 230 13:39 25.12.2019
5503 Clear 5 1022 93 10000 2.6 250 13:19 25.12.2019
5504 Clear 4 1022 93 10000 2.6 220 12:43 25.12.2019
5505 Clear 4 1022 93 10000 0.5 0 12:21 25.12.2019
5506 Clear 3 1022 93 10000 0.5 0 11:57 25.12.2019
5507 Clear 3 1022 93 10000 0.5 0 11:39 25.12.2019
5508 Clouds 3 1021 93 10000 2.1 260 11:18 25.12.2019
5509 Clouds 3 1021 100 10000 2.1 240 10:38 25.12.2019
5510 Clouds 3 1021 100 10000 1 0 10:20 25.12.2019
5511 Clouds 3 1020 93 10000 1 0 09:51 25.12.2019
5512 Clouds 3 1020 93 10000 1 0 09:32 25.12.2019
5513 Clear 4 1019 93 10000 1 250 08:51 25.12.2019
5514 Clear 4 1019 93 10000 1 250 08:31 25.12.2019
5515 Clouds 5 1018 93 10000 3.1 280 07:53 25.12.2019
5516 Clouds 5 1018 93 10000 3.1 280 07:34 25.12.2019
5517 Clouds 5 1018 87 10000 3.6 270 06:58 25.12.2019
5518 Clouds 5 1016 93 10000 2.1 270 06:23 25.12.2019
5519 Clouds 5 1015 93 10000 3.1 250 05:31 25.12.2019
5520 Clouds 5 1015 93 10000 0.5 0 04:39 25.12.2019
5521 Clouds 5 1015 93 10000 3.1 220 04:20 25.12.2019
5522 Clouds 5 1015 93 10000 4.6 230 03:42 25.12.2019
5523 Clouds 4 1014 100 10000 3.1 230 02:54 25.12.2019
5524 Clouds 4 1014 100 10000 3.1 230 02:27 25.12.2019
5525 Clouds 4 1013 100 10000 2.6 250 01:25 25.12.2019
5526 Clouds 4 1013 100 10000 1 0 00:54 25.12.2019
5527 Clouds 4 1013 100 10000 1 0 00:33 25.12.2019
5528 Rain 4 1013 100 6000 1 0 23:57 24.12.2019
5529 Clouds 4 1012 100 10000 1 0 23:38 24.12.2019
5530 Rain 4 1012 93 10000 1.5 0 23:20 24.12.2019
5531 Clouds 4 1011 93 10000 2.6 270 22:41 24.12.2019
5532 Clouds 4 1011 93 10000 2.6 270 22:41 24.12.2019
5533 Clouds 4 1011 93 10000 1 0 22:21 24.12.2019
5534 Clouds 4 1010 93 10000 1.5 0 21:44 24.12.2019
5535 Clouds 4 1010 93 10000 1.5 0 21:44 24.12.2019
5536 Clouds 4 1010 86 10000 1 0 21:23 24.12.2019
5537 Clouds 4 1010 86 10000 1 0 20:59 24.12.2019
5538 Clouds 4 1010 93 10000 1.5 260 20:40 24.12.2019
5539 Clouds 4 1009 86 10000 2.6 250 20:19 24.12.2019
5540 Clouds 4 1009 93 10000 2.1 250 19:45 24.12.2019
5541 Clouds 4 1008 93 10000 3.6 220 19:21 24.12.2019
5542 Clouds 4 1007 93 10000 3.1 230 18:57 24.12.2019
5543 Clouds 4 1007 93 10000 3.1 230 18:38 24.12.2019
5544 Clouds 4 1007 93 10000 2.1 230 18:18 24.12.2019
5545 Clouds 4 1006 93 10000 2.1 240 17:39 24.12.2019
5546 Clouds 5 1006 93 10000 3.1 230 17:21 24.12.2019
5547 Clouds 5 1005 93 10000 2.1 240 16:55 24.12.2019
5548 Clouds 5 1005 93 10000 2.1 240 16:37 24.12.2019
5549 Clouds 6 1005 87 10000 2.6 240 16:19 24.12.2019
5550 Clouds 6 1004 93 10000 2.1 240 15:55 24.12.2019
5551 Clouds 6 1004 93 10000 2.1 240 15:36 24.12.2019
5552 Clouds 6 1004 87 10000 1.5 250 15:18 24.12.2019
5553 Rain 6 1004 93 10000 1.5 240 14:55 24.12.2019
5554 Rain 5 1004 93 10000 1.5 240 14:37 24.12.2019
5555 Clouds 5 1003 100 10000 1.5 250 14:19 24.12.2019
5556 Clouds 5 1003 100 9000 1.5 260 13:55 24.12.2019
5557 Clouds 5 1003 100 9000 1.5 260 13:37 24.12.2019
5558 Clouds 5 1003 100 9000 1.5 260 13:37 24.12.2019
5559 Clouds 5 1003 100 9000 1.5 260 13:37 24.12.2019
5560 Clouds 5 1002 100 7000 1 260 13:19 24.12.2019
5561 Rain 5 1002 100 6000 0.5 0 12:55 24.12.2019
5562 Rain 5 1002 100 6000 0.5 0 12:36 24.12.2019
5563 Rain 5 1002 93 8000 0.5 350 12:18 24.12.2019
5564 Clouds 5 1002 93 8000 0.5 350 11:55 24.12.2019
5565 Clouds 5 1002 93 8000 0.5 350 11:36 24.12.2019
5566 Clouds 4 1001 100 8000 0.5 0 11:18 24.12.2019
5567 Clouds 4 1001 100 8000 0.5 0 10:55 24.12.2019
5568 Clouds 4 1001 100 8000 0.5 0 10:55 24.12.2019
5569 Clouds 4 1001 100 10000 1.5 0 10:36 24.12.2019
5570 Rain 4 1001 93 10000 1.5 100 10:18 24.12.2019
5571 Rain 4 1000 93 10000 1.5 40 09:54 24.12.2019
5572 Rain 4 1000 93 10000 1.5 40 09:36 24.12.2019
5573 Rain 4 1001 100 8000 1 330 09:18 24.12.2019
5574 Rain 4 1000 100 7000 0.5 0 08:42 24.12.2019
5575 Rain 4 1000 100 7000 0.5 0 08:42 24.12.2019
5576 Rain 4 1000 93 4300 1 270 08:19 24.12.2019
5577 Rain 4 1000 93 10000 2.1 150 07:45 24.12.2019
5578 Clouds 4 1000 93 10000 1.5 110 07:24 24.12.2019
5579 Clouds 4 1000 93 10000 1.5 110 07:23 24.12.2019
5580 Clouds 4 1000 100 10000 2.1 120 06:44 24.12.2019
5581 Clouds 4 1000 100 10000 1.5 70 06:22 24.12.2019
5582 Clouds 4 1000 100 10000 1.5 70 05:56 24.12.2019
5583 Clouds 5 1001 100 10000 1 0 05:20 24.12.2019
5584 Clouds 5 1001 93 10000 1 30 04:33 24.12.2019
5585 Clouds 5 1001 93 10000 0.5 0 03:50 24.12.2019
5586 Clouds 5 1002 93 10000 1.5 210 02:59 24.12.2019
5587 Clouds 6 1002 93 10000 4.6 220 02:18 24.12.2019
5588 Clouds 6 1002 86 10000 3.6 220 01:42 24.12.2019
5589 Clouds 6 1002 86 10000 3.6 220 01:42 24.12.2019
5590 Clouds 6 1002 87 10000 4.6 240 01:19 24.12.2019
5591 Clouds 6 1002 87 10000 4.6 230 00:40 24.12.2019
5592 Clouds 6 1002 87 10000 6.2 230 00:20 24.12.2019
5593 Clouds 6 1002 87 10000 3.6 220 23:43 23.12.2019
5594 Clouds 7 1002 87 10000 4.1 220 23:24 23.12.2019
5595 Clouds 7 1002 87 10000 4.1 220 22:58 23.12.2019
5596 Clouds 7 1002 87 10000 4.1 220 22:58 23.12.2019
5597 Clouds 7 1002 87 10000 5.7 220 22:38 23.12.2019
5598 Clouds 7 1002 87 10000 6.2 240 22:20 23.12.2019
5599 Clouds 7 1002 87 10000 6.2 240 21:57 23.12.2019
5600 Clouds 7 1002 87 10000 5.7 230 21:37 23.12.2019
5601 Clouds 7 1002 87 10000 5.7 230 21:37 23.12.2019
5602 Rain 7 1001 93 10000 7.2 230 21:19 23.12.2019
5603 Rain 7 1001 93 10000 7.2 230 20:59 23.12.2019
5604 Clouds 8 1001 87 10000 6.7 240 20:41 23.12.2019
5605 Clouds 8 1001 87 10000 6.7 250 20:19 23.12.2019
5606 Clouds 8 1001 87 10000 6.7 250 19:59 23.12.2019
5607 Rain 7 1001 93 9000 5.7 250 19:40 23.12.2019
5608 Rain 7 1001 87 10000 6.2 240 19:22 23.12.2019
5609 Rain 7 1001 87 10000 6.2 240 18:58 23.12.2019
5610 Rain 7 1001 87 10000 6.2 240 18:58 23.12.2019
5611 Rain 8 1000 87 10000 5.7 250 18:39 23.12.2019
5612 Rain 8 1000 87 10000 8.7 250 18:21 23.12.2019
5613 Rain 8 1000 87 10000 8.7 250 17:59 23.12.2019
5614 Rain 8 1000 87 10000 8.7 250 17:40 23.12.2019
5615 Rain 8 999 87 7000 8.2 250 17:19 23.12.2019
5616 Rain 8 999 87 7000 8.2 250 17:19 23.12.2019
5617 Rain 8 999 87 7000 8.2 250 16:58 23.12.2019
5618 Rain 8 999 93 10000 8.2 250 16:40 23.12.2019
5619 Rain 8 998 87 10000 9.8 240 16:19 23.12.2019
5620 Rain 8 998 81 10000 9.8 250 15:58 23.12.2019
5621 Rain 8 998 81 10000 9.8 250 15:37 23.12.2019
5622 Rain 8 998 93 10000 8.2 250 15:19 23.12.2019
5623 Rain 8 997 81 10000 7.7 250 14:56 23.12.2019
5624 Rain 8 997 81 10000 7.7 250 14:38 23.12.2019
5625 Rain 8 997 87 10000 8.2 250 14:19 23.12.2019
5626 Rain 8 997 93 10000 6.7 250 13:56 23.12.2019
5627 Rain 8 997 93 10000 6.7 250 13:38 23.12.2019
5628 Rain 8 996 87 6000 7.2 240 13:20 23.12.2019
5629 Rain 8 996 87 10000 6.7 240 12:54 23.12.2019
5630 Rain 8 996 87 10000 6.7 240 12:36 23.12.2019
5631 Rain 8 996 87 10000 6.7 240 12:36 23.12.2019
5632 Rain 7 995 93 10000 8.2 230 12:18 23.12.2019
5633 Rain 7 995 93 10000 8.2 230 11:42 23.12.2019
5634 Rain 7 995 93 5000 9.3 220 11:22 23.12.2019
5635 Rain 7 994 93 7000 10.3 220 10:56 23.12.2019
5636 Rain 7 994 93 7000 10.3 220 10:37 23.12.2019
5637 Rain 7 994 93 6000 8.2 210 10:18 23.12.2019
5638 Rain 7 994 93 4500 9.3 210 09:56 23.12.2019
5639 Rain 7 994 93 4500 9.3 210 09:37 23.12.2019
5640 Rain 7 994 93 5000 9.8 220 09:19 23.12.2019
5641 Rain 7 994 93 10000 7.7 220 08:41 23.12.2019
5642 Rain 7 993 87 10000 7.2 220 08:22 23.12.2019
5643 Rain 6 993 93 7000 4.6 210 07:56 23.12.2019
5644 Rain 6 993 93 7000 4.6 210 07:38 23.12.2019
5645 Rain 6 993 93 10000 3.1 220 07:18 23.12.2019
5646 Rain 6 993 93 7000 2.1 180 06:39 23.12.2019
5647 Rain 6 993 93 10000 3.6 190 06:21 23.12.2019
5648 Rain 6 992 87 10000 2.6 190 05:44 23.12.2019
5649 Rain 6 992 87 10000 4.1 240 04:40 23.12.2019
5650 Rain 6 992 93 10000 3.6 240 03:58 23.12.2019
5651 Rain 6 990 100 5000 2.1 240 02:46 23.12.2019
5652 Rain 5 990 100 1900 0.5 0 02:19 23.12.2019
5653 Mist 5 989 100 3800 0.5 0 01:46 23.12.2019
5654 Rain 5 989 93 6000 1 0 01:27 23.12.2019
5655 Drizzle 5 989 100 5000 1 40 00:46 23.12.2019
5656 Rain 5 989 93 8000 1.5 0 00:25 23.12.2019
5657 Rain 5 988 100 6000 1.5 0 23:56 22.12.2019
5658 Rain 5 988 100 6000 1.5 0 23:37 22.12.2019
5659 Clouds 5 988 100 6000 1.5 0 23:18 22.12.2019
5660 Drizzle 5 988 100 6000 1.5 80 22:41 22.12.2019
5661 Mist 5 988 100 5000 1.5 40 22:22 22.12.2019
5662 Clouds 5 987 93 6000 1.5 340 21:59 22.12.2019
5663 Clouds 5 987 93 6000 1.5 340 21:40 22.12.2019
5664 Clouds 5 987 100 6000 1.5 270 21:21 22.12.2019
5665 Clouds 5 987 100 6000 1.5 270 21:21 22.12.2019
5666 Clouds 5 987 100 6000 1.5 270 20:59 22.12.2019
5667 Clouds 5 986 93 6000 1 0 20:39 22.12.2019
5668 Clouds 5 986 100 8000 1 0 20:19 22.12.2019
5669 Clouds 5 986 93 10000 0.5 0 19:57 22.12.2019
5670 Clouds 5 986 93 10000 0.5 0 19:39 22.12.2019
5671 Clouds 5 985 100 10000 0.5 210 19:20 22.12.2019
5672 Clouds 5 985 93 7000 0.5 0 18:42 22.12.2019
5673 Clouds 5 984 93 7000 1.5 40 18:24 22.12.2019
5674 Clouds 5 984 93 7000 1.5 40 17:57 22.12.2019
5675 Clouds 6 984 93 9000 1.5 200 17:39 22.12.2019
5676 Drizzle 5 984 93 4400 1 280 17:19 22.12.2019
5677 Clouds 6 983 93 10000 0.5 340 16:57 22.12.2019
5678 Clouds 6 983 93 10000 0.5 340 16:57 22.12.2019
5679 Clouds 6 983 93 10000 0.5 340 16:39 22.12.2019
5680 Clouds 6 983 93 10000 0.5 30 16:21 22.12.2019
5681 Clouds 6 983 93 10000 0.5 30 15:56 22.12.2019
5682 Clouds 6 982 93 10000 0.5 10 15:38 22.12.2019
5683 Clouds 6 982 93 10000 1 20 15:20 22.12.2019
5684 Clouds 6 982 93 10000 0.5 0 14:55 22.12.2019
5685 Clouds 6 982 93 10000 1 20 14:55 22.12.2019
5686 Clouds 6 982 93 10000 0.5 0 14:37 22.12.2019
5687 Clouds 6 982 93 10000 0.5 0 14:18 22.12.2019
5688 Clouds 6 981 100 7000 0.5 0 13:55 22.12.2019
5689 Clouds 6 981 100 7000 0.5 0 13:36 22.12.2019
5690 Clouds 6 981 100 7000 0.5 0 13:36 22.12.2019
5691 Clouds 6 981 100 9000 0.5 70 13:18 22.12.2019
5692 Clouds 5 981 100 9000 1.5 0 12:55 22.12.2019
5693 Clouds 5 981 100 9000 1.5 0 12:55 22.12.2019
5694 Clouds 5 981 100 9000 1.5 0 12:37 22.12.2019
5695 Clouds 5 981 100 7000 1 0 12:18 22.12.2019
5696 Clouds 5 981 100 7000 1 0 11:55 22.12.2019
5697 Clouds 5 981 100 6000 1 0 11:36 22.12.2019
5698 Mist 5 980 93 5000 1 120 11:18 22.12.2019
5699 Mist 5 980 93 5000 0.5 0 10:54 22.12.2019
5700 Mist 5 980 93 5000 0.5 0 10:36 22.12.2019
5701 Mist 4 980 100 5000 1 20 10:18 22.12.2019
5702 Mist 4 979 93 5000 0.5 0 09:41 22.12.2019
5703 Drizzle 4 979 93 5000 0.5 0 09:22 22.12.2019
5704 Drizzle 4 979 93 5000 0.5 0 08:59 22.12.2019
5705 Clouds 4 979 93 10000 1.5 60 08:38 22.12.2019
5706 Clouds 4 979 93 10000 1.5 60 08:38 22.12.2019
5707 Mist 4 978 93 4300 2.1 70 08:20 22.12.2019
5708 Mist 4 978 100 3600 1.5 50 07:39 22.12.2019
5709 Drizzle 4 978 100 3700 1 50 07:20 22.12.2019
5710 Mist 4 978 100 5000 0.5 0 06:41 22.12.2019
5711 Mist 4 977 100 4700 1.5 50 05:54 22.12.2019
5712 Mist 4 977 93 5000 2.1 70 05:23 22.12.2019
5713 Rain 4 977 93 3600 1.5 50 04:29 22.12.2019
5714 Clouds 4 977 93 6000 2.1 60 03:53 22.12.2019
5715 Clouds 5 976 93 6000 2.1 50 02:40 22.12.2019
5716 Clouds 4 976 93 7000 2.1 60 01:47 22.12.2019
5717 Clouds 4 976 93 7000 2.1 60 01:28 22.12.2019
5718 Clouds 4 975 93 7000 2.6 60 00:47 22.12.2019
5719 Clouds 4 975 93 7000 2.6 50 00:23 22.12.2019
5720 Rain 4 975 93 8000 3.1 50 23:56 21.12.2019
5721 Rain 5 975 93 8000 3.1 50 23:38 21.12.2019
5722 Rain 5 975 93 7000 2.6 70 23:19 21.12.2019
5723 Rain 5 975 93 10000 2.1 80 22:41 21.12.2019
5724 Rain 5 974 93 10000 3.6 60 22:19 21.12.2019
5725 Clouds 5 974 93 10000 3.6 60 21:57 21.12.2019
5726 Clouds 5 974 93 10000 3.6 60 21:37 21.12.2019
5727 Clouds 5 974 87 10000 3.1 60 21:19 21.12.2019
5728 Clouds 5 974 87 10000 3.1 60 20:58 21.12.2019
5729 Clouds 5 974 87 10000 3.1 70 20:39 21.12.2019
5730 Clouds 5 974 87 10000 3.1 70 20:39 21.12.2019
5731 Clouds 5 974 87 10000 3.1 60 20:21 21.12.2019
5732 Clouds 5 974 87 10000 3.1 60 19:58 21.12.2019
5733 Clouds 5 974 93 10000 2.1 50 19:40 21.12.2019
5734 Clouds 5 974 87 10000 2.6 70 19:19 21.12.2019
5735 Clouds 5 974 87 10000 2.6 70 19:19 21.12.2019
5736 Clouds 5 974 87 10000 2.6 60 18:44 21.12.2019
5737 Clouds 5 974 87 10000 4.1 60 18:24 21.12.2019
5738 Clouds 5 974 93 10000 3.1 60 17:57 21.12.2019
5739 Clouds 5 974 93 10000 3.1 60 17:39 21.12.2019
5740 Clouds 5 974 93 10000 3.6 60 17:21 21.12.2019
5741 Clouds 5 974 93 10000 3.6 60 16:58 21.12.2019
5742 Clouds 5 974 87 10000 3.6 60 16:39 21.12.2019
5743 Clouds 6 974 81 10000 3.6 90 16:18 21.12.2019
5744 Clouds 6 974 87 10000 3.1 60 15:56 21.12.2019
5745 Clouds 6 974 87 10000 3.1 60 15:38 21.12.2019
5746 Clouds 6 974 93 10000 3.6 50 15:19 21.12.2019
5747 Clouds 6 974 93 10000 2.6 70 14:44 21.12.2019
5748 Clouds 6 974 93 10000 2.1 60 14:25 21.12.2019
5749 Clouds 6 975 87 10000 2.6 70 13:59 21.12.2019
5750 Clouds 6 975 87 10000 2.6 70 13:40 21.12.2019
5751 Clouds 5 975 93 10000 3.1 60 13:20 21.12.2019
5752 Clouds 5 975 93 10000 3.1 60 12:57 21.12.2019
5753 Clouds 5 975 93 10000 2.6 60 12:39 21.12.2019
5754 Clouds 4 975 93 10000 2.6 60 12:21 21.12.2019
5755 Clouds 4 975 93 10000 2.6 60 11:57 21.12.2019
5756 Clouds 4 975 86 10000 2.1 50 11:39 21.12.2019
5757 Clouds 3 976 93 10000 2.1 50 11:21 21.12.2019
5758 Clouds 3 976 93 10000 2.6 60 10:41 21.12.2019
5759 Clouds 3 976 93 10000 1.5 60 10:23 21.12.2019
5760 Clouds 3 976 93 10000 1.5 60 10:23 21.12.2019
5761 Clouds 3 976 93 10000 1.5 60 09:58 21.12.2019
5762 Clouds 3 976 86 10000 2.6 110 09:40 21.12.2019
5763 Clouds 3 976 86 10000 2.1 140 09:20 21.12.2019
5764 Clouds 3 976 86 10000 4.1 170 08:52 21.12.2019
5765 Clouds 3 976 86 10000 4.1 170 08:27 21.12.2019
5766 Clouds 3 975 93 10000 2.6 90 07:58 21.12.2019
5767 Clouds 3 975 93 10000 2.6 90 07:40 21.12.2019
5768 Clouds 3 976 93 10000 1.5 30 07:21 21.12.2019
5769 Clouds 3 976 93 10000 1.5 0 06:41 21.12.2019
5770 Clouds 4 976 93 10000 4.6 180 06:23 21.12.2019
5771 Clouds 4 976 93 10000 2.1 220 05:37 21.12.2019
5772 Clouds 4 976 93 10000 4.1 190 04:55 21.12.2019
5773 Clouds 5 976 93 10000 5.7 210 03:56 21.12.2019
5774 Clouds 5 975 93 10000 5.7 220 02:26 21.12.2019
5775 Rain 6 975 93 10000 5.7 230 01:50 21.12.2019
5776 Clouds 6 975 87 10000 5.7 230 01:25 21.12.2019
5777 Clouds 6 975 100 10000 4.1 240 00:49 21.12.2019
5778 Clouds 6 975 100 10000 4.1 240 00:28 21.12.2019
5779 Clouds 6 975 93 10000 2.6 250 23:39 20.12.2019
5780 Clouds 6 975 93 10000 2.6 250 23:39 20.12.2019
5781 Rain 6 975 93 10000 4.1 230 23:21 20.12.2019
5782 Rain 6 974 93 10000 3.1 230 22:59 20.12.2019
5783 Rain 6 974 93 10000 3.1 230 22:39 20.12.2019
5784 Rain 7 974 87 10000 4.1 250 22:19 20.12.2019
5785 Rain 6 974 93 10000 3.6 240 21:54 20.12.2019
5786 Rain 6 974 93 10000 3.6 240 21:36 20.12.2019
5787 Clouds 6 974 93 10000 3.1 240 21:18 20.12.2019
5788 Clouds 6 974 93 10000 3.1 240 21:18 20.12.2019
5789 Clouds 6 974 93 10000 3.6 230 20:38 20.12.2019
5790 Clouds 6 974 93 10000 3.6 230 20:38 20.12.2019
5791 Clouds 6 974 93 10000 3.6 230 20:19 20.12.2019
5792 Clouds 6 974 93 10000 4.1 230 19:56 20.12.2019
5793 Clouds 6 974 93 10000 4.1 230 19:38 20.12.2019
5794 Clouds 6 974 93 10000 2.6 240 19:18 20.12.2019
5795 Clouds 6 974 93 10000 2.6 240 19:18 20.12.2019
5796 Clouds 6 974 93 10000 1.5 250 18:41 20.12.2019
5797 Clouds 7 973 93 10000 2.6 240 18:22 20.12.2019
5798 Clouds 7 973 93 10000 2.6 240 17:57 20.12.2019
5799 Rain 7 973 93 10000 3.1 230 17:39 20.12.2019
5800 Rain 7 973 93 10000 3.1 230 17:39 20.12.2019
5801 Rain 7 973 93 10000 3.1 230 17:20 20.12.2019
5802 Clouds 7 973 93 10000 3.1 230 16:56 20.12.2019
5803 Clouds 7 973 87 10000 2.6 230 16:38 20.12.2019
5804 Clouds 7 973 87 10000 2.6 230 16:38 20.12.2019
5805 Clouds 7 973 87 10000 2.6 230 16:38 20.12.2019
5806 Clouds 7 973 87 10000 2.6 230 16:19 20.12.2019
5807 Clouds 7 974 93 10000 2.1 240 15:54 20.12.2019
5808 Clouds 7 974 87 10000 4.1 220 15:36 20.12.2019
5809 Clouds 8 974 87 10000 4.1 220 15:18 20.12.2019
5810 Clouds 7 974 93 10000 3.1 230 14:42 20.12.2019
5811 Clouds 8 974 87 10000 3.1 230 14:23 20.12.2019
5812 Clouds 8 975 87 10000 1.5 0 13:57 20.12.2019
5813 Clouds 8 975 87 10000 1.5 0 13:37 20.12.2019
5814 Clouds 8 975 87 10000 1.5 0 13:18 20.12.2019
5815 Clouds 7 976 93 10000 1.5 0 12:55 20.12.2019
5816 Clouds 7 976 93 10000 2.1 170 12:36 20.12.2019
5817 Clouds 7 976 93 10000 2.1 170 12:18 20.12.2019
5818 Clouds 7 976 87 10000 2.1 190 11:57 20.12.2019
5819 Clouds 7 976 93 10000 3.1 150 11:38 20.12.2019
5820 Clouds 7 976 93 10000 3.1 150 11:18 20.12.2019
5821 Rain 7 976 93 10000 3.6 180 10:55 20.12.2019
5822 Drizzle 7 976 93 5000 3.6 190 10:37 20.12.2019
5823 Drizzle 7 976 93 5000 3.6 190 10:18 20.12.2019
5824 Rain 7 976 93 7000 2.6 170 09:42 20.12.2019
5825 Rain 7 976 87 9000 3.6 160 09:21 20.12.2019
5826 Clouds 8 976 87 9000 4.1 150 08:54 20.12.2019
5827 Rain 8 976 87 10000 3.1 140 08:36 20.12.2019
5828 Rain 8 976 87 10000 3.1 140 08:18 20.12.2019
5829 Rain 8 976 87 7000 4.6 160 07:41 20.12.2019
5830 Rain 8 976 87 7000 4.6 160 07:20 20.12.2019
5831 Clouds 8 976 87 10000 4.1 140 06:52 20.12.2019
5832 Clouds 8 976 81 10000 5.1 150 06:33 20.12.2019
5833 Clouds 8 976 81 10000 5.1 150 05:56 20.12.2019
5834 Clouds 8 976 81 10000 4.1 140 05:38 20.12.2019
5835 Clouds 8 977 81 10000 4.6 160 04:34 20.12.2019
5836 Clouds 8 977 87 10000 4.1 140 03:31 20.12.2019
5837 Clouds 8 977 81 10000 5.7 130 02:45 20.12.2019
5838 Rain 8 978 87 10000 4.6 130 01:54 20.12.2019
5839 Rain 8 978 93 10000 3.6 100 01:34 20.12.2019
5840 Rain 8 978 93 10000 3.6 100 00:49 20.12.2019
5841 Rain 8 978 93 9000 2.6 100 00:30 20.12.2019
5842 Rain 8 979 93 7000 2.1 110 23:56 19.12.2019
5843 Rain 8 979 100 6000 2.1 110 23:38 19.12.2019
5844 Rain 8 979 100 6000 2.1 110 23:18 19.12.2019
5845 Rain 8 981 93 8000 6.2 60 22:38 19.12.2019
5846 Rain 8 981 93 8000 6.2 60 22:20 19.12.2019
5847 Rain 8 981 93 6000 7.2 60 21:56 19.12.2019
5848 Rain 8 983 93 7000 5.1 60 21:37 19.12.2019
5849 Rain 8 983 93 7000 5.1 60 21:18 19.12.2019
5850 Rain 8 984 93 7000 5.1 80 20:56 19.12.2019
5851 Rain 8 984 93 10000 4.6 80 20:37 19.12.2019
5852 Rain 8 984 93 10000 4.6 80 20:18 19.12.2019
5853 Rain 8 985 93 10000 5.1 60 19:57 19.12.2019
5854 Rain 8 985 93 10000 5.1 60 19:57 19.12.2019
5855 Rain 8 985 93 10000 5.1 60 19:39 19.12.2019
5856 Rain 8 985 93 10000 5.1 60 19:39 19.12.2019
5857 Rain 8 986 93 10000 4.6 70 19:19 19.12.2019
5858 Rain 8 986 93 10000 4.6 70 19:19 19.12.2019
5859 Clouds 8 987 93 10000 4.6 60 18:41 19.12.2019
5860 Clouds 8 987 93 10000 4.6 60 18:23 19.12.2019
5861 Rain 8 988 93 10000 4.1 50 17:58 19.12.2019
5862 Rain 8 988 93 10000 4.1 50 17:40 19.12.2019
5863 Clouds 8 989 93 10000 3.1 60 17:19 19.12.2019
5864 Clouds 8 989 93 10000 3.1 60 17:19 19.12.2019
5865 Clouds 8 989 87 10000 3.1 80 16:59 19.12.2019
5866 Clouds 8 989 87 10000 3.1 80 16:41 19.12.2019
5867 Clouds 8 989 87 10000 4.1 90 16:22 19.12.2019
5868 Rain 8 990 81 10000 4.6 100 15:59 19.12.2019
5869 Rain 8 990 81 10000 4.6 100 15:59 19.12.2019
5870 Rain 9 990 81 10000 4.6 100 15:40 19.12.2019
5871 Rain 9 990 81 10000 4.1 120 15:20 19.12.2019
5872 Clouds 9 991 76 10000 4.6 140 14:59 19.12.2019
5873 Clouds 9 991 81 10000 4.6 130 14:41 19.12.2019
5874 Clouds 9 991 81 10000 4.6 130 14:41 19.12.2019
5875 Clouds 9 991 81 10000 4.6 130 14:19 19.12.2019
5876 Clouds 9 991 81 10000 3.6 130 13:57 19.12.2019
5877 Clouds 9 991 81 10000 3.1 90 13:37 19.12.2019
5878 Clouds 9 991 81 10000 3.1 90 13:18 19.12.2019
5879 Rain 9 992 81 10000 2.6 90 12:55 19.12.2019
5880 Rain 9 992 81 10000 2.6 90 12:55 19.12.2019
5881 Clouds 9 992 81 10000 2.1 110 12:37 19.12.2019
5882 Clouds 9 992 81 10000 2.1 110 12:18 19.12.2019
5883 Clouds 9 992 81 10000 2.1 110 12:18 19.12.2019
5884 Clouds 9 992 81 10000 2.1 110 12:18 19.12.2019
5885 Clouds 9 992 87 10000 3.1 100 11:57 19.12.2019
5886 Clouds 9 991 81 10000 3.1 100 11:38 19.12.2019
5887 Clouds 8 991 81 10000 3.1 100 11:18 19.12.2019
5888 Clouds 8 991 81 10000 3.6 130 10:39 19.12.2019
5889 Clouds 8 991 81 10000 3.6 130 10:20 19.12.2019
5890 Clouds 8 991 81 10000 3.1 130 09:59 19.12.2019
5891 Clouds 8 991 81 10000 2.6 130 09:38 19.12.2019
5892 Clouds 8 991 81 10000 2.6 130 09:20 19.12.2019
5893 Clouds 8 991 81 10000 2.6 130 09:20 19.12.2019
5894 Clouds 8 991 87 10000 3.6 130 08:57 19.12.2019
5895 Clouds 8 991 81 10000 3.1 130 08:39 19.12.2019
5896 Rain 9 991 81 10000 3.1 130 08:18 19.12.2019
5897 Clouds 9 991 87 10000 3.6 110 07:55 19.12.2019
5898 Clouds 9 991 87 10000 3.6 110 07:55 19.12.2019
5899 Clouds 9 991 81 10000 3.1 120 07:37 19.12.2019
5900 Clouds 9 991 81 10000 3.1 120 07:19 19.12.2019
5901 Clouds 9 991 87 10000 2.6 100 06:45 19.12.2019
5902 Rain 9 990 81 10000 1.5 0 06:26 19.12.2019
5903 Rain 9 990 81 10000 3.6 140 05:49 19.12.2019
5904 Rain 9 990 81 10000 6.2 170 05:28 19.12.2019
5905 Rain 9 990 81 10000 5.7 160 04:41 19.12.2019
5906 Clouds 9 990 81 10000 7.2 160 02:48 19.12.2019
5907 Clouds 8 989 87 10000 4.6 110 01:46 19.12.2019
5908 Rain 8 989 87 10000 6.7 100 01:21 19.12.2019
5909 Clouds 7 990 87 10000 7.7 100 00:39 19.12.2019
5910 Clouds 7 990 87 10000 7.7 100 00:39 19.12.2019
5911 Clouds 7 990 87 10000 7.7 100 00:39 19.12.2019
5912 Clouds 7 990 87 10000 7.7 100 00:19 19.12.2019
5913 Rain 6 991 87 10000 5.7 70 23:45 18.12.2019
5914 Rain 6 991 87 10000 7.7 80 23:19 18.12.2019
5915 Rain 6 992 93 4600 6.7 70 22:58 18.12.2019
5916 Rain 5 992 86 5000 6.7 70 22:40 18.12.2019
5917 Rain 5 992 86 5000 6.7 70 22:22 18.12.2019
5918 Rain 5 993 86 10000 8.2 70 21:59 18.12.2019
5919 Rain 5 993 86 10000 8.2 70 21:41 18.12.2019
5920 Rain 5 994 86 10000 7.7 80 21:21 18.12.2019
5921 Rain 5 994 86 10000 7.7 80 21:21 18.12.2019
5922 Rain 5 994 86 10000 8.2 80 20:57 18.12.2019
5923 Rain 4 995 93 10000 7.2 80 20:39 18.12.2019
5924 Rain 4 995 93 10000 7.2 80 20:20 18.12.2019
5925 Rain 4 996 93 10000 6.7 80 19:57 18.12.2019
5926 Rain 4 997 93 6000 7.7 70 19:39 18.12.2019
5927 Rain 4 997 93 6000 7.7 70 19:19 18.12.2019
5928 Rain 4 998 93 6000 7.2 70 18:56 18.12.2019
5929 Rain 4 998 93 6000 7.2 70 18:56 18.12.2019
5930 Rain 4 998 86 9000 7.7 70 18:38 18.12.2019
5931 Rain 4 998 86 9000 7.7 70 18:20 18.12.2019
5932 Rain 4 999 86 10000 7.2 70 17:55 18.12.2019
5933 Rain 4 999 86 10000 7.2 70 17:55 18.12.2019
5934 Rain 4 1000 93 10000 6.2 80 17:37 18.12.2019
5935 Rain 4 1000 93 10000 6.2 80 17:19 18.12.2019
5936 Rain 4 1001 93 10000 6.2 70 16:42 18.12.2019
5937 Rain 3 1001 93 10000 6.7 60 16:24 18.12.2019
5938 Rain 3 1001 93 10000 6.7 60 15:59 18.12.2019
5939 Rain 3 1002 93 7000 4.6 60 15:39 18.12.2019
5940 Clouds 4 1002 93 10000 5.1 70 15:21 18.12.2019
5941 Clouds 3 1003 93 10000 4.6 60 14:57 18.12.2019
5942 Clouds 3 1003 93 10000 4.6 60 14:39 18.12.2019
5943 Clouds 3 1003 93 10000 4.6 70 14:19 18.12.2019
5944 Clouds 3 1003 93 10000 4.1 60 13:55 18.12.2019
5945 Clouds 3 1003 93 10000 4.1 60 13:37 18.12.2019
5946 Clouds 3 1003 100 10000 4.1 70 13:18 18.12.2019
5947 Clouds 3 1004 93 10000 3.6 50 12:41 18.12.2019
5948 Clouds 2 1004 100 10000 3.6 60 12:22 18.12.2019
5949 Clouds 2 1004 100 10000 3.6 60 11:57 18.12.2019
5950 Clouds 1 1005 100 9000 3.1 80 11:39 18.12.2019
5951 Clouds 1 1005 95 10000 3.1 70 11:20 18.12.2019
5952 Clouds 1 1004 95 7000 3.1 60 10:58 18.12.2019
5953 Clouds 1 1004 95 7000 3.1 60 10:39 18.12.2019
5954 Clouds 0 1004 100 10000 3.1 70 10:21 18.12.2019
5955 Clouds 0 1004 100 10000 3.1 70 09:59 18.12.2019
5956 Clouds 0 1004 100 10000 3.1 70 09:59 18.12.2019
5957 Clouds 0 1004 100 10000 2.6 60 09:21 18.12.2019
5958 Clouds 0 1004 100 10000 2.6 60 08:55 18.12.2019
5959 Clouds 0 1004 100 10000 2.6 60 08:37 18.12.2019
5960 Clouds 0 1004 92 6000 3.1 40 08:19 18.12.2019
5961 Mist 0 1004 92 2600 2.6 60 07:42 18.12.2019
5962 Clouds 0 1004 100 6000 2.1 80 07:21 18.12.2019
5963 Mist 0 1004 92 1200 2.1 60 06:52 18.12.2019
5964 Fog 0 1004 100 250 2.1 40 06:26 18.12.2019
5965 Mist 1 1004 95 5000 1.5 40 05:37 18.12.2019
5966 Clouds 1 1003 95 7000 1 0 04:33 18.12.2019
5967 Mist 1 1002 92 1400 2.1 20 02:48 18.12.2019
5968 Clouds 1 1002 93 10000 2.1 190 02:29 18.12.2019
5969 Fog 0 1002 100 200 0.5 140 01:46 18.12.2019
5970 Fog 0 1001 100 350 1 0 01:27 18.12.2019
5971 Fog 1 1001 100 350 1 0 00:59 18.12.2019
5972 Fog 1 1001 100 450 1 0 00:39 18.12.2019
5973 Mist 1 1001 86 5000 1 0 00:21 18.12.2019
5974 Clouds 1 1001 86 10000 1 0 23:43 17.12.2019
5975 Clouds 1 1000 87 8000 1 0 23:24 17.12.2019
5976 Clouds 1 1000 87 10000 1 0 22:57 17.12.2019
5977 Clouds 1 1000 87 10000 1 0 22:39 17.12.2019
5978 Clouds 1 1000 87 10000 0.5 0 22:20 17.12.2019
5979 Clouds 1 999 87 10000 3.6 260 21:57 17.12.2019
5980 Clouds 1 999 87 10000 3.6 260 21:39 17.12.2019
5981 Clouds 1 999 92 10000 2.6 250 21:20 17.12.2019
5982 Clouds 1 999 92 10000 2.6 250 20:59 17.12.2019
5983 Clouds 2 999 87 10000 2.6 250 20:40 17.12.2019
5984 Clear 2 998 89 10000 3.1 250 20:19 17.12.2019
5985 Clear 2 998 89 10000 3.1 250 19:58 17.12.2019
5986 Clouds 2 998 89 10000 3.6 230 19:39 17.12.2019
5987 Clouds 2 998 93 10000 2.6 240 19:20 17.12.2019
5988 Clouds 3 998 93 10000 3.1 230 18:57 17.12.2019
5989 Clouds 3 998 93 10000 3.1 230 18:38 17.12.2019
5990 Clouds 3 997 86 10000 2.6 210 18:20 17.12.2019
5991 Clear 4 997 86 10000 3.1 210 17:55 17.12.2019
5992 Clear 4 997 86 10000 3.1 210 17:37 17.12.2019
5993 Clouds 4 997 80 10000 2.6 210 17:18 17.12.2019
5994 Clouds 5 996 86 10000 2.1 180 16:55 17.12.2019
5995 Clouds 5 996 86 10000 2.1 180 16:36 17.12.2019
5996 Clouds 5 996 81 10000 2.6 230 16:18 17.12.2019
5997 Clouds 5 996 81 10000 2.6 230 16:18 17.12.2019
5998 Clouds 6 996 81 10000 3.1 280 15:38 17.12.2019
5999 Clouds 6 995 87 10000 2.6 250 15:20 17.12.2019
6000 Clouds 6 995 87 10000 4.1 250 14:56 17.12.2019
6001 Clouds 5 995 87 10000 4.1 250 14:38 17.12.2019
6002 Clouds 6 995 87 10000 3.6 280 14:19 17.12.2019
6003 Clouds 6 995 87 10000 3.6 280 13:58 17.12.2019
6004 Clouds 6 995 87 10000 3.1 270 13:39 17.12.2019
6005 Rain 6 995 87 10000 4.1 270 13:19 17.12.2019
6006 Rain 6 995 87 10000 4.1 270 13:19 17.12.2019
6007 Clouds 6 994 87 10000 2.1 270 12:59 17.12.2019
6008 Clouds 6 994 87 10000 2.1 270 12:38 17.12.2019
6009 Clouds 5 994 93 10000 4.6 220 12:18 17.12.2019
6010 Rain 5 994 100 10000 5.1 240 11:56 17.12.2019
6011 Rain 5 994 100 10000 5.1 240 11:36 17.12.2019
6012 Clouds 5 993 93 8000 8.2 220 11:18 17.12.2019
6013 Clouds 5 993 93 10000 7.2 230 10:56 17.12.2019
6014 Clouds 5 993 93 10000 7.2 230 10:37 17.12.2019
6015 Rain 5 993 93 10000 5.7 220 10:19 17.12.2019
6016 Rain 5 992 87 9000 7.2 220 09:42 17.12.2019
6017 Rain 5 992 87 10000 5.7 210 09:22 17.12.2019
6018 Rain 5 992 87 10000 5.7 210 08:58 17.12.2019
6019 Rain 5 992 93 10000 4.1 220 08:40 17.12.2019
6020 Rain 5 992 93 9000 6.7 200 08:21 17.12.2019
6021 Rain 5 992 93 9000 6.7 200 07:58 17.12.2019
6022 Rain 5 991 87 6000 7.7 190 07:39 17.12.2019
6023 Rain 5 991 93 7000 7.7 170 07:20 17.12.2019
6024 Rain 5 991 93 10000 7.7 170 06:41 17.12.2019
6025 Rain 5 992 86 9000 7.2 180 06:22 17.12.2019
6026 Rain 4 992 86 5000 6.7 180 05:40 17.12.2019
6027 Rain 5 992 93 6000 6.7 190 04:48 17.12.2019
6028 Clouds 5 992 86 10000 7.7 170 03:31 17.12.2019
6029 Clouds 4 993 86 10000 5.1 170 01:59 17.12.2019
6030 Clouds 4 993 80 10000 5.7 170 01:21 17.12.2019
6031 Clouds 4 993 80 10000 7.7 190 00:39 17.12.2019
6032 Clouds 4 993 80 10000 7.7 190 00:39 17.12.2019
6033 Clouds 4 993 86 10000 6.2 180 00:21 17.12.2019
6034 Clouds 4 993 86 10000 6.7 180 23:43 16.12.2019
6035 Clouds 4 993 86 10000 5.7 190 23:19 16.12.2019
6036 Clouds 4 993 86 10000 5.7 180 22:58 16.12.2019
6037 Clouds 4 993 86 10000 5.7 180 22:38 16.12.2019
6038 Rain 5 993 86 10000 6.7 190 22:20 16.12.2019
6039 Rain 4 993 86 10000 6.7 190 21:56 16.12.2019
6040 Rain 4 993 86 10000 6.2 190 21:38 16.12.2019
6041 Rain 5 993 86 10000 6.2 200 21:20 16.12.2019
6042 Clouds 5 993 86 10000 4.6 180 20:58 16.12.2019
6043 Clouds 5 993 86 10000 4.6 180 20:38 16.12.2019
6044 Rain 5 993 86 10000 5.1 190 20:19 16.12.2019
6045 Rain 5 993 93 10000 5.7 190 19:56 16.12.2019
6046 Rain 5 993 93 10000 5.7 190 19:37 16.12.2019
6047 Rain 5 992 93 6000 8.2 210 19:19 16.12.2019
6048 Clouds 5 992 81 10000 8.2 210 18:56 16.12.2019
6049 Clouds 5 992 81 10000 8.2 210 18:56 16.12.2019
6050 Clouds 5 992 81 10000 8.2 210 18:38 16.12.2019
6051 Clouds 5 992 81 10000 8.2 210 18:38 16.12.2019
6052 Clouds 5 992 81 10000 8.7 210 18:19 16.12.2019
6053 Clouds 5 992 81 10000 8.2 210 17:57 16.12.2019
6054 Clouds 5 992 81 10000 8.2 210 17:38 16.12.2019
6055 Clouds 5 991 87 10000 8.7 210 17:20 16.12.2019
6056 Clouds 5 991 87 10000 8.7 210 16:57 16.12.2019
6057 Clouds 6 991 87 10000 8.7 210 16:38 16.12.2019
6058 Clouds 6 991 87 10000 8.7 210 16:19 16.12.2019
6059 Clouds 6 991 87 10000 8.7 210 15:57 16.12.2019
6060 Clouds 6 990 87 10000 7.7 210 15:38 16.12.2019
6061 Rain 6 990 81 10000 9.8 220 15:20 16.12.2019
6062 Rain 6 990 87 10000 10.3 220 14:55 16.12.2019
6063 Rain 6 990 87 10000 10.3 220 14:37 16.12.2019
6064 Rain 6 990 87 10000 10.3 220 14:37 16.12.2019
6065 Rain 6 990 87 10000 10.8 210 14:18 16.12.2019
6066 Rain 5 990 87 10000 10.3 210 13:56 16.12.2019
6067 Rain 5 990 87 10000 10.8 210 13:56 16.12.2019
6068 Rain 5 990 87 10000 10.3 210 13:37 16.12.2019
6069 Rain 5 990 87 10000 9.8 210 13:19 16.12.2019
6070 Rain 5 990 87 10000 8.2 200 12:56 16.12.2019
6071 Rain 5 990 87 10000 8.2 200 12:38 16.12.2019
6072 Rain 4 990 86 10000 7.2 210 12:18 16.12.2019
6073 Rain 4 990 86 10000 7.2 210 12:18 16.12.2019
6074 Clouds 4 990 93 10000 6.7 210 11:55 16.12.2019
6075 Clouds 4 990 93 10000 6.7 210 11:37 16.12.2019
6076 Clouds 4 990 93 10000 4.1 200 11:19 16.12.2019
6077 Drizzle 3 989 93 10000 3.6 180 10:40 16.12.2019
6078 Drizzle 3 989 93 10000 3.6 180 10:40 16.12.2019
6079 Drizzle 3 989 93 10000 3.6 180 10:40 16.12.2019
6080 Drizzle 3 989 93 10000 2.6 130 10:21 16.12.2019
6081 Drizzle 2 989 93 10000 2.6 130 09:56 16.12.2019
6082 Drizzle 2 989 96 3500 1.5 0 09:38 16.12.2019
6083 Mist 2 989 96 5000 1.5 0 09:20 16.12.2019
6084 Mist 2 988 96 5000 1 0 08:40 16.12.2019
6085 Mist 2 988 99 5000 1 0 08:19 16.12.2019
6086 Mist 2 988 99 3100 1.5 280 07:51 16.12.2019
6087 Mist 2 988 99 3100 1.5 280 07:31 16.12.2019
6088 Drizzle 2 987 99 3600 1 0 06:49 16.12.2019
6089 Clouds 2 987 99 8000 1 20 06:27 16.12.2019
6090 Rain 2 987 99 10000 2.1 360 05:58 16.12.2019
6091 Rain 2 987 99 10000 2.1 360 05:39 16.12.2019
6092 Snow 2 987 97 10000 1.5 40 05:21 16.12.2019
6093 Rain 2 987 97 7000 2.6 50 02:59 16.12.2019
6094 Rain 2 987 96 10000 3.1 40 01:45 16.12.2019
6095 Clouds 2 987 97 10000 3.1 50 00:56 16.12.2019
6096 Clouds 2 987 97 10000 3.1 50 00:37 16.12.2019
6097 Clouds 2 987 97 10000 2.6 60 00:18 16.12.2019
6098 Snow 2 988 97 10000 3.6 60 23:40 15.12.2019
6099 Clouds 2 988 91 10000 3.1 60 23:22 15.12.2019
6100 Clouds 2 988 91 10000 2.6 60 22:56 15.12.2019
6101 Clouds 2 988 91 10000 2.6 60 22:38 15.12.2019
6102 Clouds 2 988 91 10000 2.6 160 22:19 15.12.2019
6103 Clouds 2 988 91 10000 2.6 50 21:57 15.12.2019
6104 Clouds 2 988 86 10000 2.1 40 21:38 15.12.2019
6105 Clouds 2 988 91 10000 1 70 21:19 15.12.2019
6106 Clouds 2 988 91 10000 1 70 20:57 15.12.2019
6107 Clouds 1 988 91 10000 1 0 20:38 15.12.2019
6108 Clouds 2 988 86 10000 2.1 210 20:19 15.12.2019
6109 Clouds 2 988 84 10000 2.1 210 19:57 15.12.2019
6110 Clouds 1 988 86 10000 5.1 180 19:39 15.12.2019
6111 Clouds 1 988 84 10000 5.1 180 19:39 15.12.2019
6112 Clouds 2 988 86 10000 1 0 19:18 15.12.2019
6113 Clouds 2 987 84 10000 2.6 170 18:56 15.12.2019
6114 Clouds 2 987 86 10000 2.6 170 18:38 15.12.2019
6115 Clouds 2 987 86 10000 3.1 170 18:18 15.12.2019
6116 Clouds 3 987 86 10000 4.1 160 17:56 15.12.2019
6117 Clouds 3 987 86 10000 4.1 160 17:37 15.12.2019
6118 Clouds 3 987 93 10000 3.6 160 17:18 15.12.2019
6119 Snow 3 987 86 10000 4.6 230 16:56 15.12.2019
6120 Snow 3 987 86 10000 4.6 230 16:38 15.12.2019
6121 Clouds 4 987 86 10000 4.6 220 16:19 15.12.2019
6122 Clouds 4 987 80 10000 7.2 220 15:54 15.12.2019
6123 Clouds 4 987 80 10000 7.2 220 15:36 15.12.2019
6124 Snow 4 986 80 10000 8.2 220 15:18 15.12.2019
6125 Clouds 5 986 81 10000 6.2 220 14:54 15.12.2019
6126 Clouds 5 986 81 10000 6.2 220 14:36 15.12.2019
6127 Rain 5 986 80 10000 6.2 210 14:18 15.12.2019
6128 Rain 5 986 80 10000 6.2 210 14:18 15.12.2019
6129 Clouds 5 985 86 10000 5.1 240 13:54 15.12.2019
6130 Rain 4 985 86 10000 5.1 240 13:36 15.12.2019
6131 Clouds 4 985 86 10000 5.1 250 13:18 15.12.2019
6132 Rain 4 985 93 10000 2.6 280 12:55 15.12.2019
6133 Rain 4 985 93 10000 2.6 280 12:36 15.12.2019
6134 Clouds 4 984 93 10000 3.6 250 12:18 15.12.2019
6135 Rain 3 984 93 10000 5.1 240 11:38 15.12.2019
6136 Rain 3 984 93 10000 5.1 240 11:38 15.12.2019
6137 Rain 3 984 93 10000 5.1 240 11:38 15.12.2019
6138 Rain 3 983 93 10000 2.1 250 11:19 15.12.2019
6139 Rain 3 982 93 10000 1.5 0 10:56 15.12.2019
6140 Rain 2 982 93 10000 1.5 0 10:37 15.12.2019
6141 Rain 2 982 93 10000 1 0 10:19 15.12.2019
6142 Rain 2 982 93 10000 1 0 09:57 15.12.2019
6143 Clouds 2 982 93 10000 1.5 0 09:37 15.12.2019
6144 Rain 2 981 93 10000 2.6 230 09:19 15.12.2019
6145 Rain 2 981 93 10000 5.7 210 08:42 15.12.2019
6146 Rain 2 980 93 4900 3.6 220 08:23 15.12.2019
6147 Snow 2 980 91 10000 2.1 200 07:57 15.12.2019
6148 Snow 2 980 91 10000 2.1 200 07:38 15.12.2019
6149 Snow 2 979 91 10000 3.6 190 06:59 15.12.2019
6150 Snow 2 978 91 10000 4.1 220 06:24 15.12.2019
6151 Clouds 3 978 86 10000 3.1 260 05:42 15.12.2019
6152 Clouds 2 978 93 10000 5.1 230 05:20 15.12.2019
6153 Clouds 2 977 93 10000 2.1 260 04:18 15.12.2019
6154 Clouds 3 978 86 10000 3.6 230 02:35 15.12.2019
6155 Rain 3 977 86 10000 4.1 260 01:57 15.12.2019
6156 Rain 3 977 86 10000 4.1 260 01:39 15.12.2019
6157 Rain 3 977 93 10000 7.7 240 01:18 15.12.2019
6158 Rain 3 977 93 10000 9.8 240 00:44 15.12.2019
6159 Rain 3 977 93 10000 9.8 240 00:44 15.12.2019
6160 Rain 3 977 93 10000 8.7 230 00:25 15.12.2019
6161 Rain 3 977 93 5000 8.2 230 23:41 14.12.2019
6162 Rain 3 977 93 10000 9.8 220 23:22 14.12.2019
6163 Snow 3 978 93 4500 9.8 220 22:59 14.12.2019
6164 Snow 3 978 93 4500 9.8 220 22:41 14.12.2019
6165 Rain 3 978 93 3600 8.7 240 22:21 14.12.2019
6166 Rain 3 977 93 3000 12.3 230 21:56 14.12.2019
6167 Rain 3 977 93 3000 12.3 230 21:38 14.12.2019
6168 Rain 3 977 93 4100 12.9 220 21:19 14.12.2019
6169 Rain 3 977 93 3400 12.3 220 20:57 14.12.2019
6170 Rain 3 977 93 3400 12.3 220 20:39 14.12.2019
6171 Rain 4 977 86 5000 12.9 230 20:19 14.12.2019
6172 Rain 4 977 86 3500 10.8 220 19:56 14.12.2019
6173 Rain 4 977 86 3500 10.8 220 19:37 14.12.2019
6174 Clouds 4 977 93 6000 8.2 240 19:18 14.12.2019
6175 Rain 4 977 86 10000 9.8 210 18:56 14.12.2019
6176 Rain 4 977 86 10000 9.8 210 18:36 14.12.2019
6177 Rain 4 977 86 3500 7.7 230 18:18 14.12.2019
6178 Rain 4 977 93 7000 8.7 230 17:43 14.12.2019
6179 Snow 4 977 86 10000 11.3 230 17:23 14.12.2019
6180 Rain 4 977 86 10000 11.3 220 16:56 14.12.2019
6181 Rain 4 977 86 10000 11.3 220 16:38 14.12.2019
6182 Rain 4 977 86 10000 9.3 220 16:18 14.12.2019
6183 Rain 4 977 93 4300 9.8 230 15:42 14.12.2019
6184 Rain 4 977 86 10000 4.1 240 15:21 14.12.2019
6185 Rain 5 977 86 10000 4.1 240 14:58 14.12.2019
6186 Rain 5 976 86 10000 7.7 230 14:38 14.12.2019
6187 Rain 5 976 80 10000 10.3 220 14:19 14.12.2019
6188 Rain 5 976 86 7000 10.3 230 13:45 14.12.2019
6189 Rain 4 976 80 10000 9.8 220 13:20 14.12.2019
6190 Rain 4 976 80 10000 9.8 220 12:59 14.12.2019
6191 Rain 4 976 80 10000 8.7 220 12:40 14.12.2019
6192 Rain 4 976 80 10000 9.3 220 12:21 14.12.2019
6193 Rain 4 976 80 10000 9.3 220 12:21 14.12.2019
6194 Rain 4 976 80 10000 9.3 220 12:21 14.12.2019
6195 Rain 3 976 86 10000 8.2 220 11:59 14.12.2019
6196 Rain 3 976 86 10000 8.2 220 11:39 14.12.2019
6197 Rain 3 975 93 10000 7.2 210 11:19 14.12.2019
6198 Rain 3 976 93 10000 7.2 220 10:57 14.12.2019
6199 Rain 3 976 93 10000 7.2 220 10:39 14.12.2019
6200 Rain 3 975 93 3400 4.6 210 10:20 14.12.2019
6201 Rain 3 975 93 10000 6.2 230 09:55 14.12.2019
6202 Rain 3 975 93 10000 6.2 230 09:37 14.12.2019
6203 Rain 4 975 86 5000 6.7 240 09:18 14.12.2019
6204 Rain 3 975 86 10000 6.2 230 08:42 14.12.2019
6205 Rain 3 974 86 10000 7.2 240 08:19 14.12.2019
6206 Rain 3 974 93 10000 6.7 230 07:43 14.12.2019
6207 Rain 3 974 93 10000 7.2 240 07:23 14.12.2019
6208 Rain 4 974 93 10000 4.6 250 06:55 14.12.2019
6209 Rain 4 974 93 10000 4.6 250 06:36 14.12.2019
6210 Rain 4 973 93 10000 5.1 240 05:56 14.12.2019
6211 Rain 4 973 93 10000 4.1 240 04:42 14.12.2019
6212 Rain 3 972 93 10000 2.1 260 02:31 14.12.2019
6213 Rain 3 973 100 10000 2.1 270 01:46 14.12.2019
6214 Rain 3 973 100 10000 2.1 270 01:28 14.12.2019
6215 Rain 3 973 93 4300 3.6 280 00:44 14.12.2019
6216 Rain 3 973 93 6000 2.6 250 00:26 14.12.2019
6217 Rain 4 972 93 10000 3.6 240 23:43 13.12.2019
6218 Rain 3 972 100 8000 1.5 160 23:22 13.12.2019
6219 Rain 3 972 100 8000 1.5 160 22:59 13.12.2019
6220 Rain 3 973 93 6000 1 0 22:40 13.12.2019
6221 Rain 2 973 100 10000 0.5 90 22:19 13.12.2019
6222 Clouds 2 973 100 10000 1 0 21:55 13.12.2019
6223 Clouds 2 973 100 10000 1 0 21:36 13.12.2019
6224 Clouds 2 973 94 10000 1 0 21:18 13.12.2019
6225 Clouds 2 973 94 10000 1.5 0 20:40 13.12.2019
6226 Clear 2 974 92 10000 1 0 20:21 13.12.2019
6227 Clear 2 974 92 10000 1 0 19:58 13.12.2019
6228 Clear 2 974 93 10000 1 0 19:40 13.12.2019
6229 Clear 2 974 93 10000 1 0 19:20 13.12.2019
6230 Clear 3 974 93 10000 2.1 260 18:57 13.12.2019
6231 Clear 3 974 86 10000 3.1 250 18:39 13.12.2019
6232 Clear 3 974 86 10000 3.1 250 18:18 13.12.2019
6233 Clear 4 974 86 10000 3.6 230 17:41 13.12.2019
6234 Clear 4 974 93 10000 2.6 270 17:19 13.12.2019
6235 Clear 5 974 80 10000 2.6 260 16:58 13.12.2019
6236 Clear 5 974 86 10000 5.1 290 16:39 13.12.2019
6237 Clear 5 974 86 10000 5.1 290 16:39 13.12.2019
6238 Clear 5 974 86 10000 5.1 290 16:20 13.12.2019
6239 Clear 6 975 81 10000 3.6 270 15:43 13.12.2019
6240 Clear 6 974 81 10000 4.1 270 15:23 13.12.2019
6241 Clear 6 974 81 10000 2.6 270 14:58 13.12.2019
6242 Clear 6 974 81 10000 3.1 260 14:39 13.12.2019
6243 Clouds 6 974 81 10000 3.1 260 14:20 13.12.2019
6244 Clouds 6 974 81 10000 3.1 260 14:20 13.12.2019
6245 Clouds 6 974 81 10000 3.1 260 14:20 13.12.2019
6246 Clouds 5 974 86 10000 3.6 250 13:56 13.12.2019
6247 Clouds 5 974 86 10000 4.1 270 13:37 13.12.2019
6248 Clouds 5 974 86 10000 4.1 270 13:37 13.12.2019
6249 Clouds 5 974 86 10000 4.1 270 13:18 13.12.2019
6250 Clouds 4 973 93 10000 3.6 260 12:42 13.12.2019
6251 Clouds 4 973 93 10000 3.6 260 12:19 13.12.2019
6252 Clouds 4 973 93 10000 2.6 230 11:57 13.12.2019
6253 Clouds 3 973 93 10000 3.1 250 11:39 13.12.2019
6254 Clouds 3 973 93 10000 3.1 250 11:19 13.12.2019
6255 Clouds 3 973 93 10000 3.6 240 10:41 13.12.2019
6256 Clouds 3 973 93 10000 3.6 240 10:21 13.12.2019
6257 Clouds 2 972 93 10000 2.6 260 09:43 13.12.2019
6258 Clouds 3 972 93 10000 1.5 240 09:22 13.12.2019
6259 Clouds 3 972 93 10000 3.1 250 08:59 13.12.2019
6260 Clouds 3 971 100 10000 3.1 250 08:40 13.12.2019
6261 Clouds 3 971 100 10000 3.1 250 08:22 13.12.2019
6262 Clouds 3 971 100 10000 2.6 250 07:43 13.12.2019
6263 Clouds 3 971 93 10000 2.1 260 07:20 13.12.2019
6264 Clouds 3 971 100 10000 2.6 260 06:50 13.12.2019
6265 Clouds 3 971 100 10000 3.6 240 06:28 13.12.2019
6266 Clouds 3 971 93 10000 2.6 250 05:43 13.12.2019
6267 Clouds 3 970 93 10000 3.1 250 05:20 13.12.2019
6268 Rain 3 970 93 10000 3.1 270 04:33 13.12.2019
6269 Rain 3 970 100 10000 2.1 270 03:29 13.12.2019
6270 Rain 3 970 100 10000 3.1 300 02:31 13.12.2019
6271 Rain 3 970 100 7000 2.1 270 01:39 13.12.2019
6272 Rain 3 971 100 7000 2.1 260 00:51 13.12.2019
6273 Rain 3 971 93 9000 1.5 260 00:29 13.12.2019
6274 Rain 3 971 93 9000 1 280 23:46 12.12.2019
6275 Rain 3 971 93 10000 1 300 23:27 12.12.2019
6276 Rain 3 972 100 7000 1 310 22:57 12.12.2019
6277 Rain 3 972 100 7000 1 340 22:39 12.12.2019
6278 Rain 3 972 100 7000 1 340 22:21 12.12.2019
6279 Rain 3 972 100 8000 1.5 40 21:56 12.12.2019
6280 Rain 3 973 93 8000 2.1 60 21:37 12.12.2019
6281 Rain 3 973 93 8000 2.1 60 21:19 12.12.2019
6282 Rain 3 973 93 8000 2.1 60 21:19 12.12.2019
6283 Rain 3 973 93 10000 2.6 70 20:59 12.12.2019
6284 Rain 3 974 93 10000 2.6 80 20:40 12.12.2019
6285 Rain 4 974 93 10000 2.6 80 20:22 12.12.2019
6286 Rain 4 974 93 10000 3.1 80 19:56 12.12.2019
6287 Rain 4 975 86 10000 4.6 70 19:37 12.12.2019
6288 Rain 4 975 86 10000 4.6 70 19:18 12.12.2019
6289 Rain 4 975 86 10000 5.1 60 18:56 12.12.2019
6290 Clouds 4 976 86 10000 5.1 60 18:37 12.12.2019
6291 Clouds 4 976 86 10000 5.1 60 18:37 12.12.2019
6292 Clouds 4 976 86 10000 5.1 60 18:19 12.12.2019
6293 Clouds 4 976 93 10000 4.6 60 17:56 12.12.2019
6294 Clouds 4 977 93 10000 4.6 70 17:38 12.12.2019
6295 Clouds 4 977 93 10000 4.6 70 17:19 12.12.2019
6296 Clouds 4 978 86 10000 5.1 70 16:54 12.12.2019
6297 Clouds 4 978 93 10000 4.6 70 16:36 12.12.2019
6298 Clouds 4 978 93 10000 4.6 70 16:18 12.12.2019
6299 Clouds 4 979 86 10000 4.6 80 15:42 12.12.2019
6300 Clouds 5 979 86 10000 4.1 60 15:20 12.12.2019
6301 Clouds 5 980 86 10000 3.1 90 14:57 12.12.2019
6302 Clouds 5 981 86 10000 3.1 60 14:37 12.12.2019
6303 Clouds 5 981 86 10000 3.1 60 14:19 12.12.2019
6304 Clouds 5 981 86 10000 3.1 60 13:55 12.12.2019
6305 Clouds 5 982 86 10000 2.6 90 13:37 12.12.2019
6306 Clouds 5 982 86 10000 2.6 90 13:19 12.12.2019
6307 Clouds 4 983 93 10000 2.6 70 12:55 12.12.2019
6308 Clouds 4 983 93 10000 3.1 50 12:36 12.12.2019
6309 Clouds 4 983 93 10000 3.1 50 12:18 12.12.2019
6310 Clouds 3 985 86 10000 3.1 80 11:40 12.12.2019
6311 Clouds 3 985 86 10000 3.1 80 11:22 12.12.2019
6312 Clouds 3 985 86 10000 3.1 100 10:59 12.12.2019
6313 Clouds 3 985 86 10000 3.1 100 10:59 12.12.2019
6314 Rain 3 986 93 10000 3.1 100 10:41 12.12.2019
6315 Rain 3 986 93 10000 3.1 100 10:22 12.12.2019
6316 Clouds 3 986 86 10000 3.6 120 09:56 12.12.2019
6317 Clouds 3 986 86 10000 3.6 120 09:56 12.12.2019
6318 Clouds 3 986 86 10000 3.6 140 09:38 12.12.2019
6319 Clouds 3 986 86 10000 3.6 140 09:20 12.12.2019
6320 Rain 3 987 86 10000 3.1 200 08:48 12.12.2019
6321 Rain 3 987 86 10000 2.1 140 08:29 12.12.2019
6322 Rain 3 988 86 9000 4.1 210 07:56 12.12.2019
6323 Rain 3 988 86 9000 4.1 210 07:56 12.12.2019
6324 Rain 3 988 93 4900 1 0 07:37 12.12.2019
6325 Rain 3 988 93 4900 1 0 07:19 12.12.2019
6326 Rain 3 989 93 6000 3.6 180 06:41 12.12.2019
6327 Rain 3 989 93 6000 3.6 180 06:22 12.12.2019
6328 Rain 3 990 80 10000 5.1 190 05:32 12.12.2019
6329 Rain 3 990 86 10000 6.2 180 04:47 12.12.2019
6330 Rain 3 992 86 10000 2.1 240 02:43 12.12.2019
6331 Rain 3 992 93 10000 2.6 290 02:24 12.12.2019
6332 Rain 3 993 93 10000 3.6 260 01:59 12.12.2019
6333 Rain 3 993 93 10000 3.6 260 01:59 12.12.2019
6334 Rain 4 993 93 10000 6.7 220 01:36 12.12.2019
6335 Drizzle 3 993 93 3400 4.1 240 00:49 12.12.2019
6336 Rain 3 993 86 8000 6.2 260 00:22 12.12.2019
6337 Rain 3 993 86 10000 7.7 210 23:58 11.12.2019
6338 Rain 3 993 86 10000 7.7 210 23:37 11.12.2019
6339 Rain 3 993 86 10000 7.7 210 23:18 11.12.2019
6340 Rain 3 993 86 10000 8.7 210 22:55 11.12.2019
6341 Rain 3 993 86 10000 7.2 220 22:37 11.12.2019
6342 Rain 3 993 86 10000 7.2 220 22:18 11.12.2019
6343 Rain 3 993 80 10000 8.7 220 21:39 11.12.2019
6344 Rain 3 993 80 10000 8.7 220 21:39 11.12.2019
6345 Rain 3 993 80 10000 8.7 220 21:20 11.12.2019
6346 Rain 4 993 86 10000 6.7 230 21:20 11.12.2019
6347 Rain 4 993 86 10000 6.7 230 20:58 11.12.2019
6348 Rain 4 993 86 10000 6.7 200 20:40 11.12.2019
6349 Rain 3 993 86 10000 6.7 200 20:20 11.12.2019
6350 Rain 3 993 86 10000 6.7 210 19:59 11.12.2019
6351 Rain 3 993 86 10000 8.7 210 19:40 11.12.2019
6352 Rain 3 993 86 10000 8.7 210 19:21 11.12.2019
6353 Rain 3 993 86 10000 8.2 220 18:58 11.12.2019
6354 Rain 3 993 86 10000 7.7 220 18:39 11.12.2019
6355 Rain 4 993 86 10000 7.7 220 18:18 11.12.2019
6356 Rain 4 993 86 10000 7.7 230 17:55 11.12.2019
6357 Rain 4 993 86 10000 6.7 220 17:37 11.12.2019
6358 Rain 4 993 86 10000 6.7 220 17:18 11.12.2019
6359 Rain 4 993 86 10000 6.2 230 16:55 11.12.2019
6360 Rain 4 993 80 10000 8.7 240 16:36 11.12.2019
6361 Rain 4 993 80 10000 8.7 240 16:18 11.12.2019
6362 Rain 5 993 86 10000 7.7 230 15:54 11.12.2019
6363 Rain 5 992 81 10000 8.2 220 15:36 11.12.2019
6364 Rain 5 992 81 10000 8.2 220 15:18 11.12.2019
6365 Clouds 5 992 80 10000 8.2 230 14:54 11.12.2019
6366 Rain 5 993 80 10000 9.8 230 14:36 11.12.2019
6367 Rain 5 993 80 10000 9.8 230 14:36 11.12.2019
6368 Rain 5 993 80 10000 9.8 230 14:18 11.12.2019
6369 Rain 5 993 75 10000 9.8 220 13:41 11.12.2019
6370 Rain 5 993 75 10000 9.8 220 13:21 11.12.2019
6371 Rain 5 993 80 10000 9.3 230 12:57 11.12.2019
6372 Rain 5 993 80 10000 8.7 230 12:38 11.12.2019
6373 Rain 5 993 80 10000 8.7 230 12:38 11.12.2019
6374 Rain 5 993 80 10000 8.7 230 12:20 11.12.2019
6375 Rain 5 993 80 10000 9.8 220 11:58 11.12.2019
6376 Rain 5 993 80 10000 8.7 220 11:38 11.12.2019
6377 Rain 4 993 80 10000 8.7 220 11:18 11.12.2019
6378 Rain 4 993 80 10000 10.3 220 10:56 11.12.2019
6379 Rain 4 993 80 10000 7.7 230 10:38 11.12.2019
6380 Rain 4 993 80 10000 7.7 230 10:19 11.12.2019
6381 Rain 4 993 80 10000 11.3 220 09:41 11.12.2019
6382 Rain 4 993 80 10000 11.3 220 09:21 11.12.2019
6383 Clouds 4 993 80 10000 11.3 220 08:58 11.12.2019
6384 Rain 4 993 80 10000 11.3 220 08:38 11.12.2019
6385 Rain 5 993 80 10000 11.3 220 08:19 11.12.2019
6386 Rain 5 993 80 10000 10.3 220 07:56 11.12.2019
6387 Clouds 5 993 75 10000 8.7 210 07:38 11.12.2019
6388 Clouds 5 993 75 10000 8.7 210 07:19 11.12.2019
6389 Clouds 5 994 75 10000 9.3 210 06:44 11.12.2019
6390 Clouds 5 994 80 10000 9.8 220 06:22 11.12.2019
6391 Rain 5 994 80 10000 10.3 220 05:41 11.12.2019
6392 Clouds 5 994 80 10000 11.3 220 05:20 11.12.2019
6393 Rain 5 994 86 10000 8.2 230 04:28 11.12.2019
6394 Rain 4 994 86 10000 5.7 220 02:49 11.12.2019
6395 Clouds 4 994 86 10000 6.7 230 01:25 11.12.2019
6396 Rain 4 994 86 10000 5.1 240 00:47 11.12.2019
6397 Rain 5 993 80 10000 4.1 260 00:22 11.12.2019
6398 Rain 5 993 86 9000 11.3 240 23:50 10.12.2019
6399 Rain 5 992 81 10000 10.3 230 23:30 10.12.2019
6400 Clouds 5 991 81 10000 8.2 230 22:59 10.12.2019
6401 Clouds 5 991 81 10000 8.2 230 22:59 10.12.2019
6402 Clouds 5 991 81 10000 8.2 230 22:40 10.12.2019
6403 Clouds 5 991 81 10000 8.2 230 22:40 10.12.2019
6404 Clouds 5 991 81 10000 9.8 230 22:22 10.12.2019
6405 Clouds 5 990 75 10000 8.7 240 21:57 10.12.2019
6406 Clouds 5 990 87 10000 7.7 240 21:39 10.12.2019
6407 Clouds 6 990 87 10000 7.7 240 21:21 10.12.2019
6408 Rain 6 989 81 10000 9.3 240 20:57 10.12.2019
6409 Rain 6 988 75 10000 9.3 240 20:37 10.12.2019
6410 Rain 6 988 75 10000 9.3 240 20:37 10.12.2019
6411 Rain 6 988 75 10000 9.3 240 20:19 10.12.2019
6412 Rain 6 988 81 10000 7.2 240 19:55 10.12.2019
6413 Rain 6 987 81 10000 8.7 240 19:37 10.12.2019
6414 Rain 6 987 81 10000 8.7 240 19:18 10.12.2019
6415 Rain 6 987 93 10000 7.2 260 18:40 10.12.2019
6416 Rain 6 987 93 10000 7.2 260 18:20 10.12.2019
6417 Rain 6 986 87 10000 9.3 250 17:58 10.12.2019
6418 Rain 7 986 87 10000 8.7 250 17:39 10.12.2019
6419 Rain 7 986 87 10000 8.7 250 17:20 10.12.2019
6420 Rain 7 985 87 10000 8.2 260 16:44 10.12.2019
6421 Rain 8 984 87 10000 10.3 260 16:21 10.12.2019
6422 Rain 9 983 87 10000 13.9 270 15:59 10.12.2019
6423 Rain 11 982 87 6000 15.4 200 15:38 10.12.2019
6424 Rain 12 982 87 6000 15.4 200 15:18 10.12.2019
6425 Rain 12 983 87 4600 14.4 200 14:56 10.12.2019
6426 Rain 12 984 93 2700 12.3 200 14:37 10.12.2019
6427 Rain 12 984 93 2700 12.3 200 14:37 10.12.2019
6428 Rain 12 984 93 2700 12.3 200 14:19 10.12.2019
6429 Rain 12 984 93 2700 12.3 200 14:19 10.12.2019
6430 Rain 12 985 93 2400 12.9 190 13:56 10.12.2019
6431 Rain 12 985 93 2400 12.9 190 13:56 10.12.2019
6432 Rain 11 986 93 6000 14.4 190 13:38 10.12.2019
6433 Rain 11 986 93 6000 14.4 190 13:18 10.12.2019
6434 Rain 11 988 87 10000 11.3 200 12:41 10.12.2019
6435 Rain 11 988 87 10000 11.3 200 12:22 10.12.2019
6436 Rain 11 989 93 10000 11.8 190 11:44 10.12.2019
6437 Rain 10 990 87 7000 10.8 190 11:25 10.12.2019
6438 Rain 10 991 87 3400 12.3 180 10:57 10.12.2019
6439 Rain 10 993 93 9000 10.3 190 10:39 10.12.2019
6440 Rain 10 993 93 9000 10.3 190 10:39 10.12.2019
6441 Rain 10 993 93 9000 10.3 190 10:21 10.12.2019
6442 Rain 9 994 93 6000 9.3 190 09:56 10.12.2019
6443 Rain 9 994 93 6000 9.3 190 09:56 10.12.2019
6444 Rain 9 996 93 7000 10.3 180 09:38 10.12.2019
6445 Rain 9 996 93 7000 10.3 180 09:38 10.12.2019
6446 Rain 9 996 93 7000 10.3 180 09:38 10.12.2019
6447 Rain 9 996 93 7000 10.3 180 09:20 10.12.2019
6448 Rain 9 997 93 5000 9.8 190 08:55 10.12.2019
6449 Rain 9 998 93 8000 9.8 190 08:37 10.12.2019
6450 Rain 8 998 93 8000 9.8 190 08:18 10.12.2019
6451 Rain 8 1000 87 7000 9.8 200 07:44 10.12.2019
6452 Rain 8 1001 87 9000 9.3 190 07:25 10.12.2019
6453 Rain 8 1002 93 4700 9.8 190 06:48 10.12.2019
6454 Rain 8 1003 93 3800 9.8 190 06:21 10.12.2019
6455 Rain 8 1004 87 6000 9.8 180 05:55 10.12.2019
6456 Rain 8 1007 81 10000 7.2 180 04:56 10.12.2019
6457 Clouds 7 1010 81 10000 4.6 180 03:39 10.12.2019
6458 Clouds 6 1011 87 10000 6.2 170 02:46 10.12.2019
6459 Clouds 5 1013 81 10000 5.7 170 01:45 10.12.2019
6460 Clouds 5 1013 81 10000 4.6 160 01:24 10.12.2019
6461 Clouds 5 1014 87 10000 7.7 190 00:42 10.12.2019
6462 Clouds 5 1015 81 10000 6.7 190 00:22 10.12.2019
6463 Clouds 4 1016 81 10000 4.1 180 23:42 09.12.2019
6464 Clouds 4 1016 81 10000 4.1 180 23:24 09.12.2019
6465 Clouds 4 1016 93 10000 1 0 22:58 09.12.2019
6466 Clouds 4 1016 93 10000 1 0 22:40 09.12.2019
6467 Clouds 3 1017 93 10000 1.5 0 22:20 09.12.2019
6468 Clouds 3 1017 86 10000 1.5 0 21:57 09.12.2019
6469 Clouds 3 1017 93 10000 2.1 40 21:39 09.12.2019
6470 Clouds 3 1017 93 10000 2.1 40 21:19 09.12.2019
6471 Clouds 3 1018 86 10000 2.1 40 20:57 09.12.2019
6472 Clouds 3 1018 86 10000 2.1 40 20:57 09.12.2019
6473 Clouds 3 1018 93 10000 1 0 20:39 09.12.2019
6474 Clouds 3 1018 93 10000 1 0 20:20 09.12.2019
6475 Clouds 3 1018 85 10000 0.5 0 19:56 09.12.2019
6476 Clouds 3 1018 85 10000 1 0 19:37 09.12.2019
6477 Clouds 3 1018 85 10000 1 0 19:19 09.12.2019
6478 Clouds 3 1018 85 10000 1 0 19:19 09.12.2019
6479 Clouds 2 1018 85 10000 1 0 18:56 09.12.2019
6480 Clouds 2 1017 85 10000 2.1 240 18:38 09.12.2019
6481 Clouds 2 1017 85 10000 2.1 240 18:19 09.12.2019
6482 Clouds 3 1017 85 10000 3.6 230 17:57 09.12.2019
6483 Clouds 3 1017 85 10000 3.6 250 17:38 09.12.2019
6484 Clear 3 1017 81 10000 3.6 250 17:20 09.12.2019
6485 Clear 4 1017 80 10000 3.6 260 16:56 09.12.2019
6486 Clear 4 1016 75 10000 3.6 260 16:37 09.12.2019
6487 Clear 5 1016 75 10000 3.6 260 16:19 09.12.2019
6488 Clear 5 1016 70 10000 3.1 250 15:55 09.12.2019
6489 Clear 5 1016 70 10000 3.1 250 15:55 09.12.2019
6490 Clouds 5 1016 70 10000 3.6 210 15:37 09.12.2019
6491 Clouds 5 1016 70 10000 3.6 210 15:37 09.12.2019
6492 Clouds 6 1016 70 10000 3.6 210 15:19 09.12.2019
6493 Clear 6 1015 70 10000 3.6 210 14:42 09.12.2019
6494 Clouds 6 1015 70 10000 3.6 220 14:19 09.12.2019
6495 Clouds 6 1015 70 10000 2.6 270 13:58 09.12.2019
6496 Clouds 6 1014 70 10000 4.1 290 13:38 09.12.2019
6497 Clear 5 1014 70 10000 4.1 290 13:19 09.12.2019
6498 Clear 6 1013 70 10000 4.1 290 12:57 09.12.2019
6499 Clear 5 1013 75 10000 3.6 290 12:38 09.12.2019
6500 Clear 5 1013 75 10000 3.6 290 12:20 09.12.2019
6501 Clear 4 1012 80 10000 3.6 230 11:58 09.12.2019
6502 Clear 4 1012 75 10000 4.1 290 11:39 09.12.2019
6503 Clear 4 1012 75 10000 4.1 290 11:21 09.12.2019
6504 Clear 4 1011 80 10000 5.1 300 10:54 09.12.2019
6505 Clear 4 1010 80 10000 4.6 300 10:36 09.12.2019
6506 Clear 4 1010 80 10000 4.6 300 10:18 09.12.2019
6507 Clouds 3 1007 80 10000 2.1 280 09:41 09.12.2019
6508 Clouds 3 1007 80 10000 2.1 280 09:21 09.12.2019
6509 Clouds 4 1006 75 10000 1.5 0 08:54 09.12.2019
6510 Clouds 4 1005 75 10000 3.1 340 08:36 09.12.2019
6511 Clouds 4 1005 75 10000 3.1 340 08:18 09.12.2019
6512 Clouds 4 1005 75 10000 3.1 340 08:18 09.12.2019
6513 Rain 4 1004 86 10000 4.6 280 07:42 09.12.2019
6514 Rain 5 1003 80 10000 4.1 300 07:23 09.12.2019
6515 Rain 5 1001 80 10000 4.6 300 06:49 09.12.2019
6516 Rain 5 1000 93 10000 4.6 290 06:25 09.12.2019
6517 Clouds 5 997 86 10000 3.6 290 05:29 09.12.2019
6518 Clouds 5 996 86 10000 3.6 300 04:46 09.12.2019
6519 Clouds 5 991 81 10000 4.1 280 03:21 09.12.2019
6520 Rain 5 988 86 10000 3.1 250 02:24 09.12.2019
6521 Rain 4 987 93 10000 2.6 240 01:42 09.12.2019
6522 Rain 4 984 93 10000 3.1 260 00:46 09.12.2019
6523 Rain 4 983 93 10000 2.1 250 00:27 09.12.2019
6524 Rain 4 982 100 10000 3.1 250 23:43 08.12.2019
6525 Rain 5 981 93 10000 0.5 0 23:24 08.12.2019
6526 Rain 5 980 93 10000 2.6 300 22:57 08.12.2019
6527 Rain 5 979 93 10000 8.7 230 22:39 08.12.2019
6528 Rain 5 979 93 10000 8.7 230 22:19 08.12.2019
6529 Rain 5 979 93 10000 6.2 230 21:58 08.12.2019
6530 Rain 5 979 87 9000 6.7 220 21:40 08.12.2019
6531 Rain 5 979 87 9000 6.7 220 21:20 08.12.2019
6532 Rain 5 979 87 10000 8.2 220 20:57 08.12.2019
6533 Rain 5 978 87 8000 9.8 220 20:38 08.12.2019
6534 Rain 5 978 87 8000 9.8 220 20:20 08.12.2019
6535 Rain 5 978 87 10000 7.7 220 19:59 08.12.2019
6536 Rain 5 978 87 10000 7.7 220 19:41 08.12.2019
6537 Rain 5 978 93 10000 9.8 220 19:22 08.12.2019
6538 Rain 5 978 93 10000 9.3 220 18:55 08.12.2019
6539 Rain 5 978 93 10000 9.3 220 18:55 08.12.2019
6540 Rain 5 979 93 7000 11.3 230 18:37 08.12.2019
6541 Rain 5 979 93 7000 11.3 230 18:19 08.12.2019
6542 Rain 5 979 87 3900 12.3 230 17:56 08.12.2019
6543 Rain 5 979 87 10000 12.3 220 17:38 08.12.2019
6544 Rain 6 979 87 10000 12.3 220 17:19 08.12.2019
6545 Rain 6 979 87 10000 10.8 220 16:56 08.12.2019
6546 Rain 6 979 87 7000 11.3 230 16:38 08.12.2019
6547 Rain 6 979 87 7000 11.3 230 16:20 08.12.2019
6548 Rain 6 980 87 10000 11.8 220 15:54 08.12.2019
6549 Rain 6 980 87 10000 9.3 230 15:36 08.12.2019
6550 Rain 6 980 87 10000 9.3 230 15:18 08.12.2019
6551 Rain 6 981 87 10000 11.3 220 14:41 08.12.2019
6552 Rain 6 981 87 10000 11.3 220 14:22 08.12.2019
6553 Rain 6 981 87 10000 12.9 220 13:57 08.12.2019
6554 Rain 6 982 87 10000 9.8 210 13:38 08.12.2019
6555 Rain 6 982 87 10000 9.8 210 13:20 08.12.2019
6556 Rain 6 982 86 10000 8.7 230 12:54 08.12.2019
6557 Rain 6 983 81 10000 11.3 220 12:36 08.12.2019
6558 Rain 6 983 81 10000 11.3 220 12:18 08.12.2019
6559 Rain 6 983 87 7000 10.8 240 11:39 08.12.2019
6560 Rain 6 983 87 7000 10.8 240 11:39 08.12.2019
6561 Rain 6 983 87 7000 10.8 240 11:20 08.12.2019
6562 Rain 6 983 87 8000 10.3 220 10:59 08.12.2019
6563 Rain 6 983 87 10000 10.3 240 10:38 08.12.2019
6564 Rain 6 983 87 10000 10.3 240 10:20 08.12.2019
6565 Rain 5 983 87 10000 7.7 230 09:57 08.12.2019
6566 Rain 6 983 87 10000 7.7 230 09:57 08.12.2019
6567 Rain 5 983 87 10000 7.7 230 09:57 08.12.2019
6568 Rain 6 984 81 10000 7.2 230 09:38 08.12.2019
6569 Rain 6 984 81 10000 7.2 230 09:19 08.12.2019
6570 Rain 6 984 87 10000 10.3 240 08:58 08.12.2019
6571 Rain 6 984 81 7000 10.8 250 08:37 08.12.2019
6572 Rain 6 984 81 7000 10.8 250 08:19 08.12.2019
6573 Rain 6 984 81 10000 10.3 250 07:43 08.12.2019
6574 Rain 6 984 81 10000 8.2 240 07:20 08.12.2019
6575 Rain 6 984 75 10000 6.7 240 06:50 08.12.2019
6576 Rain 7 984 81 10000 8.2 270 06:22 08.12.2019
6577 Rain 7 984 75 10000 8.7 250 05:48 08.12.2019
6578 Rain 7 984 81 10000 6.2 250 05:18 08.12.2019
6579 Rain 8 984 81 10000 9.3 260 03:50 08.12.2019
6580 Rain 8 983 81 10000 8.2 260 03:22 08.12.2019
6581 Rain 9 983 87 10000 6.7 240 02:38 08.12.2019
6582 Rain 10 984 81 10000 10.3 260 01:54 08.12.2019
6583 Rain 10 983 93 4900 13.9 220 01:19 08.12.2019
6584 Rain 10 984 93 5000 13.4 210 00:40 08.12.2019
6585 Rain 10 984 93 5000 13.4 210 00:20 08.12.2019
6586 Drizzle 10 985 93 2700 12.3 200 23:40 07.12.2019
6587 Rain 10 986 93 5000 11.3 200 23:21 07.12.2019
6588 Rain 10 987 93 2300 10.8 210 22:56 07.12.2019
6589 Rain 10 988 93 3600 10.8 190 22:38 07.12.2019
6590 Rain 11 988 93 3600 10.8 190 22:20 07.12.2019
6591 Rain 11 989 93 7000 10.8 200 21:56 07.12.2019
6592 Rain 11 990 87 10000 11.3 200 21:38 07.12.2019
6593 Rain 11 990 87 10000 11.3 200 21:38 07.12.2019
6594 Rain 11 990 87 10000 11.3 200 21:19 07.12.2019
6595 Rain 11 992 93 5000 11.8 200 20:56 07.12.2019
6596 Rain 11 993 87 10000 10.8 190 20:36 07.12.2019
6597 Rain 11 993 87 10000 10.8 190 20:18 07.12.2019
6598 Rain 11 994 93 8000 9.3 200 19:56 07.12.2019
6599 Rain 11 995 93 7000 10.3 200 19:37 07.12.2019
6600 Rain 11 995 93 7000 10.3 200 19:19 07.12.2019
6601 Rain 10 996 87 10000 9.8 210 18:44 07.12.2019
6602 Rain 10 997 93 6000 10.8 210 18:19 07.12.2019
6603 Rain 10 997 93 5000 10.8 210 17:58 07.12.2019
6604 Rain 10 998 93 5000 10.8 210 17:39 07.12.2019
6605 Rain 10 998 93 5000 10.8 210 17:21 07.12.2019
6606 Rain 10 998 93 5000 10.8 210 16:56 07.12.2019
6607 Rain 10 998 93 5000 10.8 210 16:56 07.12.2019
6608 Rain 10 999 93 5000 10.3 210 16:37 07.12.2019
6609 Rain 9 999 93 5000 10.3 210 16:19 07.12.2019
6610 Rain 9 1000 93 5000 8.7 210 15:42 07.12.2019
6611 Rain 9 1000 93 5000 8.7 210 15:23 07.12.2019
6612 Rain 9 1000 93 5000 8.7 210 15:23 07.12.2019
6613 Rain 9 1001 93 5000 7.7 210 14:57 07.12.2019
6614 Rain 9 1001 93 5000 7.7 210 14:39 07.12.2019
6615 Drizzle 9 1001 93 5000 7.7 210 14:18 07.12.2019
6616 Drizzle 9 1002 93 4900 7.2 210 13:41 07.12.2019
6617 Clouds 9 1003 93 10000 7.2 210 13:21 07.12.2019
6618 Clouds 9 1003 93 10000 7.7 210 12:58 07.12.2019
6619 Clouds 9 1004 93 10000 6.2 210 12:40 07.12.2019
6620 Clouds 9 1004 93 10000 6.2 210 12:22 07.12.2019
6621 Clouds 9 1004 93 10000 7.7 210 11:57 07.12.2019
6622 Clouds 9 1004 93 10000 8.2 230 11:38 07.12.2019
6623 Clouds 8 1004 93 10000 8.2 230 11:20 07.12.2019
6624 Drizzle 8 1005 100 4100 4.6 230 10:38 07.12.2019
6625 Drizzle 8 1005 100 4100 4.6 230 10:19 07.12.2019
6626 Clouds 8 1005 93 10000 5.7 240 09:41 07.12.2019
6627 Clouds 8 1005 93 10000 5.7 240 09:22 07.12.2019
6628 Clouds 8 1005 93 10000 5.7 230 08:56 07.12.2019
6629 Clouds 8 1005 93 10000 4.6 230 08:37 07.12.2019
6630 Clouds 8 1005 93 10000 4.6 230 08:19 07.12.2019
6631 Clouds 8 1005 93 10000 5.1 230 07:44 07.12.2019
6632 Clouds 8 1005 87 10000 4.1 230 07:23 07.12.2019
6633 Clouds 8 1005 93 10000 4.1 230 06:45 07.12.2019
6634 Clouds 8 1005 87 10000 4.6 250 06:24 07.12.2019
6635 Clouds 8 1004 93 10000 5.1 230 05:19 07.12.2019
6636 Drizzle 8 1003 93 4600 5.1 250 03:54 07.12.2019
6637 Clouds 8 1003 93 10000 4.1 230 02:59 07.12.2019
6638 Clouds 7 1003 93 10000 4.1 240 02:21 07.12.2019
6639 Clouds 8 1002 93 10000 3.1 260 01:34 07.12.2019
6640 Clouds 8 1002 93 10000 3.6 230 00:52 07.12.2019
6641 Clouds 8 1002 87 10000 4.1 250 00:19 07.12.2019
6642 Clouds 8 1001 87 10000 5.1 240 23:48 06.12.2019
6643 Clouds 7 1001 87 10000 5.7 250 23:25 06.12.2019
6644 Clouds 8 1001 93 10000 4.1 240 22:59 06.12.2019
6645 Clouds 8 1000 87 10000 4.1 240 22:37 06.12.2019
6646 Clouds 8 1000 87 10000 4.1 240 22:19 06.12.2019
6647 Clouds 8 1000 93 10000 3.6 240 21:57 06.12.2019
6648 Rain 8 1000 93 10000 3.1 210 21:38 06.12.2019
6649 Rain 8 1000 93 10000 3.1 210 21:19 06.12.2019
6650 Clouds 8 999 87 10000 4.1 240 20:42 06.12.2019
6651 -273 0 0 0 0 0 20:23 06.12.2019
6652 Clouds 8 998 87 10000 5.1 250 19:58 06.12.2019
6653 Clouds 8 998 87 10000 5.7 250 19:39 06.12.2019
6654 Clouds 8 998 87 10000 5.7 250 19:21 06.12.2019
6655 Clouds 8 997 93 10000 4.6 250 18:55 06.12.2019
6656 Clouds 8 997 93 10000 4.6 250 18:55 06.12.2019
6657 Clouds 8 996 87 10000 5.7 250 18:36 06.12.2019
6658 Clouds 8 996 87 10000 5.7 250 18:18 06.12.2019
6659 Clouds 8 996 87 10000 5.7 260 17:55 06.12.2019
6660 Clouds 8 995 87 10000 6.2 230 17:37 06.12.2019
6661 Clouds 8 995 87 10000 6.2 230 17:19 06.12.2019
6662 Clouds 9 994 87 10000 5.7 250 16:42 06.12.2019
6663 Clouds 9 994 87 10000 5.7 250 16:23 06.12.2019
6664 Clouds 9 994 81 10000 5.1 260 15:56 06.12.2019
6665 Clouds 9 994 81 10000 5.1 250 15:38 06.12.2019
6666 Clouds 10 994 81 10000 5.1 250 15:18 06.12.2019
6667 Rain 9 993 93 10000 5.1 230 14:41 06.12.2019
6668 Rain 10 993 93 10000 5.1 230 14:20 06.12.2019
6669 Rain 10 993 87 10000 3.6 250 13:58 06.12.2019
6670 Rain 10 993 87 10000 3.1 260 13:40 06.12.2019
6671 Rain 10 993 87 10000 3.1 260 13:22 06.12.2019
6672 Rain 9 993 93 10000 3.1 280 12:41 06.12.2019
6673 Rain 9 993 87 10000 4.6 240 12:22 06.12.2019
6674 Clouds 10 993 87 10000 5.1 240 11:55 06.12.2019
6675 Clouds 10 993 87 10000 6.2 240 11:37 06.12.2019
6676 Clouds 10 993 87 10000 6.2 240 11:19 06.12.2019
6677 Clouds 10 992 87 10000 5.7 250 10:42 06.12.2019
6678 Rain 10 992 87 10000 5.1 250 10:21 06.12.2019
6679 Clouds 10 992 87 10000 5.7 250 09:56 06.12.2019
6680 Rain 11 991 87 10000 6.7 250 09:37 06.12.2019
6681 Rain 11 991 87 10000 6.7 250 09:19 06.12.2019
6682 Drizzle 11 992 93 4700 7.7 230 08:44 06.12.2019
6683 Drizzle 11 992 93 4700 7.7 230 08:44 06.12.2019
6684 Drizzle 11 992 93 4700 7.7 230 08:44 06.12.2019
6685 Rain 11 992 93 10000 7.7 220 08:25 06.12.2019
6686 Rain 11 992 93 7000 8.7 210 07:44 06.12.2019
6687 Drizzle 12 993 93 3500 7.7 220 07:23 06.12.2019
6688 Drizzle 12 993 93 3500 7.7 220 07:23 06.12.2019
6689 Drizzle 12 993 93 3500 7.7 220 07:23 06.12.2019
6690 Drizzle 12 993 93 3500 7.7 220 07:23 06.12.2019
6691 Drizzle 12 993 93 3500 7.7 220 07:23 06.12.2019
6692 Rain 12 993 93 10000 7.2 220 06:53 06.12.2019
6693 Drizzle 12 994 93 5000 8.7 230 06:26 06.12.2019
6694 Rain 11 994 93 9000 8.2 230 05:51 06.12.2019
6695 Clouds 11 995 93 10000 8.7 230 03:57 06.12.2019
6696 Clouds 11 996 93 10000 10.3 250 01:48 06.12.2019
6697 Clouds 11 997 93 9000 8.2 250 00:57 06.12.2019
6698 Clouds 11 997 93 8000 9.8 240 00:24 06.12.2019
6699 Clouds 12 997 93 9000 8.7 230 23:56 05.12.2019
6700 Clouds 12 996 93 10000 8.7 230 23:21 05.12.2019
6701 Rain 12 996 93 10000 7.7 230 22:59 05.12.2019
6702 Clouds 12 996 93 10000 8.2 230 22:39 05.12.2019
6703 Clouds 12 996 93 10000 8.2 230 22:39 05.12.2019
6704 Clouds 12 996 93 10000 8.2 230 22:20 05.12.2019
6705 Clouds 12 995 93 10000 8.7 240 21:58 05.12.2019
6706 Clouds 12 995 93 10000 8.7 240 21:58 05.12.2019
6707 Clouds 12 995 93 10000 8.7 240 21:58 05.12.2019
6708 Clouds 12 995 93 7000 9.8 240 21:40 05.12.2019
6709 Clouds 12 995 93 7000 9.8 240 21:22 05.12.2019
6710 Rain 12 994 93 8000 11.8 240 20:58 05.12.2019
6711 Rain 12 997 93 6000 10.3 210 20:39 05.12.2019
6712 Drizzle 12 994 93 4000 13.4 240 20:19 05.12.2019
6713 Rain 12 994 100 4400 10.3 230 19:43 05.12.2019
6714 Rain 12 994 100 4400 10.3 230 19:25 05.12.2019
6715 Rain 12 994 100 4000 11.8 220 18:59 05.12.2019
6716 Rain 12 994 100 5000 10.8 220 18:39 05.12.2019
6717 Drizzle 11 994 93 3800 10.8 210 18:20 05.12.2019
6718 Drizzle 11 994 93 3800 10.8 210 18:20 05.12.2019
6719 Drizzle 11 995 93 3600 12.9 210 17:57 05.12.2019
6720 Drizzle 11 995 93 3600 12.9 210 17:38 05.12.2019
6721 Rain 10 995 93 5000 12.3 210 17:18 05.12.2019
6722 Rain 10 995 93 8000 13.9 220 16:54 05.12.2019
6723 Rain 10 995 93 8000 13.9 220 16:36 05.12.2019
6724 Drizzle 9 996 100 3500 13.9 210 16:18 05.12.2019
6725 Rain 9 997 93 3400 13.9 210 15:40 05.12.2019
6726 Rain 9 998 93 3400 13.9 210 15:21 05.12.2019
6727 Rain 9 999 100 3800 14.9 210 14:57 05.12.2019
6728 Rain 9 999 100 3800 14.9 210 14:38 05.12.2019
6729 Rain 8 1000 93 5000 13.9 210 14:20 05.12.2019
6730 Rain 8 1000 93 5000 13.9 210 13:58 05.12.2019
6731 Rain 8 1001 93 5000 11.8 210 13:40 05.12.2019
6732 Rain 8 1002 93 5000 10.8 210 13:21 05.12.2019
6733 Rain 8 1002 93 5000 10.8 210 12:59 05.12.2019
6734 Rain 7 1003 93 3900 9.3 200 12:40 05.12.2019
6735 Rain 7 1004 87 6000 9.8 200 12:21 05.12.2019
6736 Rain 7 1005 87 7000 9.3 200 11:41 05.12.2019
6737 -273 0 0 0 0 0 11:23 05.12.2019
6738 Rain 8 1006 87 7000 9.3 210 10:59 05.12.2019
6739 Rain 8 1007 87 10000 9.3 210 10:41 05.12.2019
6740 Rain 8 1007 87 10000 10.3 220 10:19 05.12.2019
6741 Rain 7 1007 87 10000 10.3 220 09:57 05.12.2019
6742 C